<?xml version="1.0" encoding="UTF-8" standalone="no" ?>
<gpx xmlns="http://www.topografix.com/GPX/1/1" xmlns:xsi="http://www.w3.org/2001/XMLSchema-instance" xsi:schemaLocation="http://www.topografix.com/GPX/1/1 http://www.topografix.com/GPX/1/1/gpx.xsd" version="1.1" creator="VisuGPX - https://www.visugpx.com">
  <metadata>
    <name>JuinApresmidi</name>
    <desc><![CDATA[2 éme partie tour du Beaujolais vert au départ St Just d'Avray]]></desc>
  </metadata>
  <trk>
    <name><![CDATA[TestJuinApresmidi]]></name>
    <extensions>
      <line xmlns="http://www.topografix.com/GPX/gpx_style/0/2">
        <color>0000FF</color>
        <width>4</width>
      </line>
    </extensions>
    <trkseg>
      <trkpt lat="46.00585" lon="4.45687">
        <ele>454.57</ele>
        <time>2023-11-14T18:01:30.000Z</time>
      </trkpt>
      <trkpt lat="46.00585" lon="4.4568">
        <ele>455.06</ele>
        <time>2023-11-14T18:01:30.001Z</time>
      </trkpt>
      <trkpt lat="46.00584" lon="4.45648">
        <ele>455.55</ele>
        <time>2023-11-14T18:01:30.005Z</time>
      </trkpt>
      <trkpt lat="46.00584" lon="4.45648">
        <ele>456.25</ele>
        <time>2023-11-14T18:01:30.009Z</time>
      </trkpt>
      <trkpt lat="46.00581" lon="4.45584">
        <ele>457.29</ele>
        <time>2023-11-14T18:01:30.021Z</time>
      </trkpt>
      <trkpt lat="46.00589" lon="4.45495">
        <ele>458.35</ele>
        <time>2023-11-14T18:01:30.043Z</time>
      </trkpt>
      <trkpt lat="46.00591" lon="4.45457">
        <ele>459.94</ele>
        <time>2023-11-14T18:01:30.069Z</time>
      </trkpt>
      <trkpt lat="46.00589" lon="4.45413">
        <ele>462.07</ele>
        <time>2023-11-14T18:01:30.100Z</time>
      </trkpt>
      <trkpt lat="46.00584" lon="4.45363">
        <ele>463.89</ele>
        <time>2023-11-14T18:01:30.136Z</time>
      </trkpt>
      <trkpt lat="46.00571" lon="4.45283">
        <ele>465.12</ele>
        <time>2023-11-14T18:01:30.182Z</time>
      </trkpt>
      <trkpt lat="46.00567" lon="4.45254">
        <ele>465.99</ele>
        <time>2023-11-14T18:01:30.231Z</time>
      </trkpt>
      <trkpt lat="46.00567" lon="4.45222">
        <ele>466.82</ele>
        <time>2023-11-14T18:01:30.283Z</time>
      </trkpt>
      <trkpt lat="46.00572" lon="4.45167">
        <ele>467.28</ele>
        <time>2023-11-14T18:01:30.342Z</time>
      </trkpt>
      <trkpt lat="46.00578" lon="4.4513">
        <ele>467.62</ele>
        <time>2023-11-14T18:01:30.405Z</time>
      </trkpt>
      <trkpt lat="46.00599" lon="4.4504">
        <ele>467.88</ele>
        <time>2023-11-14T18:01:30.478Z</time>
      </trkpt>
      <trkpt lat="46.00608" lon="4.44998">
        <ele>468.04</ele>
        <time>2023-11-14T18:01:30.556Z</time>
      </trkpt>
      <trkpt lat="46.00614" lon="4.44957">
        <ele>468.27</ele>
        <time>2023-11-14T18:01:30.639Z</time>
      </trkpt>
      <trkpt lat="46.00613" lon="4.44931">
        <ele>468.33</ele>
        <time>2023-11-14T18:01:30.725Z</time>
      </trkpt>
      <trkpt lat="46.0061" lon="4.44913">
        <ele>468.35</ele>
        <time>2023-11-14T18:01:30.813Z</time>
      </trkpt>
      <trkpt lat="46.00604" lon="4.44896">
        <ele>468.31</ele>
        <time>2023-11-14T18:01:30.903Z</time>
      </trkpt>
      <trkpt lat="46.00598" lon="4.44885">
        <ele>468.22</ele>
        <time>2023-11-14T18:01:30.995Z</time>
      </trkpt>
      <trkpt lat="46.00588" lon="4.44873">
        <ele>468.13</ele>
        <time>2023-11-14T18:01:31.089Z</time>
      </trkpt>
      <trkpt lat="46.00576" lon="4.44866">
        <ele>468.06</ele>
        <time>2023-11-14T18:01:31.185Z</time>
      </trkpt>
      <trkpt lat="46.00563" lon="4.44861">
        <ele>468.13</ele>
        <time>2023-11-14T18:01:31.283Z</time>
      </trkpt>
      <trkpt lat="46.00547" lon="4.44857">
        <ele>468.4</ele>
        <time>2023-11-14T18:01:31.383Z</time>
      </trkpt>
      <trkpt lat="46.00528" lon="4.44859">
        <ele>468.87</ele>
        <time>2023-11-14T18:01:31.487Z</time>
      </trkpt>
      <trkpt lat="46.0052" lon="4.44864">
        <ele>469.41</ele>
        <time>2023-11-14T18:01:31.592Z</time>
      </trkpt>
      <trkpt lat="46.00514" lon="4.44871">
        <ele>470.06</ele>
        <time>2023-11-14T18:01:31.698Z</time>
      </trkpt>
      <trkpt lat="46.00509" lon="4.44879">
        <ele>471.03</ele>
        <time>2023-11-14T18:01:31.805Z</time>
      </trkpt>
      <trkpt lat="46.005" lon="4.44902">
        <ele>472.39</ele>
        <time>2023-11-14T18:01:31.915Z</time>
      </trkpt>
      <trkpt lat="46.00477" lon="4.44982">
        <ele>474.62</ele>
        <time>2023-11-14T18:01:32.035Z</time>
      </trkpt>
      <trkpt lat="46.00457" lon="4.45061">
        <ele>476.61</ele>
        <time>2023-11-14T18:01:32.164Z</time>
      </trkpt>
      <trkpt lat="46.00451" lon="4.45083">
        <ele>478.95</ele>
        <time>2023-11-14T18:01:32.296Z</time>
      </trkpt>
      <trkpt lat="46.00439" lon="4.45108">
        <ele>481.93</ele>
        <time>2023-11-14T18:01:32.431Z</time>
      </trkpt>
      <trkpt lat="46.00388" lon="4.45208">
        <ele>486.91</ele>
        <time>2023-11-14T18:01:32.580Z</time>
      </trkpt>
      <trkpt lat="46.00364" lon="4.45236">
        <ele>489.97</ele>
        <time>2023-11-14T18:01:32.734Z</time>
      </trkpt>
      <trkpt lat="46.00361" lon="4.45241">
        <ele>496.27</ele>
        <time>2023-11-14T18:01:32.889Z</time>
      </trkpt>
      <trkpt lat="46.0035" lon="4.45257">
        <ele>497.2</ele>
        <time>2023-11-14T18:01:33.046Z</time>
      </trkpt>
      <trkpt lat="46.00338" lon="4.4528">
        <ele>498.04</ele>
        <time>2023-11-14T18:01:33.207Z</time>
      </trkpt>
      <trkpt lat="46.00301" lon="4.45359">
        <ele>499.06</ele>
        <time>2023-11-14T18:01:33.378Z</time>
      </trkpt>
      <trkpt lat="46.00288" lon="4.45384">
        <ele>500.28</ele>
        <time>2023-11-14T18:01:33.553Z</time>
      </trkpt>
      <trkpt lat="46.00279" lon="4.45395">
        <ele>501.63</ele>
        <time>2023-11-14T18:01:33.730Z</time>
      </trkpt>
      <trkpt lat="46.00271" lon="4.45399">
        <ele>503.18</ele>
        <time>2023-11-14T18:01:33.908Z</time>
      </trkpt>
      <trkpt lat="46.00261" lon="4.45398">
        <ele>504.9</ele>
        <time>2023-11-14T18:01:34.088Z</time>
      </trkpt>
      <trkpt lat="46.00256" lon="4.45394">
        <ele>506.78</ele>
        <time>2023-11-14T18:01:34.269Z</time>
      </trkpt>
      <trkpt lat="46.00247" lon="4.45378">
        <ele>509.08</ele>
        <time>2023-11-14T18:01:34.452Z</time>
      </trkpt>
      <trkpt lat="46.0023" lon="4.45309">
        <ele>512.11</ele>
        <time>2023-11-14T18:01:34.643Z</time>
      </trkpt>
      <trkpt lat="46.00216" lon="4.45262">
        <ele>515.15</ele>
        <time>2023-11-14T18:01:34.840Z</time>
      </trkpt>
      <trkpt lat="46.00196" lon="4.45217">
        <ele>518.31</ele>
        <time>2023-11-14T18:01:35.043Z</time>
      </trkpt>
      <trkpt lat="46.00167" lon="4.45178">
        <ele>521.15</ele>
        <time>2023-11-14T18:01:35.252Z</time>
      </trkpt>
      <trkpt lat="46.00167" lon="4.45178">
        <ele>523.56</ele>
        <time>2023-11-14T18:01:35.461Z</time>
      </trkpt>
      <trkpt lat="46.00141" lon="4.45137">
        <ele>526.31</ele>
        <time>2023-11-14T18:01:35.676Z</time>
      </trkpt>
      <trkpt lat="46.00132" lon="4.45117">
        <ele>528.58</ele>
        <time>2023-11-14T18:01:35.894Z</time>
      </trkpt>
      <trkpt lat="46.00128" lon="4.45102">
        <ele>530.59</ele>
        <time>2023-11-14T18:01:36.114Z</time>
      </trkpt>
      <trkpt lat="46.00123" lon="4.45074">
        <ele>532.42</ele>
        <time>2023-11-14T18:01:36.337Z</time>
      </trkpt>
      <trkpt lat="46.00119" lon="4.4504">
        <ele>534.05</ele>
        <time>2023-11-14T18:01:36.564Z</time>
      </trkpt>
      <trkpt lat="46.00122" lon="4.45009">
        <ele>535.46</ele>
        <time>2023-11-14T18:01:36.794Z</time>
      </trkpt>
      <trkpt lat="46.00132" lon="4.44955">
        <ele>537.25</ele>
        <time>2023-11-14T18:01:37.030Z</time>
      </trkpt>
      <trkpt lat="46.00133" lon="4.4494">
        <ele>538.75</ele>
        <time>2023-11-14T18:01:37.268Z</time>
      </trkpt>
      <trkpt lat="46.00132" lon="4.44922">
        <ele>540.17</ele>
        <time>2023-11-14T18:01:37.508Z</time>
      </trkpt>
      <trkpt lat="46.00128" lon="4.44903">
        <ele>541.56</ele>
        <time>2023-11-14T18:01:37.750Z</time>
      </trkpt>
      <trkpt lat="46.00122" lon="4.44885">
        <ele>542.91</ele>
        <time>2023-11-14T18:01:37.995Z</time>
      </trkpt>
      <trkpt lat="46.00107" lon="4.44849">
        <ele>544.31</ele>
        <time>2023-11-14T18:01:38.244Z</time>
      </trkpt>
      <trkpt lat="46.001" lon="4.4482">
        <ele>545.63</ele>
        <time>2023-11-14T18:01:38.497Z</time>
      </trkpt>
      <trkpt lat="46.001" lon="4.44791">
        <ele>546.95</ele>
        <time>2023-11-14T18:01:38.753Z</time>
      </trkpt>
      <trkpt lat="46.00103" lon="4.44768">
        <ele>548.23</ele>
        <time>2023-11-14T18:01:39.011Z</time>
      </trkpt>
      <trkpt lat="46.00108" lon="4.44753">
        <ele>549.5</ele>
        <time>2023-11-14T18:01:39.271Z</time>
      </trkpt>
      <trkpt lat="46.00114" lon="4.44735">
        <ele>550.89</ele>
        <time>2023-11-14T18:01:39.534Z</time>
      </trkpt>
      <trkpt lat="46.00127" lon="4.44707">
        <ele>552.14</ele>
        <time>2023-11-14T18:01:39.800Z</time>
      </trkpt>
      <trkpt lat="46.00134" lon="4.4469">
        <ele>553.1</ele>
        <time>2023-11-14T18:01:40.069Z</time>
      </trkpt>
      <trkpt lat="46.00134" lon="4.4469">
        <ele>554.05</ele>
        <time>2023-11-14T18:01:40.338Z</time>
      </trkpt>
      <trkpt lat="46.00171" lon="4.44626">
        <ele>555.02</ele>
        <time>2023-11-14T18:01:40.616Z</time>
      </trkpt>
      <trkpt lat="46.00198" lon="4.44585">
        <ele>556.03</ele>
        <time>2023-11-14T18:01:40.900Z</time>
      </trkpt>
      <trkpt lat="46.00216" lon="4.44556">
        <ele>556.74</ele>
        <time>2023-11-14T18:01:41.188Z</time>
      </trkpt>
      <trkpt lat="46.00223" lon="4.44543">
        <ele>557.15</ele>
        <time>2023-11-14T18:01:41.478Z</time>
      </trkpt>
      <trkpt lat="46.00227" lon="4.44536">
        <ele>557.38</ele>
        <time>2023-11-14T18:01:41.769Z</time>
      </trkpt>
      <trkpt lat="46.00231" lon="4.44527">
        <ele>557.4</ele>
        <time>2023-11-14T18:01:42.061Z</time>
      </trkpt>
      <trkpt lat="46.00237" lon="4.44535">
        <ele>557.2</ele>
        <time>2023-11-14T18:01:42.355Z</time>
      </trkpt>
      <trkpt lat="46.00247" lon="4.44542">
        <ele>556.7</ele>
        <time>2023-11-14T18:01:42.651Z</time>
      </trkpt>
      <trkpt lat="46.00254" lon="4.44543">
        <ele>556</ele>
        <time>2023-11-14T18:01:42.948Z</time>
      </trkpt>
      <trkpt lat="46.00258" lon="4.44541">
        <ele>555.11</ele>
        <time>2023-11-14T18:01:43.245Z</time>
      </trkpt>
      <trkpt lat="46.00274" lon="4.44508">
        <ele>553.77</ele>
        <time>2023-11-14T18:01:43.547Z</time>
      </trkpt>
      <trkpt lat="46.00298" lon="4.44451">
        <ele>552.43</ele>
        <time>2023-11-14T18:01:43.856Z</time>
      </trkpt>
      <trkpt lat="46.00305" lon="4.4444">
        <ele>550.9</ele>
        <time>2023-11-14T18:01:44.167Z</time>
      </trkpt>
      <trkpt lat="46.00353" lon="4.44407">
        <ele>548.73</ele>
        <time>2023-11-14T18:01:44.487Z</time>
      </trkpt>
      <trkpt lat="46.00367" lon="4.44393">
        <ele>546.63</ele>
        <time>2023-11-14T18:01:44.809Z</time>
      </trkpt>
      <trkpt lat="46.00402" lon="4.44347">
        <ele>544.36</ele>
        <time>2023-11-14T18:01:45.139Z</time>
      </trkpt>
      <trkpt lat="46.00448" lon="4.44285">
        <ele>541.78</ele>
        <time>2023-11-14T18:01:45.479Z</time>
      </trkpt>
      <trkpt lat="46.00458" lon="4.44265">
        <ele>539.75</ele>
        <time>2023-11-14T18:01:45.822Z</time>
      </trkpt>
      <trkpt lat="46.00466" lon="4.44246">
        <ele>537.92</ele>
        <time>2023-11-14T18:01:46.167Z</time>
      </trkpt>
      <trkpt lat="46.00472" lon="4.44223">
        <ele>536.19</ele>
        <time>2023-11-14T18:01:46.515Z</time>
      </trkpt>
      <trkpt lat="46.00488" lon="4.44145">
        <ele>534.37</ele>
        <time>2023-11-14T18:01:46.872Z</time>
      </trkpt>
      <trkpt lat="46.00488" lon="4.44145">
        <ele>532.6</ele>
        <time>2023-11-14T18:01:47.229Z</time>
      </trkpt>
      <trkpt lat="46.00497" lon="4.44114">
        <ele>530.64</ele>
        <time>2023-11-14T18:01:47.590Z</time>
      </trkpt>
      <trkpt lat="46.00505" lon="4.44093">
        <ele>528.53</ele>
        <time>2023-11-14T18:01:47.953Z</time>
      </trkpt>
      <trkpt lat="46.00525" lon="4.44061">
        <ele>526.36</ele>
        <time>2023-11-14T18:01:48.321Z</time>
      </trkpt>
      <trkpt lat="46.00566" lon="4.44012">
        <ele>524.53</ele>
        <time>2023-11-14T18:01:48.698Z</time>
      </trkpt>
      <trkpt lat="46.00573" lon="4.44004">
        <ele>520.23</ele>
        <time>2023-11-14T18:01:49.076Z</time>
      </trkpt>
      <trkpt lat="46.00595" lon="4.43981">
        <ele>520</ele>
        <time>2023-11-14T18:01:49.458Z</time>
      </trkpt>
      <trkpt lat="46.00643" lon="4.43939">
        <ele>519.15</ele>
        <time>2023-11-14T18:01:49.849Z</time>
      </trkpt>
      <trkpt lat="46.00643" lon="4.43939">
        <ele>518.84</ele>
        <time>2023-11-14T18:01:50.240Z</time>
      </trkpt>
      <trkpt lat="46.00659" lon="4.43914">
        <ele>518.7</ele>
        <time>2023-11-14T18:01:50.635Z</time>
      </trkpt>
      <trkpt lat="46.00676" lon="4.43876">
        <ele>518.93</ele>
        <time>2023-11-14T18:01:51.035Z</time>
      </trkpt>
      <trkpt lat="46.00676" lon="4.43876">
        <ele>519.23</ele>
        <time>2023-11-14T18:01:51.435Z</time>
      </trkpt>
      <trkpt lat="46.00702" lon="4.43812">
        <ele>519.78</ele>
        <time>2023-11-14T18:01:51.844Z</time>
      </trkpt>
      <trkpt lat="46.00707" lon="4.43796">
        <ele>520.39</ele>
        <time>2023-11-14T18:01:52.255Z</time>
      </trkpt>
      <trkpt lat="46.00717" lon="4.43758">
        <ele>521.34</ele>
        <time>2023-11-14T18:01:52.670Z</time>
      </trkpt>
      <trkpt lat="46.00721" lon="4.4375">
        <ele>522.09</ele>
        <time>2023-11-14T18:01:53.086Z</time>
      </trkpt>
      <trkpt lat="46.00734" lon="4.43741">
        <ele>522.82</ele>
        <time>2023-11-14T18:01:53.504Z</time>
      </trkpt>
      <trkpt lat="46.00734" lon="4.43741">
        <ele>523.45</ele>
        <time>2023-11-14T18:01:53.922Z</time>
      </trkpt>
      <trkpt lat="46.00753" lon="4.43737">
        <ele>524.2</ele>
        <time>2023-11-14T18:01:54.344Z</time>
      </trkpt>
      <trkpt lat="46.0076" lon="4.43739">
        <ele>524.85</ele>
        <time>2023-11-14T18:01:54.767Z</time>
      </trkpt>
      <trkpt lat="46.0076" lon="4.43739">
        <ele>525.43</ele>
        <time>2023-11-14T18:01:55.190Z</time>
      </trkpt>
      <trkpt lat="46.00766" lon="4.43758">
        <ele>526.06</ele>
        <time>2023-11-14T18:01:55.615Z</time>
      </trkpt>
      <trkpt lat="46.00774" lon="4.43853">
        <ele>526.61</ele>
        <time>2023-11-14T18:01:56.051Z</time>
      </trkpt>
      <trkpt lat="46.00776" lon="4.43873">
        <ele>527.2</ele>
        <time>2023-11-14T18:01:56.489Z</time>
      </trkpt>
      <trkpt lat="46.00782" lon="4.43895">
        <ele>527.91</ele>
        <time>2023-11-14T18:01:56.930Z</time>
      </trkpt>
      <trkpt lat="46.00806" lon="4.43961">
        <ele>528.67</ele>
        <time>2023-11-14T18:01:57.379Z</time>
      </trkpt>
      <trkpt lat="46.00815" lon="4.43991">
        <ele>529.4</ele>
        <time>2023-11-14T18:01:57.831Z</time>
      </trkpt>
      <trkpt lat="46.00815" lon="4.43991">
        <ele>530.12</ele>
        <time>2023-11-14T18:01:58.283Z</time>
      </trkpt>
      <trkpt lat="46.00819" lon="4.44012">
        <ele>531.05</ele>
        <time>2023-11-14T18:01:58.738Z</time>
      </trkpt>
      <trkpt lat="46.00821" lon="4.44038">
        <ele>532.07</ele>
        <time>2023-11-14T18:01:59.196Z</time>
      </trkpt>
      <trkpt lat="46.00821" lon="4.44076">
        <ele>533.04</ele>
        <time>2023-11-14T18:01:59.658Z</time>
      </trkpt>
      <trkpt lat="46.0081" lon="4.44256">
        <ele>533.82</ele>
        <time>2023-11-14T18:02:00.140Z</time>
      </trkpt>
      <trkpt lat="46.00811" lon="4.44275">
        <ele>534.55</ele>
        <time>2023-11-14T18:02:00.624Z</time>
      </trkpt>
      <trkpt lat="46.00815" lon="4.44289">
        <ele>535.31</ele>
        <time>2023-11-14T18:02:01.110Z</time>
      </trkpt>
      <trkpt lat="46.00819" lon="4.44299">
        <ele>536.13</ele>
        <time>2023-11-14T18:02:01.597Z</time>
      </trkpt>
      <trkpt lat="46.00824" lon="4.44308">
        <ele>536.97</ele>
        <time>2023-11-14T18:02:02.086Z</time>
      </trkpt>
      <trkpt lat="46.00833" lon="4.44314">
        <ele>537.9</ele>
        <time>2023-11-14T18:02:02.576Z</time>
      </trkpt>
      <trkpt lat="46.00844" lon="4.44319">
        <ele>538.93</ele>
        <time>2023-11-14T18:02:03.068Z</time>
      </trkpt>
      <trkpt lat="46.00897" lon="4.44327">
        <ele>540.45</ele>
        <time>2023-11-14T18:02:03.569Z</time>
      </trkpt>
      <trkpt lat="46.00906" lon="4.44332">
        <ele>541.23</ele>
        <time>2023-11-14T18:02:04.071Z</time>
      </trkpt>
      <trkpt lat="46.00912" lon="4.44337">
        <ele>541.93</ele>
        <time>2023-11-14T18:02:04.574Z</time>
      </trkpt>
      <trkpt lat="46.00915" lon="4.44346">
        <ele>542.52</ele>
        <time>2023-11-14T18:02:05.078Z</time>
      </trkpt>
      <trkpt lat="46.00921" lon="4.44369">
        <ele>543.06</ele>
        <time>2023-11-14T18:02:05.585Z</time>
      </trkpt>
      <trkpt lat="46.0092" lon="4.44381">
        <ele>543.59</ele>
        <time>2023-11-14T18:02:06.093Z</time>
      </trkpt>
      <trkpt lat="46.00909" lon="4.44417">
        <ele>544.13</ele>
        <time>2023-11-14T18:02:06.606Z</time>
      </trkpt>
      <trkpt lat="46.00893" lon="4.44464">
        <ele>544.66</ele>
        <time>2023-11-14T18:02:07.125Z</time>
      </trkpt>
      <trkpt lat="46.00877" lon="4.44524">
        <ele>545.25</ele>
        <time>2023-11-14T18:02:07.651Z</time>
      </trkpt>
      <trkpt lat="46.00873" lon="4.44552">
        <ele>546.22</ele>
        <time>2023-11-14T18:02:08.180Z</time>
      </trkpt>
      <trkpt lat="46.0087" lon="4.44574">
        <ele>547.14</ele>
        <time>2023-11-14T18:02:08.711Z</time>
      </trkpt>
      <trkpt lat="46.00871" lon="4.44641">
        <ele>548.57</ele>
        <time>2023-11-14T18:02:09.250Z</time>
      </trkpt>
      <trkpt lat="46.00876" lon="4.44678">
        <ele>549.64</ele>
        <time>2023-11-14T18:02:09.793Z</time>
      </trkpt>
      <trkpt lat="46.00881" lon="4.44709">
        <ele>550.34</ele>
        <time>2023-11-14T18:02:10.340Z</time>
      </trkpt>
      <trkpt lat="46.00884" lon="4.44721">
        <ele>550.93</ele>
        <time>2023-11-14T18:02:10.888Z</time>
      </trkpt>
      <trkpt lat="46.00891" lon="4.44754">
        <ele>550.9</ele>
        <time>2023-11-14T18:02:11.440Z</time>
      </trkpt>
      <trkpt lat="46.00911" lon="4.44828">
        <ele>550.99</ele>
        <time>2023-11-14T18:02:12.001Z</time>
      </trkpt>
      <trkpt lat="46.00921" lon="4.44849">
        <ele>550.76</ele>
        <time>2023-11-14T18:02:12.565Z</time>
      </trkpt>
      <trkpt lat="46.00921" lon="4.44849">
        <ele>550.57</ele>
        <time>2023-11-14T18:02:13.129Z</time>
      </trkpt>
      <trkpt lat="46.00928" lon="4.44865">
        <ele>550.21</ele>
        <time>2023-11-14T18:02:13.695Z</time>
      </trkpt>
      <trkpt lat="46.00949" lon="4.44895">
        <ele>550.15</ele>
        <time>2023-11-14T18:02:14.265Z</time>
      </trkpt>
      <trkpt lat="46.00977" lon="4.44943">
        <ele>550.05</ele>
        <time>2023-11-14T18:02:14.842Z</time>
      </trkpt>
      <trkpt lat="46.00983" lon="4.44954">
        <ele>549.88</ele>
        <time>2023-11-14T18:02:15.421Z</time>
      </trkpt>
      <trkpt lat="46.01017" lon="4.45018">
        <ele>548.94</ele>
        <time>2023-11-14T18:02:16.009Z</time>
      </trkpt>
      <trkpt lat="46.01027" lon="4.45028">
        <ele>548.54</ele>
        <time>2023-11-14T18:02:16.599Z</time>
      </trkpt>
      <trkpt lat="46.0104" lon="4.45034">
        <ele>548.33</ele>
        <time>2023-11-14T18:02:17.191Z</time>
      </trkpt>
      <trkpt lat="46.01047" lon="4.45032">
        <ele>548.39</ele>
        <time>2023-11-14T18:02:17.784Z</time>
      </trkpt>
      <trkpt lat="46.01055" lon="4.45027">
        <ele>548.57</ele>
        <time>2023-11-14T18:02:18.379Z</time>
      </trkpt>
      <trkpt lat="46.01061" lon="4.45013">
        <ele>549.01</ele>
        <time>2023-11-14T18:02:18.976Z</time>
      </trkpt>
      <trkpt lat="46.01068" lon="4.44953">
        <ele>550.1</ele>
        <time>2023-11-14T18:02:19.579Z</time>
      </trkpt>
      <trkpt lat="46.01076" lon="4.44926">
        <ele>551</ele>
        <time>2023-11-14T18:02:20.186Z</time>
      </trkpt>
      <trkpt lat="46.01091" lon="4.44898">
        <ele>552.05</ele>
        <time>2023-11-14T18:02:20.797Z</time>
      </trkpt>
      <trkpt lat="46.01108" lon="4.44879">
        <ele>553.31</ele>
        <time>2023-11-14T18:02:21.411Z</time>
      </trkpt>
      <trkpt lat="46.01128" lon="4.44865">
        <ele>554.62</ele>
        <time>2023-11-14T18:02:22.029Z</time>
      </trkpt>
      <trkpt lat="46.0115" lon="4.44856">
        <ele>555.54</ele>
        <time>2023-11-14T18:02:22.650Z</time>
      </trkpt>
      <trkpt lat="46.01163" lon="4.44855">
        <ele>555.98</ele>
        <time>2023-11-14T18:02:23.273Z</time>
      </trkpt>
      <trkpt lat="46.01182" lon="4.44849">
        <ele>556.17</ele>
        <time>2023-11-14T18:02:23.899Z</time>
      </trkpt>
      <trkpt lat="46.01182" lon="4.44849">
        <ele>556.41</ele>
        <time>2023-11-14T18:02:24.525Z</time>
      </trkpt>
      <trkpt lat="46.01196" lon="4.44838">
        <ele>556.42</ele>
        <time>2023-11-14T18:02:25.154Z</time>
      </trkpt>
      <trkpt lat="46.01208" lon="4.44826">
        <ele>556.33</ele>
        <time>2023-11-14T18:02:25.785Z</time>
      </trkpt>
      <trkpt lat="46.01224" lon="4.448">
        <ele>556.32</ele>
        <time>2023-11-14T18:02:26.420Z</time>
      </trkpt>
      <trkpt lat="46.01244" lon="4.44765">
        <ele>556.16</ele>
        <time>2023-11-14T18:02:27.060Z</time>
      </trkpt>
      <trkpt lat="46.0127" lon="4.44702">
        <ele>556.13</ele>
        <time>2023-11-14T18:02:27.708Z</time>
      </trkpt>
      <trkpt lat="46.01286" lon="4.44658">
        <ele>556.18</ele>
        <time>2023-11-14T18:02:28.362Z</time>
      </trkpt>
      <trkpt lat="46.01294" lon="4.44638">
        <ele>556.52</ele>
        <time>2023-11-14T18:02:29.018Z</time>
      </trkpt>
      <trkpt lat="46.01304" lon="4.44623">
        <ele>556.91</ele>
        <time>2023-11-14T18:02:29.677Z</time>
      </trkpt>
      <trkpt lat="46.01316" lon="4.44609">
        <ele>557.54</ele>
        <time>2023-11-14T18:02:30.338Z</time>
      </trkpt>
      <trkpt lat="46.01327" lon="4.44599">
        <ele>558.21</ele>
        <time>2023-11-14T18:02:31.001Z</time>
      </trkpt>
      <trkpt lat="46.01344" lon="4.44592">
        <ele>558.97</ele>
        <time>2023-11-14T18:02:31.667Z</time>
      </trkpt>
      <trkpt lat="46.01352" lon="4.44591">
        <ele>559.73</ele>
        <time>2023-11-14T18:02:32.334Z</time>
      </trkpt>
      <trkpt lat="46.01366" lon="4.44598">
        <ele>560.54</ele>
        <time>2023-11-14T18:02:33.004Z</time>
      </trkpt>
      <trkpt lat="46.01374" lon="4.44606">
        <ele>561.32</ele>
        <time>2023-11-14T18:02:33.675Z</time>
      </trkpt>
      <trkpt lat="46.01389" lon="4.44633">
        <ele>562.2</ele>
        <time>2023-11-14T18:02:34.350Z</time>
      </trkpt>
      <trkpt lat="46.01415" lon="4.447">
        <ele>563.06</ele>
        <time>2023-11-14T18:02:35.034Z</time>
      </trkpt>
      <trkpt lat="46.01423" lon="4.44716">
        <ele>563.94</ele>
        <time>2023-11-14T18:02:35.720Z</time>
      </trkpt>
      <trkpt lat="46.01434" lon="4.44731">
        <ele>564.81</ele>
        <time>2023-11-14T18:02:36.408Z</time>
      </trkpt>
      <trkpt lat="46.01443" lon="4.44742">
        <ele>565.68</ele>
        <time>2023-11-14T18:02:37.098Z</time>
      </trkpt>
      <trkpt lat="46.01458" lon="4.44752">
        <ele>566.63</ele>
        <time>2023-11-14T18:02:37.791Z</time>
      </trkpt>
      <trkpt lat="46.01473" lon="4.44754">
        <ele>567.76</ele>
        <time>2023-11-14T18:02:38.486Z</time>
      </trkpt>
      <trkpt lat="46.01508" lon="4.4475">
        <ele>569.1</ele>
        <time>2023-11-14T18:02:39.187Z</time>
      </trkpt>
      <trkpt lat="46.01529" lon="4.44752">
        <ele>570.15</ele>
        <time>2023-11-14T18:02:39.891Z</time>
      </trkpt>
      <trkpt lat="46.0155" lon="4.44761">
        <ele>571.13</ele>
        <time>2023-11-14T18:02:40.599Z</time>
      </trkpt>
      <trkpt lat="46.01583" lon="4.44779">
        <ele>572.22</ele>
        <time>2023-11-14T18:02:41.312Z</time>
      </trkpt>
      <trkpt lat="46.0159" lon="4.44783">
        <ele>573.1</ele>
        <time>2023-11-14T18:02:42.027Z</time>
      </trkpt>
      <trkpt lat="46.01598" lon="4.44792">
        <ele>573.91</ele>
        <time>2023-11-14T18:02:42.743Z</time>
      </trkpt>
      <trkpt lat="46.01602" lon="4.44809">
        <ele>574.66</ele>
        <time>2023-11-14T18:02:43.461Z</time>
      </trkpt>
      <trkpt lat="46.01602" lon="4.4482">
        <ele>575.38</ele>
        <time>2023-11-14T18:02:44.180Z</time>
      </trkpt>
      <trkpt lat="46.016" lon="4.44832">
        <ele>576.04</ele>
        <time>2023-11-14T18:02:44.901Z</time>
      </trkpt>
      <trkpt lat="46.01594" lon="4.44849">
        <ele>576.71</ele>
        <time>2023-11-14T18:02:45.624Z</time>
      </trkpt>
      <trkpt lat="46.01594" lon="4.44849">
        <ele>577.35</ele>
        <time>2023-11-14T18:02:46.347Z</time>
      </trkpt>
      <trkpt lat="46.01554" lon="4.44941">
        <ele>578.13</ele>
        <time>2023-11-14T18:02:47.082Z</time>
      </trkpt>
      <trkpt lat="46.01531" lon="4.4499">
        <ele>578.79</ele>
        <time>2023-11-14T18:02:47.824Z</time>
      </trkpt>
      <trkpt lat="46.01526" lon="4.4501">
        <ele>579.46</ele>
        <time>2023-11-14T18:02:48.568Z</time>
      </trkpt>
      <trkpt lat="46.01525" lon="4.45035">
        <ele>580.29</ele>
        <time>2023-11-14T18:02:49.315Z</time>
      </trkpt>
      <trkpt lat="46.01527" lon="4.45053">
        <ele>581.08</ele>
        <time>2023-11-14T18:02:50.064Z</time>
      </trkpt>
      <trkpt lat="46.01532" lon="4.45075">
        <ele>581.88</ele>
        <time>2023-11-14T18:02:50.815Z</time>
      </trkpt>
      <trkpt lat="46.01542" lon="4.45098">
        <ele>582.78</ele>
        <time>2023-11-14T18:02:51.569Z</time>
      </trkpt>
      <trkpt lat="46.01554" lon="4.45117">
        <ele>583.72</ele>
        <time>2023-11-14T18:02:52.326Z</time>
      </trkpt>
      <trkpt lat="46.01571" lon="4.45139">
        <ele>584.75</ele>
        <time>2023-11-14T18:02:53.087Z</time>
      </trkpt>
      <trkpt lat="46.01584" lon="4.45153">
        <ele>586.15</ele>
        <time>2023-11-14T18:02:53.851Z</time>
      </trkpt>
      <trkpt lat="46.01595" lon="4.45161">
        <ele>587.82</ele>
        <time>2023-11-14T18:02:54.617Z</time>
      </trkpt>
      <trkpt lat="46.01634" lon="4.45181">
        <ele>590.24</ele>
        <time>2023-11-14T18:02:55.389Z</time>
      </trkpt>
      <trkpt lat="46.01648" lon="4.45201">
        <ele>591.57</ele>
        <time>2023-11-14T18:02:56.164Z</time>
      </trkpt>
      <trkpt lat="46.01654" lon="4.45213">
        <ele>592.87</ele>
        <time>2023-11-14T18:02:56.941Z</time>
      </trkpt>
      <trkpt lat="46.01676" lon="4.45289">
        <ele>594.2</ele>
        <time>2023-11-14T18:02:57.727Z</time>
      </trkpt>
      <trkpt lat="46.01708" lon="4.45388">
        <ele>595.39</ele>
        <time>2023-11-14T18:02:58.525Z</time>
      </trkpt>
      <trkpt lat="46.01716" lon="4.45417">
        <ele>596.11</ele>
        <time>2023-11-14T18:02:59.327Z</time>
      </trkpt>
      <trkpt lat="46.01723" lon="4.45459">
        <ele>598.46</ele>
        <time>2023-11-14T18:03:00.134Z</time>
      </trkpt>
      <trkpt lat="46.01723" lon="4.4546">
        <ele>598.93</ele>
        <time>2023-11-14T18:03:00.941Z</time>
      </trkpt>
      <trkpt lat="46.01735" lon="4.45543">
        <ele>599.74</ele>
        <time>2023-11-14T18:03:01.757Z</time>
      </trkpt>
      <trkpt lat="46.01741" lon="4.45562">
        <ele>600.36</ele>
        <time>2023-11-14T18:03:02.576Z</time>
      </trkpt>
      <trkpt lat="46.01744" lon="4.45574">
        <ele>600.98</ele>
        <time>2023-11-14T18:03:03.396Z</time>
      </trkpt>
      <trkpt lat="46.01749" lon="4.45584">
        <ele>601.57</ele>
        <time>2023-11-14T18:03:04.217Z</time>
      </trkpt>
      <trkpt lat="46.01763" lon="4.45591">
        <ele>602.02</ele>
        <time>2023-11-14T18:03:05.041Z</time>
      </trkpt>
      <trkpt lat="46.01801" lon="4.45588">
        <ele>603.02</ele>
        <time>2023-11-14T18:03:05.871Z</time>
      </trkpt>
      <trkpt lat="46.01864" lon="4.45584">
        <ele>604.2</ele>
        <time>2023-11-14T18:03:06.711Z</time>
      </trkpt>
      <trkpt lat="46.01892" lon="4.45573">
        <ele>604.83</ele>
        <time>2023-11-14T18:03:07.555Z</time>
      </trkpt>
      <trkpt lat="46.01948" lon="4.45539">
        <ele>605.82</ele>
        <time>2023-11-14T18:03:08.409Z</time>
      </trkpt>
      <trkpt lat="46.01957" lon="4.45536">
        <ele>606.52</ele>
        <time>2023-11-14T18:03:09.265Z</time>
      </trkpt>
      <trkpt lat="46.01965" lon="4.45537">
        <ele>607.12</ele>
        <time>2023-11-14T18:03:10.122Z</time>
      </trkpt>
      <trkpt lat="46.01973" lon="4.45542">
        <ele>607.57</ele>
        <time>2023-11-14T18:03:10.980Z</time>
      </trkpt>
      <trkpt lat="46.01979" lon="4.45547">
        <ele>607.76</ele>
        <time>2023-11-14T18:03:11.839Z</time>
      </trkpt>
      <trkpt lat="46.01985" lon="4.45559">
        <ele>607.74</ele>
        <time>2023-11-14T18:03:12.700Z</time>
      </trkpt>
      <trkpt lat="46.01989" lon="4.45573">
        <ele>607.56</ele>
        <time>2023-11-14T18:03:13.563Z</time>
      </trkpt>
      <trkpt lat="46.01999" lon="4.45613">
        <ele>607.14</ele>
        <time>2023-11-14T18:03:14.431Z</time>
      </trkpt>
      <trkpt lat="46.02015" lon="4.45705">
        <ele>606.01</ele>
        <time>2023-11-14T18:03:15.309Z</time>
      </trkpt>
      <trkpt lat="46.02051" lon="4.45823">
        <ele>604.73</ele>
        <time>2023-11-14T18:03:16.201Z</time>
      </trkpt>
      <trkpt lat="46.02067" lon="4.45881">
        <ele>603.46</ele>
        <time>2023-11-14T18:03:17.100Z</time>
      </trkpt>
      <trkpt lat="46.02074" lon="4.45893">
        <ele>602.14</ele>
        <time>2023-11-14T18:03:18.001Z</time>
      </trkpt>
      <trkpt lat="46.02085" lon="4.45897">
        <ele>600.71</ele>
        <time>2023-11-14T18:03:18.904Z</time>
      </trkpt>
      <trkpt lat="46.02098" lon="4.45898">
        <ele>599.24</ele>
        <time>2023-11-14T18:03:19.809Z</time>
      </trkpt>
      <trkpt lat="46.02186" lon="4.45867">
        <ele>596.85</ele>
        <time>2023-11-14T18:03:20.729Z</time>
      </trkpt>
      <trkpt lat="46.02201" lon="4.45862">
        <ele>595.16</ele>
        <time>2023-11-14T18:03:21.651Z</time>
      </trkpt>
      <trkpt lat="46.02216" lon="4.45848">
        <ele>593.59</ele>
        <time>2023-11-14T18:03:22.576Z</time>
      </trkpt>
      <trkpt lat="46.02236" lon="4.45806">
        <ele>592.62</ele>
        <time>2023-11-14T18:03:23.507Z</time>
      </trkpt>
      <trkpt lat="46.02248" lon="4.45795">
        <ele>591.03</ele>
        <time>2023-11-14T18:03:24.440Z</time>
      </trkpt>
      <trkpt lat="46.0226" lon="4.45796">
        <ele>589.19</ele>
        <time>2023-11-14T18:03:25.375Z</time>
      </trkpt>
      <trkpt lat="46.02268" lon="4.45801">
        <ele>587.23</ele>
        <time>2023-11-14T18:03:26.311Z</time>
      </trkpt>
      <trkpt lat="46.02302" lon="4.45829">
        <ele>584.34</ele>
        <time>2023-11-14T18:03:27.253Z</time>
      </trkpt>
      <trkpt lat="46.02315" lon="4.45837">
        <ele>582.63</ele>
        <time>2023-11-14T18:03:28.198Z</time>
      </trkpt>
      <trkpt lat="46.02335" lon="4.45842">
        <ele>581.14</ele>
        <time>2023-11-14T18:03:29.146Z</time>
      </trkpt>
      <trkpt lat="46.02348" lon="4.45841">
        <ele>579.91</ele>
        <time>2023-11-14T18:03:30.096Z</time>
      </trkpt>
      <trkpt lat="46.02363" lon="4.45835">
        <ele>578.57</ele>
        <time>2023-11-14T18:03:31.049Z</time>
      </trkpt>
      <trkpt lat="46.02378" lon="4.45826">
        <ele>577.29</ele>
        <time>2023-11-14T18:03:32.004Z</time>
      </trkpt>
      <trkpt lat="46.02415" lon="4.45791">
        <ele>576.04</ele>
        <time>2023-11-14T18:03:32.966Z</time>
      </trkpt>
      <trkpt lat="46.02428" lon="4.45781">
        <ele>574.62</ele>
        <time>2023-11-14T18:03:33.931Z</time>
      </trkpt>
      <trkpt lat="46.02443" lon="4.45776">
        <ele>573.05</ele>
        <time>2023-11-14T18:03:34.898Z</time>
      </trkpt>
      <trkpt lat="46.02462" lon="4.45777">
        <ele>571.16</ele>
        <time>2023-11-14T18:03:35.868Z</time>
      </trkpt>
      <trkpt lat="46.02474" lon="4.4578">
        <ele>569.04</ele>
        <time>2023-11-14T18:03:36.840Z</time>
      </trkpt>
      <trkpt lat="46.02509" lon="4.45796">
        <ele>566.53</ele>
        <time>2023-11-14T18:03:37.818Z</time>
      </trkpt>
      <trkpt lat="46.02539" lon="4.45814">
        <ele>564.25</ele>
        <time>2023-11-14T18:03:38.801Z</time>
      </trkpt>
      <trkpt lat="46.02592" lon="4.45838">
        <ele>561.52</ele>
        <time>2023-11-14T18:03:39.793Z</time>
      </trkpt>
      <trkpt lat="46.02615" lon="4.45844">
        <ele>559.56</ele>
        <time>2023-11-14T18:03:40.789Z</time>
      </trkpt>
      <trkpt lat="46.02642" lon="4.45858">
        <ele>557.64</ele>
        <time>2023-11-14T18:03:41.789Z</time>
      </trkpt>
      <trkpt lat="46.02676" lon="4.45882">
        <ele>552.96</ele>
        <time>2023-11-14T18:03:42.795Z</time>
      </trkpt>
      <trkpt lat="46.02681" lon="4.45886">
        <ele>551.78</ele>
        <time>2023-11-14T18:03:43.802Z</time>
      </trkpt>
      <trkpt lat="46.02681" lon="4.45886">
        <ele>550.45</ele>
        <time>2023-11-14T18:03:44.809Z</time>
      </trkpt>
      <trkpt lat="46.02739" lon="4.45922">
        <ele>548.61</ele>
        <time>2023-11-14T18:03:45.826Z</time>
      </trkpt>
      <trkpt lat="46.02776" lon="4.45948">
        <ele>546.95</ele>
        <time>2023-11-14T18:03:46.850Z</time>
      </trkpt>
      <trkpt lat="46.02851" lon="4.46035">
        <ele>543.27</ele>
        <time>2023-11-14T18:03:47.889Z</time>
      </trkpt>
      <trkpt lat="46.02867" lon="4.4605">
        <ele>540.57</ele>
        <time>2023-11-14T18:03:48.932Z</time>
      </trkpt>
      <trkpt lat="46.02902" lon="4.46073">
        <ele>537.53</ele>
        <time>2023-11-14T18:03:49.981Z</time>
      </trkpt>
      <trkpt lat="46.02937" lon="4.46083">
        <ele>534.55</ele>
        <time>2023-11-14T18:03:51.035Z</time>
      </trkpt>
      <trkpt lat="46.02968" lon="4.46086">
        <ele>532.23</ele>
        <time>2023-11-14T18:03:52.094Z</time>
      </trkpt>
      <trkpt lat="46.03048" lon="4.46087">
        <ele>529.82</ele>
        <time>2023-11-14T18:03:53.166Z</time>
      </trkpt>
      <trkpt lat="46.03048" lon="4.46087">
        <ele>527.96</ele>
        <time>2023-11-14T18:03:54.238Z</time>
      </trkpt>
      <trkpt lat="46.03097" lon="4.46089">
        <ele>526.15</ele>
        <time>2023-11-14T18:03:55.318Z</time>
      </trkpt>
      <trkpt lat="46.03107" lon="4.46092">
        <ele>524.63</ele>
        <time>2023-11-14T18:03:56.400Z</time>
      </trkpt>
      <trkpt lat="46.03115" lon="4.46096">
        <ele>523.14</ele>
        <time>2023-11-14T18:03:57.483Z</time>
      </trkpt>
      <trkpt lat="46.03118" lon="4.46104">
        <ele>521.56</ele>
        <time>2023-11-14T18:03:58.567Z</time>
      </trkpt>
      <trkpt lat="46.03118" lon="4.46111">
        <ele>519.91</ele>
        <time>2023-11-14T18:03:59.652Z</time>
      </trkpt>
      <trkpt lat="46.03115" lon="4.46121">
        <ele>518.12</ele>
        <time>2023-11-14T18:04:00.738Z</time>
      </trkpt>
      <trkpt lat="46.03111" lon="4.46124">
        <ele>516.35</ele>
        <time>2023-11-14T18:04:01.825Z</time>
      </trkpt>
      <trkpt lat="46.0304" lon="4.46138">
        <ele>514.36</ele>
        <time>2023-11-14T18:04:02.923Z</time>
      </trkpt>
      <trkpt lat="46.03013" lon="4.46149">
        <ele>512.22</ele>
        <time>2023-11-14T18:04:04.026Z</time>
      </trkpt>
      <trkpt lat="46.02912" lon="4.46205">
        <ele>509.49</ele>
        <time>2023-11-14T18:04:05.146Z</time>
      </trkpt>
      <trkpt lat="46.02901" lon="4.46214">
        <ele>507.57</ele>
        <time>2023-11-14T18:04:06.268Z</time>
      </trkpt>
      <trkpt lat="46.02897" lon="4.46223">
        <ele>505.63</ele>
        <time>2023-11-14T18:04:07.391Z</time>
      </trkpt>
      <trkpt lat="46.02894" lon="4.46236">
        <ele>503.69</ele>
        <time>2023-11-14T18:04:08.516Z</time>
      </trkpt>
      <trkpt lat="46.02895" lon="4.46249">
        <ele>501.9</ele>
        <time>2023-11-14T18:04:09.642Z</time>
      </trkpt>
      <trkpt lat="46.02898" lon="4.4626">
        <ele>500.29</ele>
        <time>2023-11-14T18:04:10.769Z</time>
      </trkpt>
      <trkpt lat="46.02904" lon="4.46268">
        <ele>498.82</ele>
        <time>2023-11-14T18:04:11.898Z</time>
      </trkpt>
      <trkpt lat="46.02911" lon="4.46271">
        <ele>497.48</ele>
        <time>2023-11-14T18:04:13.028Z</time>
      </trkpt>
      <trkpt lat="46.02925" lon="4.46273">
        <ele>496.21</ele>
        <time>2023-11-14T18:04:14.160Z</time>
      </trkpt>
      <trkpt lat="46.02963" lon="4.46257">
        <ele>495.1</ele>
        <time>2023-11-14T18:04:15.299Z</time>
      </trkpt>
      <trkpt lat="46.02974" lon="4.46254">
        <ele>494.02</ele>
        <time>2023-11-14T18:04:16.439Z</time>
      </trkpt>
      <trkpt lat="46.02985" lon="4.46254">
        <ele>492.92</ele>
        <time>2023-11-14T18:04:17.581Z</time>
      </trkpt>
      <trkpt lat="46.02995" lon="4.46257">
        <ele>491.84</ele>
        <time>2023-11-14T18:04:18.725Z</time>
      </trkpt>
      <trkpt lat="46.03008" lon="4.46266">
        <ele>490.67</ele>
        <time>2023-11-14T18:04:19.871Z</time>
      </trkpt>
      <trkpt lat="46.03018" lon="4.46277">
        <ele>489.46</ele>
        <time>2023-11-14T18:04:21.019Z</time>
      </trkpt>
      <trkpt lat="46.03033" lon="4.46296">
        <ele>488.25</ele>
        <time>2023-11-14T18:04:22.170Z</time>
      </trkpt>
      <trkpt lat="46.03043" lon="4.46313">
        <ele>487.06</ele>
        <time>2023-11-14T18:04:23.324Z</time>
      </trkpt>
      <trkpt lat="46.03052" lon="4.46334">
        <ele>485.79</ele>
        <time>2023-11-14T18:04:24.480Z</time>
      </trkpt>
      <trkpt lat="46.03061" lon="4.46371">
        <ele>484.42</ele>
        <time>2023-11-14T18:04:25.641Z</time>
      </trkpt>
      <trkpt lat="46.03091" lon="4.46497">
        <ele>483.14</ele>
        <time>2023-11-14T18:04:26.817Z</time>
      </trkpt>
      <trkpt lat="46.03099" lon="4.46517">
        <ele>482.15</ele>
        <time>2023-11-14T18:04:27.995Z</time>
      </trkpt>
      <trkpt lat="46.03105" lon="4.46527">
        <ele>481.2</ele>
        <time>2023-11-14T18:04:29.175Z</time>
      </trkpt>
      <trkpt lat="46.03113" lon="4.4653">
        <ele>480.29</ele>
        <time>2023-11-14T18:04:30.356Z</time>
      </trkpt>
      <trkpt lat="46.03129" lon="4.46527">
        <ele>479.31</ele>
        <time>2023-11-14T18:04:31.540Z</time>
      </trkpt>
      <trkpt lat="46.03135" lon="4.4652">
        <ele>478.31</ele>
        <time>2023-11-14T18:04:32.725Z</time>
      </trkpt>
      <trkpt lat="46.0314" lon="4.46512">
        <ele>477.33</ele>
        <time>2023-11-14T18:04:33.911Z</time>
      </trkpt>
      <trkpt lat="46.03143" lon="4.46499">
        <ele>476.33</ele>
        <time>2023-11-14T18:04:35.099Z</time>
      </trkpt>
      <trkpt lat="46.03144" lon="4.46479">
        <ele>476.5</ele>
        <time>2023-11-14T18:04:36.289Z</time>
      </trkpt>
      <trkpt lat="46.03144" lon="4.46474">
        <ele>475.65</ele>
        <time>2023-11-14T18:04:37.479Z</time>
      </trkpt>
      <trkpt lat="46.03137" lon="4.46393">
        <ele>474.45</ele>
        <time>2023-11-14T18:04:38.678Z</time>
      </trkpt>
      <trkpt lat="46.03138" lon="4.4638">
        <ele>473.33</ele>
        <time>2023-11-14T18:04:39.879Z</time>
      </trkpt>
      <trkpt lat="46.03142" lon="4.4637">
        <ele>472.07</ele>
        <time>2023-11-14T18:04:41.081Z</time>
      </trkpt>
      <trkpt lat="46.03147" lon="4.46361">
        <ele>470.65</ele>
        <time>2023-11-14T18:04:42.284Z</time>
      </trkpt>
      <trkpt lat="46.03156" lon="4.46356">
        <ele>469.01</ele>
        <time>2023-11-14T18:04:43.489Z</time>
      </trkpt>
      <trkpt lat="46.03201" lon="4.4635">
        <ele>466.9</ele>
        <time>2023-11-14T18:04:44.701Z</time>
      </trkpt>
      <trkpt lat="46.03226" lon="4.46355">
        <ele>464.68</ele>
        <time>2023-11-14T18:04:45.917Z</time>
      </trkpt>
      <trkpt lat="46.03239" lon="4.46361">
        <ele>462.27</ele>
        <time>2023-11-14T18:04:47.136Z</time>
      </trkpt>
      <trkpt lat="46.03298" lon="4.46411">
        <ele>458.75</ele>
        <time>2023-11-14T18:04:48.365Z</time>
      </trkpt>
      <trkpt lat="46.03332" lon="4.46424">
        <ele>455.89</ele>
        <time>2023-11-14T18:04:49.600Z</time>
      </trkpt>
      <trkpt lat="46.0339" lon="4.46441">
        <ele>453.08</ele>
        <time>2023-11-14T18:04:50.844Z</time>
      </trkpt>
      <trkpt lat="46.03403" lon="4.46442">
        <ele>450.68</ele>
        <time>2023-11-14T18:04:52.091Z</time>
      </trkpt>
      <trkpt lat="46.035" lon="4.46436">
        <ele>448.07</ele>
        <time>2023-11-14T18:04:53.353Z</time>
      </trkpt>
      <trkpt lat="46.03532" lon="4.46432">
        <ele>445.75</ele>
        <time>2023-11-14T18:04:54.620Z</time>
      </trkpt>
      <trkpt lat="46.03558" lon="4.46424">
        <ele>442.83</ele>
        <time>2023-11-14T18:04:55.892Z</time>
      </trkpt>
      <trkpt lat="46.03568" lon="4.46414">
        <ele>440.72</ele>
        <time>2023-11-14T18:04:57.165Z</time>
      </trkpt>
      <trkpt lat="46.03575" lon="4.46403">
        <ele>439.1</ele>
        <time>2023-11-14T18:04:58.440Z</time>
      </trkpt>
      <trkpt lat="46.03583" lon="4.46387">
        <ele>437.7</ele>
        <time>2023-11-14T18:04:59.717Z</time>
      </trkpt>
      <trkpt lat="46.0359" lon="4.46358">
        <ele>436.67</ele>
        <time>2023-11-14T18:05:00.998Z</time>
      </trkpt>
      <trkpt lat="46.03601" lon="4.46301">
        <ele>435.8</ele>
        <time>2023-11-14T18:05:02.285Z</time>
      </trkpt>
      <trkpt lat="46.03605" lon="4.46266">
        <ele>435.16</ele>
        <time>2023-11-14T18:05:03.576Z</time>
      </trkpt>
      <trkpt lat="46.03607" lon="4.46211">
        <ele>434.71</ele>
        <time>2023-11-14T18:05:04.873Z</time>
      </trkpt>
      <trkpt lat="46.03606" lon="4.46129">
        <ele>434.7</ele>
        <time>2023-11-14T18:05:06.180Z</time>
      </trkpt>
      <trkpt lat="46.03609" lon="4.46114">
        <ele>434.07</ele>
        <time>2023-11-14T18:05:07.488Z</time>
      </trkpt>
      <trkpt lat="46.0362" lon="4.46102">
        <ele>433.16</ele>
        <time>2023-11-14T18:05:08.799Z</time>
      </trkpt>
      <trkpt lat="46.03631" lon="4.46101">
        <ele>432.55</ele>
        <time>2023-11-14T18:05:10.111Z</time>
      </trkpt>
      <trkpt lat="46.03643" lon="4.46104">
        <ele>432.04</ele>
        <time>2023-11-14T18:05:11.425Z</time>
      </trkpt>
      <trkpt lat="46.03655" lon="4.46113">
        <ele>431.52</ele>
        <time>2023-11-14T18:05:12.741Z</time>
      </trkpt>
      <trkpt lat="46.03674" lon="4.46163">
        <ele>430.96</ele>
        <time>2023-11-14T18:05:14.064Z</time>
      </trkpt>
      <trkpt lat="46.03701" lon="4.46216">
        <ele>430.4</ele>
        <time>2023-11-14T18:05:15.394Z</time>
      </trkpt>
      <trkpt lat="46.03707" lon="4.46249">
        <ele>429.93</ele>
        <time>2023-11-14T18:05:16.728Z</time>
      </trkpt>
      <trkpt lat="46.03711" lon="4.463">
        <ele>429.61</ele>
        <time>2023-11-14T18:05:18.068Z</time>
      </trkpt>
      <trkpt lat="46.03707" lon="4.46345">
        <ele>428.61</ele>
        <time>2023-11-14T18:05:19.413Z</time>
      </trkpt>
      <trkpt lat="46.0371" lon="4.46389">
        <ele>427.91</ele>
        <time>2023-11-14T18:05:20.763Z</time>
      </trkpt>
      <trkpt lat="46.03726" lon="4.46434">
        <ele>427.5</ele>
        <time>2023-11-14T18:05:22.118Z</time>
      </trkpt>
      <trkpt lat="46.03735" lon="4.46452">
        <ele>427.52</ele>
        <time>2023-11-14T18:05:23.476Z</time>
      </trkpt>
      <trkpt lat="46.03735" lon="4.46468">
        <ele>427.67</ele>
        <time>2023-11-14T18:05:24.835Z</time>
      </trkpt>
      <trkpt lat="46.03733" lon="4.46481">
        <ele>428.2</ele>
        <time>2023-11-14T18:05:26.196Z</time>
      </trkpt>
      <trkpt lat="46.03726" lon="4.46496">
        <ele>428.93</ele>
        <time>2023-11-14T18:05:27.559Z</time>
      </trkpt>
      <trkpt lat="46.03663" lon="4.46566">
        <ele>430.33</ele>
        <time>2023-11-14T18:05:28.935Z</time>
      </trkpt>
      <trkpt lat="46.03651" lon="4.46582">
        <ele>431.19</ele>
        <time>2023-11-14T18:05:30.313Z</time>
      </trkpt>
      <trkpt lat="46.03642" lon="4.46602">
        <ele>432.27</ele>
        <time>2023-11-14T18:05:31.694Z</time>
      </trkpt>
      <trkpt lat="46.03631" lon="4.46629">
        <ele>440.46</ele>
        <time>2023-11-14T18:05:33.078Z</time>
      </trkpt>
      <trkpt lat="46.03631" lon="4.46629">
        <ele>441.29</ele>
        <time>2023-11-14T18:05:34.462Z</time>
      </trkpt>
      <trkpt lat="46.03631" lon="4.46629">
        <ele>440.46</ele>
        <time>2023-11-14T18:05:35.846Z</time>
      </trkpt>
      <trkpt lat="46.03631" lon="4.46629">
        <ele>441.29</ele>
        <time>2023-11-14T18:05:37.230Z</time>
      </trkpt>
      <trkpt lat="46.03605" lon="4.46693">
        <ele>442.92</ele>
        <time>2023-11-14T18:05:38.623Z</time>
      </trkpt>
      <trkpt lat="46.03597" lon="4.46719">
        <ele>443.84</ele>
        <time>2023-11-14T18:05:40.019Z</time>
      </trkpt>
      <trkpt lat="46.0359" lon="4.46755">
        <ele>444.9</ele>
        <time>2023-11-14T18:05:41.419Z</time>
      </trkpt>
      <trkpt lat="46.03589" lon="4.46807">
        <ele>446.18</ele>
        <time>2023-11-14T18:05:42.825Z</time>
      </trkpt>
      <trkpt lat="46.03592" lon="4.46851">
        <ele>447.27</ele>
        <time>2023-11-14T18:05:44.236Z</time>
      </trkpt>
      <trkpt lat="46.03599" lon="4.46882">
        <ele>448</ele>
        <time>2023-11-14T18:05:45.650Z</time>
      </trkpt>
      <trkpt lat="46.03621" lon="4.46942">
        <ele>449.57</ele>
        <time>2023-11-14T18:05:47.072Z</time>
      </trkpt>
      <trkpt lat="46.03633" lon="4.46983">
        <ele>450.66</ele>
        <time>2023-11-14T18:05:48.499Z</time>
      </trkpt>
      <trkpt lat="46.03675" lon="4.47146">
        <ele>451.24</ele>
        <time>2023-11-14T18:05:49.945Z</time>
      </trkpt>
      <trkpt lat="46.0368" lon="4.47152">
        <ele>451.54</ele>
        <time>2023-11-14T18:05:51.392Z</time>
      </trkpt>
      <trkpt lat="46.03677" lon="4.47164">
        <ele>451.15</ele>
        <time>2023-11-14T18:05:52.841Z</time>
      </trkpt>
      <trkpt lat="46.03677" lon="4.47217">
        <ele>450.43</ele>
        <time>2023-11-14T18:05:54.296Z</time>
      </trkpt>
      <trkpt lat="46.03674" lon="4.47229">
        <ele>449.57</ele>
        <time>2023-11-14T18:05:55.752Z</time>
      </trkpt>
      <trkpt lat="46.03662" lon="4.47268">
        <ele>448.49</ele>
        <time>2023-11-14T18:05:57.213Z</time>
      </trkpt>
      <trkpt lat="46.03657" lon="4.47299">
        <ele>447.3</ele>
        <time>2023-11-14T18:05:58.677Z</time>
      </trkpt>
      <trkpt lat="46.03657" lon="4.47386">
        <ele>445.51</ele>
        <time>2023-11-14T18:06:00.151Z</time>
      </trkpt>
      <trkpt lat="46.03655" lon="4.47406">
        <ele>443.94</ele>
        <time>2023-11-14T18:06:01.627Z</time>
      </trkpt>
      <trkpt lat="46.0365" lon="4.47417">
        <ele>442.38</ele>
        <time>2023-11-14T18:06:03.105Z</time>
      </trkpt>
      <trkpt lat="46.03638" lon="4.47434">
        <ele>440.92</ele>
        <time>2023-11-14T18:06:04.585Z</time>
      </trkpt>
      <trkpt lat="46.03638" lon="4.47434">
        <ele>439.45</ele>
        <time>2023-11-14T18:06:06.065Z</time>
      </trkpt>
      <trkpt lat="46.03611" lon="4.47452">
        <ele>437.89</ele>
        <time>2023-11-14T18:06:07.550Z</time>
      </trkpt>
      <trkpt lat="46.03581" lon="4.47474">
        <ele>435.93</ele>
        <time>2023-11-14T18:06:09.041Z</time>
      </trkpt>
      <trkpt lat="46.03561" lon="4.47499">
        <ele>434.16</ele>
        <time>2023-11-14T18:06:10.536Z</time>
      </trkpt>
      <trkpt lat="46.03547" lon="4.47527">
        <ele>432.64</ele>
        <time>2023-11-14T18:06:12.035Z</time>
      </trkpt>
      <trkpt lat="46.03539" lon="4.4755">
        <ele>431.16</ele>
        <time>2023-11-14T18:06:13.537Z</time>
      </trkpt>
      <trkpt lat="46.03531" lon="4.47579">
        <ele>429.71</ele>
        <time>2023-11-14T18:06:15.042Z</time>
      </trkpt>
      <trkpt lat="46.03526" lon="4.47609">
        <ele>428.49</ele>
        <time>2023-11-14T18:06:16.551Z</time>
      </trkpt>
      <trkpt lat="46.03524" lon="4.47645">
        <ele>427.35</ele>
        <time>2023-11-14T18:06:18.064Z</time>
      </trkpt>
      <trkpt lat="46.03524" lon="4.47674">
        <ele>426.31</ele>
        <time>2023-11-14T18:06:19.580Z</time>
      </trkpt>
      <trkpt lat="46.03527" lon="4.47703">
        <ele>425.16</ele>
        <time>2023-11-14T18:06:21.099Z</time>
      </trkpt>
      <trkpt lat="46.0353" lon="4.47725">
        <ele>424.08</ele>
        <time>2023-11-14T18:06:22.621Z</time>
      </trkpt>
      <trkpt lat="46.03541" lon="4.47759">
        <ele>422.88</ele>
        <time>2023-11-14T18:06:24.147Z</time>
      </trkpt>
      <trkpt lat="46.03552" lon="4.47774">
        <ele>421.83</ele>
        <time>2023-11-14T18:06:25.675Z</time>
      </trkpt>
      <trkpt lat="46.03561" lon="4.4778">
        <ele>420.95</ele>
        <time>2023-11-14T18:06:27.205Z</time>
      </trkpt>
      <trkpt lat="46.03591" lon="4.47789">
        <ele>420.09</ele>
        <time>2023-11-14T18:06:28.740Z</time>
      </trkpt>
      <trkpt lat="46.03602" lon="4.47796">
        <ele>419.19</ele>
        <time>2023-11-14T18:06:30.277Z</time>
      </trkpt>
      <trkpt lat="46.03608" lon="4.47803">
        <ele>418.25</ele>
        <time>2023-11-14T18:06:31.815Z</time>
      </trkpt>
      <trkpt lat="46.03613" lon="4.47811">
        <ele>417.26</ele>
        <time>2023-11-14T18:06:33.354Z</time>
      </trkpt>
      <trkpt lat="46.03614" lon="4.47822">
        <ele>416.17</ele>
        <time>2023-11-14T18:06:34.894Z</time>
      </trkpt>
      <trkpt lat="46.03614" lon="4.47829">
        <ele>414.97</ele>
        <time>2023-11-14T18:06:36.435Z</time>
      </trkpt>
      <trkpt lat="46.03606" lon="4.47847">
        <ele>413.63</ele>
        <time>2023-11-14T18:06:37.978Z</time>
      </trkpt>
      <trkpt lat="46.03591" lon="4.47867">
        <ele>412.05</ele>
        <time>2023-11-14T18:06:39.525Z</time>
      </trkpt>
      <trkpt lat="46.03503" lon="4.47962">
        <ele>409.99</ele>
        <time>2023-11-14T18:06:41.089Z</time>
      </trkpt>
      <trkpt lat="46.0349" lon="4.47979">
        <ele>408.26</ele>
        <time>2023-11-14T18:06:42.656Z</time>
      </trkpt>
      <trkpt lat="46.03473" lon="4.48013">
        <ele>406.25</ele>
        <time>2023-11-14T18:06:44.228Z</time>
      </trkpt>
      <trkpt lat="46.0346" lon="4.48056">
        <ele>404.29</ele>
        <time>2023-11-14T18:06:45.805Z</time>
      </trkpt>
      <trkpt lat="46.03457" lon="4.48073">
        <ele>402.54</ele>
        <time>2023-11-14T18:06:47.384Z</time>
      </trkpt>
      <trkpt lat="46.03458" lon="4.48156">
        <ele>400.83</ele>
        <time>2023-11-14T18:06:48.972Z</time>
      </trkpt>
      <trkpt lat="46.03457" lon="4.48177">
        <ele>399.19</ele>
        <time>2023-11-14T18:06:50.563Z</time>
      </trkpt>
      <trkpt lat="46.03455" lon="4.48199">
        <ele>397.7</ele>
        <time>2023-11-14T18:06:52.156Z</time>
      </trkpt>
      <trkpt lat="46.03443" lon="4.48255">
        <ele>396.35</ele>
        <time>2023-11-14T18:06:53.756Z</time>
      </trkpt>
      <trkpt lat="46.03439" lon="4.48279">
        <ele>395.06</ele>
        <time>2023-11-14T18:06:55.358Z</time>
      </trkpt>
      <trkpt lat="46.03439" lon="4.48296">
        <ele>393.93</ele>
        <time>2023-11-14T18:06:56.962Z</time>
      </trkpt>
      <trkpt lat="46.0344" lon="4.48321">
        <ele>392.84</ele>
        <time>2023-11-14T18:06:58.569Z</time>
      </trkpt>
      <trkpt lat="46.03453" lon="4.48373">
        <ele>391.68</ele>
        <time>2023-11-14T18:07:00.182Z</time>
      </trkpt>
      <trkpt lat="46.03463" lon="4.48457">
        <ele>390.72</ele>
        <time>2023-11-14T18:07:01.805Z</time>
      </trkpt>
      <trkpt lat="46.03472" lon="4.48502">
        <ele>390.16</ele>
        <time>2023-11-14T18:07:03.433Z</time>
      </trkpt>
      <trkpt lat="46.03491" lon="4.48557">
        <ele>389.58</ele>
        <time>2023-11-14T18:07:05.068Z</time>
      </trkpt>
      <trkpt lat="46.03504" lon="4.48607">
        <ele>388.16</ele>
        <time>2023-11-14T18:07:06.709Z</time>
      </trkpt>
      <trkpt lat="46.0351" lon="4.48638">
        <ele>386.88</ele>
        <time>2023-11-14T18:07:08.353Z</time>
      </trkpt>
      <trkpt lat="46.03517" lon="4.48701">
        <ele>385.59</ele>
        <time>2023-11-14T18:07:10.004Z</time>
      </trkpt>
      <trkpt lat="46.03522" lon="4.48726">
        <ele>384.49</ele>
        <time>2023-11-14T18:07:11.658Z</time>
      </trkpt>
      <trkpt lat="46.03534" lon="4.48769">
        <ele>383.05</ele>
        <time>2023-11-14T18:07:13.318Z</time>
      </trkpt>
      <trkpt lat="46.03538" lon="4.48788">
        <ele>381.02</ele>
        <time>2023-11-14T18:07:14.980Z</time>
      </trkpt>
      <trkpt lat="46.03546" lon="4.48852">
        <ele>378.26</ele>
        <time>2023-11-14T18:07:16.649Z</time>
      </trkpt>
      <trkpt lat="46.03546" lon="4.48852">
        <ele>377.18</ele>
        <time>2023-11-14T18:07:18.318Z</time>
      </trkpt>
      <trkpt lat="46.0355" lon="4.48874">
        <ele>372.63</ele>
        <time>2023-11-14T18:07:19.989Z</time>
      </trkpt>
      <trkpt lat="46.03567" lon="4.48966">
        <ele>372.05</ele>
        <time>2023-11-14T18:07:21.671Z</time>
      </trkpt>
      <trkpt lat="46.0357" lon="4.48999">
        <ele>371.14</ele>
        <time>2023-11-14T18:07:23.357Z</time>
      </trkpt>
      <trkpt lat="46.03569" lon="4.49014">
        <ele>369.69</ele>
        <time>2023-11-14T18:07:25.044Z</time>
      </trkpt>
      <trkpt lat="46.03567" lon="4.49035">
        <ele>367.97</ele>
        <time>2023-11-14T18:07:26.734Z</time>
      </trkpt>
      <trkpt lat="46.03562" lon="4.49047">
        <ele>366.24</ele>
        <time>2023-11-14T18:07:28.425Z</time>
      </trkpt>
      <trkpt lat="46.03539" lon="4.49108">
        <ele>363.9</ele>
        <time>2023-11-14T18:07:30.124Z</time>
      </trkpt>
      <trkpt lat="46.03535" lon="4.49125">
        <ele>362.28</ele>
        <time>2023-11-14T18:07:31.825Z</time>
      </trkpt>
      <trkpt lat="46.03535" lon="4.4914">
        <ele>361</ele>
        <time>2023-11-14T18:07:33.528Z</time>
      </trkpt>
      <trkpt lat="46.03537" lon="4.49158">
        <ele>359.86</ele>
        <time>2023-11-14T18:07:35.233Z</time>
      </trkpt>
      <trkpt lat="46.03541" lon="4.4918">
        <ele>358.86</ele>
        <time>2023-11-14T18:07:36.940Z</time>
      </trkpt>
      <trkpt lat="46.0355" lon="4.49214">
        <ele>357.89</ele>
        <time>2023-11-14T18:07:38.651Z</time>
      </trkpt>
      <trkpt lat="46.03555" lon="4.49236">
        <ele>357.09</ele>
        <time>2023-11-14T18:07:40.365Z</time>
      </trkpt>
      <trkpt lat="46.03558" lon="4.49281">
        <ele>356.29</ele>
        <time>2023-11-14T18:07:42.084Z</time>
      </trkpt>
      <trkpt lat="46.03561" lon="4.49298">
        <ele>355.9</ele>
        <time>2023-11-14T18:07:43.805Z</time>
      </trkpt>
      <trkpt lat="46.03573" lon="4.49328">
        <ele>355.82</ele>
        <time>2023-11-14T18:07:45.530Z</time>
      </trkpt>
      <trkpt lat="46.03581" lon="4.49349">
        <ele>356.01</ele>
        <time>2023-11-14T18:07:47.257Z</time>
      </trkpt>
      <trkpt lat="46.03631" lon="4.49265">
        <ele>356.96</ele>
        <time>2023-11-14T18:07:48.997Z</time>
      </trkpt>
      <trkpt lat="46.03703" lon="4.49169">
        <ele>357.82</ele>
        <time>2023-11-14T18:07:50.753Z</time>
      </trkpt>
      <trkpt lat="46.03821" lon="4.49021">
        <ele>359.46</ele>
        <time>2023-11-14T18:07:52.534Z</time>
      </trkpt>
      <trkpt lat="46.03844" lon="4.49002">
        <ele>360.38</ele>
        <time>2023-11-14T18:07:54.319Z</time>
      </trkpt>
      <trkpt lat="46.03883" lon="4.48979">
        <ele>361.22</ele>
        <time>2023-11-14T18:07:56.111Z</time>
      </trkpt>
      <trkpt lat="46.03883" lon="4.48979">
        <ele>362.04</ele>
        <time>2023-11-14T18:07:57.903Z</time>
      </trkpt>
      <trkpt lat="46.03935" lon="4.48966">
        <ele>362.8</ele>
        <time>2023-11-14T18:07:59.703Z</time>
      </trkpt>
      <trkpt lat="46.03991" lon="4.48956">
        <ele>363.47</ele>
        <time>2023-11-14T18:08:01.512Z</time>
      </trkpt>
      <trkpt lat="46.04052" lon="4.48954">
        <ele>364.03</ele>
        <time>2023-11-14T18:08:03.331Z</time>
      </trkpt>
      <trkpt lat="46.0408" lon="4.4895">
        <ele>364.63</ele>
        <time>2023-11-14T18:08:05.155Z</time>
      </trkpt>
      <trkpt lat="46.04114" lon="4.48941">
        <ele>365.21</ele>
        <time>2023-11-14T18:08:06.984Z</time>
      </trkpt>
      <trkpt lat="46.04148" lon="4.48924">
        <ele>365.96</ele>
        <time>2023-11-14T18:08:08.819Z</time>
      </trkpt>
      <trkpt lat="46.04189" lon="4.48898">
        <ele>366.68</ele>
        <time>2023-11-14T18:08:10.661Z</time>
      </trkpt>
      <trkpt lat="46.04189" lon="4.48898">
        <ele>367.37</ele>
        <time>2023-11-14T18:08:12.503Z</time>
      </trkpt>
      <trkpt lat="46.04211" lon="4.48884">
        <ele>368.14</ele>
        <time>2023-11-14T18:08:14.349Z</time>
      </trkpt>
      <trkpt lat="46.04339" lon="4.48825">
        <ele>369.22</ele>
        <time>2023-11-14T18:08:16.216Z</time>
      </trkpt>
      <trkpt lat="46.04363" lon="4.48818">
        <ele>370.02</ele>
        <time>2023-11-14T18:08:18.087Z</time>
      </trkpt>
      <trkpt lat="46.04389" lon="4.48819">
        <ele>370.49</ele>
        <time>2023-11-14T18:08:19.962Z</time>
      </trkpt>
      <trkpt lat="46.04432" lon="4.4883">
        <ele>370.68</ele>
        <time>2023-11-14T18:08:21.844Z</time>
      </trkpt>
      <trkpt lat="46.04514" lon="4.48862">
        <ele>371.8</ele>
        <time>2023-11-14T18:08:23.740Z</time>
      </trkpt>
      <trkpt lat="46.04541" lon="4.48877">
        <ele>372.09</ele>
        <time>2023-11-14T18:08:25.641Z</time>
      </trkpt>
      <trkpt lat="46.04576" lon="4.48888">
        <ele>372.3</ele>
        <time>2023-11-14T18:08:27.547Z</time>
      </trkpt>
      <trkpt lat="46.04597" lon="4.48888">
        <ele>372.36</ele>
        <time>2023-11-14T18:08:29.457Z</time>
      </trkpt>
      <trkpt lat="46.04618" lon="4.48886">
        <ele>372.39</ele>
        <time>2023-11-14T18:08:31.370Z</time>
      </trkpt>
      <trkpt lat="46.04651" lon="4.48889">
        <ele>372.17</ele>
        <time>2023-11-14T18:08:33.288Z</time>
      </trkpt>
      <trkpt lat="46.04695" lon="4.48905">
        <ele>371.91</ele>
        <time>2023-11-14T18:08:35.214Z</time>
      </trkpt>
      <trkpt lat="46.04695" lon="4.48905">
        <ele>372.28</ele>
        <time>2023-11-14T18:08:37.140Z</time>
      </trkpt>
      <trkpt lat="46.04742" lon="4.48928">
        <ele>372.79</ele>
        <time>2023-11-14T18:08:39.074Z</time>
      </trkpt>
      <trkpt lat="46.04807" lon="4.48961">
        <ele>374.01</ele>
        <time>2023-11-14T18:08:41.019Z</time>
      </trkpt>
      <trkpt lat="46.04898" lon="4.49006">
        <ele>375.53</ele>
        <time>2023-11-14T18:08:42.979Z</time>
      </trkpt>
      <trkpt lat="46.04898" lon="4.49006">
        <ele>376.08</ele>
        <time>2023-11-14T18:08:44.939Z</time>
      </trkpt>
      <trkpt lat="46.04925" lon="4.49029">
        <ele>376.68</ele>
        <time>2023-11-14T18:08:46.904Z</time>
      </trkpt>
      <trkpt lat="46.04947" lon="4.49054">
        <ele>377.82</ele>
        <time>2023-11-14T18:08:48.874Z</time>
      </trkpt>
      <trkpt lat="46.04981" lon="4.49108">
        <ele>379.07</ele>
        <time>2023-11-14T18:08:50.852Z</time>
      </trkpt>
      <trkpt lat="46.04981" lon="4.49108">
        <ele>384.12</ele>
        <time>2023-11-14T18:08:52.830Z</time>
      </trkpt>
      <trkpt lat="46.04996" lon="4.49131">
        <ele>384.96</ele>
        <time>2023-11-14T18:08:54.811Z</time>
      </trkpt>
      <trkpt lat="46.0503" lon="4.49187">
        <ele>386.06</ele>
        <time>2023-11-14T18:08:56.800Z</time>
      </trkpt>
      <trkpt lat="46.05061" lon="4.49244">
        <ele>387.88</ele>
        <time>2023-11-14T18:08:58.798Z</time>
      </trkpt>
      <trkpt lat="46.05077" lon="4.49265">
        <ele>388.81</ele>
        <time>2023-11-14T18:09:00.799Z</time>
      </trkpt>
      <trkpt lat="46.05095" lon="4.49286">
        <ele>388.97</ele>
        <time>2023-11-14T18:09:02.804Z</time>
      </trkpt>
      <trkpt lat="46.051" lon="4.49289">
        <ele>388.98</ele>
        <time>2023-11-14T18:09:04.809Z</time>
      </trkpt>
      <trkpt lat="46.05123" lon="4.49302">
        <ele>388.83</ele>
        <time>2023-11-14T18:09:06.819Z</time>
      </trkpt>
      <trkpt lat="46.0516" lon="4.49313">
        <ele>388.59</ele>
        <time>2023-11-14T18:09:08.834Z</time>
      </trkpt>
      <trkpt lat="46.05187" lon="4.49319">
        <ele>388.31</ele>
        <time>2023-11-14T18:09:10.854Z</time>
      </trkpt>
      <trkpt lat="46.05231" lon="4.49333">
        <ele>387.86</ele>
        <time>2023-11-14T18:09:12.881Z</time>
      </trkpt>
      <trkpt lat="46.05251" lon="4.49341">
        <ele>387.3</ele>
        <time>2023-11-14T18:09:14.911Z</time>
      </trkpt>
      <trkpt lat="46.05267" lon="4.49346">
        <ele>386.73</ele>
        <time>2023-11-14T18:09:16.944Z</time>
      </trkpt>
      <trkpt lat="46.05294" lon="4.4936">
        <ele>386.36</ele>
        <time>2023-11-14T18:09:18.982Z</time>
      </trkpt>
      <trkpt lat="46.0532" lon="4.49371">
        <ele>385.91</ele>
        <time>2023-11-14T18:09:21.024Z</time>
      </trkpt>
      <trkpt lat="46.05344" lon="4.49377">
        <ele>385.33</ele>
        <time>2023-11-14T18:09:23.070Z</time>
      </trkpt>
      <trkpt lat="46.0535" lon="4.49378">
        <ele>384.89</ele>
        <time>2023-11-14T18:09:25.117Z</time>
      </trkpt>
      <trkpt lat="46.05378" lon="4.49375">
        <ele>384.51</ele>
        <time>2023-11-14T18:09:27.168Z</time>
      </trkpt>
      <trkpt lat="46.05418" lon="4.49362">
        <ele>384.24</ele>
        <time>2023-11-14T18:09:29.226Z</time>
      </trkpt>
      <trkpt lat="46.05443" lon="4.49356">
        <ele>383.9</ele>
        <time>2023-11-14T18:09:31.288Z</time>
      </trkpt>
      <trkpt lat="46.05487" lon="4.49338">
        <ele>383.51</ele>
        <time>2023-11-14T18:09:33.357Z</time>
      </trkpt>
      <trkpt lat="46.05507" lon="4.49317">
        <ele>383.13</ele>
        <time>2023-11-14T18:09:35.430Z</time>
      </trkpt>
      <trkpt lat="46.0552" lon="4.49303">
        <ele>382.99</ele>
        <time>2023-11-14T18:09:37.506Z</time>
      </trkpt>
      <trkpt lat="46.05556" lon="4.49251">
        <ele>383.34</ele>
        <time>2023-11-14T18:09:39.590Z</time>
      </trkpt>
      <trkpt lat="46.05574" lon="4.49233">
        <ele>383.61</ele>
        <time>2023-11-14T18:09:41.678Z</time>
      </trkpt>
      <trkpt lat="46.05668" lon="4.49169">
        <ele>383.94</ele>
        <time>2023-11-14T18:09:43.782Z</time>
      </trkpt>
      <trkpt lat="46.05668" lon="4.49169">
        <ele>384.09</ele>
        <time>2023-11-14T18:09:45.886Z</time>
      </trkpt>
      <trkpt lat="46.05747" lon="4.49102">
        <ele>384.15</ele>
        <time>2023-11-14T18:09:48.005Z</time>
      </trkpt>
      <trkpt lat="46.05794" lon="4.49074">
        <ele>384.21</ele>
        <time>2023-11-14T18:09:50.132Z</time>
      </trkpt>
      <trkpt lat="46.05852" lon="4.49045">
        <ele>384.34</ele>
        <time>2023-11-14T18:09:52.269Z</time>
      </trkpt>
      <trkpt lat="46.05976" lon="4.48972">
        <ele>384.49</ele>
        <time>2023-11-14T18:09:54.427Z</time>
      </trkpt>
      <trkpt lat="46.06005" lon="4.48966">
        <ele>384.78</ele>
        <time>2023-11-14T18:09:56.590Z</time>
      </trkpt>
      <trkpt lat="46.06034" lon="4.48968">
        <ele>385.13</ele>
        <time>2023-11-14T18:09:58.758Z</time>
      </trkpt>
      <trkpt lat="46.06087" lon="4.4898">
        <ele>385.45</ele>
        <time>2023-11-14T18:10:00.934Z</time>
      </trkpt>
      <trkpt lat="46.06114" lon="4.4899">
        <ele>385.96</ele>
        <time>2023-11-14T18:10:03.115Z</time>
      </trkpt>
      <trkpt lat="46.06153" lon="4.49002">
        <ele>386.67</ele>
        <time>2023-11-14T18:10:05.302Z</time>
      </trkpt>
      <trkpt lat="46.06168" lon="4.49004">
        <ele>387.27</ele>
        <time>2023-11-14T18:10:07.492Z</time>
      </trkpt>
      <trkpt lat="46.0617" lon="4.49004">
        <ele>387.77</ele>
        <time>2023-11-14T18:10:09.682Z</time>
      </trkpt>
      <trkpt lat="46.0617" lon="4.49004">
        <ele>388.21</ele>
        <time>2023-11-14T18:10:11.872Z</time>
      </trkpt>
      <trkpt lat="46.06197" lon="4.49002">
        <ele>388.8</ele>
        <time>2023-11-14T18:10:14.066Z</time>
      </trkpt>
      <trkpt lat="46.06228" lon="4.48995">
        <ele>389.23</ele>
        <time>2023-11-14T18:10:16.265Z</time>
      </trkpt>
      <trkpt lat="46.06243" lon="4.48999">
        <ele>388.95</ele>
        <time>2023-11-14T18:10:18.467Z</time>
      </trkpt>
      <trkpt lat="46.06262" lon="4.49009">
        <ele>388.18</ele>
        <time>2023-11-14T18:10:20.672Z</time>
      </trkpt>
      <trkpt lat="46.06275" lon="4.49029">
        <ele>387.33</ele>
        <time>2023-11-14T18:10:22.880Z</time>
      </trkpt>
      <trkpt lat="46.06281" lon="4.49043">
        <ele>386.91</ele>
        <time>2023-11-14T18:10:25.090Z</time>
      </trkpt>
      <trkpt lat="46.06308" lon="4.49134">
        <ele>386.42</ele>
        <time>2023-11-14T18:10:27.311Z</time>
      </trkpt>
      <trkpt lat="46.06308" lon="4.49134">
        <ele>386.15</ele>
        <time>2023-11-14T18:10:29.532Z</time>
      </trkpt>
      <trkpt lat="46.06315" lon="4.49161">
        <ele>385.87</ele>
        <time>2023-11-14T18:10:31.756Z</time>
      </trkpt>
      <trkpt lat="46.06323" lon="4.49174">
        <ele>385.76</ele>
        <time>2023-11-14T18:10:33.982Z</time>
      </trkpt>
      <trkpt lat="46.06336" lon="4.49192">
        <ele>385.38</ele>
        <time>2023-11-14T18:10:36.211Z</time>
      </trkpt>
      <trkpt lat="46.06325" lon="4.4922">
        <ele>385.02</ele>
        <time>2023-11-14T18:10:38.443Z</time>
      </trkpt>
      <trkpt lat="46.0632" lon="4.49228">
        <ele>384.79</ele>
        <time>2023-11-14T18:10:40.676Z</time>
      </trkpt>
      <trkpt lat="46.06325" lon="4.4922">
        <ele>385.02</ele>
        <time>2023-11-14T18:10:42.911Z</time>
      </trkpt>
      <trkpt lat="46.06336" lon="4.49192">
        <ele>385.38</ele>
        <time>2023-11-14T18:10:45.149Z</time>
      </trkpt>
      <trkpt lat="46.06388" lon="4.49238">
        <ele>386.15</ele>
        <time>2023-11-14T18:10:47.397Z</time>
      </trkpt>
      <trkpt lat="46.06409" lon="4.49248">
        <ele>386.85</ele>
        <time>2023-11-14T18:10:49.649Z</time>
      </trkpt>
      <trkpt lat="46.06422" lon="4.4925">
        <ele>387.54</ele>
        <time>2023-11-14T18:10:51.903Z</time>
      </trkpt>
      <trkpt lat="46.06489" lon="4.49225">
        <ele>388.58</ele>
        <time>2023-11-14T18:10:54.168Z</time>
      </trkpt>
      <trkpt lat="46.06489" lon="4.49225">
        <ele>389.31</ele>
        <time>2023-11-14T18:10:56.433Z</time>
      </trkpt>
      <trkpt lat="46.06496" lon="4.49224">
        <ele>390.08</ele>
        <time>2023-11-14T18:10:58.699Z</time>
      </trkpt>
      <trkpt lat="46.06526" lon="4.49224">
        <ele>391.04</ele>
        <time>2023-11-14T18:11:00.970Z</time>
      </trkpt>
      <trkpt lat="46.06526" lon="4.49224">
        <ele>391.87</ele>
        <time>2023-11-14T18:11:03.241Z</time>
      </trkpt>
      <trkpt lat="46.06621" lon="4.49225">
        <ele>393.1</ele>
        <time>2023-11-14T18:11:05.527Z</time>
      </trkpt>
      <trkpt lat="46.06649" lon="4.49221">
        <ele>394.23</ele>
        <time>2023-11-14T18:11:07.817Z</time>
      </trkpt>
      <trkpt lat="46.06649" lon="4.49221">
        <ele>395.31</ele>
        <time>2023-11-14T18:11:10.107Z</time>
      </trkpt>
      <trkpt lat="46.06723" lon="4.49199">
        <ele>396.84</ele>
        <time>2023-11-14T18:11:12.409Z</time>
      </trkpt>
      <trkpt lat="46.06728" lon="4.49197">
        <ele>398.13</ele>
        <time>2023-11-14T18:11:14.712Z</time>
      </trkpt>
      <trkpt lat="46.06728" lon="4.49197">
        <ele>399.66</ele>
        <time>2023-11-14T18:11:17.015Z</time>
      </trkpt>
      <trkpt lat="46.06782" lon="4.49181">
        <ele>401.88</ele>
        <time>2023-11-14T18:11:19.327Z</time>
      </trkpt>
      <trkpt lat="46.06852" lon="4.49156">
        <ele>404.31</ele>
        <time>2023-11-14T18:11:21.651Z</time>
      </trkpt>
      <trkpt lat="46.06928" lon="4.49121">
        <ele>405.39</ele>
        <time>2023-11-14T18:11:23.987Z</time>
      </trkpt>
      <trkpt lat="46.0712" lon="4.49025">
        <ele>407.49</ele>
        <time>2023-11-14T18:11:26.356Z</time>
      </trkpt>
      <trkpt lat="46.07162" lon="4.49011">
        <ele>408.04</ele>
        <time>2023-11-14T18:11:28.732Z</time>
      </trkpt>
      <trkpt lat="46.07196" lon="4.49006">
        <ele>406.9</ele>
        <time>2023-11-14T18:11:31.113Z</time>
      </trkpt>
      <trkpt lat="46.07205" lon="4.49005">
        <ele>406.07</ele>
        <time>2023-11-14T18:11:33.496Z</time>
      </trkpt>
      <trkpt lat="46.07234" lon="4.49007">
        <ele>404.84</ele>
        <time>2023-11-14T18:11:35.883Z</time>
      </trkpt>
      <trkpt lat="46.07327" lon="4.49018">
        <ele>401.69</ele>
        <time>2023-11-14T18:11:38.285Z</time>
      </trkpt>
      <trkpt lat="46.07327" lon="4.49018">
        <ele>399.89</ele>
        <time>2023-11-14T18:11:40.687Z</time>
      </trkpt>
      <trkpt lat="46.0735" lon="4.4902">
        <ele>398.23</ele>
        <time>2023-11-14T18:11:43.093Z</time>
      </trkpt>
      <trkpt lat="46.07438" lon="4.49029">
        <ele>397.03</ele>
        <time>2023-11-14T18:11:45.513Z</time>
      </trkpt>
      <trkpt lat="46.07454" lon="4.49028">
        <ele>396.2</ele>
        <time>2023-11-14T18:11:47.936Z</time>
      </trkpt>
      <trkpt lat="46.07463" lon="4.49105">
        <ele>395.25</ele>
        <time>2023-11-14T18:11:50.367Z</time>
      </trkpt>
      <trkpt lat="46.07461" lon="4.49118">
        <ele>394.82</ele>
        <time>2023-11-14T18:11:52.800Z</time>
      </trkpt>
      <trkpt lat="46.07457" lon="4.4913">
        <ele>394.63</ele>
        <time>2023-11-14T18:11:55.234Z</time>
      </trkpt>
      <trkpt lat="46.07448" lon="4.49139">
        <ele>394.65</ele>
        <time>2023-11-14T18:11:57.670Z</time>
      </trkpt>
      <trkpt lat="46.07376" lon="4.49181">
        <ele>395.08</ele>
        <time>2023-11-14T18:12:00.119Z</time>
      </trkpt>
      <trkpt lat="46.07353" lon="4.49202">
        <ele>395.5</ele>
        <time>2023-11-14T18:12:02.572Z</time>
      </trkpt>
      <trkpt lat="46.07333" lon="4.49228">
        <ele>396.23</ele>
        <time>2023-11-14T18:12:05.029Z</time>
      </trkpt>
      <trkpt lat="46.07328" lon="4.49238">
        <ele>396.86</ele>
        <time>2023-11-14T18:12:07.488Z</time>
      </trkpt>
      <trkpt lat="46.07325" lon="4.49252">
        <ele>397.55</ele>
        <time>2023-11-14T18:12:09.948Z</time>
      </trkpt>
      <trkpt lat="46.07324" lon="4.4927">
        <ele>398.32</ele>
        <time>2023-11-14T18:12:12.410Z</time>
      </trkpt>
      <trkpt lat="46.07328" lon="4.49287">
        <ele>399.07</ele>
        <time>2023-11-14T18:12:14.874Z</time>
      </trkpt>
      <trkpt lat="46.07345" lon="4.4932">
        <ele>399.78</ele>
        <time>2023-11-14T18:12:17.343Z</time>
      </trkpt>
      <trkpt lat="46.07416" lon="4.49431">
        <ele>401.08</ele>
        <time>2023-11-14T18:12:19.829Z</time>
      </trkpt>
      <trkpt lat="46.07445" lon="4.49474">
        <ele>401.56</ele>
        <time>2023-11-14T18:12:22.321Z</time>
      </trkpt>
      <trkpt lat="46.0746" lon="4.49491">
        <ele>402.16</ele>
        <time>2023-11-14T18:12:24.816Z</time>
      </trkpt>
      <trkpt lat="46.0747" lon="4.495">
        <ele>402.74</ele>
        <time>2023-11-14T18:12:27.313Z</time>
      </trkpt>
      <trkpt lat="46.07475" lon="4.49504">
        <ele>403.2</ele>
        <time>2023-11-14T18:12:29.811Z</time>
      </trkpt>
      <trkpt lat="46.07475" lon="4.49504">
        <ele>403.54</ele>
        <time>2023-11-14T18:12:32.309Z</time>
      </trkpt>
      <trkpt lat="46.07616" lon="4.49621">
        <ele>403.75</ele>
        <time>2023-11-14T18:12:34.833Z</time>
      </trkpt>
      <trkpt lat="46.07641" lon="4.49635">
        <ele>404.48</ele>
        <time>2023-11-14T18:12:37.362Z</time>
      </trkpt>
      <trkpt lat="46.07667" lon="4.49648">
        <ele>405.5</ele>
        <time>2023-11-14T18:12:39.895Z</time>
      </trkpt>
      <trkpt lat="46.07714" lon="4.49665">
        <ele>411.09</ele>
        <time>2023-11-14T18:12:42.436Z</time>
      </trkpt>
      <trkpt lat="46.07747" lon="4.49678">
        <ele>412.01</ele>
        <time>2023-11-14T18:12:44.982Z</time>
      </trkpt>
      <trkpt lat="46.07853" lon="4.49727">
        <ele>414.52</ele>
        <time>2023-11-14T18:12:47.546Z</time>
      </trkpt>
      <trkpt lat="46.07887" lon="4.49744">
        <ele>416.76</ele>
        <time>2023-11-14T18:12:50.116Z</time>
      </trkpt>
      <trkpt lat="46.07947" lon="4.49781">
        <ele>419</ele>
        <time>2023-11-14T18:12:52.696Z</time>
      </trkpt>
      <trkpt lat="46.07961" lon="4.49786">
        <ele>420.8</ele>
        <time>2023-11-14T18:12:55.279Z</time>
      </trkpt>
      <trkpt lat="46.08016" lon="4.49796">
        <ele>422.61</ele>
        <time>2023-11-14T18:12:57.870Z</time>
      </trkpt>
      <trkpt lat="46.08091" lon="4.49805">
        <ele>423.47</ele>
        <time>2023-11-14T18:13:00.473Z</time>
      </trkpt>
      <trkpt lat="46.08108" lon="4.49805">
        <ele>424.26</ele>
        <time>2023-11-14T18:13:03.079Z</time>
      </trkpt>
      <trkpt lat="46.08128" lon="4.49797">
        <ele>424.95</ele>
        <time>2023-11-14T18:13:05.689Z</time>
      </trkpt>
      <trkpt lat="46.08128" lon="4.49797">
        <ele>425.52</ele>
        <time>2023-11-14T18:13:08.299Z</time>
      </trkpt>
      <trkpt lat="46.08136" lon="4.49793">
        <ele>425.98</ele>
        <time>2023-11-14T18:13:10.910Z</time>
      </trkpt>
      <trkpt lat="46.08157" lon="4.49771">
        <ele>426.7</ele>
        <time>2023-11-14T18:13:13.525Z</time>
      </trkpt>
      <trkpt lat="46.08177" lon="4.49758">
        <ele>427.52</ele>
        <time>2023-11-14T18:13:16.143Z</time>
      </trkpt>
      <trkpt lat="46.08195" lon="4.49751">
        <ele>428.18</ele>
        <time>2023-11-14T18:13:18.765Z</time>
      </trkpt>
      <trkpt lat="46.08216" lon="4.49746">
        <ele>428.8</ele>
        <time>2023-11-14T18:13:21.390Z</time>
      </trkpt>
      <trkpt lat="46.08234" lon="4.49747">
        <ele>429.41</ele>
        <time>2023-11-14T18:13:24.018Z</time>
      </trkpt>
      <trkpt lat="46.08246" lon="4.49752">
        <ele>429.94</ele>
        <time>2023-11-14T18:13:26.648Z</time>
      </trkpt>
      <trkpt lat="46.08331" lon="4.49805">
        <ele>430.54</ele>
        <time>2023-11-14T18:13:29.293Z</time>
      </trkpt>
      <trkpt lat="46.08346" lon="4.49825">
        <ele>430.71</ele>
        <time>2023-11-14T18:13:31.941Z</time>
      </trkpt>
      <trkpt lat="46.08368" lon="4.49857">
        <ele>430.8</ele>
        <time>2023-11-14T18:13:34.594Z</time>
      </trkpt>
      <trkpt lat="46.0839" lon="4.49884">
        <ele>430.84</ele>
        <time>2023-11-14T18:13:37.252Z</time>
      </trkpt>
      <trkpt lat="46.08402" lon="4.49892">
        <ele>430.94</ele>
        <time>2023-11-14T18:13:39.912Z</time>
      </trkpt>
      <trkpt lat="46.08436" lon="4.49909">
        <ele>431.09</ele>
        <time>2023-11-14T18:13:42.578Z</time>
      </trkpt>
      <trkpt lat="46.08464" lon="4.4992">
        <ele>431.02</ele>
        <time>2023-11-14T18:13:45.248Z</time>
      </trkpt>
      <trkpt lat="46.08516" lon="4.49956">
        <ele>430.89</ele>
        <time>2023-11-14T18:13:47.927Z</time>
      </trkpt>
      <trkpt lat="46.08538" lon="4.49974">
        <ele>430.47</ele>
        <time>2023-11-14T18:13:50.610Z</time>
      </trkpt>
      <trkpt lat="46.08551" lon="4.49987">
        <ele>430.21</ele>
        <time>2023-11-14T18:13:53.296Z</time>
      </trkpt>
      <trkpt lat="46.0856" lon="4.50001">
        <ele>429.88</ele>
        <time>2023-11-14T18:13:55.984Z</time>
      </trkpt>
      <trkpt lat="46.08581" lon="4.50045">
        <ele>429.62</ele>
        <time>2023-11-14T18:13:58.678Z</time>
      </trkpt>
      <trkpt lat="46.08596" lon="4.50072">
        <ele>429.38</ele>
        <time>2023-11-14T18:14:01.376Z</time>
      </trkpt>
      <trkpt lat="46.08607" lon="4.50081">
        <ele>429.14</ele>
        <time>2023-11-14T18:14:04.076Z</time>
      </trkpt>
      <trkpt lat="46.08617" lon="4.50084">
        <ele>428.95</ele>
        <time>2023-11-14T18:14:06.777Z</time>
      </trkpt>
      <trkpt lat="46.08637" lon="4.50082">
        <ele>428.82</ele>
        <time>2023-11-14T18:14:09.482Z</time>
      </trkpt>
      <trkpt lat="46.08664" lon="4.50068">
        <ele>428.6</ele>
        <time>2023-11-14T18:14:12.191Z</time>
      </trkpt>
      <trkpt lat="46.08692" lon="4.50052">
        <ele>428.56</ele>
        <time>2023-11-14T18:14:14.905Z</time>
      </trkpt>
      <trkpt lat="46.087" lon="4.50052">
        <ele>428.75</ele>
        <time>2023-11-14T18:14:17.620Z</time>
      </trkpt>
      <trkpt lat="46.08709" lon="4.50054">
        <ele>429.18</ele>
        <time>2023-11-14T18:14:20.337Z</time>
      </trkpt>
      <trkpt lat="46.0872" lon="4.50063">
        <ele>430</ele>
        <time>2023-11-14T18:14:23.056Z</time>
      </trkpt>
      <trkpt lat="46.08735" lon="4.50091">
        <ele>431.23</ele>
        <time>2023-11-14T18:14:25.779Z</time>
      </trkpt>
      <trkpt lat="46.08812" lon="4.50088">
        <ele>432.92</ele>
        <time>2023-11-14T18:14:28.514Z</time>
      </trkpt>
      <trkpt lat="46.08858" lon="4.50091">
        <ele>434.77</ele>
        <time>2023-11-14T18:14:31.256Z</time>
      </trkpt>
      <trkpt lat="46.0889" lon="4.5009">
        <ele>435.79</ele>
        <time>2023-11-14T18:14:34.004Z</time>
      </trkpt>
      <trkpt lat="46.08925" lon="4.50083">
        <ele>436.55</ele>
        <time>2023-11-14T18:14:36.757Z</time>
      </trkpt>
      <trkpt lat="46.08949" lon="4.50074">
        <ele>437.17</ele>
        <time>2023-11-14T18:14:39.514Z</time>
      </trkpt>
      <trkpt lat="46.08977" lon="4.50056">
        <ele>437.74</ele>
        <time>2023-11-14T18:14:42.276Z</time>
      </trkpt>
      <trkpt lat="46.09063" lon="4.49981">
        <ele>438.37</ele>
        <time>2023-11-14T18:14:45.054Z</time>
      </trkpt>
      <trkpt lat="46.09082" lon="4.4996">
        <ele>439.11</ele>
        <time>2023-11-14T18:14:47.836Z</time>
      </trkpt>
      <trkpt lat="46.09082" lon="4.4996">
        <ele>441.86</ele>
        <time>2023-11-14T18:14:50.618Z</time>
      </trkpt>
      <trkpt lat="46.09119" lon="4.49919">
        <ele>443.45</ele>
        <time>2023-11-14T18:14:53.408Z</time>
      </trkpt>
      <trkpt lat="46.09138" lon="4.49898">
        <ele>444.55</ele>
        <time>2023-11-14T18:14:56.201Z</time>
      </trkpt>
      <trkpt lat="46.0919" lon="4.49842">
        <ele>445.02</ele>
        <time>2023-11-14T18:14:59.005Z</time>
      </trkpt>
      <trkpt lat="46.09211" lon="4.49818">
        <ele>445.35</ele>
        <time>2023-11-14T18:15:01.813Z</time>
      </trkpt>
      <trkpt lat="46.09216" lon="4.49812">
        <ele>445.42</ele>
        <time>2023-11-14T18:15:04.622Z</time>
      </trkpt>
      <trkpt lat="46.09236" lon="4.4979">
        <ele>445.41</ele>
        <time>2023-11-14T18:15:07.435Z</time>
      </trkpt>
      <trkpt lat="46.09254" lon="4.49779">
        <ele>445.43</ele>
        <time>2023-11-14T18:15:10.251Z</time>
      </trkpt>
      <trkpt lat="46.09271" lon="4.49771">
        <ele>445.47</ele>
        <time>2023-11-14T18:15:13.070Z</time>
      </trkpt>
      <trkpt lat="46.09286" lon="4.49772">
        <ele>445.64</ele>
        <time>2023-11-14T18:15:15.892Z</time>
      </trkpt>
      <trkpt lat="46.09309" lon="4.4978">
        <ele>445.89</ele>
        <time>2023-11-14T18:15:18.717Z</time>
      </trkpt>
      <trkpt lat="46.09328" lon="4.49793">
        <ele>446.2</ele>
        <time>2023-11-14T18:15:21.546Z</time>
      </trkpt>
      <trkpt lat="46.0939" lon="4.49858">
        <ele>446.45</ele>
        <time>2023-11-14T18:15:24.387Z</time>
      </trkpt>
      <trkpt lat="46.09404" lon="4.49868">
        <ele>446.47</ele>
        <time>2023-11-14T18:15:27.231Z</time>
      </trkpt>
      <trkpt lat="46.09423" lon="4.49872">
        <ele>446.37</ele>
        <time>2023-11-14T18:15:30.078Z</time>
      </trkpt>
      <trkpt lat="46.09487" lon="4.49876">
        <ele>447.01</ele>
        <time>2023-11-14T18:15:32.935Z</time>
      </trkpt>
      <trkpt lat="46.09501" lon="4.49875">
        <ele>447.48</ele>
        <time>2023-11-14T18:15:35.794Z</time>
      </trkpt>
      <trkpt lat="46.09512" lon="4.4987">
        <ele>447.9</ele>
        <time>2023-11-14T18:15:38.655Z</time>
      </trkpt>
      <trkpt lat="46.09526" lon="4.4986">
        <ele>448.31</ele>
        <time>2023-11-14T18:15:41.518Z</time>
      </trkpt>
      <trkpt lat="46.0956" lon="4.49827">
        <ele>448.62</ele>
        <time>2023-11-14T18:15:44.388Z</time>
      </trkpt>
      <trkpt lat="46.09581" lon="4.4981">
        <ele>448.94</ele>
        <time>2023-11-14T18:15:47.262Z</time>
      </trkpt>
      <trkpt lat="46.09609" lon="4.49793">
        <ele>449.28</ele>
        <time>2023-11-14T18:15:50.141Z</time>
      </trkpt>
      <trkpt lat="46.09639" lon="4.4978">
        <ele>449.58</ele>
        <time>2023-11-14T18:15:53.025Z</time>
      </trkpt>
      <trkpt lat="46.09684" lon="4.49765">
        <ele>449.64</ele>
        <time>2023-11-14T18:15:55.916Z</time>
      </trkpt>
      <trkpt lat="46.09769" lon="4.49742">
        <ele>450.35</ele>
        <time>2023-11-14T18:15:58.821Z</time>
      </trkpt>
      <trkpt lat="46.09793" lon="4.49735">
        <ele>450.79</ele>
        <time>2023-11-14T18:16:01.730Z</time>
      </trkpt>
      <trkpt lat="46.09793" lon="4.49735">
        <ele>451.31</ele>
        <time>2023-11-14T18:16:04.639Z</time>
      </trkpt>
      <trkpt lat="46.09926" lon="4.49661">
        <ele>451.58</ele>
        <time>2023-11-14T18:16:07.571Z</time>
      </trkpt>
      <trkpt lat="46.09948" lon="4.49649">
        <ele>452.19</ele>
        <time>2023-11-14T18:16:10.507Z</time>
      </trkpt>
      <trkpt lat="46.09966" lon="4.49643">
        <ele>453.16</ele>
        <time>2023-11-14T18:16:13.445Z</time>
      </trkpt>
      <trkpt lat="46.1003" lon="4.49635">
        <ele>454.43</ele>
        <time>2023-11-14T18:16:16.394Z</time>
      </trkpt>
      <trkpt lat="46.1005" lon="4.49635">
        <ele>455.8</ele>
        <time>2023-11-14T18:16:19.346Z</time>
      </trkpt>
      <trkpt lat="46.10083" lon="4.49628">
        <ele>457.59</ele>
        <time>2023-11-14T18:16:22.303Z</time>
      </trkpt>
      <trkpt lat="46.10109" lon="4.49622">
        <ele>459.39</ele>
        <time>2023-11-14T18:16:25.264Z</time>
      </trkpt>
      <trkpt lat="46.1012" lon="4.49619">
        <ele>460.99</ele>
        <time>2023-11-14T18:16:28.227Z</time>
      </trkpt>
      <trkpt lat="46.10145" lon="4.49603">
        <ele>462.82</ele>
        <time>2023-11-14T18:16:31.195Z</time>
      </trkpt>
      <trkpt lat="46.10166" lon="4.49594">
        <ele>464.46</ele>
        <time>2023-11-14T18:16:34.166Z</time>
      </trkpt>
      <trkpt lat="46.10196" lon="4.49587">
        <ele>465.96</ele>
        <time>2023-11-14T18:16:37.142Z</time>
      </trkpt>
      <trkpt lat="46.10237" lon="4.49574">
        <ele>467.34</ele>
        <time>2023-11-14T18:16:40.125Z</time>
      </trkpt>
      <trkpt lat="46.10272" lon="4.49563">
        <ele>468.41</ele>
        <time>2023-11-14T18:16:43.113Z</time>
      </trkpt>
      <trkpt lat="46.10333" lon="4.49534">
        <ele>469.31</ele>
        <time>2023-11-14T18:16:46.112Z</time>
      </trkpt>
      <trkpt lat="46.10443" lon="4.49502">
        <ele>469.62</ele>
        <time>2023-11-14T18:16:49.129Z</time>
      </trkpt>
      <trkpt lat="46.10464" lon="4.49501">
        <ele>470.12</ele>
        <time>2023-11-14T18:16:52.149Z</time>
      </trkpt>
      <trkpt lat="46.10481" lon="4.49504">
        <ele>470.22</ele>
        <time>2023-11-14T18:16:55.172Z</time>
      </trkpt>
      <trkpt lat="46.10496" lon="4.4951">
        <ele>470.18</ele>
        <time>2023-11-14T18:16:58.197Z</time>
      </trkpt>
      <trkpt lat="46.10513" lon="4.49523">
        <ele>470.03</ele>
        <time>2023-11-14T18:17:01.225Z</time>
      </trkpt>
      <trkpt lat="46.10565" lon="4.49574">
        <ele>469.86</ele>
        <time>2023-11-14T18:17:04.263Z</time>
      </trkpt>
      <trkpt lat="46.10565" lon="4.49574">
        <ele>469.86</ele>
        <time>2023-11-14T18:17:07.301Z</time>
      </trkpt>
      <trkpt lat="46.10575" lon="4.49582">
        <ele>469.93</ele>
        <time>2023-11-14T18:17:10.341Z</time>
      </trkpt>
      <trkpt lat="46.10595" lon="4.49595">
        <ele>470.08</ele>
        <time>2023-11-14T18:17:13.385Z</time>
      </trkpt>
      <trkpt lat="46.10615" lon="4.49602">
        <ele>470.03</ele>
        <time>2023-11-14T18:17:16.432Z</time>
      </trkpt>
      <trkpt lat="46.10633" lon="4.49602">
        <ele>470</ele>
        <time>2023-11-14T18:17:19.482Z</time>
      </trkpt>
      <trkpt lat="46.10671" lon="4.49591">
        <ele>470.16</ele>
        <time>2023-11-14T18:17:22.538Z</time>
      </trkpt>
      <trkpt lat="46.10731" lon="4.49567">
        <ele>470.41</ele>
        <time>2023-11-14T18:17:25.604Z</time>
      </trkpt>
      <trkpt lat="46.10757" lon="4.49554">
        <ele>470.53</ele>
        <time>2023-11-14T18:17:28.675Z</time>
      </trkpt>
      <trkpt lat="46.10783" lon="4.49539">
        <ele>470.92</ele>
        <time>2023-11-14T18:17:31.750Z</time>
      </trkpt>
      <trkpt lat="46.10843" lon="4.49498">
        <ele>470.71</ele>
        <time>2023-11-14T18:17:34.836Z</time>
      </trkpt>
      <trkpt lat="46.1086" lon="4.49491">
        <ele>470.99</ele>
        <time>2023-11-14T18:17:37.925Z</time>
      </trkpt>
      <trkpt lat="46.10931" lon="4.49481">
        <ele>471.84</ele>
        <time>2023-11-14T18:17:41.025Z</time>
      </trkpt>
      <trkpt lat="46.10931" lon="4.49481">
        <ele>472.49</ele>
        <time>2023-11-14T18:17:44.125Z</time>
      </trkpt>
      <trkpt lat="46.10967" lon="4.49479">
        <ele>473.58</ele>
        <time>2023-11-14T18:17:47.231Z</time>
      </trkpt>
      <trkpt lat="46.10982" lon="4.49477">
        <ele>474.43</ele>
        <time>2023-11-14T18:17:50.339Z</time>
      </trkpt>
      <trkpt lat="46.11" lon="4.49471">
        <ele>475.19</ele>
        <time>2023-11-14T18:17:53.450Z</time>
      </trkpt>
      <trkpt lat="46.11023" lon="4.49459">
        <ele>480.48</ele>
        <time>2023-11-14T18:17:56.565Z</time>
      </trkpt>
      <trkpt lat="46.11047" lon="4.49448">
        <ele>481.78</ele>
        <time>2023-11-14T18:17:59.684Z</time>
      </trkpt>
      <trkpt lat="46.1111" lon="4.49414">
        <ele>483.52</ele>
        <time>2023-11-14T18:18:02.814Z</time>
      </trkpt>
      <trkpt lat="46.11139" lon="4.49399">
        <ele>485.47</ele>
        <time>2023-11-14T18:18:05.949Z</time>
      </trkpt>
      <trkpt lat="46.1124" lon="4.49344">
        <ele>487.08</ele>
        <time>2023-11-14T18:18:09.101Z</time>
      </trkpt>
      <trkpt lat="46.11276" lon="4.49328">
        <ele>489.47</ele>
        <time>2023-11-14T18:18:12.259Z</time>
      </trkpt>
      <trkpt lat="46.11312" lon="4.49319">
        <ele>491.01</ele>
        <time>2023-11-14T18:18:15.423Z</time>
      </trkpt>
      <trkpt lat="46.11349" lon="4.49311">
        <ele>491.52</ele>
        <time>2023-11-14T18:18:18.593Z</time>
      </trkpt>
      <trkpt lat="46.1136" lon="4.4931">
        <ele>492.06</ele>
        <time>2023-11-14T18:18:21.765Z</time>
      </trkpt>
      <trkpt lat="46.11407" lon="4.49311">
        <ele>492.38</ele>
        <time>2023-11-14T18:18:24.944Z</time>
      </trkpt>
      <trkpt lat="46.11437" lon="4.49311">
        <ele>493.12</ele>
        <time>2023-11-14T18:18:28.128Z</time>
      </trkpt>
      <trkpt lat="46.11475" lon="4.49312">
        <ele>493.84</ele>
        <time>2023-11-14T18:18:31.318Z</time>
      </trkpt>
      <trkpt lat="46.11586" lon="4.49316">
        <ele>493.65</ele>
        <time>2023-11-14T18:18:34.526Z</time>
      </trkpt>
      <trkpt lat="46.11611" lon="4.49315">
        <ele>494.01</ele>
        <time>2023-11-14T18:18:37.738Z</time>
      </trkpt>
      <trkpt lat="46.11634" lon="4.49309">
        <ele>494.47</ele>
        <time>2023-11-14T18:18:40.954Z</time>
      </trkpt>
      <trkpt lat="46.1169" lon="4.49287">
        <ele>495.59</ele>
        <time>2023-11-14T18:18:44.179Z</time>
      </trkpt>
      <trkpt lat="46.11723" lon="4.49279">
        <ele>496.66</ele>
        <time>2023-11-14T18:18:47.409Z</time>
      </trkpt>
      <trkpt lat="46.1185" lon="4.49253">
        <ele>498.77</ele>
        <time>2023-11-14T18:18:50.660Z</time>
      </trkpt>
      <trkpt lat="46.11874" lon="4.49251">
        <ele>500.58</ele>
        <time>2023-11-14T18:18:53.915Z</time>
      </trkpt>
      <trkpt lat="46.11896" lon="4.49251">
        <ele>502.37</ele>
        <time>2023-11-14T18:18:57.173Z</time>
      </trkpt>
      <trkpt lat="46.11929" lon="4.49254">
        <ele>503.94</ele>
        <time>2023-11-14T18:19:00.436Z</time>
      </trkpt>
      <trkpt lat="46.11961" lon="4.49254">
        <ele>505.55</ele>
        <time>2023-11-14T18:19:03.705Z</time>
      </trkpt>
      <trkpt lat="46.11995" lon="4.49258">
        <ele>507.08</ele>
        <time>2023-11-14T18:19:06.979Z</time>
      </trkpt>
      <trkpt lat="46.12069" lon="4.49275">
        <ele>508.36</ele>
        <time>2023-11-14T18:19:10.265Z</time>
      </trkpt>
      <trkpt lat="46.12069" lon="4.49275">
        <ele>509.62</ele>
        <time>2023-11-14T18:19:13.551Z</time>
      </trkpt>
      <trkpt lat="46.12081" lon="4.49276">
        <ele>510.91</ele>
        <time>2023-11-14T18:19:16.839Z</time>
      </trkpt>
      <trkpt lat="46.12098" lon="4.49276">
        <ele>512.21</ele>
        <time>2023-11-14T18:19:20.130Z</time>
      </trkpt>
      <trkpt lat="46.1219" lon="4.49261">
        <ele>513.7</ele>
        <time>2023-11-14T18:19:23.436Z</time>
      </trkpt>
      <trkpt lat="46.12208" lon="4.49255">
        <ele>515</ele>
        <time>2023-11-14T18:19:26.744Z</time>
      </trkpt>
      <trkpt lat="46.12217" lon="4.49248">
        <ele>516.06</ele>
        <time>2023-11-14T18:19:30.054Z</time>
      </trkpt>
      <trkpt lat="46.1223" lon="4.49235">
        <ele>517.08</ele>
        <time>2023-11-14T18:19:33.367Z</time>
      </trkpt>
      <trkpt lat="46.12258" lon="4.49199">
        <ele>517.84</ele>
        <time>2023-11-14T18:19:36.686Z</time>
      </trkpt>
      <trkpt lat="46.12285" lon="4.49166">
        <ele>518.39</ele>
        <time>2023-11-14T18:19:40.010Z</time>
      </trkpt>
      <trkpt lat="46.12346" lon="4.49098">
        <ele>518.94</ele>
        <time>2023-11-14T18:19:43.347Z</time>
      </trkpt>
      <trkpt lat="46.12405" lon="4.49045">
        <ele>519.52</ele>
        <time>2023-11-14T18:19:46.695Z</time>
      </trkpt>
      <trkpt lat="46.12405" lon="4.49045">
        <ele>519.92</ele>
        <time>2023-11-14T18:19:50.043Z</time>
      </trkpt>
      <trkpt lat="46.1243" lon="4.49022">
        <ele>520.46</ele>
        <time>2023-11-14T18:19:53.395Z</time>
      </trkpt>
      <trkpt lat="46.12445" lon="4.49013">
        <ele>520.83</ele>
        <time>2023-11-14T18:19:56.750Z</time>
      </trkpt>
      <trkpt lat="46.12464" lon="4.49004">
        <ele>521.12</ele>
        <time>2023-11-14T18:20:00.108Z</time>
      </trkpt>
      <trkpt lat="46.12482" lon="4.49">
        <ele>521.15</ele>
        <time>2023-11-14T18:20:03.469Z</time>
      </trkpt>
      <trkpt lat="46.12534" lon="4.48996">
        <ele>521.05</ele>
        <time>2023-11-14T18:20:06.839Z</time>
      </trkpt>
      <trkpt lat="46.12554" lon="4.48999">
        <ele>521.36</ele>
        <time>2023-11-14T18:20:10.212Z</time>
      </trkpt>
      <trkpt lat="46.12573" lon="4.49005">
        <ele>521.77</ele>
        <time>2023-11-14T18:20:13.588Z</time>
      </trkpt>
      <trkpt lat="46.12606" lon="4.49022">
        <ele>522.12</ele>
        <time>2023-11-14T18:20:16.969Z</time>
      </trkpt>
      <trkpt lat="46.12623" lon="4.49034">
        <ele>522.56</ele>
        <time>2023-11-14T18:20:20.354Z</time>
      </trkpt>
      <trkpt lat="46.12657" lon="4.49067">
        <ele>523.42</ele>
        <time>2023-11-14T18:20:23.745Z</time>
      </trkpt>
      <trkpt lat="46.12673" lon="4.49077">
        <ele>523.82</ele>
        <time>2023-11-14T18:20:27.139Z</time>
      </trkpt>
      <trkpt lat="46.12673" lon="4.49077">
        <ele>524.33</ele>
        <time>2023-11-14T18:20:30.533Z</time>
      </trkpt>
      <trkpt lat="46.12685" lon="4.49079">
        <ele>524.8</ele>
        <time>2023-11-14T18:20:33.929Z</time>
      </trkpt>
      <trkpt lat="46.12702" lon="4.49076">
        <ele>525.52</ele>
        <time>2023-11-14T18:20:37.328Z</time>
      </trkpt>
      <trkpt lat="46.12746" lon="4.49059">
        <ele>526.2</ele>
        <time>2023-11-14T18:20:40.734Z</time>
      </trkpt>
      <trkpt lat="46.12746" lon="4.49059">
        <ele>526.9</ele>
        <time>2023-11-14T18:20:44.140Z</time>
      </trkpt>
      <trkpt lat="46.12772" lon="4.4905">
        <ele>527.6</ele>
        <time>2023-11-14T18:20:47.550Z</time>
      </trkpt>
      <trkpt lat="46.12806" lon="4.49045">
        <ele>528.36</ele>
        <time>2023-11-14T18:20:50.966Z</time>
      </trkpt>
      <trkpt lat="46.12885" lon="4.49037">
        <ele>529.72</ele>
        <time>2023-11-14T18:20:54.394Z</time>
      </trkpt>
      <trkpt lat="46.12907" lon="4.49032">
        <ele>530.76</ele>
        <time>2023-11-14T18:20:57.826Z</time>
      </trkpt>
      <trkpt lat="46.12929" lon="4.49022">
        <ele>531.72</ele>
        <time>2023-11-14T18:21:01.261Z</time>
      </trkpt>
      <trkpt lat="46.12996" lon="4.48962">
        <ele>532.5</ele>
        <time>2023-11-14T18:21:04.709Z</time>
      </trkpt>
      <trkpt lat="46.13011" lon="4.48951">
        <ele>533.44</ele>
        <time>2023-11-14T18:21:08.160Z</time>
      </trkpt>
      <trkpt lat="46.13027" lon="4.48946">
        <ele>534.43</ele>
        <time>2023-11-14T18:21:11.614Z</time>
      </trkpt>
      <trkpt lat="46.13048" lon="4.48946">
        <ele>535.47</ele>
        <time>2023-11-14T18:21:15.071Z</time>
      </trkpt>
      <trkpt lat="46.13158" lon="4.48966">
        <ele>536.74</ele>
        <time>2023-11-14T18:21:18.546Z</time>
      </trkpt>
      <trkpt lat="46.13174" lon="4.48972">
        <ele>537.61</ele>
        <time>2023-11-14T18:21:22.023Z</time>
      </trkpt>
      <trkpt lat="46.13194" lon="4.48983">
        <ele>538.56</ele>
        <time>2023-11-14T18:21:25.504Z</time>
      </trkpt>
      <trkpt lat="46.13194" lon="4.48983">
        <ele>539.5</ele>
        <time>2023-11-14T18:21:28.985Z</time>
      </trkpt>
      <trkpt lat="46.13216" lon="4.48994">
        <ele>540.54</ele>
        <time>2023-11-14T18:21:32.469Z</time>
      </trkpt>
      <trkpt lat="46.13216" lon="4.48994">
        <ele>541.57</ele>
        <time>2023-11-14T18:21:35.953Z</time>
      </trkpt>
      <trkpt lat="46.13342" lon="4.48984">
        <ele>542.88</ele>
        <time>2023-11-14T18:21:39.458Z</time>
      </trkpt>
      <trkpt lat="46.13345" lon="4.48984">
        <ele>544.02</ele>
        <time>2023-11-14T18:21:42.963Z</time>
      </trkpt>
      <trkpt lat="46.13378" lon="4.4898">
        <ele>545.23</ele>
        <time>2023-11-14T18:21:46.473Z</time>
      </trkpt>
      <trkpt lat="46.13407" lon="4.48979">
        <ele>546.49</ele>
        <time>2023-11-14T18:21:49.988Z</time>
      </trkpt>
      <trkpt lat="46.13426" lon="4.48983">
        <ele>548.03</ele>
        <time>2023-11-14T18:21:53.506Z</time>
      </trkpt>
      <trkpt lat="46.13471" lon="4.49">
        <ele>550.12</ele>
        <time>2023-11-14T18:21:57.032Z</time>
      </trkpt>
      <trkpt lat="46.13555" lon="4.49036">
        <ele>552.11</ele>
        <time>2023-11-14T18:22:00.572Z</time>
      </trkpt>
      <trkpt lat="46.13555" lon="4.49036">
        <ele>554.02</ele>
        <time>2023-11-14T18:22:04.112Z</time>
      </trkpt>
      <trkpt lat="46.13839" lon="4.49163">
        <ele>557.63</ele>
        <time>2023-11-14T18:22:07.699Z</time>
      </trkpt>
      <trkpt lat="46.13861" lon="4.49171">
        <ele>558.65</ele>
        <time>2023-11-14T18:22:11.290Z</time>
      </trkpt>
      <trkpt lat="46.13876" lon="4.49174">
        <ele>559.33</ele>
        <time>2023-11-14T18:22:14.883Z</time>
      </trkpt>
      <trkpt lat="46.13891" lon="4.49172">
        <ele>560.06</ele>
        <time>2023-11-14T18:22:18.479Z</time>
      </trkpt>
      <trkpt lat="46.1392" lon="4.49157">
        <ele>560.83</ele>
        <time>2023-11-14T18:22:22.080Z</time>
      </trkpt>
      <trkpt lat="46.13937" lon="4.49145">
        <ele>561.92</ele>
        <time>2023-11-14T18:22:25.684Z</time>
      </trkpt>
      <trkpt lat="46.13957" lon="4.49124">
        <ele>563.15</ele>
        <time>2023-11-14T18:22:29.292Z</time>
      </trkpt>
      <trkpt lat="46.13991" lon="4.49077">
        <ele>564.73</ele>
        <time>2023-11-14T18:22:32.907Z</time>
      </trkpt>
      <trkpt lat="46.13991" lon="4.49077">
        <ele>565.95</ele>
        <time>2023-11-14T18:22:36.522Z</time>
      </trkpt>
      <trkpt lat="46.14018" lon="4.49047">
        <ele>567.44</ele>
        <time>2023-11-14T18:22:40.143Z</time>
      </trkpt>
      <trkpt lat="46.14047" lon="4.49019">
        <ele>568.69</ele>
        <time>2023-11-14T18:22:43.769Z</time>
      </trkpt>
      <trkpt lat="46.14081" lon="4.48993">
        <ele>569.77</ele>
        <time>2023-11-14T18:22:47.401Z</time>
      </trkpt>
      <trkpt lat="46.14143" lon="4.48951">
        <ele>570.52</ele>
        <time>2023-11-14T18:22:51.044Z</time>
      </trkpt>
      <trkpt lat="46.14168" lon="4.48939">
        <ele>570.64</ele>
        <time>2023-11-14T18:22:54.692Z</time>
      </trkpt>
      <trkpt lat="46.14188" lon="4.48932">
        <ele>571.06</ele>
        <time>2023-11-14T18:22:58.343Z</time>
      </trkpt>
      <trkpt lat="46.14226" lon="4.48926">
        <ele>571.86</ele>
        <time>2023-11-14T18:23:02.000Z</time>
      </trkpt>
      <trkpt lat="46.14251" lon="4.48926">
        <ele>572.47</ele>
        <time>2023-11-14T18:23:05.661Z</time>
      </trkpt>
      <trkpt lat="46.14275" lon="4.4893">
        <ele>572.87</ele>
        <time>2023-11-14T18:23:09.326Z</time>
      </trkpt>
      <trkpt lat="46.14302" lon="4.48939">
        <ele>570.6</ele>
        <time>2023-11-14T18:23:12.995Z</time>
      </trkpt>
      <trkpt lat="46.14325" lon="4.48946">
        <ele>571.36</ele>
        <time>2023-11-14T18:23:16.668Z</time>
      </trkpt>
      <trkpt lat="46.14344" lon="4.48948">
        <ele>572.58</ele>
        <time>2023-11-14T18:23:20.344Z</time>
      </trkpt>
      <trkpt lat="46.14367" lon="4.48943">
        <ele>574.23</ele>
        <time>2023-11-14T18:23:24.024Z</time>
      </trkpt>
      <trkpt lat="46.14397" lon="4.48933">
        <ele>576.18</ele>
        <time>2023-11-14T18:23:27.709Z</time>
      </trkpt>
      <trkpt lat="46.14404" lon="4.48932">
        <ele>577.83</ele>
        <time>2023-11-14T18:23:31.395Z</time>
      </trkpt>
      <trkpt lat="46.14453" lon="4.48914">
        <ele>579.2</ele>
        <time>2023-11-14T18:23:35.089Z</time>
      </trkpt>
      <trkpt lat="46.14481" lon="4.48902">
        <ele>581.01</ele>
        <time>2023-11-14T18:23:38.788Z</time>
      </trkpt>
      <trkpt lat="46.14514" lon="4.48883">
        <ele>583.13</ele>
        <time>2023-11-14T18:23:42.492Z</time>
      </trkpt>
      <trkpt lat="46.14564" lon="4.48854">
        <ele>585.6</ele>
        <time>2023-11-14T18:23:46.205Z</time>
      </trkpt>
      <trkpt lat="46.14618" lon="4.48817">
        <ele>587.96</ele>
        <time>2023-11-14T18:23:49.928Z</time>
      </trkpt>
      <trkpt lat="46.1464" lon="4.488">
        <ele>590.34</ele>
        <time>2023-11-14T18:23:53.655Z</time>
      </trkpt>
      <trkpt lat="46.14657" lon="4.48781">
        <ele>592.68</ele>
        <time>2023-11-14T18:23:57.385Z</time>
      </trkpt>
      <trkpt lat="46.1471" lon="4.4871">
        <ele>595.55</ele>
        <time>2023-11-14T18:24:01.127Z</time>
      </trkpt>
      <trkpt lat="46.14773" lon="4.48628">
        <ele>597.57</ele>
        <time>2023-11-14T18:24:04.882Z</time>
      </trkpt>
      <trkpt lat="46.14837" lon="4.48536">
        <ele>599.4</ele>
        <time>2023-11-14T18:24:08.652Z</time>
      </trkpt>
      <trkpt lat="46.14857" lon="4.48516">
        <ele>601.04</ele>
        <time>2023-11-14T18:24:12.425Z</time>
      </trkpt>
      <trkpt lat="46.14873" lon="4.48501">
        <ele>602.46</ele>
        <time>2023-11-14T18:24:16.202Z</time>
      </trkpt>
      <trkpt lat="46.1494" lon="4.48465">
        <ele>604.32</ele>
        <time>2023-11-14T18:24:19.990Z</time>
      </trkpt>
      <trkpt lat="46.14962" lon="4.48457">
        <ele>605.63</ele>
        <time>2023-11-14T18:24:23.782Z</time>
      </trkpt>
      <trkpt lat="46.14982" lon="4.48451">
        <ele>606.82</ele>
        <time>2023-11-14T18:24:27.577Z</time>
      </trkpt>
      <trkpt lat="46.14996" lon="4.4845">
        <ele>607.82</ele>
        <time>2023-11-14T18:24:31.374Z</time>
      </trkpt>
      <trkpt lat="46.15009" lon="4.48455">
        <ele>608.67</ele>
        <time>2023-11-14T18:24:35.173Z</time>
      </trkpt>
      <trkpt lat="46.15022" lon="4.48465">
        <ele>609.48</ele>
        <time>2023-11-14T18:24:38.975Z</time>
      </trkpt>
      <trkpt lat="46.15123" lon="4.48586">
        <ele>610.3</ele>
        <time>2023-11-14T18:24:42.798Z</time>
      </trkpt>
      <trkpt lat="46.15156" lon="4.48634">
        <ele>611.03</ele>
        <time>2023-11-14T18:24:46.628Z</time>
      </trkpt>
      <trkpt lat="46.15167" lon="4.48652">
        <ele>611.52</ele>
        <time>2023-11-14T18:24:50.461Z</time>
      </trkpt>
      <trkpt lat="46.15174" lon="4.4867">
        <ele>611.96</ele>
        <time>2023-11-14T18:24:54.296Z</time>
      </trkpt>
      <trkpt lat="46.15177" lon="4.48684">
        <ele>612.28</ele>
        <time>2023-11-14T18:24:58.133Z</time>
      </trkpt>
      <trkpt lat="46.15181" lon="4.48705">
        <ele>612.59</ele>
        <time>2023-11-14T18:25:01.972Z</time>
      </trkpt>
      <trkpt lat="46.15182" lon="4.488">
        <ele>612.95</ele>
        <time>2023-11-14T18:25:05.822Z</time>
      </trkpt>
      <trkpt lat="46.15182" lon="4.488">
        <ele>613.16</ele>
        <time>2023-11-14T18:25:09.672Z</time>
      </trkpt>
      <trkpt lat="46.15185" lon="4.48837">
        <ele>613.28</ele>
        <time>2023-11-14T18:25:13.526Z</time>
      </trkpt>
      <trkpt lat="46.15189" lon="4.48854">
        <ele>613.61</ele>
        <time>2023-11-14T18:25:17.382Z</time>
      </trkpt>
      <trkpt lat="46.15192" lon="4.48869">
        <ele>614.05</ele>
        <time>2023-11-14T18:25:21.240Z</time>
      </trkpt>
      <trkpt lat="46.15198" lon="4.48878">
        <ele>614.59</ele>
        <time>2023-11-14T18:25:25.099Z</time>
      </trkpt>
      <trkpt lat="46.15212" lon="4.48908">
        <ele>615.36</ele>
        <time>2023-11-14T18:25:28.962Z</time>
      </trkpt>
      <trkpt lat="46.15238" lon="4.48943">
        <ele>616.35</ele>
        <time>2023-11-14T18:25:32.831Z</time>
      </trkpt>
      <trkpt lat="46.15321" lon="4.49044">
        <ele>617.77</ele>
        <time>2023-11-14T18:25:36.717Z</time>
      </trkpt>
      <trkpt lat="46.15359" lon="4.49087">
        <ele>619.4</ele>
        <time>2023-11-14T18:25:40.611Z</time>
      </trkpt>
      <trkpt lat="46.15366" lon="4.49093">
        <ele>620.71</ele>
        <time>2023-11-14T18:25:44.506Z</time>
      </trkpt>
      <trkpt lat="46.15381" lon="4.49102">
        <ele>622.2</ele>
        <time>2023-11-14T18:25:48.404Z</time>
      </trkpt>
      <trkpt lat="46.15392" lon="4.49105">
        <ele>623.85</ele>
        <time>2023-11-14T18:25:52.304Z</time>
      </trkpt>
      <trkpt lat="46.15407" lon="4.49103">
        <ele>625.53</ele>
        <time>2023-11-14T18:25:56.206Z</time>
      </trkpt>
      <trkpt lat="46.15419" lon="4.49097">
        <ele>627.16</ele>
        <time>2023-11-14T18:26:00.110Z</time>
      </trkpt>
      <trkpt lat="46.15444" lon="4.49083">
        <ele>628.96</ele>
        <time>2023-11-14T18:26:04.018Z</time>
      </trkpt>
      <trkpt lat="46.1547" lon="4.49076">
        <ele>630.8</ele>
        <time>2023-11-14T18:26:07.931Z</time>
      </trkpt>
      <trkpt lat="46.15642" lon="4.49048">
        <ele>633.07</ele>
        <time>2023-11-14T18:26:11.871Z</time>
      </trkpt>
      <trkpt lat="46.15669" lon="4.49037">
        <ele>635.16</ele>
        <time>2023-11-14T18:26:15.816Z</time>
      </trkpt>
      <trkpt lat="46.15708" lon="4.49016">
        <ele>637.18</ele>
        <time>2023-11-14T18:26:19.767Z</time>
      </trkpt>
      <trkpt lat="46.15726" lon="4.49011">
        <ele>638.76</ele>
        <time>2023-11-14T18:26:23.721Z</time>
      </trkpt>
      <trkpt lat="46.15742" lon="4.49009">
        <ele>641.05</ele>
        <time>2023-11-14T18:26:27.678Z</time>
      </trkpt>
      <trkpt lat="46.15789" lon="4.49002">
        <ele>641.8</ele>
        <time>2023-11-14T18:26:31.642Z</time>
      </trkpt>
      <trkpt lat="46.15853" lon="4.48984">
        <ele>642.2</ele>
        <time>2023-11-14T18:26:35.617Z</time>
      </trkpt>
      <trkpt lat="46.15875" lon="4.48983">
        <ele>642.85</ele>
        <time>2023-11-14T18:26:39.595Z</time>
      </trkpt>
      <trkpt lat="46.15892" lon="4.48987">
        <ele>643.63</ele>
        <time>2023-11-14T18:26:43.576Z</time>
      </trkpt>
      <trkpt lat="46.1592" lon="4.48998">
        <ele>644.59</ele>
        <time>2023-11-14T18:26:47.562Z</time>
      </trkpt>
      <trkpt lat="46.15934" lon="4.49">
        <ele>645.62</ele>
        <time>2023-11-14T18:26:51.550Z</time>
      </trkpt>
      <trkpt lat="46.15955" lon="4.48999">
        <ele>647.01</ele>
        <time>2023-11-14T18:26:55.541Z</time>
      </trkpt>
      <trkpt lat="46.1601" lon="4.48987">
        <ele>648.85</ele>
        <time>2023-11-14T18:26:59.541Z</time>
      </trkpt>
      <trkpt lat="46.16081" lon="4.48983">
        <ele>650.99</ele>
        <time>2023-11-14T18:27:03.553Z</time>
      </trkpt>
      <trkpt lat="46.16118" lon="4.48981">
        <ele>652.4</ele>
        <time>2023-11-14T18:27:07.571Z</time>
      </trkpt>
      <trkpt lat="46.16128" lon="4.48984">
        <ele>653.75</ele>
        <time>2023-11-14T18:27:11.590Z</time>
      </trkpt>
      <trkpt lat="46.16128" lon="4.48984">
        <ele>654.98</ele>
        <time>2023-11-14T18:27:15.609Z</time>
      </trkpt>
      <trkpt lat="46.16176" lon="4.49">
        <ele>656.25</ele>
        <time>2023-11-14T18:27:19.636Z</time>
      </trkpt>
      <trkpt lat="46.16198" lon="4.49009">
        <ele>657.38</ele>
        <time>2023-11-14T18:27:23.667Z</time>
      </trkpt>
      <trkpt lat="46.16253" lon="4.49031">
        <ele>658.49</ele>
        <time>2023-11-14T18:27:27.707Z</time>
      </trkpt>
      <trkpt lat="46.16277" lon="4.49037">
        <ele>659.68</ele>
        <time>2023-11-14T18:27:31.751Z</time>
      </trkpt>
      <trkpt lat="46.16306" lon="4.4904">
        <ele>660.87</ele>
        <time>2023-11-14T18:27:35.800Z</time>
      </trkpt>
      <trkpt lat="46.16369" lon="4.4904">
        <ele>662.28</ele>
        <time>2023-11-14T18:27:39.859Z</time>
      </trkpt>
      <trkpt lat="46.16369" lon="4.4904">
        <ele>663.2</ele>
        <time>2023-11-14T18:27:43.918Z</time>
      </trkpt>
      <trkpt lat="46.16382" lon="4.4904">
        <ele>664.07</ele>
        <time>2023-11-14T18:27:47.979Z</time>
      </trkpt>
      <trkpt lat="46.16403" lon="4.49039">
        <ele>664.86</ele>
        <time>2023-11-14T18:27:52.043Z</time>
      </trkpt>
      <trkpt lat="46.16444" lon="4.49035">
        <ele>665.42</ele>
        <time>2023-11-14T18:27:56.114Z</time>
      </trkpt>
      <trkpt lat="46.16471" lon="4.49037">
        <ele>665.79</ele>
        <time>2023-11-14T18:28:00.189Z</time>
      </trkpt>
      <trkpt lat="46.1659" lon="4.49069">
        <ele>665.82</ele>
        <time>2023-11-14T18:28:04.283Z</time>
      </trkpt>
      <trkpt lat="46.1662" lon="4.49077">
        <ele>665.86</ele>
        <time>2023-11-14T18:28:08.382Z</time>
      </trkpt>
      <trkpt lat="46.16627" lon="4.49079">
        <ele>665.88</ele>
        <time>2023-11-14T18:28:12.482Z</time>
      </trkpt>
      <trkpt lat="46.16636" lon="4.49081">
        <ele>665.87</ele>
        <time>2023-11-14T18:28:16.584Z</time>
      </trkpt>
      <trkpt lat="46.16642" lon="4.49082">
        <ele>665.84</ele>
        <time>2023-11-14T18:28:20.687Z</time>
      </trkpt>
      <trkpt lat="46.16724" lon="4.49105">
        <ele>665.98</ele>
        <time>2023-11-14T18:28:24.803Z</time>
      </trkpt>
      <trkpt lat="46.16728" lon="4.49106">
        <ele>665.92</ele>
        <time>2023-11-14T18:28:28.920Z</time>
      </trkpt>
      <trkpt lat="46.16761" lon="4.49111">
        <ele>665.85</ele>
        <time>2023-11-14T18:28:33.042Z</time>
      </trkpt>
      <trkpt lat="46.16809" lon="4.49108">
        <ele>665.66</ele>
        <time>2023-11-14T18:28:37.172Z</time>
      </trkpt>
      <trkpt lat="46.16835" lon="4.49111">
        <ele>665.36</ele>
        <time>2023-11-14T18:28:41.306Z</time>
      </trkpt>
      <trkpt lat="46.16844" lon="4.49118">
        <ele>665.02</ele>
        <time>2023-11-14T18:28:45.442Z</time>
      </trkpt>
      <trkpt lat="46.16852" lon="4.49123">
        <ele>664.6</ele>
        <time>2023-11-14T18:28:49.579Z</time>
      </trkpt>
      <trkpt lat="46.1688" lon="4.49133">
        <ele>664.03</ele>
        <time>2023-11-14T18:28:53.721Z</time>
      </trkpt>
      <trkpt lat="46.16889" lon="4.49143">
        <ele>663.46</ele>
        <time>2023-11-14T18:28:57.864Z</time>
      </trkpt>
      <trkpt lat="46.169" lon="4.49152">
        <ele>662.8</ele>
        <time>2023-11-14T18:29:02.010Z</time>
      </trkpt>
      <trkpt lat="46.16923" lon="4.4916">
        <ele>662</ele>
        <time>2023-11-14T18:29:06.159Z</time>
      </trkpt>
      <trkpt lat="46.16995" lon="4.49207">
        <ele>661.19</ele>
        <time>2023-11-14T18:29:10.321Z</time>
      </trkpt>
      <trkpt lat="46.17048" lon="4.49237">
        <ele>660.62</ele>
        <time>2023-11-14T18:29:14.492Z</time>
      </trkpt>
      <trkpt lat="46.17048" lon="4.49237">
        <ele>659.68</ele>
        <time>2023-11-14T18:29:18.663Z</time>
      </trkpt>
      <trkpt lat="46.17067" lon="4.49251">
        <ele>658.66</ele>
        <time>2023-11-14T18:29:22.837Z</time>
      </trkpt>
      <trkpt lat="46.17081" lon="4.49265">
        <ele>657.47</ele>
        <time>2023-11-14T18:29:27.014Z</time>
      </trkpt>
      <trkpt lat="46.17131" lon="4.49323">
        <ele>656.19</ele>
        <time>2023-11-14T18:29:31.201Z</time>
      </trkpt>
      <trkpt lat="46.17148" lon="4.49345">
        <ele>654.37</ele>
        <time>2023-11-14T18:29:35.392Z</time>
      </trkpt>
      <trkpt lat="46.17158" lon="4.49364">
        <ele>652.56</ele>
        <time>2023-11-14T18:29:39.586Z</time>
      </trkpt>
      <trkpt lat="46.1721" lon="4.49498">
        <ele>650.5</ele>
        <time>2023-11-14T18:29:43.797Z</time>
      </trkpt>
      <trkpt lat="46.1722" lon="4.49517">
        <ele>648.93</ele>
        <time>2023-11-14T18:29:48.011Z</time>
      </trkpt>
      <trkpt lat="46.17231" lon="4.4953">
        <ele>647.56</ele>
        <time>2023-11-14T18:29:52.227Z</time>
      </trkpt>
      <trkpt lat="46.1726" lon="4.49549">
        <ele>646.5</ele>
        <time>2023-11-14T18:29:56.448Z</time>
      </trkpt>
      <trkpt lat="46.17269" lon="4.49561">
        <ele>645.53</ele>
        <time>2023-11-14T18:30:00.671Z</time>
      </trkpt>
      <trkpt lat="46.17278" lon="4.49576">
        <ele>644.74</ele>
        <time>2023-11-14T18:30:04.896Z</time>
      </trkpt>
      <trkpt lat="46.17282" lon="4.49595">
        <ele>643.91</ele>
        <time>2023-11-14T18:30:09.123Z</time>
      </trkpt>
      <trkpt lat="46.17294" lon="4.49673">
        <ele>643.24</ele>
        <time>2023-11-14T18:30:13.359Z</time>
      </trkpt>
      <trkpt lat="46.17302" lon="4.49706">
        <ele>642.66</ele>
        <time>2023-11-14T18:30:17.599Z</time>
      </trkpt>
      <trkpt lat="46.17318" lon="4.49743">
        <ele>642.14</ele>
        <time>2023-11-14T18:30:21.844Z</time>
      </trkpt>
      <trkpt lat="46.1736" lon="4.49817">
        <ele>641.95</ele>
        <time>2023-11-14T18:30:26.100Z</time>
      </trkpt>
      <trkpt lat="46.17372" lon="4.49838">
        <ele>641.49</ele>
        <time>2023-11-14T18:30:30.359Z</time>
      </trkpt>
      <trkpt lat="46.1739" lon="4.4985">
        <ele>641.06</ele>
        <time>2023-11-14T18:30:34.621Z</time>
      </trkpt>
      <trkpt lat="46.17445" lon="4.49868">
        <ele>640.91</ele>
        <time>2023-11-14T18:30:38.892Z</time>
      </trkpt>
      <trkpt lat="46.17464" lon="4.49876">
        <ele>640.01</ele>
        <time>2023-11-14T18:30:43.166Z</time>
      </trkpt>
      <trkpt lat="46.17488" lon="4.49892">
        <ele>638.95</ele>
        <time>2023-11-14T18:30:47.444Z</time>
      </trkpt>
      <trkpt lat="46.17488" lon="4.49892">
        <ele>638.29</ele>
        <time>2023-11-14T18:30:51.722Z</time>
      </trkpt>
      <trkpt lat="46.17514" lon="4.49912">
        <ele>637.24</ele>
        <time>2023-11-14T18:30:56.005Z</time>
      </trkpt>
      <trkpt lat="46.17529" lon="4.49928">
        <ele>636.5</ele>
        <time>2023-11-14T18:31:00.291Z</time>
      </trkpt>
      <trkpt lat="46.17543" lon="4.49947">
        <ele>635.85</ele>
        <time>2023-11-14T18:31:04.580Z</time>
      </trkpt>
      <trkpt lat="46.17556" lon="4.49973">
        <ele>635.32</ele>
        <time>2023-11-14T18:31:08.872Z</time>
      </trkpt>
      <trkpt lat="46.17575" lon="4.50023">
        <ele>634.67</ele>
        <time>2023-11-14T18:31:13.171Z</time>
      </trkpt>
      <trkpt lat="46.17605" lon="4.50117">
        <ele>633.6</ele>
        <time>2023-11-14T18:31:17.481Z</time>
      </trkpt>
      <trkpt lat="46.1762" lon="4.50149">
        <ele>631.69</ele>
        <time>2023-11-14T18:31:21.796Z</time>
      </trkpt>
      <trkpt lat="46.17649" lon="4.50195">
        <ele>629.08</ele>
        <time>2023-11-14T18:31:26.118Z</time>
      </trkpt>
      <trkpt lat="46.17708" lon="4.50289">
        <ele>626.04</ele>
        <time>2023-11-14T18:31:30.454Z</time>
      </trkpt>
      <trkpt lat="46.17734" lon="4.50326">
        <ele>624.08</ele>
        <time>2023-11-14T18:31:34.795Z</time>
      </trkpt>
      <trkpt lat="46.17796" lon="4.50392">
        <ele>621.62</ele>
        <time>2023-11-14T18:31:39.149Z</time>
      </trkpt>
      <trkpt lat="46.17796" lon="4.50392">
        <ele>614.37</ele>
        <time>2023-11-14T18:31:43.503Z</time>
      </trkpt>
      <trkpt lat="46.1781" lon="4.50406">
        <ele>613.19</ele>
        <time>2023-11-14T18:31:47.860Z</time>
      </trkpt>
      <trkpt lat="46.17839" lon="4.50428">
        <ele>611.65</ele>
        <time>2023-11-14T18:31:52.222Z</time>
      </trkpt>
      <trkpt lat="46.17899" lon="4.50468">
        <ele>609.07</ele>
        <time>2023-11-14T18:31:56.594Z</time>
      </trkpt>
      <trkpt lat="46.17912" lon="4.50473">
        <ele>607.16</ele>
        <time>2023-11-14T18:32:00.969Z</time>
      </trkpt>
      <trkpt lat="46.17922" lon="4.50472">
        <ele>605.57</ele>
        <time>2023-11-14T18:32:05.345Z</time>
      </trkpt>
      <trkpt lat="46.1793" lon="4.50467">
        <ele>604.26</ele>
        <time>2023-11-14T18:32:09.723Z</time>
      </trkpt>
      <trkpt lat="46.1795" lon="4.50451">
        <ele>603.17</ele>
        <time>2023-11-14T18:32:14.104Z</time>
      </trkpt>
      <trkpt lat="46.17979" lon="4.50414">
        <ele>601.9</ele>
        <time>2023-11-14T18:32:18.491Z</time>
      </trkpt>
      <trkpt lat="46.17995" lon="4.50385">
        <ele>600.67</ele>
        <time>2023-11-14T18:32:22.882Z</time>
      </trkpt>
      <trkpt lat="46.1802" lon="4.5033">
        <ele>599.71</ele>
        <time>2023-11-14T18:32:27.281Z</time>
      </trkpt>
      <trkpt lat="46.18045" lon="4.50266">
        <ele>598.56</ele>
        <time>2023-11-14T18:32:31.688Z</time>
      </trkpt>
      <trkpt lat="46.18064" lon="4.5019">
        <ele>598.06</ele>
        <time>2023-11-14T18:32:36.104Z</time>
      </trkpt>
      <trkpt lat="46.18075" lon="4.50164">
        <ele>597.3</ele>
        <time>2023-11-14T18:32:40.523Z</time>
      </trkpt>
      <trkpt lat="46.18086" lon="4.50149">
        <ele>596.42</ele>
        <time>2023-11-14T18:32:44.945Z</time>
      </trkpt>
      <trkpt lat="46.18096" lon="4.5014">
        <ele>595.36</ele>
        <time>2023-11-14T18:32:49.369Z</time>
      </trkpt>
      <trkpt lat="46.18107" lon="4.50138">
        <ele>594.31</ele>
        <time>2023-11-14T18:32:53.794Z</time>
      </trkpt>
      <trkpt lat="46.18119" lon="4.50139">
        <ele>593.4</ele>
        <time>2023-11-14T18:32:58.221Z</time>
      </trkpt>
      <trkpt lat="46.18126" lon="4.50144">
        <ele>592.3</ele>
        <time>2023-11-14T18:33:02.650Z</time>
      </trkpt>
      <trkpt lat="46.18137" lon="4.50163">
        <ele>591.19</ele>
        <time>2023-11-14T18:33:07.081Z</time>
      </trkpt>
      <trkpt lat="46.18142" lon="4.50185">
        <ele>589.81</ele>
        <time>2023-11-14T18:33:11.515Z</time>
      </trkpt>
      <trkpt lat="46.18145" lon="4.50313">
        <ele>587.54</ele>
        <time>2023-11-14T18:33:15.963Z</time>
      </trkpt>
      <trkpt lat="46.18147" lon="4.5048">
        <ele>584.98</ele>
        <time>2023-11-14T18:33:20.430Z</time>
      </trkpt>
      <trkpt lat="46.18148" lon="4.50672">
        <ele>582.67</ele>
        <time>2023-11-14T18:33:24.918Z</time>
      </trkpt>
      <trkpt lat="46.1815" lon="4.50718">
        <ele>580.65</ele>
        <time>2023-11-14T18:33:29.411Z</time>
      </trkpt>
      <trkpt lat="46.18154" lon="4.5075">
        <ele>578.48</ele>
        <time>2023-11-14T18:33:33.908Z</time>
      </trkpt>
      <trkpt lat="46.18161" lon="4.50783">
        <ele>576.35</ele>
        <time>2023-11-14T18:33:38.409Z</time>
      </trkpt>
      <trkpt lat="46.18173" lon="4.5081">
        <ele>574.28</ele>
        <time>2023-11-14T18:33:42.913Z</time>
      </trkpt>
      <trkpt lat="46.18254" lon="4.50928">
        <ele>571.6</ele>
        <time>2023-11-14T18:33:47.436Z</time>
      </trkpt>
      <trkpt lat="46.18267" lon="4.50945">
        <ele>569.59</ele>
        <time>2023-11-14T18:33:51.961Z</time>
      </trkpt>
      <trkpt lat="46.18277" lon="4.50952">
        <ele>567.71</ele>
        <time>2023-11-14T18:33:56.488Z</time>
      </trkpt>
      <trkpt lat="46.18294" lon="4.50962">
        <ele>565.86</ele>
        <time>2023-11-14T18:34:01.018Z</time>
      </trkpt>
      <trkpt lat="46.18294" lon="4.50962">
        <ele>564.26</ele>
        <time>2023-11-14T18:34:05.548Z</time>
      </trkpt>
      <trkpt lat="46.18323" lon="4.50968">
        <ele>562.57</ele>
        <time>2023-11-14T18:34:10.083Z</time>
      </trkpt>
      <trkpt lat="46.18368" lon="4.50972">
        <ele>560.97</ele>
        <time>2023-11-14T18:34:14.625Z</time>
      </trkpt>
      <trkpt lat="46.18393" lon="4.50963">
        <ele>559.65</ele>
        <time>2023-11-14T18:34:19.171Z</time>
      </trkpt>
      <trkpt lat="46.18411" lon="4.50946">
        <ele>558.56</ele>
        <time>2023-11-14T18:34:23.721Z</time>
      </trkpt>
      <trkpt lat="46.18445" lon="4.50909">
        <ele>557.57</ele>
        <time>2023-11-14T18:34:28.277Z</time>
      </trkpt>
      <trkpt lat="46.18462" lon="4.50903">
        <ele>556.58</ele>
        <time>2023-11-14T18:34:32.836Z</time>
      </trkpt>
      <trkpt lat="46.18474" lon="4.50904">
        <ele>555.79</ele>
        <time>2023-11-14T18:34:37.397Z</time>
      </trkpt>
      <trkpt lat="46.18484" lon="4.50908">
        <ele>555.09</ele>
        <time>2023-11-14T18:34:41.960Z</time>
      </trkpt>
      <trkpt lat="46.18491" lon="4.50915">
        <ele>554.47</ele>
        <time>2023-11-14T18:34:46.524Z</time>
      </trkpt>
      <trkpt lat="46.18498" lon="4.50922">
        <ele>553.97</ele>
        <time>2023-11-14T18:34:51.090Z</time>
      </trkpt>
      <trkpt lat="46.18525" lon="4.50997">
        <ele>553.38</ele>
        <time>2023-11-14T18:34:55.665Z</time>
      </trkpt>
      <trkpt lat="46.18544" lon="4.51067">
        <ele>553.1</ele>
        <time>2023-11-14T18:35:00.248Z</time>
      </trkpt>
      <trkpt lat="46.18555" lon="4.51093">
        <ele>553.37</ele>
        <time>2023-11-14T18:35:04.835Z</time>
      </trkpt>
      <trkpt lat="46.18568" lon="4.5111">
        <ele>553.96</ele>
        <time>2023-11-14T18:35:09.424Z</time>
      </trkpt>
      <trkpt lat="46.18583" lon="4.51123">
        <ele>554.55</ele>
        <time>2023-11-14T18:35:14.016Z</time>
      </trkpt>
      <trkpt lat="46.18608" lon="4.51138">
        <ele>555.09</ele>
        <time>2023-11-14T18:35:18.613Z</time>
      </trkpt>
      <trkpt lat="46.18651" lon="4.51147">
        <ele>555.07</ele>
        <time>2023-11-14T18:35:23.217Z</time>
      </trkpt>
      <trkpt lat="46.18663" lon="4.51154">
        <ele>554.79</ele>
        <time>2023-11-14T18:35:27.823Z</time>
      </trkpt>
      <trkpt lat="46.18702" lon="4.51189">
        <ele>554.22</ele>
        <time>2023-11-14T18:35:32.436Z</time>
      </trkpt>
      <trkpt lat="46.18719" lon="4.51205">
        <ele>554.98</ele>
        <time>2023-11-14T18:35:37.052Z</time>
      </trkpt>
      <trkpt lat="46.18726" lon="4.51212">
        <ele>555.23</ele>
        <time>2023-11-14T18:35:41.670Z</time>
      </trkpt>
      <trkpt lat="46.18745" lon="4.51233">
        <ele>555.57</ele>
        <time>2023-11-14T18:35:46.291Z</time>
      </trkpt>
      <trkpt lat="46.18767" lon="4.51266">
        <ele>556.29</ele>
        <time>2023-11-14T18:35:50.918Z</time>
      </trkpt>
      <trkpt lat="46.18783" lon="4.51294">
        <ele>556.69</ele>
        <time>2023-11-14T18:35:55.549Z</time>
      </trkpt>
      <trkpt lat="46.18807" lon="4.5132">
        <ele>557.15</ele>
        <time>2023-11-14T18:36:00.184Z</time>
      </trkpt>
      <trkpt lat="46.18872" lon="4.51371">
        <ele>558.38</ele>
        <time>2023-11-14T18:36:04.831Z</time>
      </trkpt>
      <trkpt lat="46.18882" lon="4.5138">
        <ele>559.18</ele>
        <time>2023-11-14T18:36:09.480Z</time>
      </trkpt>
      <trkpt lat="46.18921" lon="4.51428">
        <ele>559.46</ele>
        <time>2023-11-14T18:36:14.137Z</time>
      </trkpt>
      <trkpt lat="46.1894" lon="4.51438">
        <ele>559.45</ele>
        <time>2023-11-14T18:36:18.798Z</time>
      </trkpt>
      <trkpt lat="46.1899" lon="4.51443">
        <ele>559.59</ele>
        <time>2023-11-14T18:36:23.467Z</time>
      </trkpt>
      <trkpt lat="46.19" lon="4.51445">
        <ele>559.71</ele>
        <time>2023-11-14T18:36:28.137Z</time>
      </trkpt>
      <trkpt lat="46.19" lon="4.51445">
        <ele>559.8</ele>
        <time>2023-11-14T18:36:32.807Z</time>
      </trkpt>
      <trkpt lat="46.19011" lon="4.5145">
        <ele>559.95</ele>
        <time>2023-11-14T18:36:37.479Z</time>
      </trkpt>
      <trkpt lat="46.1902" lon="4.5146">
        <ele>560.12</ele>
        <time>2023-11-14T18:36:42.153Z</time>
      </trkpt>
      <trkpt lat="46.19028" lon="4.51469">
        <ele>560.36</ele>
        <time>2023-11-14T18:36:46.829Z</time>
      </trkpt>
      <trkpt lat="46.19035" lon="4.5149">
        <ele>560.5</ele>
        <time>2023-11-14T18:36:51.507Z</time>
      </trkpt>
      <trkpt lat="46.19054" lon="4.51544">
        <ele>560.68</ele>
        <time>2023-11-14T18:36:56.192Z</time>
      </trkpt>
      <trkpt lat="46.19094" lon="4.51667">
        <ele>561.12</ele>
        <time>2023-11-14T18:37:00.892Z</time>
      </trkpt>
      <trkpt lat="46.19103" lon="4.51683">
        <ele>561.28</ele>
        <time>2023-11-14T18:37:05.594Z</time>
      </trkpt>
      <trkpt lat="46.19113" lon="4.51694">
        <ele>561.46</ele>
        <time>2023-11-14T18:37:10.298Z</time>
      </trkpt>
      <trkpt lat="46.19124" lon="4.51703">
        <ele>561.65</ele>
        <time>2023-11-14T18:37:15.004Z</time>
      </trkpt>
      <trkpt lat="46.19222" lon="4.51747">
        <ele>561.7</ele>
        <time>2023-11-14T18:37:19.727Z</time>
      </trkpt>
      <trkpt lat="46.19332" lon="4.51787">
        <ele>561.59</ele>
        <time>2023-11-14T18:37:24.468Z</time>
      </trkpt>
      <trkpt lat="46.19342" lon="4.51793">
        <ele>561.61</ele>
        <time>2023-11-14T18:37:29.211Z</time>
      </trkpt>
      <trkpt lat="46.19353" lon="4.51804">
        <ele>561.61</ele>
        <time>2023-11-14T18:37:33.956Z</time>
      </trkpt>
      <trkpt lat="46.19362" lon="4.51819">
        <ele>561.74</ele>
        <time>2023-11-14T18:37:38.703Z</time>
      </trkpt>
      <trkpt lat="46.19366" lon="4.51831">
        <ele>561.98</ele>
        <time>2023-11-14T18:37:43.451Z</time>
      </trkpt>
      <trkpt lat="46.19371" lon="4.51855">
        <ele>562.39</ele>
        <time>2023-11-14T18:37:48.202Z</time>
      </trkpt>
      <trkpt lat="46.19376" lon="4.5192">
        <ele>563.05</ele>
        <time>2023-11-14T18:37:52.960Z</time>
      </trkpt>
      <trkpt lat="46.19381" lon="4.51945">
        <ele>563.86</ele>
        <time>2023-11-14T18:37:57.721Z</time>
      </trkpt>
      <trkpt lat="46.19385" lon="4.51955">
        <ele>564.76</ele>
        <time>2023-11-14T18:38:02.484Z</time>
      </trkpt>
      <trkpt lat="46.19385" lon="4.51955">
        <ele>565.68</ele>
        <time>2023-11-14T18:38:07.247Z</time>
      </trkpt>
      <trkpt lat="46.19396" lon="4.51979">
        <ele>566.92</ele>
        <time>2023-11-14T18:38:12.013Z</time>
      </trkpt>
      <trkpt lat="46.19407" lon="4.51994">
        <ele>568.17</ele>
        <time>2023-11-14T18:38:16.781Z</time>
      </trkpt>
      <trkpt lat="46.19421" lon="4.52009">
        <ele>569.43</ele>
        <time>2023-11-14T18:38:21.552Z</time>
      </trkpt>
      <trkpt lat="46.19445" lon="4.52022">
        <ele>570.73</ele>
        <time>2023-11-14T18:38:26.327Z</time>
      </trkpt>
      <trkpt lat="46.19457" lon="4.52024">
        <ele>572.08</ele>
        <time>2023-11-14T18:38:31.104Z</time>
      </trkpt>
      <trkpt lat="46.19474" lon="4.52022">
        <ele>573.5</ele>
        <time>2023-11-14T18:38:35.884Z</time>
      </trkpt>
      <trkpt lat="46.19556" lon="4.51993">
        <ele>575.64</ele>
        <time>2023-11-14T18:38:40.677Z</time>
      </trkpt>
      <trkpt lat="46.19607" lon="4.51978">
        <ele>577.21</ele>
        <time>2023-11-14T18:38:45.479Z</time>
      </trkpt>
      <trkpt lat="46.19607" lon="4.51978">
        <ele>578.45</ele>
        <time>2023-11-14T18:38:50.281Z</time>
      </trkpt>
      <trkpt lat="46.19662" lon="4.51966">
        <ele>580</ele>
        <time>2023-11-14T18:38:55.092Z</time>
      </trkpt>
      <trkpt lat="46.1968" lon="4.51964">
        <ele>581.18</ele>
        <time>2023-11-14T18:38:59.905Z</time>
      </trkpt>
      <trkpt lat="46.19697" lon="4.51965">
        <ele>582</ele>
        <time>2023-11-14T18:39:04.721Z</time>
      </trkpt>
      <trkpt lat="46.19715" lon="4.51975">
        <ele>582.49</ele>
        <time>2023-11-14T18:39:09.540Z</time>
      </trkpt>
      <trkpt lat="46.19721" lon="4.5198">
        <ele>583.09</ele>
        <time>2023-11-14T18:39:14.360Z</time>
      </trkpt>
      <trkpt lat="46.19728" lon="4.51992">
        <ele>583.59</ele>
        <time>2023-11-14T18:39:19.182Z</time>
      </trkpt>
      <trkpt lat="46.19735" lon="4.52012">
        <ele>584.14</ele>
        <time>2023-11-14T18:39:24.007Z</time>
      </trkpt>
      <trkpt lat="46.19744" lon="4.5206">
        <ele>584.93</ele>
        <time>2023-11-14T18:39:28.837Z</time>
      </trkpt>
      <trkpt lat="46.1975" lon="4.52119">
        <ele>586</ele>
        <time>2023-11-14T18:39:33.674Z</time>
      </trkpt>
      <trkpt lat="46.19754" lon="4.52204">
        <ele>586.91</ele>
        <time>2023-11-14T18:39:38.520Z</time>
      </trkpt>
      <trkpt lat="46.19759" lon="4.52233">
        <ele>588.12</ele>
        <time>2023-11-14T18:39:43.370Z</time>
      </trkpt>
      <trkpt lat="46.19777" lon="4.52311">
        <ele>589.84</ele>
        <time>2023-11-14T18:39:48.229Z</time>
      </trkpt>
      <trkpt lat="46.19794" lon="4.52444">
        <ele>591.51</ele>
        <time>2023-11-14T18:39:53.103Z</time>
      </trkpt>
      <trkpt lat="46.198" lon="4.52529">
        <ele>593.36</ele>
        <time>2023-11-14T18:39:57.986Z</time>
      </trkpt>
      <trkpt lat="46.19801" lon="4.5257">
        <ele>594.98</ele>
        <time>2023-11-14T18:40:02.874Z</time>
      </trkpt>
      <trkpt lat="46.19797" lon="4.52651">
        <ele>596.78</ele>
        <time>2023-11-14T18:40:07.771Z</time>
      </trkpt>
      <trkpt lat="46.19784" lon="4.52815">
        <ele>598.66</ele>
        <time>2023-11-14T18:40:12.686Z</time>
      </trkpt>
      <trkpt lat="46.19783" lon="4.52889">
        <ele>601.11</ele>
        <time>2023-11-14T18:40:17.609Z</time>
      </trkpt>
      <trkpt lat="46.19785" lon="4.52954">
        <ele>603.73</ele>
        <time>2023-11-14T18:40:22.540Z</time>
      </trkpt>
      <trkpt lat="46.19801" lon="4.53034">
        <ele>605.79</ele>
        <time>2023-11-14T18:40:27.480Z</time>
      </trkpt>
      <trkpt lat="46.19812" lon="4.5307">
        <ele>607.89</ele>
        <time>2023-11-14T18:40:32.424Z</time>
      </trkpt>
      <trkpt lat="46.19824" lon="4.53098">
        <ele>609.41</ele>
        <time>2023-11-14T18:40:37.372Z</time>
      </trkpt>
      <trkpt lat="46.19841" lon="4.53126">
        <ele>610.25</ele>
        <time>2023-11-14T18:40:42.324Z</time>
      </trkpt>
      <trkpt lat="46.19863" lon="4.53154">
        <ele>610.63</ele>
        <time>2023-11-14T18:40:47.281Z</time>
      </trkpt>
      <trkpt lat="46.19882" lon="4.53178">
        <ele>610.95</ele>
        <time>2023-11-14T18:40:52.242Z</time>
      </trkpt>
      <trkpt lat="46.19915" lon="4.53206">
        <ele>611.73</ele>
        <time>2023-11-14T18:40:57.209Z</time>
      </trkpt>
      <trkpt lat="46.19925" lon="4.53218">
        <ele>612.34</ele>
        <time>2023-11-14T18:41:02.178Z</time>
      </trkpt>
      <trkpt lat="46.19933" lon="4.53233">
        <ele>612.93</ele>
        <time>2023-11-14T18:41:07.149Z</time>
      </trkpt>
      <trkpt lat="46.20013" lon="4.53404">
        <ele>613.29</ele>
        <time>2023-11-14T18:41:12.143Z</time>
      </trkpt>
      <trkpt lat="46.20027" lon="4.53433">
        <ele>613.99</ele>
        <time>2023-11-14T18:41:17.141Z</time>
      </trkpt>
      <trkpt lat="46.20034" lon="4.53458">
        <ele>614.79</ele>
        <time>2023-11-14T18:41:22.142Z</time>
      </trkpt>
      <trkpt lat="46.20037" lon="4.53476">
        <ele>615.54</ele>
        <time>2023-11-14T18:41:27.145Z</time>
      </trkpt>
      <trkpt lat="46.20039" lon="4.53497">
        <ele>616.23</ele>
        <time>2023-11-14T18:41:32.150Z</time>
      </trkpt>
      <trkpt lat="46.20037" lon="4.5352">
        <ele>616.92</ele>
        <time>2023-11-14T18:41:37.158Z</time>
      </trkpt>
      <trkpt lat="46.20022" lon="4.53614">
        <ele>617.73</ele>
        <time>2023-11-14T18:41:42.177Z</time>
      </trkpt>
      <trkpt lat="46.20019" lon="4.53646">
        <ele>618.45</ele>
        <time>2023-11-14T18:41:47.199Z</time>
      </trkpt>
      <trkpt lat="46.2002" lon="4.53669">
        <ele>619.07</ele>
        <time>2023-11-14T18:41:52.224Z</time>
      </trkpt>
      <trkpt lat="46.20029" lon="4.53688">
        <ele>619.7</ele>
        <time>2023-11-14T18:41:57.251Z</time>
      </trkpt>
      <trkpt lat="46.20036" lon="4.537">
        <ele>620.3</ele>
        <time>2023-11-14T18:42:02.280Z</time>
      </trkpt>
      <trkpt lat="46.20048" lon="4.53713">
        <ele>620.88</ele>
        <time>2023-11-14T18:42:07.311Z</time>
      </trkpt>
      <trkpt lat="46.20068" lon="4.53725">
        <ele>621.51</ele>
        <time>2023-11-14T18:42:12.346Z</time>
      </trkpt>
      <trkpt lat="46.20093" lon="4.53732">
        <ele>622.22</ele>
        <time>2023-11-14T18:42:17.385Z</time>
      </trkpt>
      <trkpt lat="46.20124" lon="4.53735">
        <ele>623</ele>
        <time>2023-11-14T18:42:22.429Z</time>
      </trkpt>
      <trkpt lat="46.20158" lon="4.53734">
        <ele>623.95</ele>
        <time>2023-11-14T18:42:27.478Z</time>
      </trkpt>
      <trkpt lat="46.20198" lon="4.5373">
        <ele>624.68</ele>
        <time>2023-11-14T18:42:32.534Z</time>
      </trkpt>
      <trkpt lat="46.20213" lon="4.53725">
        <ele>625.3</ele>
        <time>2023-11-14T18:42:37.592Z</time>
      </trkpt>
      <trkpt lat="46.20232" lon="4.53716">
        <ele>625.81</ele>
        <time>2023-11-14T18:42:42.653Z</time>
      </trkpt>
      <trkpt lat="46.20271" lon="4.53676">
        <ele>626.97</ele>
        <time>2023-11-14T18:42:47.722Z</time>
      </trkpt>
      <trkpt lat="46.20285" lon="4.53667">
        <ele>627.76</ele>
        <time>2023-11-14T18:42:52.794Z</time>
      </trkpt>
      <trkpt lat="46.20311" lon="4.53664">
        <ele>628.57</ele>
        <time>2023-11-14T18:42:57.870Z</time>
      </trkpt>
      <trkpt lat="46.20331" lon="4.53666">
        <ele>629.02</ele>
        <time>2023-11-14T18:43:02.949Z</time>
      </trkpt>
      <trkpt lat="46.20361" lon="4.5367">
        <ele>628.94</ele>
        <time>2023-11-14T18:43:08.033Z</time>
      </trkpt>
      <trkpt lat="46.20429" lon="4.53673">
        <ele>628.32</ele>
        <time>2023-11-14T18:43:13.128Z</time>
      </trkpt>
      <trkpt lat="46.20511" lon="4.53683">
        <ele>628.24</ele>
        <time>2023-11-14T18:43:18.236Z</time>
      </trkpt>
      <trkpt lat="46.20592" lon="4.53689">
        <ele>627.74</ele>
        <time>2023-11-14T18:43:23.357Z</time>
      </trkpt>
      <trkpt lat="46.20613" lon="4.53692">
        <ele>627.44</ele>
        <time>2023-11-14T18:43:28.481Z</time>
      </trkpt>
      <trkpt lat="46.20655" lon="4.53708">
        <ele>627.16</ele>
        <time>2023-11-14T18:43:33.612Z</time>
      </trkpt>
      <trkpt lat="46.20657" lon="4.53724">
        <ele>626.92</ele>
        <time>2023-11-14T18:43:38.745Z</time>
      </trkpt>
      <trkpt lat="46.20661" lon="4.5373">
        <ele>626.78</ele>
        <time>2023-11-14T18:43:43.879Z</time>
      </trkpt>
      <trkpt lat="46.20667" lon="4.53735">
        <ele>626.75</ele>
        <time>2023-11-14T18:43:49.014Z</time>
      </trkpt>
      <trkpt lat="46.20674" lon="4.53735">
        <ele>626.78</ele>
        <time>2023-11-14T18:43:54.150Z</time>
      </trkpt>
      <trkpt lat="46.20679" lon="4.53731">
        <ele>626.86</ele>
        <time>2023-11-14T18:43:59.287Z</time>
      </trkpt>
      <trkpt lat="46.20682" lon="4.53724">
        <ele>626.94</ele>
        <time>2023-11-14T18:44:04.425Z</time>
      </trkpt>
      <trkpt lat="46.20683" lon="4.5371">
        <ele>626.99</ele>
        <time>2023-11-14T18:44:09.565Z</time>
      </trkpt>
      <trkpt lat="46.2068" lon="4.53701">
        <ele>626.93</ele>
        <time>2023-11-14T18:44:14.706Z</time>
      </trkpt>
      <trkpt lat="46.20677" lon="4.53696">
        <ele>626.75</ele>
        <time>2023-11-14T18:44:19.848Z</time>
      </trkpt>
      <trkpt lat="46.20688" lon="4.5367">
        <ele>626.65</ele>
        <time>2023-11-14T18:44:24.993Z</time>
      </trkpt>
      <trkpt lat="46.20705" lon="4.53638">
        <ele>626.13</ele>
        <time>2023-11-14T18:44:30.142Z</time>
      </trkpt>
      <trkpt lat="46.20733" lon="4.53579">
        <ele>624.42</ele>
        <time>2023-11-14T18:44:35.299Z</time>
      </trkpt>
      <trkpt lat="46.20738" lon="4.53567">
        <ele>623.24</ele>
        <time>2023-11-14T18:44:40.458Z</time>
      </trkpt>
      <trkpt lat="46.20767" lon="4.535">
        <ele>621.55</ele>
        <time>2023-11-14T18:44:45.626Z</time>
      </trkpt>
      <trkpt lat="46.20785" lon="4.53466">
        <ele>620.84</ele>
        <time>2023-11-14T18:44:50.798Z</time>
      </trkpt>
      <trkpt lat="46.20797" lon="4.53441">
        <ele>620.33</ele>
        <time>2023-11-14T18:44:55.974Z</time>
      </trkpt>
      <trkpt lat="46.20823" lon="4.534">
        <ele>620.05</ele>
        <time>2023-11-14T18:45:01.156Z</time>
      </trkpt>
      <trkpt lat="46.20824" lon="4.53398">
        <ele>616.63</ele>
        <time>2023-11-14T18:45:06.338Z</time>
      </trkpt>
      <trkpt lat="46.20898" lon="4.53291">
        <ele>614.3</ele>
        <time>2023-11-14T18:45:11.537Z</time>
      </trkpt>
      <trkpt lat="46.20918" lon="4.53264">
        <ele>612.23</ele>
        <time>2023-11-14T18:45:16.740Z</time>
      </trkpt>
      <trkpt lat="46.20942" lon="4.53244">
        <ele>610.27</ele>
        <time>2023-11-14T18:45:21.948Z</time>
      </trkpt>
      <trkpt lat="46.21047" lon="4.53182">
        <ele>609.08</ele>
        <time>2023-11-14T18:45:27.174Z</time>
      </trkpt>
      <trkpt lat="46.2108" lon="4.53159">
        <ele>608.22</ele>
        <time>2023-11-14T18:45:32.406Z</time>
      </trkpt>
      <trkpt lat="46.21118" lon="4.53128">
        <ele>606.44</ele>
        <time>2023-11-14T18:45:37.645Z</time>
      </trkpt>
      <trkpt lat="46.21126" lon="4.53122">
        <ele>604.86</ele>
        <time>2023-11-14T18:45:42.885Z</time>
      </trkpt>
      <trkpt lat="46.21159" lon="4.53084">
        <ele>603.17</ele>
        <time>2023-11-14T18:45:48.132Z</time>
      </trkpt>
      <trkpt lat="46.21165" lon="4.53073">
        <ele>601.89</ele>
        <time>2023-11-14T18:45:53.381Z</time>
      </trkpt>
      <trkpt lat="46.21165" lon="4.53073">
        <ele>600.5</ele>
        <time>2023-11-14T18:45:58.630Z</time>
      </trkpt>
      <trkpt lat="46.21178" lon="4.53054">
        <ele>598.99</ele>
        <time>2023-11-14T18:46:03.882Z</time>
      </trkpt>
      <trkpt lat="46.21198" lon="4.53017">
        <ele>596.89</ele>
        <time>2023-11-14T18:46:09.139Z</time>
      </trkpt>
      <trkpt lat="46.21213" lon="4.52982">
        <ele>594.55</ele>
        <time>2023-11-14T18:46:14.400Z</time>
      </trkpt>
      <trkpt lat="46.21223" lon="4.52956">
        <ele>592.19</ele>
        <time>2023-11-14T18:46:19.665Z</time>
      </trkpt>
      <trkpt lat="46.21262" lon="4.52815">
        <ele>589.01</ele>
        <time>2023-11-14T18:46:24.947Z</time>
      </trkpt>
      <trkpt lat="46.21268" lon="4.52798">
        <ele>586.25</ele>
        <time>2023-11-14T18:46:30.231Z</time>
      </trkpt>
      <trkpt lat="46.21297" lon="4.52743">
        <ele>583.17</ele>
        <time>2023-11-14T18:46:35.522Z</time>
      </trkpt>
      <trkpt lat="46.21388" lon="4.52578">
        <ele>578.9</ele>
        <time>2023-11-14T18:46:40.837Z</time>
      </trkpt>
      <trkpt lat="46.21399" lon="4.52555">
        <ele>576.15</ele>
        <time>2023-11-14T18:46:46.155Z</time>
      </trkpt>
      <trkpt lat="46.2141" lon="4.52526">
        <ele>573.34</ele>
        <time>2023-11-14T18:46:51.476Z</time>
      </trkpt>
      <trkpt lat="46.21426" lon="4.52463">
        <ele>570.82</ele>
        <time>2023-11-14T18:46:56.805Z</time>
      </trkpt>
      <trkpt lat="46.21432" lon="4.52432">
        <ele>568.67</ele>
        <time>2023-11-14T18:47:02.138Z</time>
      </trkpt>
      <trkpt lat="46.21432" lon="4.52432">
        <ele>566.44</ele>
        <time>2023-11-14T18:47:07.471Z</time>
      </trkpt>
      <trkpt lat="46.21442" lon="4.52378">
        <ele>563.75</ele>
        <time>2023-11-14T18:47:12.810Z</time>
      </trkpt>
      <trkpt lat="46.21456" lon="4.52253">
        <ele>560.93</ele>
        <time>2023-11-14T18:47:18.163Z</time>
      </trkpt>
      <trkpt lat="46.21468" lon="4.52207">
        <ele>557.98</ele>
        <time>2023-11-14T18:47:23.521Z</time>
      </trkpt>
      <trkpt lat="46.21484" lon="4.52167">
        <ele>555.39</ele>
        <time>2023-11-14T18:47:28.884Z</time>
      </trkpt>
      <trkpt lat="46.2156" lon="4.52009">
        <ele>552.12</ele>
        <time>2023-11-14T18:47:34.269Z</time>
      </trkpt>
      <trkpt lat="46.2156" lon="4.52009">
        <ele>549.35</ele>
        <time>2023-11-14T18:47:39.654Z</time>
      </trkpt>
      <trkpt lat="46.2159" lon="4.51946">
        <ele>548.85</ele>
        <time>2023-11-14T18:47:45.047Z</time>
      </trkpt>
      <trkpt lat="46.21599" lon="4.51935">
        <ele>548.45</ele>
        <time>2023-11-14T18:47:50.442Z</time>
      </trkpt>
      <trkpt lat="46.21614" lon="4.51921">
        <ele>547.95</ele>
        <time>2023-11-14T18:47:55.840Z</time>
      </trkpt>
      <trkpt lat="46.21635" lon="4.51909">
        <ele>547.27</ele>
        <time>2023-11-14T18:48:01.242Z</time>
      </trkpt>
      <trkpt lat="46.21655" lon="4.51906">
        <ele>546.8</ele>
        <time>2023-11-14T18:48:06.647Z</time>
      </trkpt>
      <trkpt lat="46.21671" lon="4.51911">
        <ele>546.48</ele>
        <time>2023-11-14T18:48:12.055Z</time>
      </trkpt>
      <trkpt lat="46.21682" lon="4.51922">
        <ele>546.17</ele>
        <time>2023-11-14T18:48:17.465Z</time>
      </trkpt>
      <trkpt lat="46.21705" lon="4.5195">
        <ele>545.89</ele>
        <time>2023-11-14T18:48:22.879Z</time>
      </trkpt>
      <trkpt lat="46.21725" lon="4.51993">
        <ele>545.57</ele>
        <time>2023-11-14T18:48:28.299Z</time>
      </trkpt>
      <trkpt lat="46.21729" lon="4.52005">
        <ele>545.26</ele>
        <time>2023-11-14T18:48:33.721Z</time>
      </trkpt>
      <trkpt lat="46.2174" lon="4.52021">
        <ele>544.96</ele>
        <time>2023-11-14T18:48:39.145Z</time>
      </trkpt>
      <trkpt lat="46.21747" lon="4.52031">
        <ele>544.59</ele>
        <time>2023-11-14T18:48:44.571Z</time>
      </trkpt>
      <trkpt lat="46.21756" lon="4.5204">
        <ele>544.17</ele>
        <time>2023-11-14T18:48:49.999Z</time>
      </trkpt>
      <trkpt lat="46.21832" lon="4.52107">
        <ele>543.45</ele>
        <time>2023-11-14T18:48:55.441Z</time>
      </trkpt>
      <trkpt lat="46.21846" lon="4.52115">
        <ele>542.7</ele>
        <time>2023-11-14T18:49:00.885Z</time>
      </trkpt>
      <trkpt lat="46.2186" lon="4.52121">
        <ele>541.89</ele>
        <time>2023-11-14T18:49:06.332Z</time>
      </trkpt>
      <trkpt lat="46.21879" lon="4.5212">
        <ele>540.96</ele>
        <time>2023-11-14T18:49:11.781Z</time>
      </trkpt>
      <trkpt lat="46.21969" lon="4.52094">
        <ele>539.62</ele>
        <time>2023-11-14T18:49:17.245Z</time>
      </trkpt>
      <trkpt lat="46.21975" lon="4.5209">
        <ele>538.88</ele>
        <time>2023-11-14T18:49:22.710Z</time>
      </trkpt>
      <trkpt lat="46.21987" lon="4.52083">
        <ele>538.19</ele>
        <time>2023-11-14T18:49:28.177Z</time>
      </trkpt>
      <trkpt lat="46.22002" lon="4.52071">
        <ele>537.61</ele>
        <time>2023-11-14T18:49:33.647Z</time>
      </trkpt>
      <trkpt lat="46.22018" lon="4.52054">
        <ele>537.01</ele>
        <time>2023-11-14T18:49:39.120Z</time>
      </trkpt>
      <trkpt lat="46.22029" lon="4.52043">
        <ele>536.45</ele>
        <time>2023-11-14T18:49:44.595Z</time>
      </trkpt>
      <trkpt lat="46.22033" lon="4.52032">
        <ele>536</ele>
        <time>2023-11-14T18:49:50.072Z</time>
      </trkpt>
      <trkpt lat="46.22034" lon="4.52022">
        <ele>535.68</ele>
        <time>2023-11-14T18:49:55.550Z</time>
      </trkpt>
      <trkpt lat="46.22039" lon="4.51963">
        <ele>535.35</ele>
        <time>2023-11-14T18:50:01.035Z</time>
      </trkpt>
      <trkpt lat="46.22047" lon="4.51945">
        <ele>535.14</ele>
        <time>2023-11-14T18:50:06.522Z</time>
      </trkpt>
      <trkpt lat="46.22056" lon="4.51924">
        <ele>535.03</ele>
        <time>2023-11-14T18:50:12.012Z</time>
      </trkpt>
      <trkpt lat="46.22071" lon="4.51902">
        <ele>535.19</ele>
        <time>2023-11-14T18:50:17.505Z</time>
      </trkpt>
      <trkpt lat="46.22086" lon="4.51886">
        <ele>535.2</ele>
        <time>2023-11-14T18:50:23.001Z</time>
      </trkpt>
      <trkpt lat="46.22097" lon="4.51875">
        <ele>535</ele>
        <time>2023-11-14T18:50:28.499Z</time>
      </trkpt>
      <trkpt lat="46.22209" lon="4.5181">
        <ele>534.53</ele>
        <time>2023-11-14T18:50:34.017Z</time>
      </trkpt>
      <trkpt lat="46.22224" lon="4.51799">
        <ele>534.15</ele>
        <time>2023-11-14T18:50:39.537Z</time>
      </trkpt>
      <trkpt lat="46.22226" lon="4.51797">
        <ele>533.96</ele>
        <time>2023-11-14T18:50:45.058Z</time>
      </trkpt>
      <trkpt lat="46.22236" lon="4.51784">
        <ele>533.76</ele>
        <time>2023-11-14T18:50:50.581Z</time>
      </trkpt>
      <trkpt lat="46.22243" lon="4.51765">
        <ele>533.59</ele>
        <time>2023-11-14T18:50:56.106Z</time>
      </trkpt>
      <trkpt lat="46.22252" lon="4.51765">
        <ele>533.18</ele>
        <time>2023-11-14T18:51:01.633Z</time>
      </trkpt>
      <trkpt lat="46.22256" lon="4.51756">
        <ele>532.93</ele>
        <time>2023-11-14T18:51:07.161Z</time>
      </trkpt>
      <trkpt lat="46.22257" lon="4.51749">
        <ele>532.8</ele>
        <time>2023-11-14T18:51:12.689Z</time>
      </trkpt>
      <trkpt lat="46.22256" lon="4.51743">
        <ele>532.76</ele>
        <time>2023-11-14T18:51:18.218Z</time>
      </trkpt>
      <trkpt lat="46.22253" lon="4.51739">
        <ele>532.84</ele>
        <time>2023-11-14T18:51:23.748Z</time>
      </trkpt>
      <trkpt lat="46.22249" lon="4.51737">
        <ele>533</ele>
        <time>2023-11-14T18:51:29.279Z</time>
      </trkpt>
      <trkpt lat="46.22254" lon="4.51717">
        <ele>533.03</ele>
        <time>2023-11-14T18:51:34.812Z</time>
      </trkpt>
      <trkpt lat="46.22255" lon="4.51702">
        <ele>533.23</ele>
        <time>2023-11-14T18:51:40.347Z</time>
      </trkpt>
      <trkpt lat="46.22255" lon="4.51668">
        <ele>533.48</ele>
        <time>2023-11-14T18:51:45.885Z</time>
      </trkpt>
      <trkpt lat="46.22249" lon="4.51624">
        <ele>533.92</ele>
        <time>2023-11-14T18:51:51.428Z</time>
      </trkpt>
      <trkpt lat="46.2224" lon="4.51598">
        <ele>534.39</ele>
        <time>2023-11-14T18:51:56.975Z</time>
      </trkpt>
      <trkpt lat="46.22223" lon="4.51565">
        <ele>535.02</ele>
        <time>2023-11-14T18:52:02.526Z</time>
      </trkpt>
      <trkpt lat="46.22213" lon="4.51553">
        <ele>535.89</ele>
        <time>2023-11-14T18:52:08.079Z</time>
      </trkpt>
      <trkpt lat="46.22192" lon="4.51537">
        <ele>537.1</ele>
        <time>2023-11-14T18:52:13.636Z</time>
      </trkpt>
      <trkpt lat="46.22173" lon="4.51528">
        <ele>538.36</ele>
        <time>2023-11-14T18:52:19.196Z</time>
      </trkpt>
      <trkpt lat="46.22078" lon="4.51486">
        <ele>539.54</ele>
        <time>2023-11-14T18:52:24.772Z</time>
      </trkpt>
      <trkpt lat="46.22078" lon="4.51486">
        <ele>540.05</ele>
        <time>2023-11-14T18:52:30.348Z</time>
      </trkpt>
      <trkpt lat="46.22045" lon="4.5147">
        <ele>541.97</ele>
        <time>2023-11-14T18:52:35.930Z</time>
      </trkpt>
      <trkpt lat="46.22014" lon="4.51454">
        <ele>542.67</ele>
        <time>2023-11-14T18:52:41.517Z</time>
      </trkpt>
      <trkpt lat="46.21995" lon="4.51438">
        <ele>543.54</ele>
        <time>2023-11-14T18:52:47.107Z</time>
      </trkpt>
      <trkpt lat="46.21985" lon="4.51425">
        <ele>544.53</ele>
        <time>2023-11-14T18:52:52.700Z</time>
      </trkpt>
      <trkpt lat="46.21886" lon="4.51266">
        <ele>546.89</ele>
        <time>2023-11-14T18:52:58.316Z</time>
      </trkpt>
      <trkpt lat="46.21886" lon="4.51266">
        <ele>548.22</ele>
        <time>2023-11-14T18:53:03.932Z</time>
      </trkpt>
      <trkpt lat="46.2188" lon="4.51255">
        <ele>549.32</ele>
        <time>2023-11-14T18:53:09.550Z</time>
      </trkpt>
      <trkpt lat="46.21839" lon="4.51191">
        <ele>550.27</ele>
        <time>2023-11-14T18:53:15.178Z</time>
      </trkpt>
      <trkpt lat="46.21827" lon="4.51178">
        <ele>551.06</ele>
        <time>2023-11-14T18:53:20.808Z</time>
      </trkpt>
      <trkpt lat="46.21798" lon="4.51156">
        <ele>551.75</ele>
        <time>2023-11-14T18:53:26.443Z</time>
      </trkpt>
      <trkpt lat="46.21784" lon="4.5115">
        <ele>552.27</ele>
        <time>2023-11-14T18:53:32.081Z</time>
      </trkpt>
      <trkpt lat="46.21761" lon="4.51141">
        <ele>552.68</ele>
        <time>2023-11-14T18:53:37.723Z</time>
      </trkpt>
      <trkpt lat="46.21695" lon="4.5114">
        <ele>552.68</ele>
        <time>2023-11-14T18:53:43.375Z</time>
      </trkpt>
      <trkpt lat="46.21684" lon="4.51137">
        <ele>552.42</ele>
        <time>2023-11-14T18:53:49.029Z</time>
      </trkpt>
      <trkpt lat="46.21669" lon="4.51126">
        <ele>552.02</ele>
        <time>2023-11-14T18:53:54.685Z</time>
      </trkpt>
      <trkpt lat="46.21656" lon="4.51109">
        <ele>551.64</ele>
        <time>2023-11-14T18:54:00.344Z</time>
      </trkpt>
      <trkpt lat="46.21649" lon="4.51092">
        <ele>551.48</ele>
        <time>2023-11-14T18:54:06.006Z</time>
      </trkpt>
      <trkpt lat="46.21643" lon="4.51066">
        <ele>551.14</ele>
        <time>2023-11-14T18:54:11.671Z</time>
      </trkpt>
      <trkpt lat="46.21644" lon="4.51039">
        <ele>550.95</ele>
        <time>2023-11-14T18:54:17.339Z</time>
      </trkpt>
      <trkpt lat="46.21646" lon="4.51026">
        <ele>550.96</ele>
        <time>2023-11-14T18:54:23.008Z</time>
      </trkpt>
      <trkpt lat="46.21651" lon="4.51011">
        <ele>551.26</ele>
        <time>2023-11-14T18:54:28.679Z</time>
      </trkpt>
      <trkpt lat="46.21662" lon="4.50992">
        <ele>552</ele>
        <time>2023-11-14T18:54:34.353Z</time>
      </trkpt>
      <trkpt lat="46.21676" lon="4.50978">
        <ele>552.81</ele>
        <time>2023-11-14T18:54:40.029Z</time>
      </trkpt>
      <trkpt lat="46.21688" lon="4.50972">
        <ele>553.52</ele>
        <time>2023-11-14T18:54:45.707Z</time>
      </trkpt>
      <trkpt lat="46.21712" lon="4.50968">
        <ele>554.3</ele>
        <time>2023-11-14T18:54:51.389Z</time>
      </trkpt>
      <trkpt lat="46.21787" lon="4.50972">
        <ele>553.21</ele>
        <time>2023-11-14T18:54:57.083Z</time>
      </trkpt>
      <trkpt lat="46.21792" lon="4.50973">
        <ele>553.68</ele>
        <time>2023-11-14T18:55:02.778Z</time>
      </trkpt>
      <trkpt lat="46.21833" lon="4.50985">
        <ele>554.43</ele>
        <time>2023-11-14T18:55:08.480Z</time>
      </trkpt>
      <trkpt lat="46.21855" lon="4.50988">
        <ele>555.44</ele>
        <time>2023-11-14T18:55:14.185Z</time>
      </trkpt>
      <trkpt lat="46.21866" lon="4.50986">
        <ele>556.49</ele>
        <time>2023-11-14T18:55:19.892Z</time>
      </trkpt>
      <trkpt lat="46.21889" lon="4.50973">
        <ele>557.57</ele>
        <time>2023-11-14T18:55:25.603Z</time>
      </trkpt>
      <trkpt lat="46.21903" lon="4.50959">
        <ele>558.72</ele>
        <time>2023-11-14T18:55:31.317Z</time>
      </trkpt>
      <trkpt lat="46.21935" lon="4.50915">
        <ele>559.96</ele>
        <time>2023-11-14T18:55:37.038Z</time>
      </trkpt>
      <trkpt lat="46.2196" lon="4.50878">
        <ele>561</ele>
        <time>2023-11-14T18:55:42.765Z</time>
      </trkpt>
      <trkpt lat="46.21968" lon="4.50861">
        <ele>562.2</ele>
        <time>2023-11-14T18:55:48.494Z</time>
      </trkpt>
      <trkpt lat="46.21983" lon="4.50816">
        <ele>564.04</ele>
        <time>2023-11-14T18:55:54.228Z</time>
      </trkpt>
      <trkpt lat="46.21997" lon="4.50789">
        <ele>565.76</ele>
        <time>2023-11-14T18:55:59.966Z</time>
      </trkpt>
      <trkpt lat="46.22019" lon="4.5075">
        <ele>567.59</ele>
        <time>2023-11-14T18:56:05.710Z</time>
      </trkpt>
      <trkpt lat="46.22019" lon="4.5075">
        <ele>569.14</ele>
        <time>2023-11-14T18:56:11.454Z</time>
      </trkpt>
      <trkpt lat="46.22044" lon="4.50711">
        <ele>570.94</ele>
        <time>2023-11-14T18:56:17.204Z</time>
      </trkpt>
      <trkpt lat="46.22112" lon="4.50632">
        <ele>572.83</ele>
        <time>2023-11-14T18:56:22.968Z</time>
      </trkpt>
      <trkpt lat="46.22124" lon="4.50613">
        <ele>574.37</ele>
        <time>2023-11-14T18:56:28.735Z</time>
      </trkpt>
      <trkpt lat="46.22136" lon="4.50592">
        <ele>575.71</ele>
        <time>2023-11-14T18:56:34.505Z</time>
      </trkpt>
      <trkpt lat="46.22144" lon="4.50569">
        <ele>577.08</ele>
        <time>2023-11-14T18:56:40.277Z</time>
      </trkpt>
      <trkpt lat="46.22153" lon="4.50548">
        <ele>578.33</ele>
        <time>2023-11-14T18:56:46.052Z</time>
      </trkpt>
      <trkpt lat="46.2217" lon="4.50527">
        <ele>579.7</ele>
        <time>2023-11-14T18:56:51.831Z</time>
      </trkpt>
      <trkpt lat="46.22237" lon="4.50481">
        <ele>581.57</ele>
        <time>2023-11-14T18:56:57.622Z</time>
      </trkpt>
      <trkpt lat="46.22256" lon="4.50475">
        <ele>582.95</ele>
        <time>2023-11-14T18:57:03.416Z</time>
      </trkpt>
      <trkpt lat="46.22273" lon="4.50476">
        <ele>584.12</ele>
        <time>2023-11-14T18:57:09.213Z</time>
      </trkpt>
      <trkpt lat="46.22283" lon="4.5048">
        <ele>585.15</ele>
        <time>2023-11-14T18:57:15.011Z</time>
      </trkpt>
      <trkpt lat="46.22293" lon="4.50487">
        <ele>586.08</ele>
        <time>2023-11-14T18:57:20.811Z</time>
      </trkpt>
      <trkpt lat="46.22358" lon="4.50558">
        <ele>587.45</ele>
        <time>2023-11-14T18:57:26.624Z</time>
      </trkpt>
      <trkpt lat="46.22394" lon="4.50596">
        <ele>588.31</ele>
        <time>2023-11-14T18:57:32.444Z</time>
      </trkpt>
      <trkpt lat="46.22401" lon="4.50602">
        <ele>589.16</ele>
        <time>2023-11-14T18:57:38.265Z</time>
      </trkpt>
      <trkpt lat="46.22415" lon="4.50605">
        <ele>590.02</ele>
        <time>2023-11-14T18:57:44.089Z</time>
      </trkpt>
      <trkpt lat="46.22423" lon="4.50603">
        <ele>590.94</ele>
        <time>2023-11-14T18:57:49.914Z</time>
      </trkpt>
      <trkpt lat="46.22435" lon="4.50592">
        <ele>591.86</ele>
        <time>2023-11-14T18:57:55.741Z</time>
      </trkpt>
      <trkpt lat="46.22443" lon="4.50581">
        <ele>592.86</ele>
        <time>2023-11-14T18:58:01.570Z</time>
      </trkpt>
      <trkpt lat="46.22457" lon="4.5055">
        <ele>594.11</ele>
        <time>2023-11-14T18:58:07.403Z</time>
      </trkpt>
      <trkpt lat="46.2246" lon="4.50542">
        <ele>595.3</ele>
        <time>2023-11-14T18:58:13.237Z</time>
      </trkpt>
      <trkpt lat="46.22483" lon="4.50489">
        <ele>596.71</ele>
        <time>2023-11-14T18:58:19.078Z</time>
      </trkpt>
      <trkpt lat="46.22491" lon="4.50466">
        <ele>598.15</ele>
        <time>2023-11-14T18:58:24.922Z</time>
      </trkpt>
      <trkpt lat="46.22495" lon="4.50448">
        <ele>599.65</ele>
        <time>2023-11-14T18:58:30.768Z</time>
      </trkpt>
      <trkpt lat="46.22506" lon="4.50353">
        <ele>601.67</ele>
        <time>2023-11-14T18:58:36.625Z</time>
      </trkpt>
      <trkpt lat="46.22505" lon="4.50321">
        <ele>603.46</ele>
        <time>2023-11-14T18:58:42.485Z</time>
      </trkpt>
      <trkpt lat="46.22502" lon="4.503">
        <ele>605.18</ele>
        <time>2023-11-14T18:58:48.348Z</time>
      </trkpt>
      <trkpt lat="46.22498" lon="4.50287">
        <ele>606.86</ele>
        <time>2023-11-14T18:58:54.212Z</time>
      </trkpt>
      <trkpt lat="46.22469" lon="4.50232">
        <ele>608.8</ele>
        <time>2023-11-14T18:59:00.084Z</time>
      </trkpt>
      <trkpt lat="46.22463" lon="4.5022">
        <ele>610.5</ele>
        <time>2023-11-14T18:59:05.958Z</time>
      </trkpt>
      <trkpt lat="46.2246" lon="4.50196">
        <ele>612.27</ele>
        <time>2023-11-14T18:59:11.834Z</time>
      </trkpt>
      <trkpt lat="46.22462" lon="4.50179">
        <ele>614.02</ele>
        <time>2023-11-14T18:59:17.712Z</time>
      </trkpt>
      <trkpt lat="46.22468" lon="4.50163">
        <ele>615.76</ele>
        <time>2023-11-14T18:59:23.592Z</time>
      </trkpt>
      <trkpt lat="46.22519" lon="4.50052">
        <ele>617.33</ele>
        <time>2023-11-14T18:59:29.487Z</time>
      </trkpt>
      <trkpt lat="46.22535" lon="4.50012">
        <ele>619.13</ele>
        <time>2023-11-14T18:59:35.387Z</time>
      </trkpt>
      <trkpt lat="46.22543" lon="4.49984">
        <ele>620.98</ele>
        <time>2023-11-14T18:59:41.290Z</time>
      </trkpt>
      <trkpt lat="46.22545" lon="4.49955">
        <ele>622.83</ele>
        <time>2023-11-14T18:59:47.197Z</time>
      </trkpt>
      <trkpt lat="46.22542" lon="4.49919">
        <ele>624.84</ele>
        <time>2023-11-14T18:59:53.108Z</time>
      </trkpt>
      <trkpt lat="46.22531" lon="4.49856">
        <ele>627.29</ele>
        <time>2023-11-14T18:59:59.026Z</time>
      </trkpt>
      <trkpt lat="46.22532" lon="4.4983">
        <ele>629.6</ele>
        <time>2023-11-14T19:00:04.947Z</time>
      </trkpt>
      <trkpt lat="46.22532" lon="4.4983">
        <ele>631.71</ele>
        <time>2023-11-14T19:00:10.868Z</time>
      </trkpt>
      <trkpt lat="46.22554" lon="4.49725">
        <ele>634.81</ele>
        <time>2023-11-14T19:00:16.801Z</time>
      </trkpt>
      <trkpt lat="46.22569" lon="4.49697">
        <ele>636.6</ele>
        <time>2023-11-14T19:00:22.738Z</time>
      </trkpt>
      <trkpt lat="46.22619" lon="4.4964">
        <ele>638.99</ele>
        <time>2023-11-14T19:00:28.685Z</time>
      </trkpt>
      <trkpt lat="46.22633" lon="4.49627">
        <ele>640.56</ele>
        <time>2023-11-14T19:00:34.635Z</time>
      </trkpt>
      <trkpt lat="46.22642" lon="4.49622">
        <ele>642</ele>
        <time>2023-11-14T19:00:40.586Z</time>
      </trkpt>
      <trkpt lat="46.2265" lon="4.49619">
        <ele>643.09</ele>
        <time>2023-11-14T19:00:46.539Z</time>
      </trkpt>
      <trkpt lat="46.22664" lon="4.4962">
        <ele>643.99</ele>
        <time>2023-11-14T19:00:52.494Z</time>
      </trkpt>
      <trkpt lat="46.22671" lon="4.49626">
        <ele>644.83</ele>
        <time>2023-11-14T19:00:58.450Z</time>
      </trkpt>
      <trkpt lat="46.22681" lon="4.49639">
        <ele>645.49</ele>
        <time>2023-11-14T19:01:04.408Z</time>
      </trkpt>
      <trkpt lat="46.22692" lon="4.49666">
        <ele>646.12</ele>
        <time>2023-11-14T19:01:10.370Z</time>
      </trkpt>
      <trkpt lat="46.22705" lon="4.49692">
        <ele>646.85</ele>
        <time>2023-11-14T19:01:16.335Z</time>
      </trkpt>
      <trkpt lat="46.22712" lon="4.49701">
        <ele>647.51</ele>
        <time>2023-11-14T19:01:22.302Z</time>
      </trkpt>
      <trkpt lat="46.22722" lon="4.49709">
        <ele>648.09</ele>
        <time>2023-11-14T19:01:28.271Z</time>
      </trkpt>
      <trkpt lat="46.22731" lon="4.49712">
        <ele>648.65</ele>
        <time>2023-11-14T19:01:34.241Z</time>
      </trkpt>
      <trkpt lat="46.22743" lon="4.49714">
        <ele>649.23</ele>
        <time>2023-11-14T19:01:40.213Z</time>
      </trkpt>
      <trkpt lat="46.22763" lon="4.49713">
        <ele>649.81</ele>
        <time>2023-11-14T19:01:46.188Z</time>
      </trkpt>
      <trkpt lat="46.22785" lon="4.49708">
        <ele>650.44</ele>
        <time>2023-11-14T19:01:52.167Z</time>
      </trkpt>
      <trkpt lat="46.22798" lon="4.49701">
        <ele>651.13</ele>
        <time>2023-11-14T19:01:58.148Z</time>
      </trkpt>
      <trkpt lat="46.22811" lon="4.4969">
        <ele>651.73</ele>
        <time>2023-11-14T19:02:04.132Z</time>
      </trkpt>
      <trkpt lat="46.22829" lon="4.4967">
        <ele>652.22</ele>
        <time>2023-11-14T19:02:10.119Z</time>
      </trkpt>
      <trkpt lat="46.22847" lon="4.49638">
        <ele>652.78</ele>
        <time>2023-11-14T19:02:16.111Z</time>
      </trkpt>
      <trkpt lat="46.22855" lon="4.49621">
        <ele>653.81</ele>
        <time>2023-11-14T19:02:22.105Z</time>
      </trkpt>
      <trkpt lat="46.2286" lon="4.49602">
        <ele>655.12</ele>
        <time>2023-11-14T19:02:28.101Z</time>
      </trkpt>
      <trkpt lat="46.22878" lon="4.49522">
        <ele>656.86</ele>
        <time>2023-11-14T19:02:34.107Z</time>
      </trkpt>
      <trkpt lat="46.22886" lon="4.49496">
        <ele>658.5</ele>
        <time>2023-11-14T19:02:40.116Z</time>
      </trkpt>
      <trkpt lat="46.22897" lon="4.49471">
        <ele>660.39</ele>
        <time>2023-11-14T19:02:46.128Z</time>
      </trkpt>
      <trkpt lat="46.22907" lon="4.4945">
        <ele>662.05</ele>
        <time>2023-11-14T19:02:52.143Z</time>
      </trkpt>
      <trkpt lat="46.22919" lon="4.49431">
        <ele>663.68</ele>
        <time>2023-11-14T19:02:58.161Z</time>
      </trkpt>
      <trkpt lat="46.22936" lon="4.49411">
        <ele>665.39</ele>
        <time>2023-11-14T19:03:04.182Z</time>
      </trkpt>
      <trkpt lat="46.23001" lon="4.49356">
        <ele>667.59</ele>
        <time>2023-11-14T19:03:10.215Z</time>
      </trkpt>
      <trkpt lat="46.23029" lon="4.49328">
        <ele>669.31</ele>
        <time>2023-11-14T19:03:16.254Z</time>
      </trkpt>
      <trkpt lat="46.23035" lon="4.4932">
        <ele>672.51</ele>
        <time>2023-11-14T19:03:22.294Z</time>
      </trkpt>
      <trkpt lat="46.23063" lon="4.49287">
        <ele>672.95</ele>
        <time>2023-11-14T19:03:28.340Z</time>
      </trkpt>
      <trkpt lat="46.23081" lon="4.4927">
        <ele>672.51</ele>
        <time>2023-11-14T19:03:34.389Z</time>
      </trkpt>
      <trkpt lat="46.2309" lon="4.49264">
        <ele>672.15</ele>
        <time>2023-11-14T19:03:40.440Z</time>
      </trkpt>
      <trkpt lat="46.23098" lon="4.49263">
        <ele>671.58</ele>
        <time>2023-11-14T19:03:46.492Z</time>
      </trkpt>
      <trkpt lat="46.23106" lon="4.49264">
        <ele>671.28</ele>
        <time>2023-11-14T19:03:52.545Z</time>
      </trkpt>
      <trkpt lat="46.23113" lon="4.49269">
        <ele>671.54</ele>
        <time>2023-11-14T19:03:58.600Z</time>
      </trkpt>
      <trkpt lat="46.23119" lon="4.49275">
        <ele>672</ele>
        <time>2023-11-14T19:04:04.656Z</time>
      </trkpt>
      <trkpt lat="46.23122" lon="4.49286">
        <ele>672.82</ele>
        <time>2023-11-14T19:04:10.713Z</time>
      </trkpt>
      <trkpt lat="46.23124" lon="4.49299">
        <ele>673.86</ele>
        <time>2023-11-14T19:04:16.772Z</time>
      </trkpt>
      <trkpt lat="46.23123" lon="4.49312">
        <ele>674.83</ele>
        <time>2023-11-14T19:04:22.832Z</time>
      </trkpt>
      <trkpt lat="46.23103" lon="4.4941">
        <ele>675.97</ele>
        <time>2023-11-14T19:04:28.903Z</time>
      </trkpt>
      <trkpt lat="46.23101" lon="4.49428">
        <ele>676.89</ele>
        <time>2023-11-14T19:04:34.977Z</time>
      </trkpt>
      <trkpt lat="46.23094" lon="4.49469">
        <ele>677.81</ele>
        <time>2023-11-14T19:04:41.055Z</time>
      </trkpt>
      <trkpt lat="46.23086" lon="4.49555">
        <ele>679.11</ele>
        <time>2023-11-14T19:04:47.143Z</time>
      </trkpt>
      <trkpt lat="46.23083" lon="4.49583">
        <ele>680.04</ele>
        <time>2023-11-14T19:04:53.234Z</time>
      </trkpt>
      <trkpt lat="46.23083" lon="4.49611">
        <ele>680.89</ele>
        <time>2023-11-14T19:04:59.328Z</time>
      </trkpt>
      <trkpt lat="46.23087" lon="4.49629">
        <ele>681.91</ele>
        <time>2023-11-14T19:05:05.424Z</time>
      </trkpt>
      <trkpt lat="46.23092" lon="4.49639">
        <ele>683.14</ele>
        <time>2023-11-14T19:05:11.522Z</time>
      </trkpt>
      <trkpt lat="46.23097" lon="4.49644">
        <ele>684.42</ele>
        <time>2023-11-14T19:05:17.621Z</time>
      </trkpt>
      <trkpt lat="46.23104" lon="4.49648">
        <ele>685.81</ele>
        <time>2023-11-14T19:05:23.721Z</time>
      </trkpt>
      <trkpt lat="46.2311" lon="4.49647">
        <ele>687.33</ele>
        <time>2023-11-14T19:05:29.822Z</time>
      </trkpt>
      <trkpt lat="46.23116" lon="4.49641">
        <ele>688.85</ele>
        <time>2023-11-14T19:05:35.924Z</time>
      </trkpt>
      <trkpt lat="46.23119" lon="4.49635">
        <ele>690.32</ele>
        <time>2023-11-14T19:05:42.027Z</time>
      </trkpt>
      <trkpt lat="46.23122" lon="4.49623">
        <ele>691.87</ele>
        <time>2023-11-14T19:05:48.131Z</time>
      </trkpt>
      <trkpt lat="46.23119" lon="4.49594">
        <ele>693.24</ele>
        <time>2023-11-14T19:05:54.238Z</time>
      </trkpt>
      <trkpt lat="46.23119" lon="4.49576">
        <ele>694.84</ele>
        <time>2023-11-14T19:06:00.347Z</time>
      </trkpt>
      <trkpt lat="46.23122" lon="4.49558">
        <ele>696.76</ele>
        <time>2023-11-14T19:06:06.458Z</time>
      </trkpt>
      <trkpt lat="46.23133" lon="4.49519">
        <ele>699.01</ele>
        <time>2023-11-14T19:06:12.574Z</time>
      </trkpt>
      <trkpt lat="46.23159" lon="4.49443">
        <ele>701.59</ele>
        <time>2023-11-14T19:06:18.700Z</time>
      </trkpt>
      <trkpt lat="46.23177" lon="4.49396">
        <ele>703.44</ele>
        <time>2023-11-14T19:06:24.832Z</time>
      </trkpt>
      <trkpt lat="46.23201" lon="4.49342">
        <ele>705.03</ele>
        <time>2023-11-14T19:06:30.971Z</time>
      </trkpt>
      <trkpt lat="46.23256" lon="4.49233">
        <ele>711.18</ele>
        <time>2023-11-14T19:06:37.125Z</time>
      </trkpt>
      <trkpt lat="46.23267" lon="4.49211">
        <ele>712.08</ele>
        <time>2023-11-14T19:06:43.282Z</time>
      </trkpt>
      <trkpt lat="46.23318" lon="4.49097">
        <ele>714.25</ele>
        <time>2023-11-14T19:06:49.454Z</time>
      </trkpt>
      <trkpt lat="46.23344" lon="4.49035">
        <ele>716.27</ele>
        <time>2023-11-14T19:06:55.634Z</time>
      </trkpt>
      <trkpt lat="46.23346" lon="4.4902">
        <ele>717.61</ele>
        <time>2023-11-14T19:07:01.815Z</time>
      </trkpt>
      <trkpt lat="46.23346" lon="4.49003">
        <ele>718.45</ele>
        <time>2023-11-14T19:07:07.998Z</time>
      </trkpt>
      <trkpt lat="46.23345" lon="4.48988">
        <ele>719.2</ele>
        <time>2023-11-14T19:07:14.183Z</time>
      </trkpt>
      <trkpt lat="46.23341" lon="4.48972">
        <ele>719.71</ele>
        <time>2023-11-14T19:07:20.370Z</time>
      </trkpt>
      <trkpt lat="46.23336" lon="4.48958">
        <ele>720.25</ele>
        <time>2023-11-14T19:07:26.559Z</time>
      </trkpt>
      <trkpt lat="46.23329" lon="4.48947">
        <ele>720.78</ele>
        <time>2023-11-14T19:07:32.749Z</time>
      </trkpt>
      <trkpt lat="46.23321" lon="4.48939">
        <ele>721.43</ele>
        <time>2023-11-14T19:07:38.941Z</time>
      </trkpt>
      <trkpt lat="46.23308" lon="4.48931">
        <ele>722.2</ele>
        <time>2023-11-14T19:07:45.135Z</time>
      </trkpt>
      <trkpt lat="46.23296" lon="4.4893">
        <ele>723.07</ele>
        <time>2023-11-14T19:07:51.331Z</time>
      </trkpt>
      <trkpt lat="46.2327" lon="4.4893">
        <ele>724.43</ele>
        <time>2023-11-14T19:07:57.531Z</time>
      </trkpt>
      <trkpt lat="46.23256" lon="4.48927">
        <ele>726.15</ele>
        <time>2023-11-14T19:08:03.733Z</time>
      </trkpt>
      <trkpt lat="46.23243" lon="4.4892">
        <ele>727.99</ele>
        <time>2023-11-14T19:08:09.938Z</time>
      </trkpt>
      <trkpt lat="46.23234" lon="4.48908">
        <ele>729.75</ele>
        <time>2023-11-14T19:08:16.145Z</time>
      </trkpt>
      <trkpt lat="46.23234" lon="4.48908">
        <ele>731.18</ele>
        <time>2023-11-14T19:08:22.352Z</time>
      </trkpt>
      <trkpt lat="46.23211" lon="4.48878">
        <ele>732.97</ele>
        <time>2023-11-14T19:08:28.564Z</time>
      </trkpt>
      <trkpt lat="46.23204" lon="4.48861">
        <ele>734.19</ele>
        <time>2023-11-14T19:08:34.778Z</time>
      </trkpt>
      <trkpt lat="46.23201" lon="4.48847">
        <ele>735.23</ele>
        <time>2023-11-14T19:08:40.993Z</time>
      </trkpt>
      <trkpt lat="46.23201" lon="4.48839">
        <ele>735.98</ele>
        <time>2023-11-14T19:08:47.209Z</time>
      </trkpt>
      <trkpt lat="46.23207" lon="4.48827">
        <ele>736.49</ele>
        <time>2023-11-14T19:08:53.427Z</time>
      </trkpt>
      <trkpt lat="46.23212" lon="4.48821">
        <ele>736.6</ele>
        <time>2023-11-14T19:08:59.646Z</time>
      </trkpt>
      <trkpt lat="46.23212" lon="4.48821">
        <ele>736.47</ele>
        <time>2023-11-14T19:09:05.865Z</time>
      </trkpt>
      <trkpt lat="46.23233" lon="4.48808">
        <ele>735.7</ele>
        <time>2023-11-14T19:09:12.088Z</time>
      </trkpt>
      <trkpt lat="46.23233" lon="4.48808">
        <ele>735.13</ele>
        <time>2023-11-14T19:09:18.311Z</time>
      </trkpt>
      <trkpt lat="46.2327" lon="4.48796">
        <ele>734.01</ele>
        <time>2023-11-14T19:09:24.540Z</time>
      </trkpt>
      <trkpt lat="46.23324" lon="4.48773">
        <ele>733.2</ele>
        <time>2023-11-14T19:09:30.778Z</time>
      </trkpt>
      <trkpt lat="46.23343" lon="4.48759">
        <ele>732.28</ele>
        <time>2023-11-14T19:09:37.019Z</time>
      </trkpt>
      <trkpt lat="46.23355" lon="4.48744">
        <ele>731.15</ele>
        <time>2023-11-14T19:09:43.263Z</time>
      </trkpt>
      <trkpt lat="46.23364" lon="4.48729">
        <ele>729.74</ele>
        <time>2023-11-14T19:09:49.509Z</time>
      </trkpt>
      <trkpt lat="46.23451" lon="4.48615">
        <ele>727.69</ele>
        <time>2023-11-14T19:09:55.774Z</time>
      </trkpt>
      <trkpt lat="46.23499" lon="4.48542">
        <ele>725.83</ele>
        <time>2023-11-14T19:10:02.050Z</time>
      </trkpt>
      <trkpt lat="46.23507" lon="4.48507">
        <ele>724.54</ele>
        <time>2023-11-14T19:10:08.330Z</time>
      </trkpt>
      <trkpt lat="46.23513" lon="4.48489">
        <ele>723.25</ele>
        <time>2023-11-14T19:10:14.612Z</time>
      </trkpt>
      <trkpt lat="46.2352" lon="4.48461">
        <ele>721.91</ele>
        <time>2023-11-14T19:10:20.897Z</time>
      </trkpt>
      <trkpt lat="46.23523" lon="4.48422">
        <ele>720.5</ele>
        <time>2023-11-14T19:10:27.187Z</time>
      </trkpt>
      <trkpt lat="46.23521" lon="4.48367">
        <ele>719.07</ele>
        <time>2023-11-14T19:10:33.483Z</time>
      </trkpt>
      <trkpt lat="46.23514" lon="4.48287">
        <ele>717.2</ele>
        <time>2023-11-14T19:10:39.788Z</time>
      </trkpt>
      <trkpt lat="46.23504" lon="4.48255">
        <ele>714.74</ele>
        <time>2023-11-14T19:10:46.097Z</time>
      </trkpt>
      <trkpt lat="46.2349" lon="4.48207">
        <ele>712.09</ele>
        <time>2023-11-14T19:10:52.412Z</time>
      </trkpt>
      <trkpt lat="46.23435" lon="4.48063">
        <ele>708.58</ele>
        <time>2023-11-14T19:10:58.745Z</time>
      </trkpt>
      <trkpt lat="46.23435" lon="4.48063">
        <ele>703.13</ele>
        <time>2023-11-14T19:11:05.078Z</time>
      </trkpt>
      <trkpt lat="46.23421" lon="4.48028">
        <ele>703.34</ele>
        <time>2023-11-14T19:11:11.415Z</time>
      </trkpt>
      <trkpt lat="46.23399" lon="4.47972">
        <ele>703.11</ele>
        <time>2023-11-14T19:11:17.760Z</time>
      </trkpt>
      <trkpt lat="46.23397" lon="4.47955">
        <ele>703.21</ele>
        <time>2023-11-14T19:11:24.106Z</time>
      </trkpt>
      <trkpt lat="46.23399" lon="4.47935">
        <ele>703.53</ele>
        <time>2023-11-14T19:11:30.455Z</time>
      </trkpt>
      <trkpt lat="46.23351" lon="4.47906">
        <ele>706.07</ele>
        <time>2023-11-14T19:11:36.812Z</time>
      </trkpt>
      <trkpt lat="46.23293" lon="4.47852">
        <ele>707.8</ele>
        <time>2023-11-14T19:11:43.180Z</time>
      </trkpt>
      <trkpt lat="46.23273" lon="4.47829">
        <ele>708.88</ele>
        <time>2023-11-14T19:11:49.552Z</time>
      </trkpt>
      <trkpt lat="46.23161" lon="4.47641">
        <ele>709.98</ele>
        <time>2023-11-14T19:11:55.952Z</time>
      </trkpt>
      <trkpt lat="46.23152" lon="4.47619">
        <ele>710.99</ele>
        <time>2023-11-14T19:12:02.354Z</time>
      </trkpt>
      <trkpt lat="46.23139" lon="4.47578">
        <ele>711.45</ele>
        <time>2023-11-14T19:12:08.761Z</time>
      </trkpt>
      <trkpt lat="46.2313" lon="4.47542">
        <ele>711.57</ele>
        <time>2023-11-14T19:12:15.173Z</time>
      </trkpt>
      <trkpt lat="46.23128" lon="4.47522">
        <ele>711.86</ele>
        <time>2023-11-14T19:12:21.587Z</time>
      </trkpt>
      <trkpt lat="46.23137" lon="4.47403">
        <ele>712.6</ele>
        <time>2023-11-14T19:12:28.014Z</time>
      </trkpt>
      <trkpt lat="46.23136" lon="4.47384">
        <ele>713.36</ele>
        <time>2023-11-14T19:12:34.443Z</time>
      </trkpt>
      <trkpt lat="46.23133" lon="4.47365">
        <ele>714.22</ele>
        <time>2023-11-14T19:12:40.875Z</time>
      </trkpt>
      <trkpt lat="46.23127" lon="4.47347">
        <ele>714.95</ele>
        <time>2023-11-14T19:12:47.309Z</time>
      </trkpt>
      <trkpt lat="46.23112" lon="4.47313">
        <ele>715.6</ele>
        <time>2023-11-14T19:12:53.747Z</time>
      </trkpt>
      <trkpt lat="46.2309" lon="4.4728">
        <ele>715.97</ele>
        <time>2023-11-14T19:13:00.190Z</time>
      </trkpt>
      <trkpt lat="46.23077" lon="4.47266">
        <ele>716.04</ele>
        <time>2023-11-14T19:13:06.636Z</time>
      </trkpt>
      <trkpt lat="46.23077" lon="4.47266">
        <ele>715.99</ele>
        <time>2023-11-14T19:13:13.082Z</time>
      </trkpt>
      <trkpt lat="46.23059" lon="4.47244">
        <ele>715.75</ele>
        <time>2023-11-14T19:13:19.532Z</time>
      </trkpt>
      <trkpt lat="46.23043" lon="4.47229">
        <ele>715.37</ele>
        <time>2023-11-14T19:13:25.985Z</time>
      </trkpt>
      <trkpt lat="46.22851" lon="4.47026">
        <ele>714.44</ele>
        <time>2023-11-14T19:13:32.476Z</time>
      </trkpt>
      <trkpt lat="46.22794" lon="4.4695">
        <ele>714.7</ele>
        <time>2023-11-14T19:13:38.979Z</time>
      </trkpt>
      <trkpt lat="46.22779" lon="4.46924">
        <ele>715.06</ele>
        <time>2023-11-14T19:13:45.486Z</time>
      </trkpt>
      <trkpt lat="46.22768" lon="4.46899">
        <ele>715.55</ele>
        <time>2023-11-14T19:13:51.996Z</time>
      </trkpt>
      <trkpt lat="46.22759" lon="4.4688">
        <ele>716.03</ele>
        <time>2023-11-14T19:13:58.509Z</time>
      </trkpt>
      <trkpt lat="46.22759" lon="4.4688">
        <ele>716.76</ele>
        <time>2023-11-14T19:14:05.022Z</time>
      </trkpt>
      <trkpt lat="46.22757" lon="4.46876">
        <ele>717.2</ele>
        <time>2023-11-14T19:14:11.535Z</time>
      </trkpt>
      <trkpt lat="46.22741" lon="4.46845">
        <ele>718.13</ele>
        <time>2023-11-14T19:14:18.053Z</time>
      </trkpt>
      <trkpt lat="46.22696" lon="4.46775">
        <ele>718.27</ele>
        <time>2023-11-14T19:14:24.581Z</time>
      </trkpt>
      <trkpt lat="46.22682" lon="4.46757">
        <ele>718.52</ele>
        <time>2023-11-14T19:14:31.112Z</time>
      </trkpt>
      <trkpt lat="46.22682" lon="4.46757">
        <ele>719.01</ele>
        <time>2023-11-14T19:14:37.643Z</time>
      </trkpt>
      <trkpt lat="46.22678" lon="4.46753">
        <ele>719.59</ele>
        <time>2023-11-14T19:14:44.175Z</time>
      </trkpt>
      <trkpt lat="46.22667" lon="4.46748">
        <ele>720.3</ele>
        <time>2023-11-14T19:14:50.709Z</time>
      </trkpt>
      <trkpt lat="46.22637" lon="4.46738">
        <ele>721.24</ele>
        <time>2023-11-14T19:14:57.248Z</time>
      </trkpt>
      <trkpt lat="46.22542" lon="4.4672">
        <ele>722.93</ele>
        <time>2023-11-14T19:15:03.802Z</time>
      </trkpt>
      <trkpt lat="46.22519" lon="4.46717">
        <ele>724.11</ele>
        <time>2023-11-14T19:15:10.360Z</time>
      </trkpt>
      <trkpt lat="46.22435" lon="4.46713">
        <ele>725.89</ele>
        <time>2023-11-14T19:15:16.931Z</time>
      </trkpt>
      <trkpt lat="46.22423" lon="4.4671">
        <ele>726.73</ele>
        <time>2023-11-14T19:15:23.504Z</time>
      </trkpt>
      <trkpt lat="46.22402" lon="4.46693">
        <ele>727.05</ele>
        <time>2023-11-14T19:15:30.081Z</time>
      </trkpt>
      <trkpt lat="46.22385" lon="4.46675">
        <ele>726.82</ele>
        <time>2023-11-14T19:15:36.662Z</time>
      </trkpt>
      <trkpt lat="46.22376" lon="4.46663">
        <ele>726.35</ele>
        <time>2023-11-14T19:15:43.245Z</time>
      </trkpt>
      <trkpt lat="46.22366" lon="4.46664">
        <ele>725.76</ele>
        <time>2023-11-14T19:15:49.829Z</time>
      </trkpt>
      <trkpt lat="46.22355" lon="4.46667">
        <ele>724.98</ele>
        <time>2023-11-14T19:15:56.415Z</time>
      </trkpt>
      <trkpt lat="46.22355" lon="4.46667">
        <ele>724.04</ele>
        <time>2023-11-14T19:16:03.001Z</time>
      </trkpt>
      <trkpt lat="46.22245" lon="4.46697">
        <ele>722.61</ele>
        <time>2023-11-14T19:16:09.605Z</time>
      </trkpt>
      <trkpt lat="46.22233" lon="4.46703">
        <ele>721.37</ele>
        <time>2023-11-14T19:16:16.211Z</time>
      </trkpt>
      <trkpt lat="46.22218" lon="4.46713">
        <ele>720.2</ele>
        <time>2023-11-14T19:16:22.820Z</time>
      </trkpt>
      <trkpt lat="46.22199" lon="4.46728">
        <ele>719.1</ele>
        <time>2023-11-14T19:16:29.432Z</time>
      </trkpt>
      <trkpt lat="46.22177" lon="4.46754">
        <ele>718.03</ele>
        <time>2023-11-14T19:16:36.049Z</time>
      </trkpt>
      <trkpt lat="46.2216" lon="4.46765">
        <ele>717.2</ele>
        <time>2023-11-14T19:16:42.669Z</time>
      </trkpt>
      <trkpt lat="46.22148" lon="4.46766">
        <ele>716.84</ele>
        <time>2023-11-14T19:16:49.291Z</time>
      </trkpt>
      <trkpt lat="46.22138" lon="4.46762">
        <ele>716.76</ele>
        <time>2023-11-14T19:16:55.914Z</time>
      </trkpt>
      <trkpt lat="46.22127" lon="4.46753">
        <ele>717.12</ele>
        <time>2023-11-14T19:17:02.539Z</time>
      </trkpt>
      <trkpt lat="46.22121" lon="4.4674">
        <ele>717.85</ele>
        <time>2023-11-14T19:17:09.166Z</time>
      </trkpt>
      <trkpt lat="46.22119" lon="4.46726">
        <ele>718.93</ele>
        <time>2023-11-14T19:17:15.794Z</time>
      </trkpt>
      <trkpt lat="46.22119" lon="4.46706">
        <ele>720.39</ele>
        <time>2023-11-14T19:17:22.425Z</time>
      </trkpt>
      <trkpt lat="46.22153" lon="4.46499">
        <ele>723.59</ele>
        <time>2023-11-14T19:17:29.079Z</time>
      </trkpt>
      <trkpt lat="46.22158" lon="4.4647">
        <ele>724.79</ele>
        <time>2023-11-14T19:17:35.737Z</time>
      </trkpt>
      <trkpt lat="46.22156" lon="4.46453">
        <ele>726.16</ele>
        <time>2023-11-14T19:17:42.397Z</time>
      </trkpt>
      <trkpt lat="46.22152" lon="4.46433">
        <ele>727.79</ele>
        <time>2023-11-14T19:17:49.059Z</time>
      </trkpt>
      <trkpt lat="46.22138" lon="4.46404">
        <ele>729.84</ele>
        <time>2023-11-14T19:17:55.725Z</time>
      </trkpt>
      <trkpt lat="46.22119" lon="4.46372">
        <ele>731.99</ele>
        <time>2023-11-14T19:18:02.395Z</time>
      </trkpt>
      <trkpt lat="46.22094" lon="4.46339">
        <ele>734.06</ele>
        <time>2023-11-14T19:18:09.071Z</time>
      </trkpt>
      <trkpt lat="46.22079" lon="4.46323">
        <ele>735.97</ele>
        <time>2023-11-14T19:18:15.750Z</time>
      </trkpt>
      <trkpt lat="46.22057" lon="4.46305">
        <ele>741.06</ele>
        <time>2023-11-14T19:18:22.433Z</time>
      </trkpt>
      <trkpt lat="46.22023" lon="4.46279">
        <ele>740.94</ele>
        <time>2023-11-14T19:18:29.122Z</time>
      </trkpt>
      <trkpt lat="46.21986" lon="4.46252">
        <ele>740.15</ele>
        <time>2023-11-14T19:18:35.818Z</time>
      </trkpt>
      <trkpt lat="46.21986" lon="4.46252">
        <ele>739.58</ele>
        <time>2023-11-14T19:18:42.514Z</time>
      </trkpt>
      <trkpt lat="46.21977" lon="4.46251">
        <ele>738.89</ele>
        <time>2023-11-14T19:18:49.211Z</time>
      </trkpt>
      <trkpt lat="46.21977" lon="4.46251">
        <ele>738.32</ele>
        <time>2023-11-14T19:18:55.908Z</time>
      </trkpt>
      <trkpt lat="46.21968" lon="4.46253">
        <ele>737.61</ele>
        <time>2023-11-14T19:19:02.607Z</time>
      </trkpt>
      <trkpt lat="46.21961" lon="4.46257">
        <ele>736.87</ele>
        <time>2023-11-14T19:19:09.307Z</time>
      </trkpt>
      <trkpt lat="46.21954" lon="4.46265">
        <ele>736.03</ele>
        <time>2023-11-14T19:19:16.008Z</time>
      </trkpt>
      <trkpt lat="46.21948" lon="4.46276">
        <ele>735.26</ele>
        <time>2023-11-14T19:19:22.711Z</time>
      </trkpt>
      <trkpt lat="46.21942" lon="4.46299">
        <ele>734.49</ele>
        <time>2023-11-14T19:19:29.417Z</time>
      </trkpt>
      <trkpt lat="46.21934" lon="4.46357">
        <ele>734.01</ele>
        <time>2023-11-14T19:19:36.129Z</time>
      </trkpt>
      <trkpt lat="46.2193" lon="4.46374">
        <ele>733.41</ele>
        <time>2023-11-14T19:19:42.843Z</time>
      </trkpt>
      <trkpt lat="46.21923" lon="4.46392">
        <ele>732.73</ele>
        <time>2023-11-14T19:19:49.559Z</time>
      </trkpt>
      <trkpt lat="46.21914" lon="4.46404">
        <ele>732.03</ele>
        <time>2023-11-14T19:19:56.277Z</time>
      </trkpt>
      <trkpt lat="46.21896" lon="4.46422">
        <ele>731.13</ele>
        <time>2023-11-14T19:20:02.999Z</time>
      </trkpt>
      <trkpt lat="46.21809" lon="4.46467">
        <ele>729.99</ele>
        <time>2023-11-14T19:20:09.736Z</time>
      </trkpt>
      <trkpt lat="46.21795" lon="4.46476">
        <ele>728.98</ele>
        <time>2023-11-14T19:20:16.475Z</time>
      </trkpt>
      <trkpt lat="46.21783" lon="4.46487">
        <ele>727.98</ele>
        <time>2023-11-14T19:20:23.216Z</time>
      </trkpt>
      <trkpt lat="46.21768" lon="4.46503">
        <ele>727.12</ele>
        <time>2023-11-14T19:20:29.960Z</time>
      </trkpt>
      <trkpt lat="46.21744" lon="4.46545">
        <ele>726.38</ele>
        <time>2023-11-14T19:20:36.710Z</time>
      </trkpt>
      <trkpt lat="46.21732" lon="4.46557">
        <ele>725.67</ele>
        <time>2023-11-14T19:20:43.463Z</time>
      </trkpt>
      <trkpt lat="46.21732" lon="4.46557">
        <ele>724.86</ele>
        <time>2023-11-14T19:20:50.216Z</time>
      </trkpt>
      <trkpt lat="46.21732" lon="4.46557">
        <ele>725.67</ele>
        <time>2023-11-14T19:20:56.969Z</time>
      </trkpt>
      <trkpt lat="46.21725" lon="4.4656">
        <ele>722.99</ele>
        <time>2023-11-14T19:21:03.723Z</time>
      </trkpt>
      <trkpt lat="46.21709" lon="4.46559">
        <ele>721.94</ele>
        <time>2023-11-14T19:21:10.479Z</time>
      </trkpt>
      <trkpt lat="46.21689" lon="4.46543">
        <ele>720.42</ele>
        <time>2023-11-14T19:21:17.239Z</time>
      </trkpt>
      <trkpt lat="46.21689" lon="4.46543">
        <ele>719.06</ele>
        <time>2023-11-14T19:21:23.999Z</time>
      </trkpt>
      <trkpt lat="46.21671" lon="4.46532">
        <ele>717.16</ele>
        <time>2023-11-14T19:21:30.762Z</time>
      </trkpt>
      <trkpt lat="46.21662" lon="4.46529">
        <ele>715.36</ele>
        <time>2023-11-14T19:21:37.527Z</time>
      </trkpt>
      <trkpt lat="46.21652" lon="4.46529">
        <ele>713.56</ele>
        <time>2023-11-14T19:21:44.293Z</time>
      </trkpt>
      <trkpt lat="46.21597" lon="4.46542">
        <ele>711.85</ele>
        <time>2023-11-14T19:21:51.068Z</time>
      </trkpt>
      <trkpt lat="46.21572" lon="4.46546">
        <ele>709.89</ele>
        <time>2023-11-14T19:21:57.847Z</time>
      </trkpt>
      <trkpt lat="46.215" lon="4.46551">
        <ele>707.15</ele>
        <time>2023-11-14T19:22:04.638Z</time>
      </trkpt>
      <trkpt lat="46.21488" lon="4.46555">
        <ele>704.94</ele>
        <time>2023-11-14T19:22:11.431Z</time>
      </trkpt>
      <trkpt lat="46.21476" lon="4.46558">
        <ele>702.72</ele>
        <time>2023-11-14T19:22:18.226Z</time>
      </trkpt>
      <trkpt lat="46.21461" lon="4.46566">
        <ele>700.59</ele>
        <time>2023-11-14T19:22:25.023Z</time>
      </trkpt>
      <trkpt lat="46.21446" lon="4.46578">
        <ele>698.36</ele>
        <time>2023-11-14T19:22:31.823Z</time>
      </trkpt>
      <trkpt lat="46.21425" lon="4.46604">
        <ele>696.23</ele>
        <time>2023-11-14T19:22:38.628Z</time>
      </trkpt>
      <trkpt lat="46.21378" lon="4.46672">
        <ele>694.1</ele>
        <time>2023-11-14T19:22:45.443Z</time>
      </trkpt>
      <trkpt lat="46.2136" lon="4.46705">
        <ele>691.88</ele>
        <time>2023-11-14T19:22:52.263Z</time>
      </trkpt>
      <trkpt lat="46.2135" lon="4.46729">
        <ele>689.55</ele>
        <time>2023-11-14T19:22:59.086Z</time>
      </trkpt>
      <trkpt lat="46.21326" lon="4.46796">
        <ele>687.12</ele>
        <time>2023-11-14T19:23:05.917Z</time>
      </trkpt>
      <trkpt lat="46.21312" lon="4.46831">
        <ele>685.14</ele>
        <time>2023-11-14T19:23:12.753Z</time>
      </trkpt>
      <trkpt lat="46.21283" lon="4.46889">
        <ele>683.05</ele>
        <time>2023-11-14T19:23:19.597Z</time>
      </trkpt>
      <trkpt lat="46.21244" lon="4.46963">
        <ele>681.15</ele>
        <time>2023-11-14T19:23:26.451Z</time>
      </trkpt>
      <trkpt lat="46.21235" lon="4.46978">
        <ele>679.55</ele>
        <time>2023-11-14T19:23:33.307Z</time>
      </trkpt>
      <trkpt lat="46.21223" lon="4.46987">
        <ele>678.17</ele>
        <time>2023-11-14T19:23:40.165Z</time>
      </trkpt>
      <trkpt lat="46.21217" lon="4.4699">
        <ele>677.05</ele>
        <time>2023-11-14T19:23:47.025Z</time>
      </trkpt>
      <trkpt lat="46.2121" lon="4.46991">
        <ele>676.18</ele>
        <time>2023-11-14T19:23:53.886Z</time>
      </trkpt>
      <trkpt lat="46.21197" lon="4.46988">
        <ele>675.66</ele>
        <time>2023-11-14T19:24:00.749Z</time>
      </trkpt>
      <trkpt lat="46.21188" lon="4.46982">
        <ele>675.23</ele>
        <time>2023-11-14T19:24:07.613Z</time>
      </trkpt>
      <trkpt lat="46.21143" lon="4.46939">
        <ele>674.41</ele>
        <time>2023-11-14T19:24:14.486Z</time>
      </trkpt>
      <trkpt lat="46.21132" lon="4.46928">
        <ele>674.15</ele>
        <time>2023-11-14T19:24:21.361Z</time>
      </trkpt>
      <trkpt lat="46.21124" lon="4.46913">
        <ele>674.06</ele>
        <time>2023-11-14T19:24:28.238Z</time>
      </trkpt>
      <trkpt lat="46.21123" lon="4.46903">
        <ele>674.2</ele>
        <time>2023-11-14T19:24:35.116Z</time>
      </trkpt>
      <trkpt lat="46.21123" lon="4.46891">
        <ele>674.42</ele>
        <time>2023-11-14T19:24:41.996Z</time>
      </trkpt>
      <trkpt lat="46.21126" lon="4.46881">
        <ele>674.82</ele>
        <time>2023-11-14T19:24:48.877Z</time>
      </trkpt>
      <trkpt lat="46.21141" lon="4.4685">
        <ele>675.3</ele>
        <time>2023-11-14T19:24:55.762Z</time>
      </trkpt>
      <trkpt lat="46.21147" lon="4.46834">
        <ele>675.91</ele>
        <time>2023-11-14T19:25:02.649Z</time>
      </trkpt>
      <trkpt lat="46.21151" lon="4.46816">
        <ele>676.64</ele>
        <time>2023-11-14T19:25:09.538Z</time>
      </trkpt>
      <trkpt lat="46.21151" lon="4.46787">
        <ele>677.64</ele>
        <time>2023-11-14T19:25:16.430Z</time>
      </trkpt>
      <trkpt lat="46.21138" lon="4.46617">
        <ele>679.45</ele>
        <time>2023-11-14T19:25:23.341Z</time>
      </trkpt>
      <trkpt lat="46.21136" lon="4.46506">
        <ele>680.37</ele>
        <time>2023-11-14T19:25:30.265Z</time>
      </trkpt>
      <trkpt lat="46.21134" lon="4.46476">
        <ele>681.14</ele>
        <time>2023-11-14T19:25:37.192Z</time>
      </trkpt>
      <trkpt lat="46.2113" lon="4.46455">
        <ele>681.75</ele>
        <time>2023-11-14T19:25:44.122Z</time>
      </trkpt>
      <trkpt lat="46.21118" lon="4.46428">
        <ele>682.14</ele>
        <time>2023-11-14T19:25:51.055Z</time>
      </trkpt>
      <trkpt lat="46.21101" lon="4.464">
        <ele>682.31</ele>
        <time>2023-11-14T19:25:57.992Z</time>
      </trkpt>
      <trkpt lat="46.21087" lon="4.46385">
        <ele>682.37</ele>
        <time>2023-11-14T19:26:04.932Z</time>
      </trkpt>
      <trkpt lat="46.21087" lon="4.46385">
        <ele>682.23</ele>
        <time>2023-11-14T19:26:11.872Z</time>
      </trkpt>
      <trkpt lat="46.21019" lon="4.46311">
        <ele>681.42</ele>
        <time>2023-11-14T19:26:18.826Z</time>
      </trkpt>
      <trkpt lat="46.21012" lon="4.463">
        <ele>680.91</ele>
        <time>2023-11-14T19:26:25.781Z</time>
      </trkpt>
      <trkpt lat="46.21006" lon="4.46287">
        <ele>680.3</ele>
        <time>2023-11-14T19:26:32.738Z</time>
      </trkpt>
      <trkpt lat="46.21" lon="4.46258">
        <ele>679.58</ele>
        <time>2023-11-14T19:26:39.698Z</time>
      </trkpt>
      <trkpt lat="46.20996" lon="4.46226">
        <ele>678.83</ele>
        <time>2023-11-14T19:26:46.662Z</time>
      </trkpt>
      <trkpt lat="46.20991" lon="4.46212">
        <ele>678.24</ele>
        <time>2023-11-14T19:26:53.628Z</time>
      </trkpt>
      <trkpt lat="46.20983" lon="4.46193">
        <ele>677.77</ele>
        <time>2023-11-14T19:27:00.596Z</time>
      </trkpt>
      <trkpt lat="46.2097" lon="4.46173">
        <ele>677.08</ele>
        <time>2023-11-14T19:27:07.567Z</time>
      </trkpt>
      <trkpt lat="46.20939" lon="4.46131">
        <ele>676.17</ele>
        <time>2023-11-14T19:27:14.545Z</time>
      </trkpt>
      <trkpt lat="46.20939" lon="4.46131">
        <ele>675.17</ele>
        <time>2023-11-14T19:27:21.523Z</time>
      </trkpt>
      <trkpt lat="46.20899" lon="4.46075">
        <ele>673.92</ele>
        <time>2023-11-14T19:27:28.510Z</time>
      </trkpt>
      <trkpt lat="46.20896" lon="4.46072">
        <ele>672.78</ele>
        <time>2023-11-14T19:27:35.498Z</time>
      </trkpt>
      <trkpt lat="46.20876" lon="4.46048">
        <ele>671.57</ele>
        <time>2023-11-14T19:27:42.490Z</time>
      </trkpt>
      <trkpt lat="46.20866" lon="4.46037">
        <ele>670.34</ele>
        <time>2023-11-14T19:27:49.484Z</time>
      </trkpt>
      <trkpt lat="46.20742" lon="4.45938">
        <ele>668.44</ele>
        <time>2023-11-14T19:27:56.500Z</time>
      </trkpt>
      <trkpt lat="46.20732" lon="4.45931">
        <ele>667.02</ele>
        <time>2023-11-14T19:28:03.518Z</time>
      </trkpt>
      <trkpt lat="46.20719" lon="4.45925">
        <ele>665.65</ele>
        <time>2023-11-14T19:28:10.538Z</time>
      </trkpt>
      <trkpt lat="46.20668" lon="4.45925">
        <ele>664.51</ele>
        <time>2023-11-14T19:28:17.566Z</time>
      </trkpt>
      <trkpt lat="46.20646" lon="4.45916">
        <ele>663.32</ele>
        <time>2023-11-14T19:28:24.598Z</time>
      </trkpt>
      <trkpt lat="46.20615" lon="4.45894">
        <ele>662.25</ele>
        <time>2023-11-14T19:28:31.636Z</time>
      </trkpt>
      <trkpt lat="46.20599" lon="4.45879">
        <ele>661.55</ele>
        <time>2023-11-14T19:28:38.677Z</time>
      </trkpt>
      <trkpt lat="46.20589" lon="4.45867">
        <ele>661.05</ele>
        <time>2023-11-14T19:28:45.720Z</time>
      </trkpt>
      <trkpt lat="46.20581" lon="4.45855">
        <ele>660.66</ele>
        <time>2023-11-14T19:28:52.765Z</time>
      </trkpt>
      <trkpt lat="46.20571" lon="4.45829">
        <ele>660.4</ele>
        <time>2023-11-14T19:28:59.813Z</time>
      </trkpt>
      <trkpt lat="46.20544" lon="4.45724">
        <ele>660.22</ele>
        <time>2023-11-14T19:29:06.873Z</time>
      </trkpt>
      <trkpt lat="46.20539" lon="4.4571">
        <ele>660.14</ele>
        <time>2023-11-14T19:29:13.935Z</time>
      </trkpt>
      <trkpt lat="46.20529" lon="4.45694">
        <ele>660.18</ele>
        <time>2023-11-14T19:29:21.000Z</time>
      </trkpt>
      <trkpt lat="46.20519" lon="4.4568">
        <ele>660.09</ele>
        <time>2023-11-14T19:29:28.067Z</time>
      </trkpt>
      <trkpt lat="46.20506" lon="4.45666">
        <ele>659.92</ele>
        <time>2023-11-14T19:29:35.136Z</time>
      </trkpt>
      <trkpt lat="46.20492" lon="4.45657">
        <ele>659.62</ele>
        <time>2023-11-14T19:29:42.208Z</time>
      </trkpt>
      <trkpt lat="46.20476" lon="4.45648">
        <ele>659.06</ele>
        <time>2023-11-14T19:29:49.283Z</time>
      </trkpt>
      <trkpt lat="46.20447" lon="4.45644">
        <ele>658.28</ele>
        <time>2023-11-14T19:29:56.362Z</time>
      </trkpt>
      <trkpt lat="46.20437" lon="4.45648">
        <ele>657.06</ele>
        <time>2023-11-14T19:30:03.443Z</time>
      </trkpt>
      <trkpt lat="46.203" lon="4.4574">
        <ele>654.79</ele>
        <time>2023-11-14T19:30:10.548Z</time>
      </trkpt>
      <trkpt lat="46.20286" lon="4.45747">
        <ele>653.67</ele>
        <time>2023-11-14T19:30:17.655Z</time>
      </trkpt>
      <trkpt lat="46.20278" lon="4.45747">
        <ele>652.52</ele>
        <time>2023-11-14T19:30:24.764Z</time>
      </trkpt>
      <trkpt lat="46.20288" lon="4.45721">
        <ele>648.67</ele>
        <time>2023-11-14T19:30:31.876Z</time>
      </trkpt>
      <trkpt lat="46.20278" lon="4.45747">
        <ele>649.05</ele>
        <time>2023-11-14T19:30:38.992Z</time>
      </trkpt>
      <trkpt lat="46.20266" lon="4.45742">
        <ele>648.4</ele>
        <time>2023-11-14T19:30:46.109Z</time>
      </trkpt>
      <trkpt lat="46.20226" lon="4.45715">
        <ele>647</ele>
        <time>2023-11-14T19:30:53.234Z</time>
      </trkpt>
      <trkpt lat="46.20186" lon="4.45683">
        <ele>646.08</ele>
        <time>2023-11-14T19:31:00.366Z</time>
      </trkpt>
      <trkpt lat="46.20165" lon="4.45673">
        <ele>645.05</ele>
        <time>2023-11-14T19:31:07.501Z</time>
      </trkpt>
      <trkpt lat="46.20156" lon="4.45671">
        <ele>644.1</ele>
        <time>2023-11-14T19:31:14.638Z</time>
      </trkpt>
      <trkpt lat="46.2015" lon="4.45672">
        <ele>643.24</ele>
        <time>2023-11-14T19:31:21.776Z</time>
      </trkpt>
      <trkpt lat="46.2014" lon="4.45678">
        <ele>642.36</ele>
        <time>2023-11-14T19:31:28.916Z</time>
      </trkpt>
      <trkpt lat="46.20134" lon="4.45687">
        <ele>641.6</ele>
        <time>2023-11-14T19:31:36.057Z</time>
      </trkpt>
      <trkpt lat="46.20116" lon="4.45727">
        <ele>640.65</ele>
        <time>2023-11-14T19:31:43.203Z</time>
      </trkpt>
      <trkpt lat="46.20112" lon="4.4574">
        <ele>639.82</ele>
        <time>2023-11-14T19:31:50.351Z</time>
      </trkpt>
      <trkpt lat="46.2011" lon="4.45756">
        <ele>639.07</ele>
        <time>2023-11-14T19:31:57.501Z</time>
      </trkpt>
      <trkpt lat="46.2011" lon="4.45774">
        <ele>638.39</ele>
        <time>2023-11-14T19:32:04.653Z</time>
      </trkpt>
      <trkpt lat="46.20139" lon="4.45952">
        <ele>637.72</ele>
        <time>2023-11-14T19:32:11.825Z</time>
      </trkpt>
      <trkpt lat="46.20149" lon="4.46031">
        <ele>637.17</ele>
        <time>2023-11-14T19:32:19.006Z</time>
      </trkpt>
      <trkpt lat="46.2015" lon="4.46085">
        <ele>636.45</ele>
        <time>2023-11-14T19:32:26.193Z</time>
      </trkpt>
      <trkpt lat="46.20147" lon="4.46099">
        <ele>636.12</ele>
        <time>2023-11-14T19:32:33.382Z</time>
      </trkpt>
      <trkpt lat="46.20138" lon="4.46122">
        <ele>635.88</ele>
        <time>2023-11-14T19:32:40.573Z</time>
      </trkpt>
      <trkpt lat="46.20109" lon="4.46183">
        <ele>635.7</ele>
        <time>2023-11-14T19:32:47.773Z</time>
      </trkpt>
      <trkpt lat="46.201" lon="4.46201">
        <ele>635.64</ele>
        <time>2023-11-14T19:32:54.975Z</time>
      </trkpt>
      <trkpt lat="46.20091" lon="4.46214">
        <ele>635.62</ele>
        <time>2023-11-14T19:33:02.179Z</time>
      </trkpt>
      <trkpt lat="46.20084" lon="4.46222">
        <ele>635.54</ele>
        <time>2023-11-14T19:33:09.385Z</time>
      </trkpt>
      <trkpt lat="46.20073" lon="4.46226">
        <ele>635.4</ele>
        <time>2023-11-14T19:33:16.592Z</time>
      </trkpt>
      <trkpt lat="46.20065" lon="4.46224">
        <ele>635.16</ele>
        <time>2023-11-14T19:33:23.801Z</time>
      </trkpt>
      <trkpt lat="46.20058" lon="4.46219">
        <ele>634.89</ele>
        <time>2023-11-14T19:33:31.011Z</time>
      </trkpt>
      <trkpt lat="46.20044" lon="4.46199">
        <ele>634.54</ele>
        <time>2023-11-14T19:33:38.224Z</time>
      </trkpt>
      <trkpt lat="46.2004" lon="4.46188">
        <ele>634.42</ele>
        <time>2023-11-14T19:33:45.439Z</time>
      </trkpt>
      <trkpt lat="46.20036" lon="4.46166">
        <ele>634.39</ele>
        <time>2023-11-14T19:33:52.656Z</time>
      </trkpt>
      <trkpt lat="46.20037" lon="4.46144">
        <ele>634.39</ele>
        <time>2023-11-14T19:33:59.876Z</time>
      </trkpt>
      <trkpt lat="46.20043" lon="4.46104">
        <ele>634.36</ele>
        <time>2023-11-14T19:34:07.100Z</time>
      </trkpt>
      <trkpt lat="46.20044" lon="4.4607">
        <ele>634.12</ele>
        <time>2023-11-14T19:34:14.328Z</time>
      </trkpt>
      <trkpt lat="46.20041" lon="4.46039">
        <ele>633.85</ele>
        <time>2023-11-14T19:34:21.559Z</time>
      </trkpt>
      <trkpt lat="46.20036" lon="4.46017">
        <ele>633.54</ele>
        <time>2023-11-14T19:34:28.793Z</time>
      </trkpt>
      <trkpt lat="46.20028" lon="4.45996">
        <ele>633.17</ele>
        <time>2023-11-14T19:34:36.030Z</time>
      </trkpt>
      <trkpt lat="46.19976" lon="4.459">
        <ele>632.44</ele>
        <time>2023-11-14T19:34:43.280Z</time>
      </trkpt>
      <trkpt lat="46.19965" lon="4.45886">
        <ele>631.87</ele>
        <time>2023-11-14T19:34:50.532Z</time>
      </trkpt>
      <trkpt lat="46.19956" lon="4.45879">
        <ele>631.3</ele>
        <time>2023-11-14T19:34:57.786Z</time>
      </trkpt>
      <trkpt lat="46.19945" lon="4.45872">
        <ele>630.78</ele>
        <time>2023-11-14T19:35:05.042Z</time>
      </trkpt>
      <trkpt lat="46.199" lon="4.45866">
        <ele>630.29</ele>
        <time>2023-11-14T19:35:12.305Z</time>
      </trkpt>
      <trkpt lat="46.19891" lon="4.4586">
        <ele>629.92</ele>
        <time>2023-11-14T19:35:19.570Z</time>
      </trkpt>
      <trkpt lat="46.19882" lon="4.45854">
        <ele>629.66</ele>
        <time>2023-11-14T19:35:26.836Z</time>
      </trkpt>
      <trkpt lat="46.19872" lon="4.45835">
        <ele>629.52</ele>
        <time>2023-11-14T19:35:34.105Z</time>
      </trkpt>
      <trkpt lat="46.1987" lon="4.45824">
        <ele>629.28</ele>
        <time>2023-11-14T19:35:41.375Z</time>
      </trkpt>
      <trkpt lat="46.19867" lon="4.45779">
        <ele>628.87</ele>
        <time>2023-11-14T19:35:48.650Z</time>
      </trkpt>
      <trkpt lat="46.19863" lon="4.45766">
        <ele>628.79</ele>
        <time>2023-11-14T19:35:55.927Z</time>
      </trkpt>
      <trkpt lat="46.19854" lon="4.45746">
        <ele>628.79</ele>
        <time>2023-11-14T19:36:03.207Z</time>
      </trkpt>
      <trkpt lat="46.19818" lon="4.45688">
        <ele>628.97</ele>
        <time>2023-11-14T19:36:10.495Z</time>
      </trkpt>
      <trkpt lat="46.19811" lon="4.45675">
        <ele>628.53</ele>
        <time>2023-11-14T19:36:17.785Z</time>
      </trkpt>
      <trkpt lat="46.19807" lon="4.45661">
        <ele>627.89</ele>
        <time>2023-11-14T19:36:25.077Z</time>
      </trkpt>
      <trkpt lat="46.19806" lon="4.45647">
        <ele>627.11</ele>
        <time>2023-11-14T19:36:32.370Z</time>
      </trkpt>
      <trkpt lat="46.19805" lon="4.45625">
        <ele>626.26</ele>
        <time>2023-11-14T19:36:39.666Z</time>
      </trkpt>
      <trkpt lat="46.19811" lon="4.45547">
        <ele>625.37</ele>
        <time>2023-11-14T19:36:46.970Z</time>
      </trkpt>
      <trkpt lat="46.19816" lon="4.45514">
        <ele>626.96</ele>
        <time>2023-11-14T19:36:54.278Z</time>
      </trkpt>
      <trkpt lat="46.19819" lon="4.45497">
        <ele>627.12</ele>
        <time>2023-11-14T19:37:01.588Z</time>
      </trkpt>
      <trkpt lat="46.19819" lon="4.45474">
        <ele>627.33</ele>
        <time>2023-11-14T19:37:08.901Z</time>
      </trkpt>
      <trkpt lat="46.19811" lon="4.45401">
        <ele>627.65</ele>
        <time>2023-11-14T19:37:16.222Z</time>
      </trkpt>
      <trkpt lat="46.19806" lon="4.45384">
        <ele>627.92</ele>
        <time>2023-11-14T19:37:23.545Z</time>
      </trkpt>
      <trkpt lat="46.198" lon="4.45369">
        <ele>628.15</ele>
        <time>2023-11-14T19:37:30.870Z</time>
      </trkpt>
      <trkpt lat="46.19789" lon="4.45353">
        <ele>628.35</ele>
        <time>2023-11-14T19:37:38.197Z</time>
      </trkpt>
      <trkpt lat="46.19763" lon="4.45324">
        <ele>628.51</ele>
        <time>2023-11-14T19:37:45.530Z</time>
      </trkpt>
      <trkpt lat="46.19727" lon="4.45289">
        <ele>628.08</ele>
        <time>2023-11-14T19:37:52.870Z</time>
      </trkpt>
      <trkpt lat="46.19727" lon="4.45289">
        <ele>627.58</ele>
        <time>2023-11-14T19:38:00.210Z</time>
      </trkpt>
      <trkpt lat="46.197" lon="4.45253">
        <ele>626.56</ele>
        <time>2023-11-14T19:38:07.556Z</time>
      </trkpt>
      <trkpt lat="46.19665" lon="4.45217">
        <ele>625.32</ele>
        <time>2023-11-14T19:38:14.908Z</time>
      </trkpt>
      <trkpt lat="46.19636" lon="4.45188">
        <ele>624.08</ele>
        <time>2023-11-14T19:38:22.266Z</time>
      </trkpt>
      <trkpt lat="46.19618" lon="4.45172">
        <ele>622.99</ele>
        <time>2023-11-14T19:38:29.627Z</time>
      </trkpt>
      <trkpt lat="46.19542" lon="4.45124">
        <ele>621.93</ele>
        <time>2023-11-14T19:38:37.002Z</time>
      </trkpt>
      <trkpt lat="46.19519" lon="4.45115">
        <ele>621.01</ele>
        <time>2023-11-14T19:38:44.380Z</time>
      </trkpt>
      <trkpt lat="46.19469" lon="4.45103">
        <ele>620.31</ele>
        <time>2023-11-14T19:38:51.767Z</time>
      </trkpt>
      <trkpt lat="46.19447" lon="4.45103">
        <ele>619.74</ele>
        <time>2023-11-14T19:38:59.157Z</time>
      </trkpt>
      <trkpt lat="46.19432" lon="4.45109">
        <ele>619.37</ele>
        <time>2023-11-14T19:39:06.550Z</time>
      </trkpt>
      <trkpt lat="46.19392" lon="4.45145">
        <ele>619.32</ele>
        <time>2023-11-14T19:39:13.950Z</time>
      </trkpt>
      <trkpt lat="46.19368" lon="4.45159">
        <ele>619.23</ele>
        <time>2023-11-14T19:39:21.354Z</time>
      </trkpt>
      <trkpt lat="46.19339" lon="4.45163">
        <ele>619.08</ele>
        <time>2023-11-14T19:39:28.763Z</time>
      </trkpt>
      <trkpt lat="46.19328" lon="4.45162">
        <ele>619.1</ele>
        <time>2023-11-14T19:39:36.174Z</time>
      </trkpt>
      <trkpt lat="46.19304" lon="4.45152">
        <ele>619.27</ele>
        <time>2023-11-14T19:39:43.589Z</time>
      </trkpt>
      <trkpt lat="46.19296" lon="4.45146">
        <ele>619.52</ele>
        <time>2023-11-14T19:39:51.005Z</time>
      </trkpt>
      <trkpt lat="46.19286" lon="4.45129">
        <ele>619.93</ele>
        <time>2023-11-14T19:39:58.424Z</time>
      </trkpt>
      <trkpt lat="46.19283" lon="4.4511">
        <ele>620.4</ele>
        <time>2023-11-14T19:40:05.845Z</time>
      </trkpt>
      <trkpt lat="46.19285" lon="4.45098">
        <ele>621.07</ele>
        <time>2023-11-14T19:40:13.267Z</time>
      </trkpt>
      <trkpt lat="46.19289" lon="4.45089">
        <ele>621.75</ele>
        <time>2023-11-14T19:40:20.690Z</time>
      </trkpt>
      <trkpt lat="46.19291" lon="4.45083">
        <ele>622.54</ele>
        <time>2023-11-14T19:40:28.114Z</time>
      </trkpt>
      <trkpt lat="46.19307" lon="4.45049">
        <ele>623.45</ele>
        <time>2023-11-14T19:40:35.543Z</time>
      </trkpt>
      <trkpt lat="46.19312" lon="4.4503">
        <ele>624.4</ele>
        <time>2023-11-14T19:40:42.974Z</time>
      </trkpt>
      <trkpt lat="46.19314" lon="4.45016">
        <ele>625.4</ele>
        <time>2023-11-14T19:40:50.406Z</time>
      </trkpt>
      <trkpt lat="46.19313" lon="4.45001">
        <ele>626.47</ele>
        <time>2023-11-14T19:40:57.840Z</time>
      </trkpt>
      <trkpt lat="46.1931" lon="4.44984">
        <ele>627.63</ele>
        <time>2023-11-14T19:41:05.276Z</time>
      </trkpt>
      <trkpt lat="46.19237" lon="4.44849">
        <ele>630.08</ele>
        <time>2023-11-14T19:41:12.731Z</time>
      </trkpt>
      <trkpt lat="46.19237" lon="4.44849">
        <ele>631.25</ele>
        <time>2023-11-14T19:41:20.186Z</time>
      </trkpt>
      <trkpt lat="46.19233" lon="4.44838">
        <ele>632.38</ele>
        <time>2023-11-14T19:41:27.643Z</time>
      </trkpt>
      <trkpt lat="46.1923" lon="4.44826">
        <ele>633.42</ele>
        <time>2023-11-14T19:41:35.101Z</time>
      </trkpt>
      <trkpt lat="46.19231" lon="4.44815">
        <ele>634.34</ele>
        <time>2023-11-14T19:41:42.560Z</time>
      </trkpt>
      <trkpt lat="46.19233" lon="4.44808">
        <ele>635.18</ele>
        <time>2023-11-14T19:41:50.020Z</time>
      </trkpt>
      <trkpt lat="46.19241" lon="4.44798">
        <ele>635.9</ele>
        <time>2023-11-14T19:41:57.482Z</time>
      </trkpt>
      <trkpt lat="46.19253" lon="4.44791">
        <ele>636.52</ele>
        <time>2023-11-14T19:42:04.946Z</time>
      </trkpt>
      <trkpt lat="46.1927" lon="4.44782">
        <ele>637.14</ele>
        <time>2023-11-14T19:42:12.413Z</time>
      </trkpt>
      <trkpt lat="46.19277" lon="4.44777">
        <ele>637.81</ele>
        <time>2023-11-14T19:42:19.881Z</time>
      </trkpt>
      <trkpt lat="46.19282" lon="4.44771">
        <ele>638.53</ele>
        <time>2023-11-14T19:42:27.350Z</time>
      </trkpt>
      <trkpt lat="46.19289" lon="4.44761">
        <ele>639.33</ele>
        <time>2023-11-14T19:42:34.821Z</time>
      </trkpt>
      <trkpt lat="46.19295" lon="4.44746">
        <ele>640.2</ele>
        <time>2023-11-14T19:42:42.294Z</time>
      </trkpt>
      <trkpt lat="46.1931" lon="4.4469">
        <ele>641.31</ele>
        <time>2023-11-14T19:42:49.773Z</time>
      </trkpt>
      <trkpt lat="46.19314" lon="4.44661">
        <ele>642.44</ele>
        <time>2023-11-14T19:42:57.255Z</time>
      </trkpt>
      <trkpt lat="46.19313" lon="4.44645">
        <ele>643.57</ele>
        <time>2023-11-14T19:43:04.739Z</time>
      </trkpt>
      <trkpt lat="46.1931" lon="4.44626">
        <ele>644.77</ele>
        <time>2023-11-14T19:43:12.225Z</time>
      </trkpt>
      <trkpt lat="46.19304" lon="4.44604">
        <ele>646.08</ele>
        <time>2023-11-14T19:43:19.714Z</time>
      </trkpt>
      <trkpt lat="46.19297" lon="4.4459">
        <ele>647.46</ele>
        <time>2023-11-14T19:43:27.205Z</time>
      </trkpt>
      <trkpt lat="46.19284" lon="4.4457">
        <ele>648.93</ele>
        <time>2023-11-14T19:43:34.699Z</time>
      </trkpt>
      <trkpt lat="46.19246" lon="4.44515">
        <ele>650.46</ele>
        <time>2023-11-14T19:43:42.202Z</time>
      </trkpt>
      <trkpt lat="46.19167" lon="4.44402">
        <ele>652.64</ele>
        <time>2023-11-14T19:43:49.722Z</time>
      </trkpt>
      <trkpt lat="46.19161" lon="4.44387">
        <ele>654.04</ele>
        <time>2023-11-14T19:43:57.244Z</time>
      </trkpt>
      <trkpt lat="46.19155" lon="4.4437">
        <ele>655.4</ele>
        <time>2023-11-14T19:44:04.769Z</time>
      </trkpt>
      <trkpt lat="46.19148" lon="4.44342">
        <ele>656.67</ele>
        <time>2023-11-14T19:44:12.297Z</time>
      </trkpt>
      <trkpt lat="46.19133" lon="4.44261">
        <ele>657.96</ele>
        <time>2023-11-14T19:44:19.834Z</time>
      </trkpt>
      <trkpt lat="46.19132" lon="4.44251">
        <ele>658.73</ele>
        <time>2023-11-14T19:44:27.372Z</time>
      </trkpt>
      <trkpt lat="46.19134" lon="4.44237">
        <ele>659.25</ele>
        <time>2023-11-14T19:44:34.912Z</time>
      </trkpt>
      <trkpt lat="46.19144" lon="4.44208">
        <ele>659.62</ele>
        <time>2023-11-14T19:44:42.455Z</time>
      </trkpt>
      <trkpt lat="46.19148" lon="4.44187">
        <ele>660.03</ele>
        <time>2023-11-14T19:44:50.001Z</time>
      </trkpt>
      <trkpt lat="46.19152" lon="4.44129">
        <ele>660.41</ele>
        <time>2023-11-14T19:44:57.553Z</time>
      </trkpt>
      <trkpt lat="46.19152" lon="4.44107">
        <ele>661.03</ele>
        <time>2023-11-14T19:45:05.108Z</time>
      </trkpt>
      <trkpt lat="46.19151" lon="4.4409">
        <ele>661.72</ele>
        <time>2023-11-14T19:45:12.665Z</time>
      </trkpt>
      <trkpt lat="46.19146" lon="4.44072">
        <ele>662.38</ele>
        <time>2023-11-14T19:45:20.224Z</time>
      </trkpt>
      <trkpt lat="46.19134" lon="4.44039">
        <ele>662.99</ele>
        <time>2023-11-14T19:45:27.787Z</time>
      </trkpt>
      <trkpt lat="46.19124" lon="4.44015">
        <ele>663.38</ele>
        <time>2023-11-14T19:45:35.353Z</time>
      </trkpt>
      <trkpt lat="46.19124" lon="4.44015">
        <ele>663.64</ele>
        <time>2023-11-14T19:45:42.919Z</time>
      </trkpt>
      <trkpt lat="46.19118" lon="4.43991">
        <ele>663.88</ele>
        <time>2023-11-14T19:45:50.488Z</time>
      </trkpt>
      <trkpt lat="46.19117" lon="4.43979">
        <ele>663.22</ele>
        <time>2023-11-14T19:45:58.058Z</time>
      </trkpt>
      <trkpt lat="46.19116" lon="4.43972">
        <ele>663.33</ele>
        <time>2023-11-14T19:46:05.629Z</time>
      </trkpt>
      <trkpt lat="46.19118" lon="4.43953">
        <ele>663.4</ele>
        <time>2023-11-14T19:46:13.202Z</time>
      </trkpt>
      <trkpt lat="46.19122" lon="4.43941">
        <ele>663.49</ele>
        <time>2023-11-14T19:46:20.777Z</time>
      </trkpt>
      <trkpt lat="46.19131" lon="4.43925">
        <ele>663.49</ele>
        <time>2023-11-14T19:46:28.354Z</time>
      </trkpt>
      <trkpt lat="46.19147" lon="4.43909">
        <ele>663.53</ele>
        <time>2023-11-14T19:46:35.934Z</time>
      </trkpt>
      <trkpt lat="46.19156" lon="4.43896">
        <ele>663.71</ele>
        <time>2023-11-14T19:46:43.516Z</time>
      </trkpt>
      <trkpt lat="46.19163" lon="4.43876">
        <ele>663.91</ele>
        <time>2023-11-14T19:46:51.101Z</time>
      </trkpt>
      <trkpt lat="46.19166" lon="4.43857">
        <ele>663.91</ele>
        <time>2023-11-14T19:46:58.688Z</time>
      </trkpt>
      <trkpt lat="46.19167" lon="4.43836">
        <ele>663.57</ele>
        <time>2023-11-14T19:47:06.277Z</time>
      </trkpt>
      <trkpt lat="46.19187" lon="4.43828">
        <ele>662.95</ele>
        <time>2023-11-14T19:47:13.869Z</time>
      </trkpt>
      <trkpt lat="46.19192" lon="4.43824">
        <ele>662.34</ele>
        <time>2023-11-14T19:47:21.462Z</time>
      </trkpt>
      <trkpt lat="46.19195" lon="4.43812">
        <ele>661.66</ele>
        <time>2023-11-14T19:47:29.057Z</time>
      </trkpt>
      <trkpt lat="46.19195" lon="4.43799">
        <ele>660.96</ele>
        <time>2023-11-14T19:47:36.653Z</time>
      </trkpt>
      <trkpt lat="46.19192" lon="4.43757">
        <ele>660.18</ele>
        <time>2023-11-14T19:47:44.254Z</time>
      </trkpt>
      <trkpt lat="46.19193" lon="4.43735">
        <ele>659.54</ele>
        <time>2023-11-14T19:47:51.857Z</time>
      </trkpt>
      <trkpt lat="46.192" lon="4.43708">
        <ele>658.92</ele>
        <time>2023-11-14T19:47:59.464Z</time>
      </trkpt>
      <trkpt lat="46.19177" lon="4.437">
        <ele>658.6</ele>
        <time>2023-11-14T19:48:07.074Z</time>
      </trkpt>
      <trkpt lat="46.19172" lon="4.43699">
        <ele>657.41</ele>
        <time>2023-11-14T19:48:14.685Z</time>
      </trkpt>
      <trkpt lat="46.19166" lon="4.43698">
        <ele>657.69</ele>
        <time>2023-11-14T19:48:22.297Z</time>
      </trkpt>
      <trkpt lat="46.19155" lon="4.43699">
        <ele>658.07</ele>
        <time>2023-11-14T19:48:29.911Z</time>
      </trkpt>
      <trkpt lat="46.19155" lon="4.43699">
        <ele>658.52</ele>
        <time>2023-11-14T19:48:37.525Z</time>
      </trkpt>
      <trkpt lat="46.19129" lon="4.43707">
        <ele>659.1</ele>
        <time>2023-11-14T19:48:45.143Z</time>
      </trkpt>
      <trkpt lat="46.19086" lon="4.43729">
        <ele>660.11</ele>
        <time>2023-11-14T19:48:52.768Z</time>
      </trkpt>
      <trkpt lat="46.19068" lon="4.43741">
        <ele>660.98</ele>
        <time>2023-11-14T19:49:00.397Z</time>
      </trkpt>
      <trkpt lat="46.19043" lon="4.43764">
        <ele>661.96</ele>
        <time>2023-11-14T19:49:08.030Z</time>
      </trkpt>
      <trkpt lat="46.19016" lon="4.43776">
        <ele>662.95</ele>
        <time>2023-11-14T19:49:15.668Z</time>
      </trkpt>
      <trkpt lat="46.18993" lon="4.43784">
        <ele>663.83</ele>
        <time>2023-11-14T19:49:23.310Z</time>
      </trkpt>
      <trkpt lat="46.18945" lon="4.43798">
        <ele>664.84</ele>
        <time>2023-11-14T19:49:30.959Z</time>
      </trkpt>
      <trkpt lat="46.18935" lon="4.43802">
        <ele>665.83</ele>
        <time>2023-11-14T19:49:38.610Z</time>
      </trkpt>
      <trkpt lat="46.18892" lon="4.43813">
        <ele>666.91</ele>
        <time>2023-11-14T19:49:46.268Z</time>
      </trkpt>
      <trkpt lat="46.18805" lon="4.43842">
        <ele>668.11</ele>
        <time>2023-11-14T19:49:53.940Z</time>
      </trkpt>
      <trkpt lat="46.18746" lon="4.43861">
        <ele>669.32</ele>
        <time>2023-11-14T19:50:01.622Z</time>
      </trkpt>
      <trkpt lat="46.18725" lon="4.43868">
        <ele>670.54</ele>
        <time>2023-11-14T19:50:09.307Z</time>
      </trkpt>
      <trkpt lat="46.18709" lon="4.43876">
        <ele>671.71</ele>
        <time>2023-11-14T19:50:16.995Z</time>
      </trkpt>
      <trkpt lat="46.18691" lon="4.4389">
        <ele>673</ele>
        <time>2023-11-14T19:50:24.686Z</time>
      </trkpt>
      <trkpt lat="46.1869" lon="4.43891">
        <ele>674</ele>
        <time>2023-11-14T19:50:32.378Z</time>
      </trkpt>
      <trkpt lat="46.18652" lon="4.43919">
        <ele>675.2</ele>
        <time>2023-11-14T19:50:40.076Z</time>
      </trkpt>
      <trkpt lat="46.18618" lon="4.43932">
        <ele>676.46</ele>
        <time>2023-11-14T19:50:47.780Z</time>
      </trkpt>
      <trkpt lat="46.18583" lon="4.43941">
        <ele>677.59</ele>
        <time>2023-11-14T19:50:55.490Z</time>
      </trkpt>
      <trkpt lat="46.18537" lon="4.4395">
        <ele>677.91</ele>
        <time>2023-11-14T19:51:03.207Z</time>
      </trkpt>
      <trkpt lat="46.18537" lon="4.4395">
        <ele>678.28</ele>
        <time>2023-11-14T19:51:10.924Z</time>
      </trkpt>
      <trkpt lat="46.18508" lon="4.43951">
        <ele>678.17</ele>
        <time>2023-11-14T19:51:18.646Z</time>
      </trkpt>
      <trkpt lat="46.18485" lon="4.43949">
        <ele>678.08</ele>
        <time>2023-11-14T19:51:26.372Z</time>
      </trkpt>
      <trkpt lat="46.18411" lon="4.43934">
        <ele>678.17</ele>
        <time>2023-11-14T19:51:34.110Z</time>
      </trkpt>
      <trkpt lat="46.18384" lon="4.43935">
        <ele>678.27</ele>
        <time>2023-11-14T19:51:41.852Z</time>
      </trkpt>
      <trkpt lat="46.18371" lon="4.43938">
        <ele>678.23</ele>
        <time>2023-11-14T19:51:49.596Z</time>
      </trkpt>
      <trkpt lat="46.18358" lon="4.43944">
        <ele>678.25</ele>
        <time>2023-11-14T19:51:57.342Z</time>
      </trkpt>
      <trkpt lat="46.18323" lon="4.43968">
        <ele>678.58</ele>
        <time>2023-11-14T19:52:05.094Z</time>
      </trkpt>
      <trkpt lat="46.18306" lon="4.43982">
        <ele>678.73</ele>
        <time>2023-11-14T19:52:12.850Z</time>
      </trkpt>
      <trkpt lat="46.1829" lon="4.44001">
        <ele>679.08</ele>
        <time>2023-11-14T19:52:20.609Z</time>
      </trkpt>
      <trkpt lat="46.18276" lon="4.4402">
        <ele>679.49</ele>
        <time>2023-11-14T19:52:28.371Z</time>
      </trkpt>
      <trkpt lat="46.18228" lon="4.44102">
        <ele>680.21</ele>
        <time>2023-11-14T19:52:36.145Z</time>
      </trkpt>
      <trkpt lat="46.18209" lon="4.4413">
        <ele>680.61</ele>
        <time>2023-11-14T19:52:43.923Z</time>
      </trkpt>
      <trkpt lat="46.18184" lon="4.44157">
        <ele>680.96</ele>
        <time>2023-11-14T19:52:51.706Z</time>
      </trkpt>
      <trkpt lat="46.18091" lon="4.44223">
        <ele>681.49</ele>
        <time>2023-11-14T19:52:59.506Z</time>
      </trkpt>
      <trkpt lat="46.18091" lon="4.44223">
        <ele>682.24</ele>
        <time>2023-11-14T19:53:07.306Z</time>
      </trkpt>
      <trkpt lat="46.18082" lon="4.44229">
        <ele>683.17</ele>
        <time>2023-11-14T19:53:15.107Z</time>
      </trkpt>
      <trkpt lat="46.18067" lon="4.44232">
        <ele>684.23</ele>
        <time>2023-11-14T19:53:22.911Z</time>
      </trkpt>
      <trkpt lat="46.18043" lon="4.44232">
        <ele>685.57</ele>
        <time>2023-11-14T19:53:30.719Z</time>
      </trkpt>
      <trkpt lat="46.18035" lon="4.44229">
        <ele>687.01</ele>
        <time>2023-11-14T19:53:38.528Z</time>
      </trkpt>
      <trkpt lat="46.18014" lon="4.44222">
        <ele>688.72</ele>
        <time>2023-11-14T19:53:46.340Z</time>
      </trkpt>
      <trkpt lat="46.17991" lon="4.44218">
        <ele>690.52</ele>
        <time>2023-11-14T19:53:54.156Z</time>
      </trkpt>
      <trkpt lat="46.17955" lon="4.4422">
        <ele>692.52</ele>
        <time>2023-11-14T19:54:01.978Z</time>
      </trkpt>
      <trkpt lat="46.17946" lon="4.44223">
        <ele>694.12</ele>
        <time>2023-11-14T19:54:09.801Z</time>
      </trkpt>
      <trkpt lat="46.17935" lon="4.44226">
        <ele>695.73</ele>
        <time>2023-11-14T19:54:17.626Z</time>
      </trkpt>
      <trkpt lat="46.17908" lon="4.44237">
        <ele>697.13</ele>
        <time>2023-11-14T19:54:25.456Z</time>
      </trkpt>
      <trkpt lat="46.17837" lon="4.44278">
        <ele>698.9</ele>
        <time>2023-11-14T19:54:33.298Z</time>
      </trkpt>
      <trkpt lat="46.17818" lon="4.44282">
        <ele>699.73</ele>
        <time>2023-11-14T19:54:41.143Z</time>
      </trkpt>
      <trkpt lat="46.17794" lon="4.4428">
        <ele>700.24</ele>
        <time>2023-11-14T19:54:48.992Z</time>
      </trkpt>
      <trkpt lat="46.1768" lon="4.44252">
        <ele>700.5</ele>
        <time>2023-11-14T19:54:56.859Z</time>
      </trkpt>
      <trkpt lat="46.17643" lon="4.44246">
        <ele>701.11</ele>
        <time>2023-11-14T19:55:04.732Z</time>
      </trkpt>
      <trkpt lat="46.17572" lon="4.44251">
        <ele>701.32</ele>
        <time>2023-11-14T19:55:12.617Z</time>
      </trkpt>
      <trkpt lat="46.17559" lon="4.44252">
        <ele>702.61</ele>
        <time>2023-11-14T19:55:20.504Z</time>
      </trkpt>
      <trkpt lat="46.17559" lon="4.44252">
        <ele>704.05</ele>
        <time>2023-11-14T19:55:28.391Z</time>
      </trkpt>
      <trkpt lat="46.17524" lon="4.44255">
        <ele>706.1</ele>
        <time>2023-11-14T19:55:36.283Z</time>
      </trkpt>
      <trkpt lat="46.17464" lon="4.44266">
        <ele>708.72</ele>
        <time>2023-11-14T19:55:44.185Z</time>
      </trkpt>
      <trkpt lat="46.17426" lon="4.44277">
        <ele>710.66</ele>
        <time>2023-11-14T19:55:52.093Z</time>
      </trkpt>
      <trkpt lat="46.17386" lon="4.44291">
        <ele>712.45</ele>
        <time>2023-11-14T19:56:00.008Z</time>
      </trkpt>
      <trkpt lat="46.17365" lon="4.44295">
        <ele>714.1</ele>
        <time>2023-11-14T19:56:07.926Z</time>
      </trkpt>
      <trkpt lat="46.17306" lon="4.44299">
        <ele>722.53</ele>
        <time>2023-11-14T19:56:15.854Z</time>
      </trkpt>
      <trkpt lat="46.17297" lon="4.44299">
        <ele>723.05</ele>
        <time>2023-11-14T19:56:23.783Z</time>
      </trkpt>
      <trkpt lat="46.17275" lon="4.44303">
        <ele>724.04</ele>
        <time>2023-11-14T19:56:31.716Z</time>
      </trkpt>
      <trkpt lat="46.17225" lon="4.44318">
        <ele>725.08</ele>
        <time>2023-11-14T19:56:39.657Z</time>
      </trkpt>
      <trkpt lat="46.17208" lon="4.44321">
        <ele>725.29</ele>
        <time>2023-11-14T19:56:47.601Z</time>
      </trkpt>
      <trkpt lat="46.17195" lon="4.4432">
        <ele>725.01</ele>
        <time>2023-11-14T19:56:55.547Z</time>
      </trkpt>
      <trkpt lat="46.17128" lon="4.44289">
        <ele>724.33</ele>
        <time>2023-11-14T19:57:03.504Z</time>
      </trkpt>
      <trkpt lat="46.1707" lon="4.44264">
        <ele>723.94</ele>
        <time>2023-11-14T19:57:11.471Z</time>
      </trkpt>
      <trkpt lat="46.17027" lon="4.4424">
        <ele>721.81</ele>
        <time>2023-11-14T19:57:19.445Z</time>
      </trkpt>
      <trkpt lat="46.16999" lon="4.44222">
        <ele>719.55</ele>
        <time>2023-11-14T19:57:27.424Z</time>
      </trkpt>
      <trkpt lat="46.16905" lon="4.44147">
        <ele>717.33</ele>
        <time>2023-11-14T19:57:35.420Z</time>
      </trkpt>
      <trkpt lat="46.16846" lon="4.44098">
        <ele>716.18</ele>
        <time>2023-11-14T19:57:43.427Z</time>
      </trkpt>
      <trkpt lat="46.16836" lon="4.44087">
        <ele>715.14</ele>
        <time>2023-11-14T19:57:51.436Z</time>
      </trkpt>
      <trkpt lat="46.16833" lon="4.44081">
        <ele>714.31</ele>
        <time>2023-11-14T19:57:59.446Z</time>
      </trkpt>
      <trkpt lat="46.1678" lon="4.44123">
        <ele>713.83</ele>
        <time>2023-11-14T19:58:07.466Z</time>
      </trkpt>
      <trkpt lat="46.16775" lon="4.44128">
        <ele>713.36</ele>
        <time>2023-11-14T19:58:15.487Z</time>
      </trkpt>
      <trkpt lat="46.16759" lon="4.44141">
        <ele>712.89</ele>
        <time>2023-11-14T19:58:23.511Z</time>
      </trkpt>
      <trkpt lat="46.16744" lon="4.44142">
        <ele>712.4</ele>
        <time>2023-11-14T19:58:31.537Z</time>
      </trkpt>
      <trkpt lat="46.16731" lon="4.44137">
        <ele>711.94</ele>
        <time>2023-11-14T19:58:39.565Z</time>
      </trkpt>
      <trkpt lat="46.16722" lon="4.44128">
        <ele>711.55</ele>
        <time>2023-11-14T19:58:47.595Z</time>
      </trkpt>
      <trkpt lat="46.16716" lon="4.44127">
        <ele>711.17</ele>
        <time>2023-11-14T19:58:55.626Z</time>
      </trkpt>
      <trkpt lat="46.16708" lon="4.44117">
        <ele>710.78</ele>
        <time>2023-11-14T19:59:03.658Z</time>
      </trkpt>
      <trkpt lat="46.16699" lon="4.44096">
        <ele>710.39</ele>
        <time>2023-11-14T19:59:11.693Z</time>
      </trkpt>
      <trkpt lat="46.1669" lon="4.44058">
        <ele>709.98</ele>
        <time>2023-11-14T19:59:19.733Z</time>
      </trkpt>
      <trkpt lat="46.16665" lon="4.44011">
        <ele>709.62</ele>
        <time>2023-11-14T19:59:27.779Z</time>
      </trkpt>
      <trkpt lat="46.16649" lon="4.43987">
        <ele>709.32</ele>
        <time>2023-11-14T19:59:35.829Z</time>
      </trkpt>
      <trkpt lat="46.16627" lon="4.43965">
        <ele>709.05</ele>
        <time>2023-11-14T19:59:43.883Z</time>
      </trkpt>
      <trkpt lat="46.16606" lon="4.43953">
        <ele>708.63</ele>
        <time>2023-11-14T19:59:51.941Z</time>
      </trkpt>
      <trkpt lat="46.16574" lon="4.43939">
        <ele>708.12</ele>
        <time>2023-11-14T20:00:00.004Z</time>
      </trkpt>
      <trkpt lat="46.16546" lon="4.43928">
        <ele>707.79</ele>
        <time>2023-11-14T20:00:08.072Z</time>
      </trkpt>
      <trkpt lat="46.16531" lon="4.43925">
        <ele>707.57</ele>
        <time>2023-11-14T20:00:16.142Z</time>
      </trkpt>
      <trkpt lat="46.1653" lon="4.4392">
        <ele>707.49</ele>
        <time>2023-11-14T20:00:24.213Z</time>
      </trkpt>
      <trkpt lat="46.16525" lon="4.43913">
        <ele>707.47</ele>
        <time>2023-11-14T20:00:32.285Z</time>
      </trkpt>
      <trkpt lat="46.16441" lon="4.43903">
        <ele>707.08</ele>
        <time>2023-11-14T20:00:40.370Z</time>
      </trkpt>
      <trkpt lat="46.16376" lon="4.43885">
        <ele>706.93</ele>
        <time>2023-11-14T20:00:48.466Z</time>
      </trkpt>
      <trkpt lat="46.16357" lon="4.43881">
        <ele>706.99</ele>
        <time>2023-11-14T20:00:56.565Z</time>
      </trkpt>
      <trkpt lat="46.16334" lon="4.43882">
        <ele>707.03</ele>
        <time>2023-11-14T20:01:04.668Z</time>
      </trkpt>
      <trkpt lat="46.16293" lon="4.4389">
        <ele>707.06</ele>
        <time>2023-11-14T20:01:12.777Z</time>
      </trkpt>
      <trkpt lat="46.16265" lon="4.43891">
        <ele>706.92</ele>
        <time>2023-11-14T20:01:20.891Z</time>
      </trkpt>
      <trkpt lat="46.16239" lon="4.43884">
        <ele>706.94</ele>
        <time>2023-11-14T20:01:29.009Z</time>
      </trkpt>
      <trkpt lat="46.16202" lon="4.4387">
        <ele>706.77</ele>
        <time>2023-11-14T20:01:37.133Z</time>
      </trkpt>
      <trkpt lat="46.1617" lon="4.43849">
        <ele>706.66</ele>
        <time>2023-11-14T20:01:45.263Z</time>
      </trkpt>
      <trkpt lat="46.16128" lon="4.43812">
        <ele>706.32</ele>
        <time>2023-11-14T20:01:53.401Z</time>
      </trkpt>
      <trkpt lat="46.1609" lon="4.43774">
        <ele>705.36</ele>
        <time>2023-11-14T20:02:01.546Z</time>
      </trkpt>
      <trkpt lat="46.16062" lon="4.43749">
        <ele>704.67</ele>
        <time>2023-11-14T20:02:09.696Z</time>
      </trkpt>
      <trkpt lat="46.16041" lon="4.43736">
        <ele>704.06</ele>
        <time>2023-11-14T20:02:17.850Z</time>
      </trkpt>
      <trkpt lat="46.16021" lon="4.4373">
        <ele>703.44</ele>
        <time>2023-11-14T20:02:26.007Z</time>
      </trkpt>
      <trkpt lat="46.16" lon="4.43728">
        <ele>702.85</ele>
        <time>2023-11-14T20:02:34.168Z</time>
      </trkpt>
      <trkpt lat="46.15977" lon="4.43733">
        <ele>702.29</ele>
        <time>2023-11-14T20:02:42.333Z</time>
      </trkpt>
      <trkpt lat="46.15952" lon="4.43746">
        <ele>701.79</ele>
        <time>2023-11-14T20:02:50.502Z</time>
      </trkpt>
      <trkpt lat="46.15926" lon="4.43754">
        <ele>701.22</ele>
        <time>2023-11-14T20:02:58.675Z</time>
      </trkpt>
      <trkpt lat="46.15899" lon="4.43754">
        <ele>700.53</ele>
        <time>2023-11-14T20:03:06.852Z</time>
      </trkpt>
      <trkpt lat="46.15882" lon="4.43748">
        <ele>699.77</ele>
        <time>2023-11-14T20:03:15.032Z</time>
      </trkpt>
      <trkpt lat="46.15865" lon="4.43732">
        <ele>699.17</ele>
        <time>2023-11-14T20:03:23.215Z</time>
      </trkpt>
      <trkpt lat="46.15853" lon="4.43715">
        <ele>698.69</ele>
        <time>2023-11-14T20:03:31.401Z</time>
      </trkpt>
      <trkpt lat="46.15815" lon="4.43601">
        <ele>697.91</ele>
        <time>2023-11-14T20:03:39.601Z</time>
      </trkpt>
      <trkpt lat="46.15801" lon="4.43569">
        <ele>697.09</ele>
        <time>2023-11-14T20:03:47.805Z</time>
      </trkpt>
      <trkpt lat="46.15789" lon="4.43554">
        <ele>696.43</ele>
        <time>2023-11-14T20:03:56.012Z</time>
      </trkpt>
      <trkpt lat="46.15772" lon="4.4354">
        <ele>695.99</ele>
        <time>2023-11-14T20:04:04.222Z</time>
      </trkpt>
      <trkpt lat="46.15742" lon="4.43529">
        <ele>695.42</ele>
        <time>2023-11-14T20:04:12.437Z</time>
      </trkpt>
      <trkpt lat="46.15723" lon="4.43518">
        <ele>695.07</ele>
        <time>2023-11-14T20:04:20.655Z</time>
      </trkpt>
      <trkpt lat="46.15669" lon="4.43473">
        <ele>694.92</ele>
        <time>2023-11-14T20:04:28.883Z</time>
      </trkpt>
      <trkpt lat="46.15644" lon="4.43459">
        <ele>694.56</ele>
        <time>2023-11-14T20:04:37.116Z</time>
      </trkpt>
      <trkpt lat="46.15553" lon="4.43427">
        <ele>694</ele>
        <time>2023-11-14T20:04:45.364Z</time>
      </trkpt>
      <trkpt lat="46.15535" lon="4.43412">
        <ele>694.02</ele>
        <time>2023-11-14T20:04:53.615Z</time>
      </trkpt>
      <trkpt lat="46.15522" lon="4.43397">
        <ele>694.09</ele>
        <time>2023-11-14T20:05:01.869Z</time>
      </trkpt>
      <trkpt lat="46.15506" lon="4.43364">
        <ele>694.35</ele>
        <time>2023-11-14T20:05:10.127Z</time>
      </trkpt>
      <trkpt lat="46.15494" lon="4.43324">
        <ele>694.84</ele>
        <time>2023-11-14T20:05:18.390Z</time>
      </trkpt>
      <trkpt lat="46.15472" lon="4.4318">
        <ele>695.31</ele>
        <time>2023-11-14T20:05:26.669Z</time>
      </trkpt>
      <trkpt lat="46.15464" lon="4.43141">
        <ele>695.59</ele>
        <time>2023-11-14T20:05:34.953Z</time>
      </trkpt>
      <trkpt lat="46.15464" lon="4.43141">
        <ele>696.03</ele>
        <time>2023-11-14T20:05:43.237Z</time>
      </trkpt>
      <trkpt lat="46.15456" lon="4.43127">
        <ele>696.51</ele>
        <time>2023-11-14T20:05:51.523Z</time>
      </trkpt>
      <trkpt lat="46.15429" lon="4.43096">
        <ele>696.99</ele>
        <time>2023-11-14T20:05:59.814Z</time>
      </trkpt>
      <trkpt lat="46.15384" lon="4.43032">
        <ele>697.78</ele>
        <time>2023-11-14T20:06:08.115Z</time>
      </trkpt>
      <trkpt lat="46.15359" lon="4.4299">
        <ele>698.64</ele>
        <time>2023-11-14T20:06:16.423Z</time>
      </trkpt>
      <trkpt lat="46.15302" lon="4.42879">
        <ele>699.71</ele>
        <time>2023-11-14T20:06:24.746Z</time>
      </trkpt>
      <trkpt lat="46.15281" lon="4.42847">
        <ele>700.73</ele>
        <time>2023-11-14T20:06:33.074Z</time>
      </trkpt>
      <trkpt lat="46.15259" lon="4.42823">
        <ele>701.82</ele>
        <time>2023-11-14T20:06:41.406Z</time>
      </trkpt>
      <trkpt lat="46.15229" lon="4.42792">
        <ele>703.16</ele>
        <time>2023-11-14T20:06:49.744Z</time>
      </trkpt>
      <trkpt lat="46.15161" lon="4.42733">
        <ele>704.75</ele>
        <time>2023-11-14T20:06:58.095Z</time>
      </trkpt>
      <trkpt lat="46.15138" lon="4.42718">
        <ele>706.03</ele>
        <time>2023-11-14T20:07:06.450Z</time>
      </trkpt>
      <trkpt lat="46.15084" lon="4.42699">
        <ele>707.21</ele>
        <time>2023-11-14T20:07:14.814Z</time>
      </trkpt>
      <trkpt lat="46.15061" lon="4.42689">
        <ele>708.63</ele>
        <time>2023-11-14T20:07:23.182Z</time>
      </trkpt>
      <trkpt lat="46.15039" lon="4.42672">
        <ele>710.28</ele>
        <time>2023-11-14T20:07:31.554Z</time>
      </trkpt>
      <trkpt lat="46.15019" lon="4.42653">
        <ele>712.13</ele>
        <time>2023-11-14T20:07:39.930Z</time>
      </trkpt>
      <trkpt lat="46.14935" lon="4.4254">
        <ele>714.35</ele>
        <time>2023-11-14T20:07:48.324Z</time>
      </trkpt>
      <trkpt lat="46.14889" lon="4.42479">
        <ele>716.2</ele>
        <time>2023-11-14T20:07:56.728Z</time>
      </trkpt>
      <trkpt lat="46.14816" lon="4.42414">
        <ele>718.39</ele>
        <time>2023-11-14T20:08:05.146Z</time>
      </trkpt>
      <trkpt lat="46.14794" lon="4.42394">
        <ele>720.5</ele>
        <time>2023-11-14T20:08:13.568Z</time>
      </trkpt>
      <trkpt lat="46.14786" lon="4.42381">
        <ele>722.49</ele>
        <time>2023-11-14T20:08:21.992Z</time>
      </trkpt>
      <trkpt lat="46.14774" lon="4.4236">
        <ele>724.46</ele>
        <time>2023-11-14T20:08:30.419Z</time>
      </trkpt>
      <trkpt lat="46.14762" lon="4.4233">
        <ele>726.36</ele>
        <time>2023-11-14T20:08:38.850Z</time>
      </trkpt>
      <trkpt lat="46.1474" lon="4.42226">
        <ele>728.74</ele>
        <time>2023-11-14T20:08:47.293Z</time>
      </trkpt>
      <trkpt lat="46.14734" lon="4.42207">
        <ele>730.54</ele>
        <time>2023-11-14T20:08:55.738Z</time>
      </trkpt>
      <trkpt lat="46.14726" lon="4.42185">
        <ele>732.33</ele>
        <time>2023-11-14T20:09:04.186Z</time>
      </trkpt>
      <trkpt lat="46.1471" lon="4.42156">
        <ele>734.13</ele>
        <time>2023-11-14T20:09:12.638Z</time>
      </trkpt>
      <trkpt lat="46.14684" lon="4.42132">
        <ele>735.88</ele>
        <time>2023-11-14T20:09:21.095Z</time>
      </trkpt>
      <trkpt lat="46.14667" lon="4.4212">
        <ele>737.82</ele>
        <time>2023-11-14T20:09:29.555Z</time>
      </trkpt>
      <trkpt lat="46.14644" lon="4.42111">
        <ele>739.89</ele>
        <time>2023-11-14T20:09:38.019Z</time>
      </trkpt>
      <trkpt lat="46.14626" lon="4.42109">
        <ele>741.97</ele>
        <time>2023-11-14T20:09:46.486Z</time>
      </trkpt>
      <trkpt lat="46.14612" lon="4.4211">
        <ele>743.93</ele>
        <time>2023-11-14T20:09:54.955Z</time>
      </trkpt>
      <trkpt lat="46.14597" lon="4.42115">
        <ele>745.9</ele>
        <time>2023-11-14T20:10:03.426Z</time>
      </trkpt>
      <trkpt lat="46.14577" lon="4.42128">
        <ele>747.82</ele>
        <time>2023-11-14T20:10:11.901Z</time>
      </trkpt>
      <trkpt lat="46.14465" lon="4.42215">
        <ele>749.78</ele>
        <time>2023-11-14T20:10:20.396Z</time>
      </trkpt>
      <trkpt lat="46.14435" lon="4.4223">
        <ele>751.81</ele>
        <time>2023-11-14T20:10:28.896Z</time>
      </trkpt>
      <trkpt lat="46.14406" lon="4.42237">
        <ele>753.62</ele>
        <time>2023-11-14T20:10:37.401Z</time>
      </trkpt>
      <trkpt lat="46.14377" lon="4.42242">
        <ele>754.99</ele>
        <time>2023-11-14T20:10:45.911Z</time>
      </trkpt>
      <trkpt lat="46.14354" lon="4.42239">
        <ele>756.23</ele>
        <time>2023-11-14T20:10:54.424Z</time>
      </trkpt>
      <trkpt lat="46.14333" lon="4.42235">
        <ele>757.44</ele>
        <time>2023-11-14T20:11:02.941Z</time>
      </trkpt>
      <trkpt lat="46.14275" lon="4.42212">
        <ele>758.86</ele>
        <time>2023-11-14T20:11:11.467Z</time>
      </trkpt>
      <trkpt lat="46.14251" lon="4.42195">
        <ele>760.47</ele>
        <time>2023-11-14T20:11:19.998Z</time>
      </trkpt>
      <trkpt lat="46.14235" lon="4.42179">
        <ele>761.85</ele>
        <time>2023-11-14T20:11:28.532Z</time>
      </trkpt>
      <trkpt lat="46.14222" lon="4.42163">
        <ele>763.04</ele>
        <time>2023-11-14T20:11:37.068Z</time>
      </trkpt>
      <trkpt lat="46.14211" lon="4.42145">
        <ele>764.2</ele>
        <time>2023-11-14T20:11:45.607Z</time>
      </trkpt>
      <trkpt lat="46.14189" lon="4.42097">
        <ele>765.34</ele>
        <time>2023-11-14T20:11:54.153Z</time>
      </trkpt>
      <trkpt lat="46.14171" lon="4.4205">
        <ele>766.56</ele>
        <time>2023-11-14T20:12:02.705Z</time>
      </trkpt>
      <trkpt lat="46.1416" lon="4.42015">
        <ele>767.94</ele>
        <time>2023-11-14T20:12:11.261Z</time>
      </trkpt>
      <trkpt lat="46.14148" lon="4.41951">
        <ele>769.67</ele>
        <time>2023-11-14T20:12:19.824Z</time>
      </trkpt>
      <trkpt lat="46.14144" lon="4.41903">
        <ele>771.39</ele>
        <time>2023-11-14T20:12:28.393Z</time>
      </trkpt>
      <trkpt lat="46.14145" lon="4.41862">
        <ele>772.6</ele>
        <time>2023-11-14T20:12:36.966Z</time>
      </trkpt>
      <trkpt lat="46.14153" lon="4.41791">
        <ele>773.72</ele>
        <time>2023-11-14T20:12:45.547Z</time>
      </trkpt>
      <trkpt lat="46.14154" lon="4.41763">
        <ele>775</ele>
        <time>2023-11-14T20:12:54.131Z</time>
      </trkpt>
      <trkpt lat="46.14154" lon="4.41736">
        <ele>776.23</ele>
        <time>2023-11-14T20:13:02.718Z</time>
      </trkpt>
      <trkpt lat="46.14148" lon="4.41719">
        <ele>777.39</ele>
        <time>2023-11-14T20:13:11.307Z</time>
      </trkpt>
      <trkpt lat="46.14142" lon="4.41702">
        <ele>778.47</ele>
        <time>2023-11-14T20:13:19.898Z</time>
      </trkpt>
      <trkpt lat="46.14133" lon="4.4169">
        <ele>779.67</ele>
        <time>2023-11-14T20:13:28.491Z</time>
      </trkpt>
      <trkpt lat="46.14123" lon="4.41679">
        <ele>781.01</ele>
        <time>2023-11-14T20:13:37.086Z</time>
      </trkpt>
      <trkpt lat="46.14107" lon="4.41669">
        <ele>782.66</ele>
        <time>2023-11-14T20:13:45.684Z</time>
      </trkpt>
      <trkpt lat="46.14058" lon="4.41642">
        <ele>784.8</ele>
        <time>2023-11-14T20:13:54.291Z</time>
      </trkpt>
      <trkpt lat="46.14028" lon="4.4162">
        <ele>787.81</ele>
        <time>2023-11-14T20:14:02.903Z</time>
      </trkpt>
      <trkpt lat="46.13999" lon="4.41591">
        <ele>790.86</ele>
        <time>2023-11-14T20:14:11.521Z</time>
      </trkpt>
      <trkpt lat="46.13961" lon="4.41543">
        <ele>793.51</ele>
        <time>2023-11-14T20:14:20.147Z</time>
      </trkpt>
      <trkpt lat="46.13913" lon="4.41488">
        <ele>796.8</ele>
        <time>2023-11-14T20:14:28.783Z</time>
      </trkpt>
      <trkpt lat="46.13871" lon="4.41451">
        <ele>808.61</ele>
        <time>2023-11-14T20:14:37.427Z</time>
      </trkpt>
      <trkpt lat="46.13839" lon="4.41423">
        <ele>810.32</ele>
        <time>2023-11-14T20:14:46.076Z</time>
      </trkpt>
      <trkpt lat="46.13824" lon="4.41406">
        <ele>812</ele>
        <time>2023-11-14T20:14:54.728Z</time>
      </trkpt>
      <trkpt lat="46.13818" lon="4.41389">
        <ele>813.57</ele>
        <time>2023-11-14T20:15:03.383Z</time>
      </trkpt>
      <trkpt lat="46.13815" lon="4.41363">
        <ele>815.04</ele>
        <time>2023-11-14T20:15:12.041Z</time>
      </trkpt>
      <trkpt lat="46.13816" lon="4.41329">
        <ele>816.82</ele>
        <time>2023-11-14T20:15:20.702Z</time>
      </trkpt>
      <trkpt lat="46.1383" lon="4.41238">
        <ele>819.31</ele>
        <time>2023-11-14T20:15:29.374Z</time>
      </trkpt>
      <trkpt lat="46.13831" lon="4.41208">
        <ele>821.43</ele>
        <time>2023-11-14T20:15:38.049Z</time>
      </trkpt>
      <trkpt lat="46.13829" lon="4.41179">
        <ele>823.35</ele>
        <time>2023-11-14T20:15:46.727Z</time>
      </trkpt>
      <trkpt lat="46.13822" lon="4.41147">
        <ele>825.27</ele>
        <time>2023-11-14T20:15:55.409Z</time>
      </trkpt>
      <trkpt lat="46.13805" lon="4.41089">
        <ele>827.28</ele>
        <time>2023-11-14T20:16:04.098Z</time>
      </trkpt>
      <trkpt lat="46.13758" lon="4.40937">
        <ele>830.99</ele>
        <time>2023-11-14T20:16:12.806Z</time>
      </trkpt>
      <trkpt lat="46.13747" lon="4.40914">
        <ele>833.55</ele>
        <time>2023-11-14T20:16:21.517Z</time>
      </trkpt>
      <trkpt lat="46.13738" lon="4.409">
        <ele>835.49</ele>
        <time>2023-11-14T20:16:30.230Z</time>
      </trkpt>
      <trkpt lat="46.13709" lon="4.40877">
        <ele>836.8</ele>
        <time>2023-11-14T20:16:38.948Z</time>
      </trkpt>
      <trkpt lat="46.13685" lon="4.40862">
        <ele>837.5</ele>
        <time>2023-11-14T20:16:47.670Z</time>
      </trkpt>
      <trkpt lat="46.13665" lon="4.40853">
        <ele>837.68</ele>
        <time>2023-11-14T20:16:56.396Z</time>
      </trkpt>
      <trkpt lat="46.1365" lon="4.40851">
        <ele>837.33</ele>
        <time>2023-11-14T20:17:05.124Z</time>
      </trkpt>
      <trkpt lat="46.13627" lon="4.40855">
        <ele>836.38</ele>
        <time>2023-11-14T20:17:13.856Z</time>
      </trkpt>
      <trkpt lat="46.13615" lon="4.40866">
        <ele>835.04</ele>
        <time>2023-11-14T20:17:22.590Z</time>
      </trkpt>
      <trkpt lat="46.13615" lon="4.40866">
        <ele>833.65</ele>
        <time>2023-11-14T20:17:31.324Z</time>
      </trkpt>
      <trkpt lat="46.13586" lon="4.40905">
        <ele>831.57</ele>
        <time>2023-11-14T20:17:40.064Z</time>
      </trkpt>
      <trkpt lat="46.13566" lon="4.40927">
        <ele>829.55</ele>
        <time>2023-11-14T20:17:48.808Z</time>
      </trkpt>
      <trkpt lat="46.13539" lon="4.4095">
        <ele>827.31</ele>
        <time>2023-11-14T20:17:57.557Z</time>
      </trkpt>
      <trkpt lat="46.13513" lon="4.40968">
        <ele>825.1</ele>
        <time>2023-11-14T20:18:06.311Z</time>
      </trkpt>
      <trkpt lat="46.13499" lon="4.40975">
        <ele>823.13</ele>
        <time>2023-11-14T20:18:15.067Z</time>
      </trkpt>
      <trkpt lat="46.13488" lon="4.40978">
        <ele>821.22</ele>
        <time>2023-11-14T20:18:23.825Z</time>
      </trkpt>
      <trkpt lat="46.13477" lon="4.40978">
        <ele>819.35</ele>
        <time>2023-11-14T20:18:32.585Z</time>
      </trkpt>
      <trkpt lat="46.13457" lon="4.4097">
        <ele>817.33</ele>
        <time>2023-11-14T20:18:41.348Z</time>
      </trkpt>
      <trkpt lat="46.13392" lon="4.40943">
        <ele>815.27</ele>
        <time>2023-11-14T20:18:50.122Z</time>
      </trkpt>
      <trkpt lat="46.13385" lon="4.40938">
        <ele>813.73</ele>
        <time>2023-11-14T20:18:58.897Z</time>
      </trkpt>
      <trkpt lat="46.13376" lon="4.40924">
        <ele>812.34</ele>
        <time>2023-11-14T20:19:07.674Z</time>
      </trkpt>
      <trkpt lat="46.13374" lon="4.40917">
        <ele>811.02</ele>
        <time>2023-11-14T20:19:16.452Z</time>
      </trkpt>
      <trkpt lat="46.13375" lon="4.40908">
        <ele>809.75</ele>
        <time>2023-11-14T20:19:25.231Z</time>
      </trkpt>
      <trkpt lat="46.13377" lon="4.409">
        <ele>808.48</ele>
        <time>2023-11-14T20:19:34.011Z</time>
      </trkpt>
      <trkpt lat="46.13383" lon="4.40894">
        <ele>807.2</ele>
        <time>2023-11-14T20:19:42.792Z</time>
      </trkpt>
      <trkpt lat="46.13392" lon="4.40892">
        <ele>805.91</ele>
        <time>2023-11-14T20:19:51.575Z</time>
      </trkpt>
      <trkpt lat="46.13426" lon="4.4089">
        <ele>804.39</ele>
        <time>2023-11-14T20:20:00.363Z</time>
      </trkpt>
      <trkpt lat="46.1344" lon="4.40884">
        <ele>803.13</ele>
        <time>2023-11-14T20:20:09.154Z</time>
      </trkpt>
      <trkpt lat="46.13448" lon="4.40872">
        <ele>801.97</ele>
        <time>2023-11-14T20:20:17.947Z</time>
      </trkpt>
      <trkpt lat="46.1345" lon="4.40865">
        <ele>800.74</ele>
        <time>2023-11-14T20:20:26.740Z</time>
      </trkpt>
      <trkpt lat="46.1345" lon="4.40855">
        <ele>799.43</ele>
        <time>2023-11-14T20:20:35.534Z</time>
      </trkpt>
      <trkpt lat="46.13446" lon="4.40843">
        <ele>798</ele>
        <time>2023-11-14T20:20:44.330Z</time>
      </trkpt>
      <trkpt lat="46.13438" lon="4.40831">
        <ele>796.46</ele>
        <time>2023-11-14T20:20:53.128Z</time>
      </trkpt>
      <trkpt lat="46.13409" lon="4.40799">
        <ele>794.76</ele>
        <time>2023-11-14T20:21:01.932Z</time>
      </trkpt>
      <trkpt lat="46.13391" lon="4.40774">
        <ele>792.91</ele>
        <time>2023-11-14T20:21:10.740Z</time>
      </trkpt>
      <trkpt lat="46.13374" lon="4.40747">
        <ele>790.86</ele>
        <time>2023-11-14T20:21:19.552Z</time>
      </trkpt>
      <trkpt lat="46.13374" lon="4.40747">
        <ele>788.84</ele>
        <time>2023-11-14T20:21:28.364Z</time>
      </trkpt>
      <trkpt lat="46.1333" lon="4.40655">
        <ele>786.11</ele>
        <time>2023-11-14T20:21:37.188Z</time>
      </trkpt>
      <trkpt lat="46.13306" lon="4.40575">
        <ele>783.27</ele>
        <time>2023-11-14T20:21:46.022Z</time>
      </trkpt>
      <trkpt lat="46.13261" lon="4.40447">
        <ele>780.34</ele>
        <time>2023-11-14T20:21:54.872Z</time>
      </trkpt>
      <trkpt lat="46.13253" lon="4.40425">
        <ele>777.96</ele>
        <time>2023-11-14T20:22:03.725Z</time>
      </trkpt>
      <trkpt lat="46.13253" lon="4.40425">
        <ele>775.57</ele>
        <time>2023-11-14T20:22:12.578Z</time>
      </trkpt>
      <trkpt lat="46.13243" lon="4.40406">
        <ele>773.16</ele>
        <time>2023-11-14T20:22:21.433Z</time>
      </trkpt>
      <trkpt lat="46.13196" lon="4.40342">
        <ele>770.78</ele>
        <time>2023-11-14T20:22:30.299Z</time>
      </trkpt>
      <trkpt lat="46.13196" lon="4.40342">
        <ele>768.34</ele>
        <time>2023-11-14T20:22:39.165Z</time>
      </trkpt>
      <trkpt lat="46.13171" lon="4.40311">
        <ele>765.79</ele>
        <time>2023-11-14T20:22:48.036Z</time>
      </trkpt>
      <trkpt lat="46.13122" lon="4.40276">
        <ele>762.8</ele>
        <time>2023-11-14T20:22:56.916Z</time>
      </trkpt>
      <trkpt lat="46.1311" lon="4.40263">
        <ele>760.2</ele>
        <time>2023-11-14T20:23:05.798Z</time>
      </trkpt>
      <trkpt lat="46.131" lon="4.40248">
        <ele>757.68</ele>
        <time>2023-11-14T20:23:14.682Z</time>
      </trkpt>
      <trkpt lat="46.13091" lon="4.40228">
        <ele>755.27</ele>
        <time>2023-11-14T20:23:23.569Z</time>
      </trkpt>
      <trkpt lat="46.13058" lon="4.40144">
        <ele>752.43</ele>
        <time>2023-11-14T20:23:32.467Z</time>
      </trkpt>
      <trkpt lat="46.13044" lon="4.40109">
        <ele>749.85</ele>
        <time>2023-11-14T20:23:41.369Z</time>
      </trkpt>
      <trkpt lat="46.13038" lon="4.40086">
        <ele>747.5</ele>
        <time>2023-11-14T20:23:50.274Z</time>
      </trkpt>
      <trkpt lat="46.13035" lon="4.4006">
        <ele>745.27</ele>
        <time>2023-11-14T20:23:59.182Z</time>
      </trkpt>
      <trkpt lat="46.13034" lon="4.40018">
        <ele>743.04</ele>
        <time>2023-11-14T20:24:08.095Z</time>
      </trkpt>
      <trkpt lat="46.13036" lon="4.39948">
        <ele>740.8</ele>
        <time>2023-11-14T20:24:17.015Z</time>
      </trkpt>
      <trkpt lat="46.13037" lon="4.39897">
        <ele>738.8</ele>
        <time>2023-11-14T20:24:25.941Z</time>
      </trkpt>
      <trkpt lat="46.13035" lon="4.39881">
        <ele>737.08</ele>
        <time>2023-11-14T20:24:34.869Z</time>
      </trkpt>
      <trkpt lat="46.1303" lon="4.39863">
        <ele>735.53</ele>
        <time>2023-11-14T20:24:43.799Z</time>
      </trkpt>
      <trkpt lat="46.13025" lon="4.39853">
        <ele>734.13</ele>
        <time>2023-11-14T20:24:52.730Z</time>
      </trkpt>
      <trkpt lat="46.1302" lon="4.39844">
        <ele>732.87</ele>
        <time>2023-11-14T20:25:01.663Z</time>
      </trkpt>
      <trkpt lat="46.13012" lon="4.39836">
        <ele>731.68</ele>
        <time>2023-11-14T20:25:10.597Z</time>
      </trkpt>
      <trkpt lat="46.13006" lon="4.39833">
        <ele>730.58</ele>
        <time>2023-11-14T20:25:19.532Z</time>
      </trkpt>
      <trkpt lat="46.12996" lon="4.39831">
        <ele>729.53</ele>
        <time>2023-11-14T20:25:28.469Z</time>
      </trkpt>
      <trkpt lat="46.1299" lon="4.39829">
        <ele>728.62</ele>
        <time>2023-11-14T20:25:37.407Z</time>
      </trkpt>
      <trkpt lat="46.12968" lon="4.39833">
        <ele>727.71</ele>
        <time>2023-11-14T20:25:46.348Z</time>
      </trkpt>
      <trkpt lat="46.1296" lon="4.39833">
        <ele>726.95</ele>
        <time>2023-11-14T20:25:55.291Z</time>
      </trkpt>
      <trkpt lat="46.12952" lon="4.3983">
        <ele>726.28</ele>
        <time>2023-11-14T20:26:04.235Z</time>
      </trkpt>
      <trkpt lat="46.12944" lon="4.39822">
        <ele>725.67</ele>
        <time>2023-11-14T20:26:13.181Z</time>
      </trkpt>
      <trkpt lat="46.12935" lon="4.39808">
        <ele>725.11</ele>
        <time>2023-11-14T20:26:22.129Z</time>
      </trkpt>
      <trkpt lat="46.1292" lon="4.39759">
        <ele>724.57</ele>
        <time>2023-11-14T20:26:31.083Z</time>
      </trkpt>
      <trkpt lat="46.12895" lon="4.39773">
        <ele>723.76</ele>
        <time>2023-11-14T20:26:40.041Z</time>
      </trkpt>
      <trkpt lat="46.12894" lon="4.39779">
        <ele>723.23</ele>
        <time>2023-11-14T20:26:49.000Z</time>
      </trkpt>
      <trkpt lat="46.12887" lon="4.3979">
        <ele>722.62</ele>
        <time>2023-11-14T20:26:57.960Z</time>
      </trkpt>
      <trkpt lat="46.129" lon="4.39809">
        <ele>722.17</ele>
        <time>2023-11-14T20:27:06.923Z</time>
      </trkpt>
      <trkpt lat="46.12906" lon="4.39824">
        <ele>721.56</ele>
        <time>2023-11-14T20:27:15.888Z</time>
      </trkpt>
      <trkpt lat="46.12911" lon="4.39842">
        <ele>720.86</ele>
        <time>2023-11-14T20:27:24.855Z</time>
      </trkpt>
      <trkpt lat="46.12915" lon="4.3986">
        <ele>720.07</ele>
        <time>2023-11-14T20:27:33.824Z</time>
      </trkpt>
      <trkpt lat="46.12914" lon="4.39876">
        <ele>719.18</ele>
        <time>2023-11-14T20:27:42.795Z</time>
      </trkpt>
      <trkpt lat="46.12899" lon="4.39907">
        <ele>718.15</ele>
        <time>2023-11-14T20:27:51.770Z</time>
      </trkpt>
      <trkpt lat="46.12881" lon="4.39952">
        <ele>717.12</ele>
        <time>2023-11-14T20:28:00.751Z</time>
      </trkpt>
      <trkpt lat="46.12847" lon="4.40022">
        <ele>715.88</ele>
        <time>2023-11-14T20:28:09.742Z</time>
      </trkpt>
      <trkpt lat="46.12836" lon="4.40039">
        <ele>715</ele>
        <time>2023-11-14T20:28:18.735Z</time>
      </trkpt>
      <trkpt lat="46.12815" lon="4.40065">
        <ele>713.96</ele>
        <time>2023-11-14T20:28:27.733Z</time>
      </trkpt>
      <trkpt lat="46.12791" lon="4.40086">
        <ele>712.91</ele>
        <time>2023-11-14T20:28:36.735Z</time>
      </trkpt>
      <trkpt lat="46.12784" lon="4.40089">
        <ele>712.03</ele>
        <time>2023-11-14T20:28:45.738Z</time>
      </trkpt>
      <trkpt lat="46.12771" lon="4.40092">
        <ele>711.14</ele>
        <time>2023-11-14T20:28:54.744Z</time>
      </trkpt>
      <trkpt lat="46.12754" lon="4.40088">
        <ele>710.25</ele>
        <time>2023-11-14T20:29:03.752Z</time>
      </trkpt>
      <trkpt lat="46.12734" lon="4.40078">
        <ele>709.29</ele>
        <time>2023-11-14T20:29:12.764Z</time>
      </trkpt>
      <trkpt lat="46.12714" lon="4.40065">
        <ele>708.27</ele>
        <time>2023-11-14T20:29:21.779Z</time>
      </trkpt>
      <trkpt lat="46.12702" lon="4.40053">
        <ele>706.84</ele>
        <time>2023-11-14T20:29:30.796Z</time>
      </trkpt>
      <trkpt lat="46.1267" lon="4.40011">
        <ele>705.07</ele>
        <time>2023-11-14T20:29:39.820Z</time>
      </trkpt>
      <trkpt lat="46.12661" lon="4.39995">
        <ele>703.54</ele>
        <time>2023-11-14T20:29:48.847Z</time>
      </trkpt>
      <trkpt lat="46.12614" lon="4.39864">
        <ele>701.67</ele>
        <time>2023-11-14T20:29:57.890Z</time>
      </trkpt>
      <trkpt lat="46.12606" lon="4.39835">
        <ele>700.69</ele>
        <time>2023-11-14T20:30:06.937Z</time>
      </trkpt>
      <trkpt lat="46.12602" lon="4.39816">
        <ele>700.19</ele>
        <time>2023-11-14T20:30:15.986Z</time>
      </trkpt>
      <trkpt lat="46.12599" lon="4.39803">
        <ele>699.85</ele>
        <time>2023-11-14T20:30:25.036Z</time>
      </trkpt>
      <trkpt lat="46.12599" lon="4.39803">
        <ele>699.36</ele>
        <time>2023-11-14T20:30:34.086Z</time>
      </trkpt>
      <trkpt lat="46.12585" lon="4.39732">
        <ele>699.32</ele>
        <time>2023-11-14T20:30:43.144Z</time>
      </trkpt>
      <trkpt lat="46.12581" lon="4.39716">
        <ele>698.84</ele>
        <time>2023-11-14T20:30:52.204Z</time>
      </trkpt>
      <trkpt lat="46.12572" lon="4.39698">
        <ele>697.85</ele>
        <time>2023-11-14T20:31:01.267Z</time>
      </trkpt>
      <trkpt lat="46.12525" lon="4.39631">
        <ele>695.37</ele>
        <time>2023-11-14T20:31:10.340Z</time>
      </trkpt>
      <trkpt lat="46.12511" lon="4.39604">
        <ele>693.37</ele>
        <time>2023-11-14T20:31:19.417Z</time>
      </trkpt>
      <trkpt lat="46.125" lon="4.39577">
        <ele>691.25</ele>
        <time>2023-11-14T20:31:28.498Z</time>
      </trkpt>
      <trkpt lat="46.12492" lon="4.39544">
        <ele>689.16</ele>
        <time>2023-11-14T20:31:37.583Z</time>
      </trkpt>
      <trkpt lat="46.12489" lon="4.39511">
        <ele>687.08</ele>
        <time>2023-11-14T20:31:46.671Z</time>
      </trkpt>
      <trkpt lat="46.12492" lon="4.39438">
        <ele>684.99</ele>
        <time>2023-11-14T20:31:55.767Z</time>
      </trkpt>
      <trkpt lat="46.12502" lon="4.39367">
        <ele>683.59</ele>
        <time>2023-11-14T20:32:04.871Z</time>
      </trkpt>
      <trkpt lat="46.1251" lon="4.39344">
        <ele>681.76</ele>
        <time>2023-11-14T20:32:13.978Z</time>
      </trkpt>
      <trkpt lat="46.12552" lon="4.39234">
        <ele>679.03</ele>
        <time>2023-11-14T20:32:23.099Z</time>
      </trkpt>
      <trkpt lat="46.12579" lon="4.39148">
        <ele>676.74</ele>
        <time>2023-11-14T20:32:32.231Z</time>
      </trkpt>
      <trkpt lat="46.12583" lon="4.39115">
        <ele>675.21</ele>
        <time>2023-11-14T20:32:41.367Z</time>
      </trkpt>
      <trkpt lat="46.12583" lon="4.39088">
        <ele>673.94</ele>
        <time>2023-11-14T20:32:50.506Z</time>
      </trkpt>
      <trkpt lat="46.12579" lon="4.39064">
        <ele>672.86</ele>
        <time>2023-11-14T20:32:59.647Z</time>
      </trkpt>
      <trkpt lat="46.12573" lon="4.39049">
        <ele>671.73</ele>
        <time>2023-11-14T20:33:08.790Z</time>
      </trkpt>
      <trkpt lat="46.12566" lon="4.39033">
        <ele>670.41</ele>
        <time>2023-11-14T20:33:17.935Z</time>
      </trkpt>
      <trkpt lat="46.12556" lon="4.39022">
        <ele>668.99</ele>
        <time>2023-11-14T20:33:27.082Z</time>
      </trkpt>
      <trkpt lat="46.12542" lon="4.39011">
        <ele>667.34</ele>
        <time>2023-11-14T20:33:36.232Z</time>
      </trkpt>
      <trkpt lat="46.12483" lon="4.38979">
        <ele>664.97</ele>
        <time>2023-11-14T20:33:45.392Z</time>
      </trkpt>
      <trkpt lat="46.12433" lon="4.38941">
        <ele>662.28</ele>
        <time>2023-11-14T20:33:54.561Z</time>
      </trkpt>
      <trkpt lat="46.12396" lon="4.38917">
        <ele>659.49</ele>
        <time>2023-11-14T20:34:03.737Z</time>
      </trkpt>
      <trkpt lat="46.12356" lon="4.38895">
        <ele>657.31</ele>
        <time>2023-11-14T20:34:12.919Z</time>
      </trkpt>
      <trkpt lat="46.12325" lon="4.3888">
        <ele>655.1</ele>
        <time>2023-11-14T20:34:22.107Z</time>
      </trkpt>
      <trkpt lat="46.12308" lon="4.38874">
        <ele>653.58</ele>
        <time>2023-11-14T20:34:31.297Z</time>
      </trkpt>
      <trkpt lat="46.12291" lon="4.38872">
        <ele>652.17</ele>
        <time>2023-11-14T20:34:40.490Z</time>
      </trkpt>
      <trkpt lat="46.12273" lon="4.38876">
        <ele>650.58</ele>
        <time>2023-11-14T20:34:49.686Z</time>
      </trkpt>
      <trkpt lat="46.12258" lon="4.38885">
        <ele>648.88</ele>
        <time>2023-11-14T20:34:58.885Z</time>
      </trkpt>
      <trkpt lat="46.12254" lon="4.3887">
        <ele>647.06</ele>
        <time>2023-11-14T20:35:08.086Z</time>
      </trkpt>
      <trkpt lat="46.12253" lon="4.38859">
        <ele>645.51</ele>
        <time>2023-11-14T20:35:17.288Z</time>
      </trkpt>
      <trkpt lat="46.12255" lon="4.38847">
        <ele>644.02</ele>
        <time>2023-11-14T20:35:26.491Z</time>
      </trkpt>
      <trkpt lat="46.12261" lon="4.38839">
        <ele>642.96</ele>
        <time>2023-11-14T20:35:35.695Z</time>
      </trkpt>
      <trkpt lat="46.1227" lon="4.38838">
        <ele>642.11</ele>
        <time>2023-11-14T20:35:44.901Z</time>
      </trkpt>
      <trkpt lat="46.12387" lon="4.38865">
        <ele>640.97</ele>
        <time>2023-11-14T20:35:54.126Z</time>
      </trkpt>
      <trkpt lat="46.12422" lon="4.38876">
        <ele>640.26</ele>
        <time>2023-11-14T20:36:03.357Z</time>
      </trkpt>
      <trkpt lat="46.1244" lon="4.38887">
        <ele>640.18</ele>
        <time>2023-11-14T20:36:12.591Z</time>
      </trkpt>
      <trkpt lat="46.12458" lon="4.38902">
        <ele>640.65</ele>
        <time>2023-11-14T20:36:21.828Z</time>
      </trkpt>
      <trkpt lat="46.12468" lon="4.38909">
        <ele>639.53</ele>
        <time>2023-11-14T20:36:31.067Z</time>
      </trkpt>
      <trkpt lat="46.12478" lon="4.38916">
        <ele>639.23</ele>
        <time>2023-11-14T20:36:40.308Z</time>
      </trkpt>
      <trkpt lat="46.12496" lon="4.38921">
        <ele>638.69</ele>
        <time>2023-11-14T20:36:49.552Z</time>
      </trkpt>
      <trkpt lat="46.12559" lon="4.38925">
        <ele>637.66</ele>
        <time>2023-11-14T20:36:58.806Z</time>
      </trkpt>
      <trkpt lat="46.12572" lon="4.38921">
        <ele>636.46</ele>
        <time>2023-11-14T20:37:08.062Z</time>
      </trkpt>
      <trkpt lat="46.12581" lon="4.38909">
        <ele>635.17</ele>
        <time>2023-11-14T20:37:17.320Z</time>
      </trkpt>
      <trkpt lat="46.12583" lon="4.38897">
        <ele>634.28</ele>
        <time>2023-11-14T20:37:26.579Z</time>
      </trkpt>
      <trkpt lat="46.12583" lon="4.38888">
        <ele>633.71</ele>
        <time>2023-11-14T20:37:35.839Z</time>
      </trkpt>
      <trkpt lat="46.1258" lon="4.38875">
        <ele>633.75</ele>
        <time>2023-11-14T20:37:45.101Z</time>
      </trkpt>
      <trkpt lat="46.12578" lon="4.38871">
        <ele>634.1</ele>
        <time>2023-11-14T20:37:54.363Z</time>
      </trkpt>
      <trkpt lat="46.12567" lon="4.38858">
        <ele>634.93</ele>
        <time>2023-11-14T20:38:03.627Z</time>
      </trkpt>
      <trkpt lat="46.12557" lon="4.38852">
        <ele>636.04</ele>
        <time>2023-11-14T20:38:12.893Z</time>
      </trkpt>
      <trkpt lat="46.12539" lon="4.38847">
        <ele>637.27</ele>
        <time>2023-11-14T20:38:22.162Z</time>
      </trkpt>
      <trkpt lat="46.12519" lon="4.38835">
        <ele>638.42</ele>
        <time>2023-11-14T20:38:31.435Z</time>
      </trkpt>
      <trkpt lat="46.1251" lon="4.38827">
        <ele>639.77</ele>
        <time>2023-11-14T20:38:40.709Z</time>
      </trkpt>
      <trkpt lat="46.12482" lon="4.38783">
        <ele>641.81</ele>
        <time>2023-11-14T20:38:49.990Z</time>
      </trkpt>
      <trkpt lat="46.12474" lon="4.38774">
        <ele>643.54</ele>
        <time>2023-11-14T20:38:59.273Z</time>
      </trkpt>
      <trkpt lat="46.12466" lon="4.38768">
        <ele>645.27</ele>
        <time>2023-11-14T20:39:08.557Z</time>
      </trkpt>
      <trkpt lat="46.12454" lon="4.38763">
        <ele>646.92</ele>
        <time>2023-11-14T20:39:17.843Z</time>
      </trkpt>
      <trkpt lat="46.12421" lon="4.38753">
        <ele>648.26</ele>
        <time>2023-11-14T20:39:27.134Z</time>
      </trkpt>
      <trkpt lat="46.12391" lon="4.38733">
        <ele>650.14</ele>
        <time>2023-11-14T20:39:36.431Z</time>
      </trkpt>
      <trkpt lat="46.12379" lon="4.3872">
        <ele>652.2</ele>
        <time>2023-11-14T20:39:45.730Z</time>
      </trkpt>
      <trkpt lat="46.12369" lon="4.38708">
        <ele>654.06</ele>
        <time>2023-11-14T20:39:55.031Z</time>
      </trkpt>
      <trkpt lat="46.12357" lon="4.38689">
        <ele>656.03</ele>
        <time>2023-11-14T20:40:04.335Z</time>
      </trkpt>
      <trkpt lat="46.123" lon="4.38577">
        <ele>658.83</ele>
        <time>2023-11-14T20:40:13.655Z</time>
      </trkpt>
      <trkpt lat="46.12286" lon="4.3854">
        <ele>660.42</ele>
        <time>2023-11-14T20:40:22.979Z</time>
      </trkpt>
      <trkpt lat="46.12274" lon="4.38484">
        <ele>662.46</ele>
        <time>2023-11-14T20:40:32.310Z</time>
      </trkpt>
      <trkpt lat="46.12268" lon="4.38471">
        <ele>663.94</ele>
        <time>2023-11-14T20:40:41.642Z</time>
      </trkpt>
      <trkpt lat="46.12257" lon="4.3846">
        <ele>665.07</ele>
        <time>2023-11-14T20:40:50.977Z</time>
      </trkpt>
      <trkpt lat="46.12244" lon="4.38459">
        <ele>665.8</ele>
        <time>2023-11-14T20:41:00.314Z</time>
      </trkpt>
      <trkpt lat="46.12238" lon="4.38462">
        <ele>666.52</ele>
        <time>2023-11-14T20:41:09.652Z</time>
      </trkpt>
      <trkpt lat="46.12231" lon="4.38467">
        <ele>667.25</ele>
        <time>2023-11-14T20:41:18.991Z</time>
      </trkpt>
      <trkpt lat="46.12184" lon="4.38537">
        <ele>668.13</ele>
        <time>2023-11-14T20:41:28.341Z</time>
      </trkpt>
      <trkpt lat="46.12132" lon="4.38585">
        <ele>669.16</ele>
        <time>2023-11-14T20:41:37.701Z</time>
      </trkpt>
      <trkpt lat="46.12092" lon="4.3862">
        <ele>670.12</ele>
        <time>2023-11-14T20:41:47.068Z</time>
      </trkpt>
      <trkpt lat="46.12092" lon="4.3862">
        <ele>670.95</ele>
        <time>2023-11-14T20:41:56.435Z</time>
      </trkpt>
      <trkpt lat="46.12077" lon="4.38631">
        <ele>671.66</ele>
        <time>2023-11-14T20:42:05.805Z</time>
      </trkpt>
      <trkpt lat="46.1206" lon="4.38641">
        <ele>672.61</ele>
        <time>2023-11-14T20:42:15.178Z</time>
      </trkpt>
      <trkpt lat="46.12038" lon="4.38646">
        <ele>673.85</ele>
        <time>2023-11-14T20:42:24.554Z</time>
      </trkpt>
      <trkpt lat="46.12022" lon="4.38647">
        <ele>675.24</ele>
        <time>2023-11-14T20:42:33.933Z</time>
      </trkpt>
      <trkpt lat="46.12008" lon="4.38646">
        <ele>676.48</ele>
        <time>2023-11-14T20:42:43.314Z</time>
      </trkpt>
      <trkpt lat="46.1198" lon="4.38636">
        <ele>677.79</ele>
        <time>2023-11-14T20:42:52.700Z</time>
      </trkpt>
      <trkpt lat="46.11953" lon="4.38613">
        <ele>678.99</ele>
        <time>2023-11-14T20:43:02.091Z</time>
      </trkpt>
      <trkpt lat="46.11939" lon="4.38596">
        <ele>680.11</ele>
        <time>2023-11-14T20:43:11.485Z</time>
      </trkpt>
      <trkpt lat="46.11909" lon="4.38547">
        <ele>681.21</ele>
        <time>2023-11-14T20:43:20.886Z</time>
      </trkpt>
      <trkpt lat="46.11892" lon="4.38514">
        <ele>682.22</ele>
        <time>2023-11-14T20:43:30.291Z</time>
      </trkpt>
      <trkpt lat="46.11882" lon="4.38492">
        <ele>683.03</ele>
        <time>2023-11-14T20:43:39.699Z</time>
      </trkpt>
      <trkpt lat="46.11875" lon="4.38467">
        <ele>683.74</ele>
        <time>2023-11-14T20:43:49.110Z</time>
      </trkpt>
      <trkpt lat="46.11867" lon="4.38435">
        <ele>684.36</ele>
        <time>2023-11-14T20:43:58.525Z</time>
      </trkpt>
      <trkpt lat="46.11864" lon="4.38412">
        <ele>685.12</ele>
        <time>2023-11-14T20:44:07.943Z</time>
      </trkpt>
      <trkpt lat="46.11858" lon="4.38361">
        <ele>686.17</ele>
        <time>2023-11-14T20:44:17.367Z</time>
      </trkpt>
      <trkpt lat="46.11849" lon="4.38323">
        <ele>687.15</ele>
        <time>2023-11-14T20:44:26.795Z</time>
      </trkpt>
      <trkpt lat="46.11843" lon="4.38309">
        <ele>688.14</ele>
        <time>2023-11-14T20:44:36.225Z</time>
      </trkpt>
      <trkpt lat="46.11811" lon="4.3827">
        <ele>689.33</ele>
        <time>2023-11-14T20:44:45.662Z</time>
      </trkpt>
      <trkpt lat="46.118" lon="4.38249">
        <ele>690.52</ele>
        <time>2023-11-14T20:44:55.101Z</time>
      </trkpt>
      <trkpt lat="46.1179" lon="4.38216">
        <ele>691.82</ele>
        <time>2023-11-14T20:45:04.545Z</time>
      </trkpt>
      <trkpt lat="46.11787" lon="4.38199">
        <ele>693.13</ele>
        <time>2023-11-14T20:45:13.990Z</time>
      </trkpt>
      <trkpt lat="46.11787" lon="4.38179">
        <ele>694.57</ele>
        <time>2023-11-14T20:45:23.438Z</time>
      </trkpt>
      <trkpt lat="46.11797" lon="4.38112">
        <ele>696.32</ele>
        <time>2023-11-14T20:45:32.893Z</time>
      </trkpt>
      <trkpt lat="46.11802" lon="4.38075">
        <ele>697.65</ele>
        <time>2023-11-14T20:45:42.353Z</time>
      </trkpt>
      <trkpt lat="46.11802" lon="4.38056">
        <ele>698.86</ele>
        <time>2023-11-14T20:45:51.815Z</time>
      </trkpt>
      <trkpt lat="46.118" lon="4.38038">
        <ele>700.16</ele>
        <time>2023-11-14T20:46:01.279Z</time>
      </trkpt>
      <trkpt lat="46.11796" lon="4.38017">
        <ele>701.61</ele>
        <time>2023-11-14T20:46:10.745Z</time>
      </trkpt>
      <trkpt lat="46.11785" lon="4.37991">
        <ele>703.2</ele>
        <time>2023-11-14T20:46:20.214Z</time>
      </trkpt>
      <trkpt lat="46.11768" lon="4.3796">
        <ele>705.18</ele>
        <time>2023-11-14T20:46:29.688Z</time>
      </trkpt>
      <trkpt lat="46.1173" lon="4.37903">
        <ele>707.21</ele>
        <time>2023-11-14T20:46:39.171Z</time>
      </trkpt>
      <trkpt lat="46.11696" lon="4.37863">
        <ele>708.97</ele>
        <time>2023-11-14T20:46:48.661Z</time>
      </trkpt>
      <trkpt lat="46.11679" lon="4.3785">
        <ele>710.07</ele>
        <time>2023-11-14T20:46:58.154Z</time>
      </trkpt>
      <trkpt lat="46.11679" lon="4.3785">
        <ele>714.43</ele>
        <time>2023-11-14T20:47:07.647Z</time>
      </trkpt>
      <trkpt lat="46.11672" lon="4.37844">
        <ele>714.89</ele>
        <time>2023-11-14T20:47:17.141Z</time>
      </trkpt>
      <trkpt lat="46.11655" lon="4.37835">
        <ele>715.36</ele>
        <time>2023-11-14T20:47:26.638Z</time>
      </trkpt>
      <trkpt lat="46.11628" lon="4.37823">
        <ele>715.83</ele>
        <time>2023-11-14T20:47:36.139Z</time>
      </trkpt>
      <trkpt lat="46.11615" lon="4.37816">
        <ele>716.15</ele>
        <time>2023-11-14T20:47:45.643Z</time>
      </trkpt>
      <trkpt lat="46.11608" lon="4.37806">
        <ele>716.47</ele>
        <time>2023-11-14T20:47:55.148Z</time>
      </trkpt>
      <trkpt lat="46.11604" lon="4.37794">
        <ele>716.73</ele>
        <time>2023-11-14T20:48:04.655Z</time>
      </trkpt>
      <trkpt lat="46.11596" lon="4.37741">
        <ele>717.44</ele>
        <time>2023-11-14T20:48:14.168Z</time>
      </trkpt>
      <trkpt lat="46.11593" lon="4.37689">
        <ele>717.41</ele>
        <time>2023-11-14T20:48:23.687Z</time>
      </trkpt>
      <trkpt lat="46.11593" lon="4.37689">
        <ele>717.1</ele>
        <time>2023-11-14T20:48:33.206Z</time>
      </trkpt>
      <trkpt lat="46.11596" lon="4.37659">
        <ele>716.16</ele>
        <time>2023-11-14T20:48:42.728Z</time>
      </trkpt>
      <trkpt lat="46.11604" lon="4.3763">
        <ele>715.09</ele>
        <time>2023-11-14T20:48:52.253Z</time>
      </trkpt>
      <trkpt lat="46.11616" lon="4.37587">
        <ele>713.86</ele>
        <time>2023-11-14T20:49:01.784Z</time>
      </trkpt>
      <trkpt lat="46.11616" lon="4.37587">
        <ele>712.75</ele>
        <time>2023-11-14T20:49:11.315Z</time>
      </trkpt>
      <trkpt lat="46.1168" lon="4.3739">
        <ele>710.72</ele>
        <time>2023-11-14T20:49:20.870Z</time>
      </trkpt>
      <trkpt lat="46.1168" lon="4.37361">
        <ele>709.31</ele>
        <time>2023-11-14T20:49:30.428Z</time>
      </trkpt>
      <trkpt lat="46.11677" lon="4.37346">
        <ele>708.26</ele>
        <time>2023-11-14T20:49:39.988Z</time>
      </trkpt>
      <trkpt lat="46.11668" lon="4.37327">
        <ele>707.37</ele>
        <time>2023-11-14T20:49:49.550Z</time>
      </trkpt>
      <trkpt lat="46.11639" lon="4.37291">
        <ele>706.79</ele>
        <time>2023-11-14T20:49:59.118Z</time>
      </trkpt>
      <trkpt lat="46.11599" lon="4.3724">
        <ele>706.56</ele>
        <time>2023-11-14T20:50:08.695Z</time>
      </trkpt>
      <trkpt lat="46.11591" lon="4.37234">
        <ele>706.15</ele>
        <time>2023-11-14T20:50:18.274Z</time>
      </trkpt>
      <trkpt lat="46.11581" lon="4.37229">
        <ele>705.76</ele>
        <time>2023-11-14T20:50:27.854Z</time>
      </trkpt>
      <trkpt lat="46.1157" lon="4.37229">
        <ele>705.3</ele>
        <time>2023-11-14T20:50:37.436Z</time>
      </trkpt>
      <trkpt lat="46.11548" lon="4.37239">
        <ele>704.8</ele>
        <time>2023-11-14T20:50:47.022Z</time>
      </trkpt>
      <trkpt lat="46.11532" lon="4.37242">
        <ele>704.44</ele>
        <time>2023-11-14T20:50:56.610Z</time>
      </trkpt>
      <trkpt lat="46.11521" lon="4.37241">
        <ele>704.14</ele>
        <time>2023-11-14T20:51:06.200Z</time>
      </trkpt>
      <trkpt lat="46.11508" lon="4.37236">
        <ele>703.65</ele>
        <time>2023-11-14T20:51:15.792Z</time>
      </trkpt>
      <trkpt lat="46.11453" lon="4.37192">
        <ele>703</ele>
        <time>2023-11-14T20:51:25.394Z</time>
      </trkpt>
      <trkpt lat="46.11453" lon="4.37192">
        <ele>702.4</ele>
        <time>2023-11-14T20:51:34.996Z</time>
      </trkpt>
      <trkpt lat="46.11435" lon="4.37186">
        <ele>701.59</ele>
        <time>2023-11-14T20:51:44.601Z</time>
      </trkpt>
      <trkpt lat="46.11417" lon="4.37186">
        <ele>700.68</ele>
        <time>2023-11-14T20:51:54.209Z</time>
      </trkpt>
      <trkpt lat="46.11377" lon="4.37201">
        <ele>699.69</ele>
        <time>2023-11-14T20:52:03.824Z</time>
      </trkpt>
      <trkpt lat="46.11369" lon="4.37203">
        <ele>698.93</ele>
        <time>2023-11-14T20:52:13.440Z</time>
      </trkpt>
      <trkpt lat="46.11369" lon="4.37203">
        <ele>698.21</ele>
        <time>2023-11-14T20:52:23.056Z</time>
      </trkpt>
      <trkpt lat="46.11349" lon="4.37209">
        <ele>697.51</ele>
        <time>2023-11-14T20:52:32.675Z</time>
      </trkpt>
      <trkpt lat="46.11327" lon="4.3721">
        <ele>696.57</ele>
        <time>2023-11-14T20:52:42.298Z</time>
      </trkpt>
      <trkpt lat="46.11303" lon="4.3721">
        <ele>695.69</ele>
        <time>2023-11-14T20:52:51.925Z</time>
      </trkpt>
      <trkpt lat="46.11284" lon="4.37204">
        <ele>695.07</ele>
        <time>2023-11-14T20:53:01.555Z</time>
      </trkpt>
      <trkpt lat="46.11272" lon="4.37197">
        <ele>694.64</ele>
        <time>2023-11-14T20:53:11.187Z</time>
      </trkpt>
      <trkpt lat="46.11262" lon="4.37182">
        <ele>694.29</ele>
        <time>2023-11-14T20:53:20.821Z</time>
      </trkpt>
      <trkpt lat="46.11256" lon="4.37165">
        <ele>693.97</ele>
        <time>2023-11-14T20:53:30.457Z</time>
      </trkpt>
      <trkpt lat="46.11254" lon="4.37146">
        <ele>693.6</ele>
        <time>2023-11-14T20:53:40.095Z</time>
      </trkpt>
      <trkpt lat="46.11255" lon="4.3712">
        <ele>693.25</ele>
        <time>2023-11-14T20:53:49.736Z</time>
      </trkpt>
      <trkpt lat="46.1127" lon="4.36993">
        <ele>692.96</ele>
        <time>2023-11-14T20:53:59.392Z</time>
      </trkpt>
      <trkpt lat="46.1127" lon="4.36957">
        <ele>688.76</ele>
        <time>2023-11-14T20:54:09.052Z</time>
      </trkpt>
      <trkpt lat="46.1127" lon="4.36922">
        <ele>687.69</ele>
        <time>2023-11-14T20:54:18.715Z</time>
      </trkpt>
      <trkpt lat="46.11267" lon="4.36895">
        <ele>686.62</ele>
        <time>2023-11-14T20:54:28.381Z</time>
      </trkpt>
      <trkpt lat="46.11258" lon="4.36864">
        <ele>685.52</ele>
        <time>2023-11-14T20:54:38.051Z</time>
      </trkpt>
      <trkpt lat="46.11236" lon="4.36804">
        <ele>684.83</ele>
        <time>2023-11-14T20:54:47.729Z</time>
      </trkpt>
      <trkpt lat="46.11225" lon="4.36784">
        <ele>684.28</ele>
        <time>2023-11-14T20:54:57.410Z</time>
      </trkpt>
      <trkpt lat="46.11216" lon="4.36774">
        <ele>684.01</ele>
        <time>2023-11-14T20:55:07.092Z</time>
      </trkpt>
      <trkpt lat="46.11207" lon="4.3677">
        <ele>684.18</ele>
        <time>2023-11-14T20:55:16.776Z</time>
      </trkpt>
      <trkpt lat="46.11194" lon="4.36771">
        <ele>684.65</ele>
        <time>2023-11-14T20:55:26.462Z</time>
      </trkpt>
      <trkpt lat="46.11184" lon="4.36775">
        <ele>685.35</ele>
        <time>2023-11-14T20:55:36.150Z</time>
      </trkpt>
      <trkpt lat="46.11177" lon="4.36783">
        <ele>686.91</ele>
        <time>2023-11-14T20:55:45.839Z</time>
      </trkpt>
      <trkpt lat="46.11172" lon="4.36797">
        <ele>688.49</ele>
        <time>2023-11-14T20:55:55.530Z</time>
      </trkpt>
      <trkpt lat="46.11152" lon="4.36884">
        <ele>689.89</ele>
        <time>2023-11-14T20:56:05.231Z</time>
      </trkpt>
      <trkpt lat="46.11139" lon="4.36918">
        <ele>691.74</ele>
        <time>2023-11-14T20:56:14.936Z</time>
      </trkpt>
      <trkpt lat="46.11123" lon="4.36946">
        <ele>693.36</ele>
        <time>2023-11-14T20:56:24.645Z</time>
      </trkpt>
      <trkpt lat="46.11096" lon="4.3698">
        <ele>695.47</ele>
        <time>2023-11-14T20:56:34.360Z</time>
      </trkpt>
      <trkpt lat="46.10918" lon="4.37183">
        <ele>697.65</ele>
        <time>2023-11-14T20:56:44.112Z</time>
      </trkpt>
      <trkpt lat="46.10865" lon="4.37211">
        <ele>699.46</ele>
        <time>2023-11-14T20:56:53.873Z</time>
      </trkpt>
      <trkpt lat="46.10865" lon="4.37211">
        <ele>700.79</ele>
        <time>2023-11-14T20:57:03.634Z</time>
      </trkpt>
      <trkpt lat="46.10853" lon="4.37218">
        <ele>702.08</ele>
        <time>2023-11-14T20:57:13.397Z</time>
      </trkpt>
      <trkpt lat="46.10827" lon="4.37221">
        <ele>703.04</ele>
        <time>2023-11-14T20:57:23.164Z</time>
      </trkpt>
      <trkpt lat="46.10809" lon="4.37218">
        <ele>703.72</ele>
        <time>2023-11-14T20:57:32.934Z</time>
      </trkpt>
      <trkpt lat="46.10787" lon="4.37221">
        <ele>704.19</ele>
        <time>2023-11-14T20:57:42.707Z</time>
      </trkpt>
      <trkpt lat="46.10779" lon="4.37227">
        <ele>704.52</ele>
        <time>2023-11-14T20:57:52.482Z</time>
      </trkpt>
      <trkpt lat="46.10772" lon="4.37242">
        <ele>704.65</ele>
        <time>2023-11-14T20:58:02.259Z</time>
      </trkpt>
      <trkpt lat="46.10763" lon="4.37314">
        <ele>704.69</ele>
        <time>2023-11-14T20:58:12.044Z</time>
      </trkpt>
      <trkpt lat="46.10756" lon="4.37356">
        <ele>704.98</ele>
        <time>2023-11-14T20:58:21.834Z</time>
      </trkpt>
      <trkpt lat="46.10746" lon="4.37383">
        <ele>705.53</ele>
        <time>2023-11-14T20:58:31.627Z</time>
      </trkpt>
      <trkpt lat="46.10735" lon="4.37398">
        <ele>706.3</ele>
        <time>2023-11-14T20:58:41.423Z</time>
      </trkpt>
      <trkpt lat="46.10721" lon="4.3741">
        <ele>707.32</ele>
        <time>2023-11-14T20:58:51.221Z</time>
      </trkpt>
      <trkpt lat="46.10702" lon="4.37422">
        <ele>708.58</ele>
        <time>2023-11-14T20:59:01.022Z</time>
      </trkpt>
      <trkpt lat="46.10673" lon="4.37436">
        <ele>710.21</ele>
        <time>2023-11-14T20:59:10.828Z</time>
      </trkpt>
      <trkpt lat="46.10654" lon="4.3744">
        <ele>712.03</ele>
        <time>2023-11-14T20:59:20.637Z</time>
      </trkpt>
      <trkpt lat="46.10637" lon="4.37438">
        <ele>713.88</ele>
        <time>2023-11-14T20:59:30.449Z</time>
      </trkpt>
      <trkpt lat="46.10619" lon="4.3743">
        <ele>715.99</ele>
        <time>2023-11-14T20:59:40.264Z</time>
      </trkpt>
      <trkpt lat="46.10544" lon="4.37369">
        <ele>718.59</ele>
        <time>2023-11-14T20:59:50.093Z</time>
      </trkpt>
      <trkpt lat="46.10497" lon="4.37329">
        <ele>721.39</ele>
        <time>2023-11-14T20:59:59.931Z</time>
      </trkpt>
      <trkpt lat="46.1045" lon="4.3728">
        <ele>724.02</ele>
        <time>2023-11-14T21:00:09.778Z</time>
      </trkpt>
      <trkpt lat="46.10437" lon="4.37258">
        <ele>726.06</ele>
        <time>2023-11-14T21:00:19.628Z</time>
      </trkpt>
      <trkpt lat="46.10433" lon="4.37248">
        <ele>730.5</ele>
        <time>2023-11-14T21:00:29.480Z</time>
      </trkpt>
      <trkpt lat="46.10394" lon="4.37155">
        <ele>731.01</ele>
        <time>2023-11-14T21:00:39.344Z</time>
      </trkpt>
      <trkpt lat="46.10363" lon="4.37097">
        <ele>731.32</ele>
        <time>2023-11-14T21:00:49.216Z</time>
      </trkpt>
      <trkpt lat="46.10343" lon="4.37072">
        <ele>730.91</ele>
        <time>2023-11-14T21:00:59.092Z</time>
      </trkpt>
      <trkpt lat="46.10319" lon="4.37056">
        <ele>730.15</ele>
        <time>2023-11-14T21:01:08.972Z</time>
      </trkpt>
      <trkpt lat="46.10294" lon="4.37048">
        <ele>729.29</ele>
        <time>2023-11-14T21:01:18.856Z</time>
      </trkpt>
      <trkpt lat="46.10266" lon="4.37031">
        <ele>728.74</ele>
        <time>2023-11-14T21:01:28.745Z</time>
      </trkpt>
      <trkpt lat="46.10228" lon="4.36997">
        <ele>728.3</ele>
        <time>2023-11-14T21:01:38.641Z</time>
      </trkpt>
      <trkpt lat="46.10207" lon="4.36984">
        <ele>728.02</ele>
        <time>2023-11-14T21:01:48.541Z</time>
      </trkpt>
      <trkpt lat="46.10181" lon="4.36983">
        <ele>727.83</ele>
        <time>2023-11-14T21:01:58.445Z</time>
      </trkpt>
      <trkpt lat="46.10157" lon="4.36996">
        <ele>727.5</ele>
        <time>2023-11-14T21:02:08.353Z</time>
      </trkpt>
      <trkpt lat="46.1014" lon="4.37017">
        <ele>727.51</ele>
        <time>2023-11-14T21:02:18.265Z</time>
      </trkpt>
      <trkpt lat="46.1012" lon="4.37061">
        <ele>727.72</ele>
        <time>2023-11-14T21:02:28.183Z</time>
      </trkpt>
      <trkpt lat="46.10108" lon="4.37079">
        <ele>728.09</ele>
        <time>2023-11-14T21:02:38.103Z</time>
      </trkpt>
      <trkpt lat="46.10097" lon="4.37089">
        <ele>728.77</ele>
        <time>2023-11-14T21:02:48.025Z</time>
      </trkpt>
      <trkpt lat="46.10088" lon="4.37092">
        <ele>729.69</ele>
        <time>2023-11-14T21:02:57.949Z</time>
      </trkpt>
      <trkpt lat="46.10071" lon="4.37091">
        <ele>730.92</ele>
        <time>2023-11-14T21:03:07.876Z</time>
      </trkpt>
      <trkpt lat="46.1006" lon="4.37082">
        <ele>732.39</ele>
        <time>2023-11-14T21:03:17.805Z</time>
      </trkpt>
      <trkpt lat="46.10049" lon="4.37069">
        <ele>733.97</ele>
        <time>2023-11-14T21:03:27.736Z</time>
      </trkpt>
      <trkpt lat="46.10039" lon="4.37048">
        <ele>735.62</ele>
        <time>2023-11-14T21:03:37.670Z</time>
      </trkpt>
      <trkpt lat="46.10032" lon="4.37019">
        <ele>737.33</ele>
        <time>2023-11-14T21:03:47.607Z</time>
      </trkpt>
      <trkpt lat="46.10032" lon="4.37019">
        <ele>738.86</ele>
        <time>2023-11-14T21:03:57.544Z</time>
      </trkpt>
      <trkpt lat="46.10026" lon="4.36964">
        <ele>741.03</ele>
        <time>2023-11-14T21:04:07.487Z</time>
      </trkpt>
      <trkpt lat="46.10027" lon="4.36914">
        <ele>742.74</ele>
        <time>2023-11-14T21:04:17.436Z</time>
      </trkpt>
      <trkpt lat="46.10037" lon="4.36813">
        <ele>743.84</ele>
        <time>2023-11-14T21:04:27.396Z</time>
      </trkpt>
      <trkpt lat="46.10036" lon="4.36783">
        <ele>745.09</ele>
        <time>2023-11-14T21:04:37.360Z</time>
      </trkpt>
      <trkpt lat="46.10034" lon="4.36766">
        <ele>746.37</ele>
        <time>2023-11-14T21:04:47.326Z</time>
      </trkpt>
      <trkpt lat="46.10027" lon="4.36746">
        <ele>747.69</ele>
        <time>2023-11-14T21:04:57.294Z</time>
      </trkpt>
      <trkpt lat="46.10022" lon="4.3673">
        <ele>748.98</ele>
        <time>2023-11-14T21:05:07.264Z</time>
      </trkpt>
      <trkpt lat="46.10014" lon="4.36714">
        <ele>750.26</ele>
        <time>2023-11-14T21:05:17.236Z</time>
      </trkpt>
      <trkpt lat="46.09957" lon="4.36648">
        <ele>752.16</ele>
        <time>2023-11-14T21:05:27.220Z</time>
      </trkpt>
      <trkpt lat="46.09945" lon="4.36624">
        <ele>753.09</ele>
        <time>2023-11-14T21:05:37.207Z</time>
      </trkpt>
      <trkpt lat="46.0994" lon="4.36605">
        <ele>753.82</ele>
        <time>2023-11-14T21:05:47.197Z</time>
      </trkpt>
      <trkpt lat="46.09938" lon="4.36583">
        <ele>754.53</ele>
        <time>2023-11-14T21:05:57.189Z</time>
      </trkpt>
      <trkpt lat="46.09942" lon="4.36559">
        <ele>755.31</ele>
        <time>2023-11-14T21:06:07.184Z</time>
      </trkpt>
      <trkpt lat="46.09966" lon="4.36503">
        <ele>756.26</ele>
        <time>2023-11-14T21:06:17.186Z</time>
      </trkpt>
      <trkpt lat="46.09966" lon="4.36503">
        <ele>757.17</ele>
        <time>2023-11-14T21:06:27.188Z</time>
      </trkpt>
      <trkpt lat="46.09982" lon="4.36464">
        <ele>758.13</ele>
        <time>2023-11-14T21:06:37.195Z</time>
      </trkpt>
      <trkpt lat="46.09985" lon="4.36439">
        <ele>759.55</ele>
        <time>2023-11-14T21:06:47.205Z</time>
      </trkpt>
      <trkpt lat="46.09981" lon="4.36417">
        <ele>761.15</ele>
        <time>2023-11-14T21:06:57.217Z</time>
      </trkpt>
      <trkpt lat="46.09974" lon="4.36399">
        <ele>762.65</ele>
        <time>2023-11-14T21:07:07.232Z</time>
      </trkpt>
      <trkpt lat="46.09961" lon="4.36379">
        <ele>764.05</ele>
        <time>2023-11-14T21:07:17.250Z</time>
      </trkpt>
      <trkpt lat="46.09909" lon="4.36313">
        <ele>765.23</ele>
        <time>2023-11-14T21:07:27.279Z</time>
      </trkpt>
      <trkpt lat="46.09877" lon="4.36256">
        <ele>764.71</ele>
        <time>2023-11-14T21:07:37.316Z</time>
      </trkpt>
      <trkpt lat="46.09834" lon="4.36171">
        <ele>763.73</ele>
        <time>2023-11-14T21:07:47.365Z</time>
      </trkpt>
      <trkpt lat="46.09799" lon="4.36092">
        <ele>761.56</ele>
        <time>2023-11-14T21:07:57.424Z</time>
      </trkpt>
      <trkpt lat="46.09796" lon="4.36085">
        <ele>761.5</ele>
        <time>2023-11-14T21:08:07.484Z</time>
      </trkpt>
      <trkpt lat="46.09786" lon="4.36052">
        <ele>761.33</ele>
        <time>2023-11-14T21:08:17.548Z</time>
      </trkpt>
      <trkpt lat="46.09786" lon="4.36052">
        <ele>761.19</ele>
        <time>2023-11-14T21:08:27.612Z</time>
      </trkpt>
      <trkpt lat="46.09781" lon="4.36032">
        <ele>761.07</ele>
        <time>2023-11-14T21:08:37.679Z</time>
      </trkpt>
      <trkpt lat="46.09726" lon="4.36079">
        <ele>761.42</ele>
        <time>2023-11-14T21:08:47.756Z</time>
      </trkpt>
      <trkpt lat="46.09702" lon="4.36084">
        <ele>761.33</ele>
        <time>2023-11-14T21:08:57.837Z</time>
      </trkpt>
      <trkpt lat="46.09682" lon="4.3608">
        <ele>760.99</ele>
        <time>2023-11-14T21:09:07.921Z</time>
      </trkpt>
      <trkpt lat="46.09665" lon="4.36071">
        <ele>760.42</ele>
        <time>2023-11-14T21:09:18.008Z</time>
      </trkpt>
      <trkpt lat="46.09625" lon="4.36037">
        <ele>759.57</ele>
        <time>2023-11-14T21:09:28.102Z</time>
      </trkpt>
      <trkpt lat="46.09604" lon="4.36032">
        <ele>758.6</ele>
        <time>2023-11-14T21:09:38.200Z</time>
      </trkpt>
      <trkpt lat="46.09588" lon="4.36039">
        <ele>757.6</ele>
        <time>2023-11-14T21:09:48.300Z</time>
      </trkpt>
      <trkpt lat="46.09579" lon="4.3606">
        <ele>756.49</ele>
        <time>2023-11-14T21:09:58.403Z</time>
      </trkpt>
      <trkpt lat="46.09567" lon="4.3612">
        <ele>755.22</ele>
        <time>2023-11-14T21:10:08.513Z</time>
      </trkpt>
      <trkpt lat="46.0955" lon="4.36232">
        <ele>752.77</ele>
        <time>2023-11-14T21:10:18.636Z</time>
      </trkpt>
      <trkpt lat="46.09538" lon="4.36298">
        <ele>750.62</ele>
        <time>2023-11-14T21:10:28.766Z</time>
      </trkpt>
      <trkpt lat="46.09523" lon="4.3633">
        <ele>749.29</ele>
        <time>2023-11-14T21:10:38.901Z</time>
      </trkpt>
      <trkpt lat="46.09495" lon="4.3636">
        <ele>748.32</ele>
        <time>2023-11-14T21:10:49.041Z</time>
      </trkpt>
      <trkpt lat="46.09452" lon="4.3639">
        <ele>747.19</ele>
        <time>2023-11-14T21:10:59.189Z</time>
      </trkpt>
      <trkpt lat="46.09429" lon="4.36394">
        <ele>746.16</ele>
        <time>2023-11-14T21:11:09.341Z</time>
      </trkpt>
      <trkpt lat="46.09405" lon="4.36391">
        <ele>745.27</ele>
        <time>2023-11-14T21:11:19.496Z</time>
      </trkpt>
      <trkpt lat="46.0939" lon="4.36398">
        <ele>744.12</ele>
        <time>2023-11-14T21:11:29.654Z</time>
      </trkpt>
      <trkpt lat="46.09376" lon="4.36409">
        <ele>742.9</ele>
        <time>2023-11-14T21:11:39.815Z</time>
      </trkpt>
      <trkpt lat="46.09344" lon="4.36453">
        <ele>741.6</ele>
        <time>2023-11-14T21:11:49.983Z</time>
      </trkpt>
      <trkpt lat="46.09324" lon="4.36467">
        <ele>740.25</ele>
        <time>2023-11-14T21:12:00.154Z</time>
      </trkpt>
      <trkpt lat="46.09281" lon="4.36485">
        <ele>738.66</ele>
        <time>2023-11-14T21:12:10.332Z</time>
      </trkpt>
      <trkpt lat="46.09265" lon="4.36501">
        <ele>737.18</ele>
        <time>2023-11-14T21:12:20.514Z</time>
      </trkpt>
      <trkpt lat="46.09252" lon="4.36527">
        <ele>735.86</ele>
        <time>2023-11-14T21:12:30.699Z</time>
      </trkpt>
      <trkpt lat="46.0925" lon="4.36557">
        <ele>734.64</ele>
        <time>2023-11-14T21:12:40.888Z</time>
      </trkpt>
      <trkpt lat="46.0925" lon="4.36557">
        <ele>733.57</ele>
        <time>2023-11-14T21:12:51.077Z</time>
      </trkpt>
      <trkpt lat="46.0925" lon="4.36585">
        <ele>732.64</ele>
        <time>2023-11-14T21:13:01.269Z</time>
      </trkpt>
      <trkpt lat="46.09254" lon="4.36625">
        <ele>731.69</ele>
        <time>2023-11-14T21:13:11.465Z</time>
      </trkpt>
      <trkpt lat="46.09253" lon="4.36641">
        <ele>730.74</ele>
        <time>2023-11-14T21:13:21.663Z</time>
      </trkpt>
      <trkpt lat="46.09249" lon="4.36656">
        <ele>729.75</ele>
        <time>2023-11-14T21:13:31.863Z</time>
      </trkpt>
      <trkpt lat="46.0924" lon="4.36665">
        <ele>728.84</ele>
        <time>2023-11-14T21:13:42.064Z</time>
      </trkpt>
      <trkpt lat="46.09226" lon="4.36666">
        <ele>728.03</ele>
        <time>2023-11-14T21:13:52.268Z</time>
      </trkpt>
      <trkpt lat="46.09177" lon="4.36652">
        <ele>727.2</ele>
        <time>2023-11-14T21:14:02.480Z</time>
      </trkpt>
      <trkpt lat="46.09138" lon="4.3665">
        <ele>726.29</ele>
        <time>2023-11-14T21:14:12.698Z</time>
      </trkpt>
      <trkpt lat="46.09124" lon="4.36654">
        <ele>725.59</ele>
        <time>2023-11-14T21:14:22.918Z</time>
      </trkpt>
      <trkpt lat="46.09114" lon="4.36663">
        <ele>724.92</ele>
        <time>2023-11-14T21:14:33.140Z</time>
      </trkpt>
      <trkpt lat="46.09108" lon="4.36678">
        <ele>724.31</ele>
        <time>2023-11-14T21:14:43.364Z</time>
      </trkpt>
      <trkpt lat="46.09108" lon="4.36695">
        <ele>723.75</ele>
        <time>2023-11-14T21:14:53.590Z</time>
      </trkpt>
      <trkpt lat="46.09113" lon="4.36712">
        <ele>723.24</ele>
        <time>2023-11-14T21:15:03.818Z</time>
      </trkpt>
      <trkpt lat="46.09135" lon="4.36748">
        <ele>722.78</ele>
        <time>2023-11-14T21:15:14.051Z</time>
      </trkpt>
      <trkpt lat="46.09143" lon="4.36772">
        <ele>722.34</ele>
        <time>2023-11-14T21:15:24.287Z</time>
      </trkpt>
      <trkpt lat="46.09152" lon="4.36816">
        <ele>721.63</ele>
        <time>2023-11-14T21:15:34.528Z</time>
      </trkpt>
      <trkpt lat="46.09154" lon="4.36851">
        <ele>720.91</ele>
        <time>2023-11-14T21:15:44.773Z</time>
      </trkpt>
      <trkpt lat="46.09153" lon="4.36876">
        <ele>720.27</ele>
        <time>2023-11-14T21:15:55.021Z</time>
      </trkpt>
      <trkpt lat="46.0915" lon="4.36901">
        <ele>720.13</ele>
        <time>2023-11-14T21:16:05.272Z</time>
      </trkpt>
      <trkpt lat="46.0914" lon="4.36925">
        <ele>720.19</ele>
        <time>2023-11-14T21:16:15.526Z</time>
      </trkpt>
      <trkpt lat="46.09119" lon="4.36957">
        <ele>720.31</ele>
        <time>2023-11-14T21:16:25.785Z</time>
      </trkpt>
      <trkpt lat="46.09078" lon="4.37002">
        <ele>721.37</ele>
        <time>2023-11-14T21:16:36.052Z</time>
      </trkpt>
      <trkpt lat="46.09063" lon="4.37027">
        <ele>722</ele>
        <time>2023-11-14T21:16:46.323Z</time>
      </trkpt>
      <trkpt lat="46.09046" lon="4.37053">
        <ele>722.83</ele>
        <time>2023-11-14T21:16:56.598Z</time>
      </trkpt>
      <trkpt lat="46.09008" lon="4.37097">
        <ele>723.78</ele>
        <time>2023-11-14T21:17:06.881Z</time>
      </trkpt>
      <trkpt lat="46.08999" lon="4.37123">
        <ele>724.31</ele>
        <time>2023-11-14T21:17:17.167Z</time>
      </trkpt>
      <trkpt lat="46.08987" lon="4.3718">
        <ele>724.76</ele>
        <time>2023-11-14T21:17:27.459Z</time>
      </trkpt>
      <trkpt lat="46.0897" lon="4.37222">
        <ele>725.35</ele>
        <time>2023-11-14T21:17:37.757Z</time>
      </trkpt>
      <trkpt lat="46.0896" lon="4.37282">
        <ele>725.79</ele>
        <time>2023-11-14T21:17:48.062Z</time>
      </trkpt>
      <trkpt lat="46.0896" lon="4.37325">
        <ele>725.81</ele>
        <time>2023-11-14T21:17:58.372Z</time>
      </trkpt>
      <trkpt lat="46.08971" lon="4.37426">
        <ele>725.59</ele>
        <time>2023-11-14T21:18:08.693Z</time>
      </trkpt>
      <trkpt lat="46.0898" lon="4.37481">
        <ele>725.89</ele>
        <time>2023-11-14T21:18:19.020Z</time>
      </trkpt>
      <trkpt lat="46.08996" lon="4.37584">
        <ele>726.19</ele>
        <time>2023-11-14T21:18:29.359Z</time>
      </trkpt>
      <trkpt lat="46.08991" lon="4.37693">
        <ele>726.49</ele>
        <time>2023-11-14T21:18:39.710Z</time>
      </trkpt>
      <trkpt lat="46.08992" lon="4.37773">
        <ele>726.09</ele>
        <time>2023-11-14T21:18:50.070Z</time>
      </trkpt>
      <trkpt lat="46.08988" lon="4.37793">
        <ele>726.16</ele>
        <time>2023-11-14T21:19:00.432Z</time>
      </trkpt>
      <trkpt lat="46.08976" lon="4.37811">
        <ele>726.46</ele>
        <time>2023-11-14T21:19:10.797Z</time>
      </trkpt>
      <trkpt lat="46.08955" lon="4.3782">
        <ele>727.09</ele>
        <time>2023-11-14T21:19:21.166Z</time>
      </trkpt>
      <trkpt lat="46.08921" lon="4.37816">
        <ele>728.4</ele>
        <time>2023-11-14T21:19:31.540Z</time>
      </trkpt>
      <trkpt lat="46.08877" lon="4.37813">
        <ele>729.93</ele>
        <time>2023-11-14T21:19:41.921Z</time>
      </trkpt>
      <trkpt lat="46.08854" lon="4.37807">
        <ele>731.52</ele>
        <time>2023-11-14T21:19:52.306Z</time>
      </trkpt>
      <trkpt lat="46.08828" lon="4.37781">
        <ele>733.27</ele>
        <time>2023-11-14T21:20:02.696Z</time>
      </trkpt>
      <trkpt lat="46.08795" lon="4.37757">
        <ele>734.15</ele>
        <time>2023-11-14T21:20:13.092Z</time>
      </trkpt>
      <trkpt lat="46.08773" lon="4.37745">
        <ele>734.93</ele>
        <time>2023-11-14T21:20:23.492Z</time>
      </trkpt>
      <trkpt lat="46.08754" lon="4.37738">
        <ele>735.25</ele>
        <time>2023-11-14T21:20:33.895Z</time>
      </trkpt>
      <trkpt lat="46.08733" lon="4.3774">
        <ele>732.97</ele>
        <time>2023-11-14T21:20:44.301Z</time>
      </trkpt>
      <trkpt lat="46.08733" lon="4.3774">
        <ele>733.67</ele>
        <time>2023-11-14T21:20:54.707Z</time>
      </trkpt>
      <trkpt lat="46.08733" lon="4.3774">
        <ele>732.97</ele>
        <time>2023-11-14T21:21:05.113Z</time>
      </trkpt>
      <trkpt lat="46.0871" lon="4.37748">
        <ele>731.46</ele>
        <time>2023-11-14T21:21:15.523Z</time>
      </trkpt>
      <trkpt lat="46.08679" lon="4.37784">
        <ele>728.71</ele>
        <time>2023-11-14T21:21:25.939Z</time>
      </trkpt>
      <trkpt lat="46.08656" lon="4.37802">
        <ele>726.87</ele>
        <time>2023-11-14T21:21:36.360Z</time>
      </trkpt>
      <trkpt lat="46.08633" lon="4.37817">
        <ele>725.87</ele>
        <time>2023-11-14T21:21:46.785Z</time>
      </trkpt>
      <trkpt lat="46.08609" lon="4.37826">
        <ele>725.36</ele>
        <time>2023-11-14T21:21:57.214Z</time>
      </trkpt>
      <trkpt lat="46.08592" lon="4.37828">
        <ele>724.98</ele>
        <time>2023-11-14T21:22:07.645Z</time>
      </trkpt>
      <trkpt lat="46.08574" lon="4.37823">
        <ele>724.77</ele>
        <time>2023-11-14T21:22:18.079Z</time>
      </trkpt>
      <trkpt lat="46.08565" lon="4.37818">
        <ele>724.2</ele>
        <time>2023-11-14T21:22:28.515Z</time>
      </trkpt>
      <trkpt lat="46.08542" lon="4.3779">
        <ele>722.9</ele>
        <time>2023-11-14T21:22:38.956Z</time>
      </trkpt>
      <trkpt lat="46.0853" lon="4.37767">
        <ele>721.54</ele>
        <time>2023-11-14T21:22:49.400Z</time>
      </trkpt>
      <trkpt lat="46.08525" lon="4.37756">
        <ele>720.37</ele>
        <time>2023-11-14T21:22:59.845Z</time>
      </trkpt>
      <trkpt lat="46.08515" lon="4.37713">
        <ele>719.25</ele>
        <time>2023-11-14T21:23:10.295Z</time>
      </trkpt>
      <trkpt lat="46.08506" lon="4.37646">
        <ele>718.01</ele>
        <time>2023-11-14T21:23:20.753Z</time>
      </trkpt>
      <trkpt lat="46.08503" lon="4.37631">
        <ele>716.86</ele>
        <time>2023-11-14T21:23:31.213Z</time>
      </trkpt>
      <trkpt lat="46.08498" lon="4.37609">
        <ele>715.83</ele>
        <time>2023-11-14T21:23:41.675Z</time>
      </trkpt>
      <trkpt lat="46.08488" lon="4.37589">
        <ele>714.87</ele>
        <time>2023-11-14T21:23:52.140Z</time>
      </trkpt>
      <trkpt lat="46.08472" lon="4.3757">
        <ele>713.86</ele>
        <time>2023-11-14T21:24:02.608Z</time>
      </trkpt>
      <trkpt lat="46.08431" lon="4.37524">
        <ele>712.76</ele>
        <time>2023-11-14T21:24:13.085Z</time>
      </trkpt>
      <trkpt lat="46.08367" lon="4.37459">
        <ele>712.08</ele>
        <time>2023-11-14T21:24:23.574Z</time>
      </trkpt>
      <trkpt lat="46.08367" lon="4.37459">
        <ele>711.1</ele>
        <time>2023-11-14T21:24:34.063Z</time>
      </trkpt>
      <trkpt lat="46.08346" lon="4.37448">
        <ele>710.26</ele>
        <time>2023-11-14T21:24:44.556Z</time>
      </trkpt>
      <trkpt lat="46.08337" lon="4.37447">
        <ele>709.2</ele>
        <time>2023-11-14T21:24:55.050Z</time>
      </trkpt>
      <trkpt lat="46.08325" lon="4.37449">
        <ele>707.86</ele>
        <time>2023-11-14T21:25:05.546Z</time>
      </trkpt>
      <trkpt lat="46.08311" lon="4.3746">
        <ele>705.93</ele>
        <time>2023-11-14T21:25:16.045Z</time>
      </trkpt>
      <trkpt lat="46.08297" lon="4.37477">
        <ele>703.59</ele>
        <time>2023-11-14T21:25:26.547Z</time>
      </trkpt>
      <trkpt lat="46.08287" lon="4.37496">
        <ele>701.22</ele>
        <time>2023-11-14T21:25:37.051Z</time>
      </trkpt>
      <trkpt lat="46.08279" lon="4.37519">
        <ele>699.07</ele>
        <time>2023-11-14T21:25:47.558Z</time>
      </trkpt>
      <trkpt lat="46.08263" lon="4.37627">
        <ele>696.87</ele>
        <time>2023-11-14T21:25:58.078Z</time>
      </trkpt>
      <trkpt lat="46.0825" lon="4.3768">
        <ele>694.42</ele>
        <time>2023-11-14T21:26:08.604Z</time>
      </trkpt>
      <trkpt lat="46.08241" lon="4.37701">
        <ele>692.15</ele>
        <time>2023-11-14T21:26:19.132Z</time>
      </trkpt>
      <trkpt lat="46.08228" lon="4.37722">
        <ele>689.99</ele>
        <time>2023-11-14T21:26:29.664Z</time>
      </trkpt>
      <trkpt lat="46.08149" lon="4.37801">
        <ele>687.92</ele>
        <time>2023-11-14T21:26:40.211Z</time>
      </trkpt>
      <trkpt lat="46.08138" lon="4.37821">
        <ele>685.51</ele>
        <time>2023-11-14T21:26:50.761Z</time>
      </trkpt>
      <trkpt lat="46.08125" lon="4.37854">
        <ele>683.06</ele>
        <time>2023-11-14T21:27:01.315Z</time>
      </trkpt>
      <trkpt lat="46.08112" lon="4.37907">
        <ele>680.66</ele>
        <time>2023-11-14T21:27:11.875Z</time>
      </trkpt>
      <trkpt lat="46.08107" lon="4.3794">
        <ele>678.43</ele>
        <time>2023-11-14T21:27:22.439Z</time>
      </trkpt>
      <trkpt lat="46.08101" lon="4.38019">
        <ele>676</ele>
        <time>2023-11-14T21:27:33.012Z</time>
      </trkpt>
      <trkpt lat="46.08102" lon="4.38054">
        <ele>674.05</ele>
        <time>2023-11-14T21:27:43.589Z</time>
      </trkpt>
      <trkpt lat="46.0811" lon="4.38116">
        <ele>671.99</ele>
        <time>2023-11-14T21:27:54.173Z</time>
      </trkpt>
      <trkpt lat="46.08117" lon="4.38174">
        <ele>670.32</ele>
        <time>2023-11-14T21:28:04.763Z</time>
      </trkpt>
      <trkpt lat="46.08119" lon="4.38215">
        <ele>668.85</ele>
        <time>2023-11-14T21:28:15.358Z</time>
      </trkpt>
      <trkpt lat="46.08117" lon="4.38256">
        <ele>667.66</ele>
        <time>2023-11-14T21:28:25.958Z</time>
      </trkpt>
      <trkpt lat="46.08108" lon="4.38316">
        <ele>666.47</ele>
        <time>2023-11-14T21:28:36.564Z</time>
      </trkpt>
      <trkpt lat="46.08102" lon="4.38377">
        <ele>664.8</ele>
        <time>2023-11-14T21:28:47.177Z</time>
      </trkpt>
      <trkpt lat="46.08095" lon="4.38396">
        <ele>663.73</ele>
        <time>2023-11-14T21:28:57.793Z</time>
      </trkpt>
      <trkpt lat="46.08088" lon="4.38409">
        <ele>662.89</ele>
        <time>2023-11-14T21:29:08.411Z</time>
      </trkpt>
      <trkpt lat="46.08079" lon="4.38418">
        <ele>662.24</ele>
        <time>2023-11-14T21:29:19.030Z</time>
      </trkpt>
      <trkpt lat="46.08066" lon="4.38424">
        <ele>661.64</ele>
        <time>2023-11-14T21:29:29.651Z</time>
      </trkpt>
      <trkpt lat="46.08053" lon="4.38424">
        <ele>661.05</ele>
        <time>2023-11-14T21:29:40.274Z</time>
      </trkpt>
      <trkpt lat="46.08039" lon="4.38417">
        <ele>660.55</ele>
        <time>2023-11-14T21:29:50.900Z</time>
      </trkpt>
      <trkpt lat="46.08028" lon="4.38401">
        <ele>660.18</ele>
        <time>2023-11-14T21:30:01.528Z</time>
      </trkpt>
      <trkpt lat="46.08015" lon="4.3838">
        <ele>659.84</ele>
        <time>2023-11-14T21:30:12.160Z</time>
      </trkpt>
      <trkpt lat="46.08003" lon="4.38368">
        <ele>659.41</ele>
        <time>2023-11-14T21:30:22.794Z</time>
      </trkpt>
      <trkpt lat="46.07988" lon="4.38363">
        <ele>658.78</ele>
        <time>2023-11-14T21:30:33.430Z</time>
      </trkpt>
      <trkpt lat="46.07956" lon="4.38364">
        <ele>658.22</ele>
        <time>2023-11-14T21:30:44.071Z</time>
      </trkpt>
      <trkpt lat="46.07942" lon="4.38362">
        <ele>657.52</ele>
        <time>2023-11-14T21:30:54.715Z</time>
      </trkpt>
      <trkpt lat="46.07921" lon="4.38359">
        <ele>656.69</ele>
        <time>2023-11-14T21:31:05.362Z</time>
      </trkpt>
      <trkpt lat="46.07895" lon="4.38361">
        <ele>655.31</ele>
        <time>2023-11-14T21:31:16.013Z</time>
      </trkpt>
      <trkpt lat="46.07869" lon="4.38371">
        <ele>653.26</ele>
        <time>2023-11-14T21:31:26.669Z</time>
      </trkpt>
      <trkpt lat="46.07814" lon="4.38394">
        <ele>651.34</ele>
        <time>2023-11-14T21:31:37.334Z</time>
      </trkpt>
      <trkpt lat="46.0772" lon="4.3844">
        <ele>648.29</ele>
        <time>2023-11-14T21:31:48.015Z</time>
      </trkpt>
      <trkpt lat="46.07705" lon="4.38455">
        <ele>645.53</ele>
        <time>2023-11-14T21:31:58.699Z</time>
      </trkpt>
      <trkpt lat="46.07693" lon="4.38475">
        <ele>642.67</ele>
        <time>2023-11-14T21:32:09.385Z</time>
      </trkpt>
      <trkpt lat="46.07684" lon="4.38496">
        <ele>639.95</ele>
        <time>2023-11-14T21:32:20.074Z</time>
      </trkpt>
      <trkpt lat="46.07674" lon="4.38541">
        <ele>636.97</ele>
        <time>2023-11-14T21:32:30.769Z</time>
      </trkpt>
      <trkpt lat="46.0767" lon="4.38555">
        <ele>634.75</ele>
        <time>2023-11-14T21:32:41.465Z</time>
      </trkpt>
      <trkpt lat="46.07662" lon="4.38578">
        <ele>632.62</ele>
        <time>2023-11-14T21:32:52.164Z</time>
      </trkpt>
      <trkpt lat="46.07655" lon="4.38587">
        <ele>630.68</ele>
        <time>2023-11-14T21:33:02.864Z</time>
      </trkpt>
      <trkpt lat="46.07648" lon="4.38596">
        <ele>628.76</ele>
        <time>2023-11-14T21:33:13.566Z</time>
      </trkpt>
      <trkpt lat="46.0763" lon="4.38602">
        <ele>627.21</ele>
        <time>2023-11-14T21:33:24.271Z</time>
      </trkpt>
      <trkpt lat="46.07616" lon="4.38605">
        <ele>625.51</ele>
        <time>2023-11-14T21:33:34.978Z</time>
      </trkpt>
      <trkpt lat="46.07597" lon="4.38602">
        <ele>623.84</ele>
        <time>2023-11-14T21:33:45.688Z</time>
      </trkpt>
      <trkpt lat="46.0758" lon="4.38595">
        <ele>622.17</ele>
        <time>2023-11-14T21:33:56.401Z</time>
      </trkpt>
      <trkpt lat="46.07566" lon="4.38585">
        <ele>620.63</ele>
        <time>2023-11-14T21:34:07.117Z</time>
      </trkpt>
      <trkpt lat="46.07557" lon="4.38572">
        <ele>619.24</ele>
        <time>2023-11-14T21:34:17.835Z</time>
      </trkpt>
      <trkpt lat="46.07545" lon="4.38554">
        <ele>617.96</ele>
        <time>2023-11-14T21:34:28.555Z</time>
      </trkpt>
      <trkpt lat="46.07522" lon="4.38482">
        <ele>616.97</ele>
        <time>2023-11-14T21:34:39.284Z</time>
      </trkpt>
      <trkpt lat="46.0752" lon="4.38479">
        <ele>616.02</ele>
        <time>2023-11-14T21:34:50.014Z</time>
      </trkpt>
      <trkpt lat="46.07509" lon="4.38435">
        <ele>615.2</ele>
        <time>2023-11-14T21:35:00.749Z</time>
      </trkpt>
      <trkpt lat="46.07501" lon="4.38372">
        <ele>614.78</ele>
        <time>2023-11-14T21:35:11.491Z</time>
      </trkpt>
      <trkpt lat="46.07494" lon="4.38361">
        <ele>614.91</ele>
        <time>2023-11-14T21:35:22.235Z</time>
      </trkpt>
      <trkpt lat="46.07487" lon="4.3836">
        <ele>615.61</ele>
        <time>2023-11-14T21:35:32.980Z</time>
      </trkpt>
      <trkpt lat="46.07493" lon="4.38341">
        <ele>617.21</ele>
        <time>2023-11-14T21:35:43.727Z</time>
      </trkpt>
      <trkpt lat="46.07506" lon="4.38265">
        <ele>619.38</ele>
        <time>2023-11-14T21:35:54.483Z</time>
      </trkpt>
      <trkpt lat="46.0753" lon="4.38199">
        <ele>622.33</ele>
        <time>2023-11-14T21:36:05.247Z</time>
      </trkpt>
      <trkpt lat="46.0756" lon="4.38144">
        <ele>625.86</ele>
        <time>2023-11-14T21:36:16.019Z</time>
      </trkpt>
      <trkpt lat="46.07666" lon="4.38024">
        <ele>629.93</ele>
        <time>2023-11-14T21:36:26.813Z</time>
      </trkpt>
      <trkpt lat="46.07679" lon="4.37998">
        <ele>632.42</ele>
        <time>2023-11-14T21:36:37.610Z</time>
      </trkpt>
      <trkpt lat="46.07683" lon="4.37976">
        <ele>634.45</ele>
        <time>2023-11-14T21:36:48.410Z</time>
      </trkpt>
      <trkpt lat="46.07683" lon="4.37955">
        <ele>642.85</ele>
        <time>2023-11-14T21:36:59.212Z</time>
      </trkpt>
      <trkpt lat="46.07682" lon="4.37936">
        <ele>643.5</ele>
        <time>2023-11-14T21:37:10.016Z</time>
      </trkpt>
      <trkpt lat="46.07678" lon="4.37916">
        <ele>644.35</ele>
        <time>2023-11-14T21:37:20.823Z</time>
      </trkpt>
      <trkpt lat="46.07674" lon="4.37906">
        <ele>645.17</ele>
        <time>2023-11-14T21:37:31.631Z</time>
      </trkpt>
      <trkpt lat="46.07657" lon="4.37889">
        <ele>645.73</ele>
        <time>2023-11-14T21:37:42.442Z</time>
      </trkpt>
      <trkpt lat="46.07637" lon="4.37886">
        <ele>646.37</ele>
        <time>2023-11-14T21:37:53.256Z</time>
      </trkpt>
      <trkpt lat="46.07613" lon="4.37887">
        <ele>647.18</ele>
        <time>2023-11-14T21:38:04.074Z</time>
      </trkpt>
      <trkpt lat="46.0758" lon="4.3788">
        <ele>648.57</ele>
        <time>2023-11-14T21:38:14.897Z</time>
      </trkpt>
      <trkpt lat="46.07554" lon="4.37859">
        <ele>650.85</ele>
        <time>2023-11-14T21:38:25.725Z</time>
      </trkpt>
      <trkpt lat="46.07554" lon="4.37859">
        <ele>653.21</ele>
        <time>2023-11-14T21:38:36.553Z</time>
      </trkpt>
      <trkpt lat="46.07517" lon="4.37822">
        <ele>657.06</ele>
        <time>2023-11-14T21:38:47.388Z</time>
      </trkpt>
      <trkpt lat="46.07448" lon="4.37751">
        <ele>660.85</ele>
        <time>2023-11-14T21:38:58.237Z</time>
      </trkpt>
      <trkpt lat="46.07425" lon="4.37698">
        <ele>664.68</ele>
        <time>2023-11-14T21:39:09.093Z</time>
      </trkpt>
      <trkpt lat="46.07413" lon="4.37596">
        <ele>668.75</ele>
        <time>2023-11-14T21:39:19.961Z</time>
      </trkpt>
      <trkpt lat="46.07418" lon="4.37556">
        <ele>672.12</ele>
        <time>2023-11-14T21:39:30.833Z</time>
      </trkpt>
      <trkpt lat="46.07432" lon="4.37494">
        <ele>675.64</ele>
        <time>2023-11-14T21:39:41.712Z</time>
      </trkpt>
      <trkpt lat="46.07432" lon="4.37421">
        <ele>677.62</ele>
        <time>2023-11-14T21:39:52.599Z</time>
      </trkpt>
      <trkpt lat="46.07439" lon="4.37364">
        <ele>679.53</ele>
        <time>2023-11-14T21:40:03.493Z</time>
      </trkpt>
      <trkpt lat="46.07457" lon="4.37293">
        <ele>681.11</ele>
        <time>2023-11-14T21:40:14.395Z</time>
      </trkpt>
      <trkpt lat="46.07453" lon="4.37255">
        <ele>682.58</ele>
        <time>2023-11-14T21:40:25.302Z</time>
      </trkpt>
      <trkpt lat="46.07425" lon="4.37243">
        <ele>682.67</ele>
        <time>2023-11-14T21:40:36.213Z</time>
      </trkpt>
      <trkpt lat="46.0738" lon="4.37238">
        <ele>682.45</ele>
        <time>2023-11-14T21:40:47.132Z</time>
      </trkpt>
      <trkpt lat="46.07342" lon="4.37216">
        <ele>683.04</ele>
        <time>2023-11-14T21:40:58.057Z</time>
      </trkpt>
      <trkpt lat="46.07303" lon="4.37168">
        <ele>683.05</ele>
        <time>2023-11-14T21:41:08.990Z</time>
      </trkpt>
      <trkpt lat="46.07272" lon="4.37113">
        <ele>682.64</ele>
        <time>2023-11-14T21:41:19.931Z</time>
      </trkpt>
      <trkpt lat="46.0725" lon="4.37061">
        <ele>681.88</ele>
        <time>2023-11-14T21:41:30.879Z</time>
      </trkpt>
      <trkpt lat="46.07243" lon="4.37019">
        <ele>681.46</ele>
        <time>2023-11-14T21:41:41.832Z</time>
      </trkpt>
      <trkpt lat="46.07228" lon="4.36994">
        <ele>680.69</ele>
        <time>2023-11-14T21:41:52.788Z</time>
      </trkpt>
      <trkpt lat="46.07207" lon="4.36984">
        <ele>679.82</ele>
        <time>2023-11-14T21:42:03.748Z</time>
      </trkpt>
      <trkpt lat="46.07169" lon="4.36975">
        <ele>679.19</ele>
        <time>2023-11-14T21:42:14.714Z</time>
      </trkpt>
      <trkpt lat="46.07139" lon="4.36949">
        <ele>679.08</ele>
        <time>2023-11-14T21:42:25.686Z</time>
      </trkpt>
      <trkpt lat="46.0711" lon="4.36931">
        <ele>678.77</ele>
        <time>2023-11-14T21:42:36.663Z</time>
      </trkpt>
      <trkpt lat="46.0709" lon="4.36912">
        <ele>678.14</ele>
        <time>2023-11-14T21:42:47.644Z</time>
      </trkpt>
      <trkpt lat="46.07085" lon="4.36904">
        <ele>677.33</ele>
        <time>2023-11-14T21:42:58.626Z</time>
      </trkpt>
      <trkpt lat="46.07077" lon="4.36891">
        <ele>676.32</ele>
        <time>2023-11-14T21:43:09.610Z</time>
      </trkpt>
      <trkpt lat="46.07073" lon="4.36873">
        <ele>675.07</ele>
        <time>2023-11-14T21:43:20.596Z</time>
      </trkpt>
      <trkpt lat="46.07072" lon="4.36861">
        <ele>673.6</ele>
        <time>2023-11-14T21:43:31.583Z</time>
      </trkpt>
      <trkpt lat="46.07075" lon="4.36847">
        <ele>671.81</ele>
        <time>2023-11-14T21:43:42.572Z</time>
      </trkpt>
      <trkpt lat="46.07082" lon="4.36836">
        <ele>669.73</ele>
        <time>2023-11-14T21:43:53.563Z</time>
      </trkpt>
      <trkpt lat="46.07224" lon="4.36712">
        <ele>666.64</ele>
        <time>2023-11-14T21:44:04.580Z</time>
      </trkpt>
      <trkpt lat="46.07285" lon="4.36647">
        <ele>664.97</ele>
        <time>2023-11-14T21:44:15.609Z</time>
      </trkpt>
      <trkpt lat="46.07346" lon="4.36591">
        <ele>662.66</ele>
        <time>2023-11-14T21:44:26.650Z</time>
      </trkpt>
      <trkpt lat="46.07411" lon="4.3654">
        <ele>655.74</ele>
        <time>2023-11-14T21:44:37.703Z</time>
      </trkpt>
      <trkpt lat="46.07445" lon="4.36513">
        <ele>654.78</ele>
        <time>2023-11-14T21:44:48.762Z</time>
      </trkpt>
      <trkpt lat="46.07482" lon="4.36482">
        <ele>654.36</ele>
        <time>2023-11-14T21:44:59.828Z</time>
      </trkpt>
      <trkpt lat="46.07492" lon="4.36469">
        <ele>653.34</ele>
        <time>2023-11-14T21:45:10.896Z</time>
      </trkpt>
      <trkpt lat="46.07497" lon="4.36449">
        <ele>651.6</ele>
        <time>2023-11-14T21:45:21.966Z</time>
      </trkpt>
      <trkpt lat="46.07494" lon="4.3643">
        <ele>650.11</ele>
        <time>2023-11-14T21:45:33.038Z</time>
      </trkpt>
      <trkpt lat="46.07494" lon="4.3643">
        <ele>648.93</ele>
        <time>2023-11-14T21:45:44.110Z</time>
      </trkpt>
      <trkpt lat="46.07486" lon="4.36421">
        <ele>647.8</ele>
        <time>2023-11-14T21:45:55.184Z</time>
      </trkpt>
      <trkpt lat="46.07475" lon="4.36417">
        <ele>646.83</ele>
        <time>2023-11-14T21:46:06.260Z</time>
      </trkpt>
      <trkpt lat="46.07443" lon="4.36414">
        <ele>645.88</ele>
        <time>2023-11-14T21:46:17.341Z</time>
      </trkpt>
      <trkpt lat="46.07397" lon="4.36375">
        <ele>645.09</ele>
        <time>2023-11-14T21:46:28.431Z</time>
      </trkpt>
      <trkpt lat="46.07362" lon="4.36336">
        <ele>644.29</ele>
        <time>2023-11-14T21:46:39.528Z</time>
      </trkpt>
      <trkpt lat="46.07348" lon="4.36312">
        <ele>643.64</ele>
        <time>2023-11-14T21:46:50.628Z</time>
      </trkpt>
      <trkpt lat="46.07345" lon="4.36282">
        <ele>643.4</ele>
        <time>2023-11-14T21:47:01.732Z</time>
      </trkpt>
      <trkpt lat="46.07348" lon="4.36197">
        <ele>643.96</ele>
        <time>2023-11-14T21:47:12.845Z</time>
      </trkpt>
      <trkpt lat="46.07339" lon="4.36171">
        <ele>644.23</ele>
        <time>2023-11-14T21:47:23.961Z</time>
      </trkpt>
      <trkpt lat="46.07325" lon="4.36166">
        <ele>644.54</ele>
        <time>2023-11-14T21:47:35.080Z</time>
      </trkpt>
      <trkpt lat="46.07307" lon="4.36169">
        <ele>645.13</ele>
        <time>2023-11-14T21:47:46.202Z</time>
      </trkpt>
      <trkpt lat="46.07292" lon="4.36176">
        <ele>645.86</ele>
        <time>2023-11-14T21:47:57.326Z</time>
      </trkpt>
      <trkpt lat="46.07225" lon="4.36243">
        <ele>646.84</ele>
        <time>2023-11-14T21:48:08.463Z</time>
      </trkpt>
      <trkpt lat="46.0721" lon="4.36251">
        <ele>648.3</ele>
        <time>2023-11-14T21:48:19.603Z</time>
      </trkpt>
      <trkpt lat="46.07186" lon="4.36252">
        <ele>650.21</ele>
        <time>2023-11-14T21:48:30.746Z</time>
      </trkpt>
      <trkpt lat="46.07073" lon="4.36211">
        <ele>653</ele>
        <time>2023-11-14T21:48:41.908Z</time>
      </trkpt>
      <trkpt lat="46.07041" lon="4.36187">
        <ele>655.3</ele>
        <time>2023-11-14T21:48:53.076Z</time>
      </trkpt>
      <trkpt lat="46.07021" lon="4.36148">
        <ele>657.81</ele>
        <time>2023-11-14T21:49:04.249Z</time>
      </trkpt>
      <trkpt lat="46.07" lon="4.36025">
        <ele>660.6</ele>
        <time>2023-11-14T21:49:15.436Z</time>
      </trkpt>
      <trkpt lat="46.06984" lon="4.35971">
        <ele>663.04</ele>
        <time>2023-11-14T21:49:26.630Z</time>
      </trkpt>
      <trkpt lat="46.0695" lon="4.35937">
        <ele>665.3</ele>
        <time>2023-11-14T21:49:37.830Z</time>
      </trkpt>
      <trkpt lat="46.06908" lon="4.35907">
        <ele>667.25</ele>
        <time>2023-11-14T21:49:49.038Z</time>
      </trkpt>
      <trkpt lat="46.06824" lon="4.35804">
        <ele>669.08</ele>
        <time>2023-11-14T21:50:00.264Z</time>
      </trkpt>
      <trkpt lat="46.0674" lon="4.35698">
        <ele>669.41</ele>
        <time>2023-11-14T21:50:11.508Z</time>
      </trkpt>
      <trkpt lat="46.06708" lon="4.35609">
        <ele>670.14</ele>
        <time>2023-11-14T21:50:22.763Z</time>
      </trkpt>
      <trkpt lat="46.06669" lon="4.3549">
        <ele>670.97</ele>
        <time>2023-11-14T21:50:34.032Z</time>
      </trkpt>
      <trkpt lat="46.06633" lon="4.35455">
        <ele>672.04</ele>
        <time>2023-11-14T21:50:45.309Z</time>
      </trkpt>
      <trkpt lat="46.06545" lon="4.35382">
        <ele>674.18</ele>
        <time>2023-11-14T21:50:56.602Z</time>
      </trkpt>
      <trkpt lat="46.06517" lon="4.35337">
        <ele>674.91</ele>
        <time>2023-11-14T21:51:07.901Z</time>
      </trkpt>
      <trkpt lat="46.06501" lon="4.35289">
        <ele>675.12</ele>
        <time>2023-11-14T21:51:19.206Z</time>
      </trkpt>
      <trkpt lat="46.06489" lon="4.35272">
        <ele>674.47</ele>
        <time>2023-11-14T21:51:30.514Z</time>
      </trkpt>
      <trkpt lat="46.0646" lon="4.35258">
        <ele>673.41</ele>
        <time>2023-11-14T21:51:41.827Z</time>
      </trkpt>
      <trkpt lat="46.06358" lon="4.35243">
        <ele>672.85</ele>
        <time>2023-11-14T21:51:53.156Z</time>
      </trkpt>
      <trkpt lat="46.06325" lon="4.35234">
        <ele>666.86</ele>
        <time>2023-11-14T21:52:04.491Z</time>
      </trkpt>
      <trkpt lat="46.0632" lon="4.35232">
        <ele>665.62</ele>
        <time>2023-11-14T21:52:15.827Z</time>
      </trkpt>
      <trkpt lat="46.0627" lon="4.35206">
        <ele>664.33</ele>
        <time>2023-11-14T21:52:27.171Z</time>
      </trkpt>
      <trkpt lat="46.06238" lon="4.35167">
        <ele>661.9</ele>
        <time>2023-11-14T21:52:38.522Z</time>
      </trkpt>
      <trkpt lat="46.06238" lon="4.35167">
        <ele>659.84</ele>
        <time>2023-11-14T21:52:49.873Z</time>
      </trkpt>
      <trkpt lat="46.06085" lon="4.34971">
        <ele>655.22</ele>
        <time>2023-11-14T21:53:01.257Z</time>
      </trkpt>
      <trkpt lat="46.06046" lon="4.3492">
        <ele>652.72</ele>
        <time>2023-11-14T21:53:12.649Z</time>
      </trkpt>
      <trkpt lat="46.05933" lon="4.34782">
        <ele>651.15</ele>
        <time>2023-11-14T21:53:24.065Z</time>
      </trkpt>
      <trkpt lat="46.05933" lon="4.34782">
        <ele>649.76</ele>
        <time>2023-11-14T21:53:35.481Z</time>
      </trkpt>
      <trkpt lat="46.05908" lon="4.34746">
        <ele>648.49</ele>
        <time>2023-11-14T21:53:46.902Z</time>
      </trkpt>
      <trkpt lat="46.05897" lon="4.34719">
        <ele>647.56</ele>
        <time>2023-11-14T21:53:58.327Z</time>
      </trkpt>
      <trkpt lat="46.05898" lon="4.34655">
        <ele>646.53</ele>
        <time>2023-11-14T21:54:09.759Z</time>
      </trkpt>
      <trkpt lat="46.05894" lon="4.34608">
        <ele>645.4</ele>
        <time>2023-11-14T21:54:21.196Z</time>
      </trkpt>
      <trkpt lat="46.05885" lon="4.34559">
        <ele>644.17</ele>
        <time>2023-11-14T21:54:32.639Z</time>
      </trkpt>
      <trkpt lat="46.0587" lon="4.34508">
        <ele>643.31</ele>
        <time>2023-11-14T21:54:44.088Z</time>
      </trkpt>
      <trkpt lat="46.05857" lon="4.34479">
        <ele>642.48</ele>
        <time>2023-11-14T21:54:55.541Z</time>
      </trkpt>
      <trkpt lat="46.05839" lon="4.34464">
        <ele>641.62</ele>
        <time>2023-11-14T21:55:06.997Z</time>
      </trkpt>
      <trkpt lat="46.05817" lon="4.34464">
        <ele>640.68</ele>
        <time>2023-11-14T21:55:18.457Z</time>
      </trkpt>
      <trkpt lat="46.05803" lon="4.3447">
        <ele>641.63</ele>
        <time>2023-11-14T21:55:29.919Z</time>
      </trkpt>
      <trkpt lat="46.05755" lon="4.3449">
        <ele>642.75</ele>
        <time>2023-11-14T21:55:41.389Z</time>
      </trkpt>
      <trkpt lat="46.05732" lon="4.34507">
        <ele>644.07</ele>
        <time>2023-11-14T21:55:52.863Z</time>
      </trkpt>
      <trkpt lat="46.0571" lon="4.34511">
        <ele>644.55</ele>
        <time>2023-11-14T21:56:04.341Z</time>
      </trkpt>
      <trkpt lat="46.05698" lon="4.34521">
        <ele>644.94</ele>
        <time>2023-11-14T21:56:15.821Z</time>
      </trkpt>
      <trkpt lat="46.05662" lon="4.34528">
        <ele>644.52</ele>
        <time>2023-11-14T21:56:27.307Z</time>
      </trkpt>
      <trkpt lat="46.05639" lon="4.34535">
        <ele>644.08</ele>
        <time>2023-11-14T21:56:38.797Z</time>
      </trkpt>
      <trkpt lat="46.05624" lon="4.34547">
        <ele>643.76</ele>
        <time>2023-11-14T21:56:50.289Z</time>
      </trkpt>
      <trkpt lat="46.05611" lon="4.34572">
        <ele>643.51</ele>
        <time>2023-11-14T21:57:01.785Z</time>
      </trkpt>
      <trkpt lat="46.05586" lon="4.34626">
        <ele>643.17</ele>
        <time>2023-11-14T21:57:13.288Z</time>
      </trkpt>
      <trkpt lat="46.05574" lon="4.34641">
        <ele>642.24</ele>
        <time>2023-11-14T21:57:24.794Z</time>
      </trkpt>
      <trkpt lat="46.05564" lon="4.34653">
        <ele>641.05</ele>
        <time>2023-11-14T21:57:36.302Z</time>
      </trkpt>
      <trkpt lat="46.05549" lon="4.34666">
        <ele>639.28</ele>
        <time>2023-11-14T21:57:47.812Z</time>
      </trkpt>
      <trkpt lat="46.05483" lon="4.34677">
        <ele>637.29</ele>
        <time>2023-11-14T21:57:59.333Z</time>
      </trkpt>
      <trkpt lat="46.05426" lon="4.34675">
        <ele>635.87</ele>
        <time>2023-11-14T21:58:10.863Z</time>
      </trkpt>
      <trkpt lat="46.05415" lon="4.34669">
        <ele>633.93</ele>
        <time>2023-11-14T21:58:22.395Z</time>
      </trkpt>
      <trkpt lat="46.05403" lon="4.34663">
        <ele>633.02</ele>
        <time>2023-11-14T21:58:33.929Z</time>
      </trkpt>
      <trkpt lat="46.05368" lon="4.34632">
        <ele>631.74</ele>
        <time>2023-11-14T21:58:45.470Z</time>
      </trkpt>
      <trkpt lat="46.0532" lon="4.34626">
        <ele>629.99</ele>
        <time>2023-11-14T21:58:57.019Z</time>
      </trkpt>
      <trkpt lat="46.05301" lon="4.34631">
        <ele>628.09</ele>
        <time>2023-11-14T21:59:08.570Z</time>
      </trkpt>
      <trkpt lat="46.05282" lon="4.34649">
        <ele>625.6</ele>
        <time>2023-11-14T21:59:20.125Z</time>
      </trkpt>
      <trkpt lat="46.05225" lon="4.34737">
        <ele>621.86</ele>
        <time>2023-11-14T21:59:31.694Z</time>
      </trkpt>
      <trkpt lat="46.05215" lon="4.34766">
        <ele>619.05</ele>
        <time>2023-11-14T21:59:43.266Z</time>
      </trkpt>
      <trkpt lat="46.05211" lon="4.34787">
        <ele>616.75</ele>
        <time>2023-11-14T21:59:54.841Z</time>
      </trkpt>
      <trkpt lat="46.05211" lon="4.34811">
        <ele>614.7</ele>
        <time>2023-11-14T22:00:06.418Z</time>
      </trkpt>
      <trkpt lat="46.05231" lon="4.34876">
        <ele>611.66</ele>
        <time>2023-11-14T22:00:18.003Z</time>
      </trkpt>
      <trkpt lat="46.05232" lon="4.34903">
        <ele>609.66</ele>
        <time>2023-11-14T22:00:29.591Z</time>
      </trkpt>
      <trkpt lat="46.05219" lon="4.3497">
        <ele>608.2</ele>
        <time>2023-11-14T22:00:41.187Z</time>
      </trkpt>
      <trkpt lat="46.05217" lon="4.34977">
        <ele>606.22</ele>
        <time>2023-11-14T22:00:52.784Z</time>
      </trkpt>
      <trkpt lat="46.05212" lon="4.35044">
        <ele>603.46</ele>
        <time>2023-11-14T22:01:04.388Z</time>
      </trkpt>
      <trkpt lat="46.05197" lon="4.35081">
        <ele>600.72</ele>
        <time>2023-11-14T22:01:15.997Z</time>
      </trkpt>
      <trkpt lat="46.05174" lon="4.35108">
        <ele>598.14</ele>
        <time>2023-11-14T22:01:27.611Z</time>
      </trkpt>
      <trkpt lat="46.05152" lon="4.35125">
        <ele>595.94</ele>
        <time>2023-11-14T22:01:39.229Z</time>
      </trkpt>
      <trkpt lat="46.05136" lon="4.35137">
        <ele>594.27</ele>
        <time>2023-11-14T22:01:50.850Z</time>
      </trkpt>
      <trkpt lat="46.05117" lon="4.35162">
        <ele>592.65</ele>
        <time>2023-11-14T22:02:02.475Z</time>
      </trkpt>
      <trkpt lat="46.05092" lon="4.35207">
        <ele>590.89</ele>
        <time>2023-11-14T22:02:14.106Z</time>
      </trkpt>
      <trkpt lat="46.05064" lon="4.3523">
        <ele>589.95</ele>
        <time>2023-11-14T22:02:25.742Z</time>
      </trkpt>
      <trkpt lat="46.05044" lon="4.3524">
        <ele>589.29</ele>
        <time>2023-11-14T22:02:37.382Z</time>
      </trkpt>
      <trkpt lat="46.05019" lon="4.35242">
        <ele>588.87</ele>
        <time>2023-11-14T22:02:49.026Z</time>
      </trkpt>
      <trkpt lat="46.05012" lon="4.35242">
        <ele>590.16</ele>
        <time>2023-11-14T22:03:00.671Z</time>
      </trkpt>
      <trkpt lat="46.04977" lon="4.35239">
        <ele>589.51</ele>
        <time>2023-11-14T22:03:12.322Z</time>
      </trkpt>
      <trkpt lat="46.0496" lon="4.3524">
        <ele>588.81</ele>
        <time>2023-11-14T22:03:23.975Z</time>
      </trkpt>
      <trkpt lat="46.04954" lon="4.35246">
        <ele>588.09</ele>
        <time>2023-11-14T22:03:35.630Z</time>
      </trkpt>
      <trkpt lat="46.04954" lon="4.35256">
        <ele>587.24</ele>
        <time>2023-11-14T22:03:47.286Z</time>
      </trkpt>
      <trkpt lat="46.04955" lon="4.35264">
        <ele>586.36</ele>
        <time>2023-11-14T22:03:58.942Z</time>
      </trkpt>
      <trkpt lat="46.04955" lon="4.35264">
        <ele>585.57</ele>
        <time>2023-11-14T22:04:10.598Z</time>
      </trkpt>
      <trkpt lat="46.04955" lon="4.35267">
        <ele>584.72</ele>
        <time>2023-11-14T22:04:22.255Z</time>
      </trkpt>
      <trkpt lat="46.04961" lon="4.35275">
        <ele>583.72</ele>
        <time>2023-11-14T22:04:33.913Z</time>
      </trkpt>
      <trkpt lat="46.04988" lon="4.35291">
        <ele>582.46</ele>
        <time>2023-11-14T22:04:45.576Z</time>
      </trkpt>
      <trkpt lat="46.0501" lon="4.3531">
        <ele>581.12</ele>
        <time>2023-11-14T22:04:57.243Z</time>
      </trkpt>
      <trkpt lat="46.05022" lon="4.35317">
        <ele>579.83</ele>
        <time>2023-11-14T22:05:08.912Z</time>
      </trkpt>
      <trkpt lat="46.05033" lon="4.35322">
        <ele>578.59</ele>
        <time>2023-11-14T22:05:20.583Z</time>
      </trkpt>
      <trkpt lat="46.05057" lon="4.35319">
        <ele>577.58</ele>
        <time>2023-11-14T22:05:32.258Z</time>
      </trkpt>
      <trkpt lat="46.05131" lon="4.35299">
        <ele>576.29</ele>
        <time>2023-11-14T22:05:43.945Z</time>
      </trkpt>
      <trkpt lat="46.05151" lon="4.35283">
        <ele>575.51</ele>
        <time>2023-11-14T22:05:55.635Z</time>
      </trkpt>
      <trkpt lat="46.05159" lon="4.35282">
        <ele>574.63</ele>
        <time>2023-11-14T22:06:07.327Z</time>
      </trkpt>
      <trkpt lat="46.05166" lon="4.35287">
        <ele>573.64</ele>
        <time>2023-11-14T22:06:19.020Z</time>
      </trkpt>
      <trkpt lat="46.05171" lon="4.35296">
        <ele>572.45</ele>
        <time>2023-11-14T22:06:30.714Z</time>
      </trkpt>
      <trkpt lat="46.05182" lon="4.35352">
        <ele>570.65</ele>
        <time>2023-11-14T22:06:42.415Z</time>
      </trkpt>
      <trkpt lat="46.05217" lon="4.354">
        <ele>569.13</ele>
        <time>2023-11-14T22:06:54.123Z</time>
      </trkpt>
      <trkpt lat="46.05227" lon="4.35433">
        <ele>567.24</ele>
        <time>2023-11-14T22:07:05.835Z</time>
      </trkpt>
      <trkpt lat="46.05233" lon="4.3549">
        <ele>565.02</ele>
        <time>2023-11-14T22:07:17.554Z</time>
      </trkpt>
      <trkpt lat="46.0523" lon="4.35506">
        <ele>563.1</ele>
        <time>2023-11-14T22:07:29.275Z</time>
      </trkpt>
      <trkpt lat="46.05224" lon="4.35514">
        <ele>561.08</ele>
        <time>2023-11-14T22:07:40.997Z</time>
      </trkpt>
      <trkpt lat="46.05213" lon="4.35529">
        <ele>558.75</ele>
        <time>2023-11-14T22:07:52.721Z</time>
      </trkpt>
      <trkpt lat="46.05153" lon="4.35552">
        <ele>556.08</ele>
        <time>2023-11-14T22:08:04.455Z</time>
      </trkpt>
      <trkpt lat="46.05105" lon="4.35571">
        <ele>553.54</ele>
        <time>2023-11-14T22:08:16.197Z</time>
      </trkpt>
      <trkpt lat="46.0502" lon="4.35548">
        <ele>550.79</ele>
        <time>2023-11-14T22:08:27.953Z</time>
      </trkpt>
      <trkpt lat="46.0502" lon="4.35548">
        <ele>549.21</ele>
        <time>2023-11-14T22:08:39.709Z</time>
      </trkpt>
      <trkpt lat="46.04942" lon="4.35576">
        <ele>547.58</ele>
        <time>2023-11-14T22:08:51.478Z</time>
      </trkpt>
      <trkpt lat="46.0486" lon="4.35577">
        <ele>544.31</ele>
        <time>2023-11-14T22:09:03.260Z</time>
      </trkpt>
      <trkpt lat="46.04858" lon="4.35577">
        <ele>543.23</ele>
        <time>2023-11-14T22:09:15.042Z</time>
      </trkpt>
      <trkpt lat="46.0481" lon="4.35568">
        <ele>541.23</ele>
        <time>2023-11-14T22:09:26.832Z</time>
      </trkpt>
      <trkpt lat="46.04793" lon="4.35568">
        <ele>539.32</ele>
        <time>2023-11-14T22:09:38.625Z</time>
      </trkpt>
      <trkpt lat="46.04753" lon="4.35574">
        <ele>537.34</ele>
        <time>2023-11-14T22:09:50.424Z</time>
      </trkpt>
      <trkpt lat="46.04708" lon="4.35578">
        <ele>535.61</ele>
        <time>2023-11-14T22:10:02.231Z</time>
      </trkpt>
      <trkpt lat="46.04676" lon="4.35577">
        <ele>533.59</ele>
        <time>2023-11-14T22:10:14.043Z</time>
      </trkpt>
      <trkpt lat="46.04649" lon="4.35573">
        <ele>531.84</ele>
        <time>2023-11-14T22:10:25.859Z</time>
      </trkpt>
      <trkpt lat="46.04629" lon="4.35562">
        <ele>530.4</ele>
        <time>2023-11-14T22:10:37.679Z</time>
      </trkpt>
      <trkpt lat="46.04601" lon="4.35539">
        <ele>528.93</ele>
        <time>2023-11-14T22:10:49.504Z</time>
      </trkpt>
      <trkpt lat="46.04529" lon="4.3551">
        <ele>527.06</ele>
        <time>2023-11-14T22:11:01.341Z</time>
      </trkpt>
      <trkpt lat="46.04529" lon="4.3551">
        <ele>525.86</ele>
        <time>2023-11-14T22:11:13.178Z</time>
      </trkpt>
      <trkpt lat="46.04497" lon="4.35476">
        <ele>524.58</ele>
        <time>2023-11-14T22:11:25.021Z</time>
      </trkpt>
      <trkpt lat="46.04453" lon="4.35462">
        <ele>523.5</ele>
        <time>2023-11-14T22:11:36.871Z</time>
      </trkpt>
      <trkpt lat="46.04412" lon="4.35463">
        <ele>522.68</ele>
        <time>2023-11-14T22:11:48.728Z</time>
      </trkpt>
      <trkpt lat="46.04401" lon="4.35466">
        <ele>522.08</ele>
        <time>2023-11-14T22:12:00.587Z</time>
      </trkpt>
      <trkpt lat="46.0437" lon="4.35477">
        <ele>521.7</ele>
        <time>2023-11-14T22:12:12.451Z</time>
      </trkpt>
      <trkpt lat="46.0429" lon="4.35478">
        <ele>521.18</ele>
        <time>2023-11-14T22:12:24.328Z</time>
      </trkpt>
      <trkpt lat="46.04232" lon="4.35497">
        <ele>520.97</ele>
        <time>2023-11-14T22:12:36.214Z</time>
      </trkpt>
      <trkpt lat="46.04202" lon="4.35494">
        <ele>520.79</ele>
        <time>2023-11-14T22:12:48.105Z</time>
      </trkpt>
      <trkpt lat="46.04193" lon="4.35493">
        <ele>520.65</ele>
        <time>2023-11-14T22:12:59.997Z</time>
      </trkpt>
      <trkpt lat="46.04193" lon="4.35493">
        <ele>520.58</ele>
        <time>2023-11-14T22:13:11.889Z</time>
      </trkpt>
      <trkpt lat="46.04163" lon="4.35493">
        <ele>520.53</ele>
        <time>2023-11-14T22:13:23.786Z</time>
      </trkpt>
      <trkpt lat="46.04106" lon="4.35505">
        <ele>520.52</ele>
        <time>2023-11-14T22:13:35.692Z</time>
      </trkpt>
      <trkpt lat="46.04094" lon="4.35504">
        <ele>520.56</ele>
        <time>2023-11-14T22:13:47.600Z</time>
      </trkpt>
      <trkpt lat="46.04079" lon="4.35501">
        <ele>520.68</ele>
        <time>2023-11-14T22:13:59.511Z</time>
      </trkpt>
      <trkpt lat="46.04048" lon="4.35489">
        <ele>520.73</ele>
        <time>2023-11-14T22:14:11.427Z</time>
      </trkpt>
      <trkpt lat="46.04034" lon="4.3548">
        <ele>520.72</ele>
        <time>2023-11-14T22:14:23.345Z</time>
      </trkpt>
      <trkpt lat="46.03989" lon="4.35443">
        <ele>520.74</ele>
        <time>2023-11-14T22:14:35.271Z</time>
      </trkpt>
      <trkpt lat="46.03981" lon="4.3544">
        <ele>520.8</ele>
        <time>2023-11-14T22:14:47.199Z</time>
      </trkpt>
      <trkpt lat="46.03969" lon="4.35438">
        <ele>520.78</ele>
        <time>2023-11-14T22:14:59.129Z</time>
      </trkpt>
      <trkpt lat="46.0395" lon="4.3544">
        <ele>519.26</ele>
        <time>2023-11-14T22:15:11.062Z</time>
      </trkpt>
      <trkpt lat="46.03914" lon="4.35443">
        <ele>518.1</ele>
        <time>2023-11-14T22:15:23.001Z</time>
      </trkpt>
      <trkpt lat="46.03858" lon="4.35431">
        <ele>517.28</ele>
        <time>2023-11-14T22:15:34.949Z</time>
      </trkpt>
      <trkpt lat="46.03848" lon="4.35434">
        <ele>516.46</ele>
        <time>2023-11-14T22:15:46.898Z</time>
      </trkpt>
      <trkpt lat="46.03838" lon="4.35446">
        <ele>515.72</ele>
        <time>2023-11-14T22:15:58.849Z</time>
      </trkpt>
      <trkpt lat="46.03817" lon="4.355">
        <ele>514.53</ele>
        <time>2023-11-14T22:16:10.807Z</time>
      </trkpt>
      <trkpt lat="46.03808" lon="4.3551">
        <ele>513.69</ele>
        <time>2023-11-14T22:16:22.767Z</time>
      </trkpt>
      <trkpt lat="46.03793" lon="4.35518">
        <ele>513.06</ele>
        <time>2023-11-14T22:16:34.730Z</time>
      </trkpt>
      <trkpt lat="46.03761" lon="4.35527">
        <ele>512.34</ele>
        <time>2023-11-14T22:16:46.698Z</time>
      </trkpt>
      <trkpt lat="46.03747" lon="4.35535">
        <ele>511.65</ele>
        <time>2023-11-14T22:16:58.668Z</time>
      </trkpt>
      <trkpt lat="46.03747" lon="4.35535">
        <ele>511.05</ele>
        <time>2023-11-14T22:17:10.638Z</time>
      </trkpt>
      <trkpt lat="46.03716" lon="4.35563">
        <ele>510.31</ele>
        <time>2023-11-14T22:17:22.614Z</time>
      </trkpt>
      <trkpt lat="46.03703" lon="4.35573">
        <ele>509.69</ele>
        <time>2023-11-14T22:17:34.592Z</time>
      </trkpt>
      <trkpt lat="46.0368" lon="4.35579">
        <ele>508.96</ele>
        <time>2023-11-14T22:17:46.574Z</time>
      </trkpt>
      <trkpt lat="46.0366" lon="4.3558">
        <ele>508.2</ele>
        <time>2023-11-14T22:17:58.559Z</time>
      </trkpt>
      <trkpt lat="46.03575" lon="4.35544">
        <ele>507.91</ele>
        <time>2023-11-14T22:18:10.559Z</time>
      </trkpt>
      <trkpt lat="46.03561" lon="4.3554">
        <ele>507.28</ele>
        <time>2023-11-14T22:18:22.561Z</time>
      </trkpt>
      <trkpt lat="46.03544" lon="4.35539">
        <ele>506.49</ele>
        <time>2023-11-14T22:18:34.566Z</time>
      </trkpt>
      <trkpt lat="46.03499" lon="4.35544">
        <ele>505.29</ele>
        <time>2023-11-14T22:18:46.578Z</time>
      </trkpt>
      <trkpt lat="46.03437" lon="4.35561">
        <ele>503.98</ele>
        <time>2023-11-14T22:18:58.600Z</time>
      </trkpt>
      <trkpt lat="46.03426" lon="4.35562">
        <ele>503.12</ele>
        <time>2023-11-14T22:19:10.624Z</time>
      </trkpt>
      <trkpt lat="46.03416" lon="4.35561">
        <ele>502.39</ele>
        <time>2023-11-14T22:19:22.649Z</time>
      </trkpt>
      <trkpt lat="46.03409" lon="4.35554">
        <ele>501.83</ele>
        <time>2023-11-14T22:19:34.676Z</time>
      </trkpt>
      <trkpt lat="46.03401" lon="4.35546">
        <ele>501.42</ele>
        <time>2023-11-14T22:19:46.704Z</time>
      </trkpt>
      <trkpt lat="46.03392" lon="4.35529">
        <ele>501.18</ele>
        <time>2023-11-14T22:19:58.735Z</time>
      </trkpt>
      <trkpt lat="46.03378" lon="4.355">
        <ele>501.04</ele>
        <time>2023-11-14T22:20:10.770Z</time>
      </trkpt>
      <trkpt lat="46.03369" lon="4.3549">
        <ele>500.92</ele>
        <time>2023-11-14T22:20:22.806Z</time>
      </trkpt>
      <trkpt lat="46.03361" lon="4.35486">
        <ele>500.84</ele>
        <time>2023-11-14T22:20:34.844Z</time>
      </trkpt>
      <trkpt lat="46.03351" lon="4.35484">
        <ele>500.8</ele>
        <time>2023-11-14T22:20:46.883Z</time>
      </trkpt>
      <trkpt lat="46.03351" lon="4.35484">
        <ele>500.81</ele>
        <time>2023-11-14T22:20:58.922Z</time>
      </trkpt>
      <trkpt lat="46.03342" lon="4.35486">
        <ele>500.8</ele>
        <time>2023-11-14T22:21:10.963Z</time>
      </trkpt>
      <trkpt lat="46.03302" lon="4.35505">
        <ele>500.62</ele>
        <time>2023-11-14T22:21:23.011Z</time>
      </trkpt>
      <trkpt lat="46.03293" lon="4.35507">
        <ele>500.61</ele>
        <time>2023-11-14T22:21:35.060Z</time>
      </trkpt>
      <trkpt lat="46.03275" lon="4.35504">
        <ele>500.72</ele>
        <time>2023-11-14T22:21:47.112Z</time>
      </trkpt>
      <trkpt lat="46.03252" lon="4.3549">
        <ele>500.84</ele>
        <time>2023-11-14T22:21:59.168Z</time>
      </trkpt>
      <trkpt lat="46.03239" lon="4.35477">
        <ele>500.89</ele>
        <time>2023-11-14T22:22:11.226Z</time>
      </trkpt>
      <trkpt lat="46.03214" lon="4.3545">
        <ele>500.93</ele>
        <time>2023-11-14T22:22:23.289Z</time>
      </trkpt>
      <trkpt lat="46.03187" lon="4.35416">
        <ele>500.8</ele>
        <time>2023-11-14T22:22:35.358Z</time>
      </trkpt>
      <trkpt lat="46.03164" lon="4.35397">
        <ele>500.49</ele>
        <time>2023-11-14T22:22:47.431Z</time>
      </trkpt>
      <trkpt lat="46.03133" lon="4.35388">
        <ele>500.17</ele>
        <time>2023-11-14T22:22:59.509Z</time>
      </trkpt>
      <trkpt lat="46.03113" lon="4.35386">
        <ele>499.86</ele>
        <time>2023-11-14T22:23:11.591Z</time>
      </trkpt>
      <trkpt lat="46.03069" lon="4.3539">
        <ele>499.7</ele>
        <time>2023-11-14T22:23:23.680Z</time>
      </trkpt>
      <trkpt lat="46.03045" lon="4.35384">
        <ele>499.14</ele>
        <time>2023-11-14T22:23:35.773Z</time>
      </trkpt>
      <trkpt lat="46.03032" lon="4.35372">
        <ele>498.3</ele>
        <time>2023-11-14T22:23:47.868Z</time>
      </trkpt>
      <trkpt lat="46.0302" lon="4.35357">
        <ele>497.33</ele>
        <time>2023-11-14T22:23:59.966Z</time>
      </trkpt>
      <trkpt lat="46.03007" lon="4.35332">
        <ele>496.31</ele>
        <time>2023-11-14T22:24:12.067Z</time>
      </trkpt>
      <trkpt lat="46.02993" lon="4.35302">
        <ele>495.24</ele>
        <time>2023-11-14T22:24:24.172Z</time>
      </trkpt>
      <trkpt lat="46.02976" lon="4.35278">
        <ele>494.19</ele>
        <time>2023-11-14T22:24:36.281Z</time>
      </trkpt>
      <trkpt lat="46.02943" lon="4.35241">
        <ele>492.99</ele>
        <time>2023-11-14T22:24:48.397Z</time>
      </trkpt>
      <trkpt lat="46.02928" lon="4.3523">
        <ele>492.01</ele>
        <time>2023-11-14T22:25:00.515Z</time>
      </trkpt>
      <trkpt lat="46.02913" lon="4.35223">
        <ele>491.18</ele>
        <time>2023-11-14T22:25:12.636Z</time>
      </trkpt>
      <trkpt lat="46.02843" lon="4.35227">
        <ele>490.55</ele>
        <time>2023-11-14T22:25:24.768Z</time>
      </trkpt>
      <trkpt lat="46.0283" lon="4.35231">
        <ele>489.75</ele>
        <time>2023-11-14T22:25:36.902Z</time>
      </trkpt>
      <trkpt lat="46.0282" lon="4.35237">
        <ele>488.99</ele>
        <time>2023-11-14T22:25:49.038Z</time>
      </trkpt>
      <trkpt lat="46.02806" lon="4.3525">
        <ele>488.28</ele>
        <time>2023-11-14T22:26:01.177Z</time>
      </trkpt>
      <trkpt lat="46.02746" lon="4.35313">
        <ele>487.65</ele>
        <time>2023-11-14T22:26:13.328Z</time>
      </trkpt>
      <trkpt lat="46.02744" lon="4.35316">
        <ele>487.09</ele>
        <time>2023-11-14T22:26:25.479Z</time>
      </trkpt>
      <trkpt lat="46.02738" lon="4.35355">
        <ele>486.49</ele>
        <time>2023-11-14T22:26:37.634Z</time>
      </trkpt>
      <trkpt lat="46.02737" lon="4.35381">
        <ele>486.27</ele>
        <time>2023-11-14T22:26:49.792Z</time>
      </trkpt>
      <trkpt lat="46.0273" lon="4.35398">
        <ele>485.98</ele>
        <time>2023-11-14T22:27:01.953Z</time>
      </trkpt>
      <trkpt lat="46.02719" lon="4.35411">
        <ele>485.73</ele>
        <time>2023-11-14T22:27:14.116Z</time>
      </trkpt>
      <trkpt lat="46.02702" lon="4.3542">
        <ele>485.55</ele>
        <time>2023-11-14T22:27:26.282Z</time>
      </trkpt>
      <trkpt lat="46.02684" lon="4.35423">
        <ele>485.43</ele>
        <time>2023-11-14T22:27:38.451Z</time>
      </trkpt>
      <trkpt lat="46.02669" lon="4.35419">
        <ele>485.18</ele>
        <time>2023-11-14T22:27:50.622Z</time>
      </trkpt>
      <trkpt lat="46.02654" lon="4.35409">
        <ele>485.01</ele>
        <time>2023-11-14T22:28:02.796Z</time>
      </trkpt>
      <trkpt lat="46.02603" lon="4.35373">
        <ele>485.3</ele>
        <time>2023-11-14T22:28:14.979Z</time>
      </trkpt>
      <trkpt lat="46.0258" lon="4.35364">
        <ele>485.49</ele>
        <time>2023-11-14T22:28:27.166Z</time>
      </trkpt>
      <trkpt lat="46.0258" lon="4.35364">
        <ele>485.67</ele>
        <time>2023-11-14T22:28:39.353Z</time>
      </trkpt>
      <trkpt lat="46.02546" lon="4.35359">
        <ele>485.86</ele>
        <time>2023-11-14T22:28:51.545Z</time>
      </trkpt>
      <trkpt lat="46.025" lon="4.35365">
        <ele>486.03</ele>
        <time>2023-11-14T22:29:03.745Z</time>
      </trkpt>
      <trkpt lat="46.02483" lon="4.35372">
        <ele>486.17</ele>
        <time>2023-11-14T22:29:15.947Z</time>
      </trkpt>
      <trkpt lat="46.02467" lon="4.35382">
        <ele>486.02</ele>
        <time>2023-11-14T22:29:28.152Z</time>
      </trkpt>
      <trkpt lat="46.02448" lon="4.35401">
        <ele>485.33</ele>
        <time>2023-11-14T22:29:40.361Z</time>
      </trkpt>
      <trkpt lat="46.02426" lon="4.35427">
        <ele>484.16</ele>
        <time>2023-11-14T22:29:52.574Z</time>
      </trkpt>
      <trkpt lat="46.02405" lon="4.35446">
        <ele>482.47</ele>
        <time>2023-11-14T22:30:04.791Z</time>
      </trkpt>
      <trkpt lat="46.02296" lon="4.35456">
        <ele>479.43</ele>
        <time>2023-11-14T22:30:17.026Z</time>
      </trkpt>
      <trkpt lat="46.02287" lon="4.35461">
        <ele>475.03</ele>
        <time>2023-11-14T22:30:29.262Z</time>
      </trkpt>
      <trkpt lat="46.02143" lon="4.35547">
        <ele>472.4</ele>
        <time>2023-11-14T22:30:41.523Z</time>
      </trkpt>
      <trkpt lat="46.02017" lon="4.35611">
        <ele>475.78</ele>
        <time>2023-11-14T22:30:53.806Z</time>
      </trkpt>
      <trkpt lat="46.01823" lon="4.35908">
        <ele>478.83</ele>
        <time>2023-11-14T22:31:06.134Z</time>
      </trkpt>
      <trkpt lat="46.01764" lon="4.35953">
        <ele>476.13</ele>
        <time>2023-11-14T22:31:18.473Z</time>
      </trkpt>
      <trkpt lat="46.0165" lon="4.36012">
        <ele>468.09</ele>
        <time>2023-11-14T22:31:30.831Z</time>
      </trkpt>
      <trkpt lat="46.01583" lon="4.36122">
        <ele>456.83</ele>
        <time>2023-11-14T22:31:43.206Z</time>
      </trkpt>
      <trkpt lat="46.01565" lon="4.36168">
        <ele>458.77</ele>
        <time>2023-11-14T22:31:55.586Z</time>
      </trkpt>
      <trkpt lat="46.01551" lon="4.36181">
        <ele>458.46</ele>
        <time>2023-11-14T22:32:07.969Z</time>
      </trkpt>
      <trkpt lat="46.01551" lon="4.36181">
        <ele>458.46</ele>
        <time>2023-11-14T22:32:20.352Z</time>
      </trkpt>
      <trkpt lat="46.01435" lon="4.36288">
        <ele>462.2</ele>
        <time>2023-11-14T22:32:32.757Z</time>
      </trkpt>
      <trkpt lat="46.01332" lon="4.36296">
        <ele>468.1</ele>
        <time>2023-11-14T22:32:45.179Z</time>
      </trkpt>
      <trkpt lat="46.01099" lon="4.3626">
        <ele>458.08</ele>
        <time>2023-11-14T22:32:57.638Z</time>
      </trkpt>
      <trkpt lat="46.01" lon="4.3626">
        <ele>452.5</ele>
        <time>2023-11-14T22:33:10.113Z</time>
      </trkpt>
      <trkpt lat="46.0096" lon="4.36252">
        <ele>450.36</ele>
        <time>2023-11-14T22:33:22.595Z</time>
      </trkpt>
      <trkpt lat="46.00846" lon="4.36227">
        <ele>448.45</ele>
        <time>2023-11-14T22:33:35.095Z</time>
      </trkpt>
      <trkpt lat="46.00846" lon="4.36227">
        <ele>447.43</ele>
        <time>2023-11-14T22:33:47.595Z</time>
      </trkpt>
      <trkpt lat="46.00795" lon="4.36216">
        <ele>447.15</ele>
        <time>2023-11-14T22:34:00.103Z</time>
      </trkpt>
      <trkpt lat="46.00776" lon="4.36207">
        <ele>446.89</ele>
        <time>2023-11-14T22:34:12.614Z</time>
      </trkpt>
      <trkpt lat="46.00735" lon="4.36177">
        <ele>446.62</ele>
        <time>2023-11-14T22:34:25.133Z</time>
      </trkpt>
      <trkpt lat="46.00725" lon="4.36176">
        <ele>446.14</ele>
        <time>2023-11-14T22:34:37.653Z</time>
      </trkpt>
      <trkpt lat="46.00711" lon="4.36135">
        <ele>444.95</ele>
        <time>2023-11-14T22:34:50.179Z</time>
      </trkpt>
      <trkpt lat="46.00677" lon="4.3607">
        <ele>443.38</ele>
        <time>2023-11-14T22:35:02.713Z</time>
      </trkpt>
      <trkpt lat="46.0067" lon="4.36048">
        <ele>442.01</ele>
        <time>2023-11-14T22:35:15.250Z</time>
      </trkpt>
      <trkpt lat="46.00654" lon="4.35998">
        <ele>440.77</ele>
        <time>2023-11-14T22:35:27.793Z</time>
      </trkpt>
      <trkpt lat="46.00645" lon="4.35976">
        <ele>439.89</ele>
        <time>2023-11-14T22:35:40.339Z</time>
      </trkpt>
      <trkpt lat="46.00635" lon="4.35957">
        <ele>439.21</ele>
        <time>2023-11-14T22:35:52.888Z</time>
      </trkpt>
      <trkpt lat="46.00626" lon="4.35942">
        <ele>438.61</ele>
        <time>2023-11-14T22:36:05.439Z</time>
      </trkpt>
      <trkpt lat="46.00613" lon="4.35927">
        <ele>438.05</ele>
        <time>2023-11-14T22:36:17.993Z</time>
      </trkpt>
      <trkpt lat="46.00538" lon="4.35861">
        <ele>437.14</ele>
        <time>2023-11-14T22:36:30.561Z</time>
      </trkpt>
      <trkpt lat="46.00504" lon="4.35824">
        <ele>435.42</ele>
        <time>2023-11-14T22:36:43.136Z</time>
      </trkpt>
      <trkpt lat="46.00503" lon="4.35824">
        <ele>434.22</ele>
        <time>2023-11-14T22:36:55.711Z</time>
      </trkpt>
      <trkpt lat="46.00478" lon="4.3579">
        <ele>432.34</ele>
        <time>2023-11-14T22:37:08.291Z</time>
      </trkpt>
      <trkpt lat="46.00466" lon="4.35771">
        <ele>430.84</ele>
        <time>2023-11-14T22:37:20.874Z</time>
      </trkpt>
      <trkpt lat="46.00454" lon="4.35745">
        <ele>429.45</ele>
        <time>2023-11-14T22:37:33.461Z</time>
      </trkpt>
      <trkpt lat="46.00446" lon="4.35718">
        <ele>428.35</ele>
        <time>2023-11-14T22:37:46.051Z</time>
      </trkpt>
      <trkpt lat="46.00436" lon="4.35695">
        <ele>427.51</ele>
        <time>2023-11-14T22:37:58.644Z</time>
      </trkpt>
      <trkpt lat="46.00424" lon="4.35681">
        <ele>426.88</ele>
        <time>2023-11-14T22:38:11.239Z</time>
      </trkpt>
      <trkpt lat="46.00426" lon="4.3567">
        <ele>426.42</ele>
        <time>2023-11-14T22:38:23.836Z</time>
      </trkpt>
      <trkpt lat="46.00424" lon="4.35664">
        <ele>426.1</ele>
        <time>2023-11-14T22:38:36.433Z</time>
      </trkpt>
      <trkpt lat="46.00419" lon="4.35661">
        <ele>425.9</ele>
        <time>2023-11-14T22:38:49.031Z</time>
      </trkpt>
      <trkpt lat="46.00413" lon="4.35663">
        <ele>425.8</ele>
        <time>2023-11-14T22:39:01.630Z</time>
      </trkpt>
      <trkpt lat="46.00411" lon="4.35666">
        <ele>425.81</ele>
        <time>2023-11-14T22:39:14.230Z</time>
      </trkpt>
      <trkpt lat="46.0041" lon="4.35673">
        <ele>425.9</ele>
        <time>2023-11-14T22:39:26.831Z</time>
      </trkpt>
      <trkpt lat="46.0041" lon="4.35677">
        <ele>426.08</ele>
        <time>2023-11-14T22:39:39.432Z</time>
      </trkpt>
      <trkpt lat="46.00358" lon="4.35687">
        <ele>426.36</ele>
        <time>2023-11-14T22:39:52.041Z</time>
      </trkpt>
      <trkpt lat="46.00358" lon="4.35687">
        <ele>426.64</ele>
        <time>2023-11-14T22:40:04.650Z</time>
      </trkpt>
      <trkpt lat="46.00343" lon="4.35689">
        <ele>426.97</ele>
        <time>2023-11-14T22:40:17.262Z</time>
      </trkpt>
      <trkpt lat="46.0033" lon="4.35692">
        <ele>427.34</ele>
        <time>2023-11-14T22:40:29.876Z</time>
      </trkpt>
      <trkpt lat="46.00322" lon="4.35691">
        <ele>427.59</ele>
        <time>2023-11-14T22:40:42.491Z</time>
      </trkpt>
      <trkpt lat="46.0031" lon="4.35685">
        <ele>427.71</ele>
        <time>2023-11-14T22:40:55.108Z</time>
      </trkpt>
      <trkpt lat="46.00303" lon="4.3568">
        <ele>427.68</ele>
        <time>2023-11-14T22:41:07.726Z</time>
      </trkpt>
      <trkpt lat="46.00293" lon="4.3567">
        <ele>427.48</ele>
        <time>2023-11-14T22:41:20.346Z</time>
      </trkpt>
      <trkpt lat="46.00229" lon="4.35584">
        <ele>427</ele>
        <time>2023-11-14T22:41:32.980Z</time>
      </trkpt>
      <trkpt lat="46.0021" lon="4.35567">
        <ele>426.5</ele>
        <time>2023-11-14T22:41:45.618Z</time>
      </trkpt>
      <trkpt lat="46.00157" lon="4.35533">
        <ele>425.9</ele>
        <time>2023-11-14T22:41:58.265Z</time>
      </trkpt>
      <trkpt lat="46.0011" lon="4.355">
        <ele>425.61</ele>
        <time>2023-11-14T22:42:10.921Z</time>
      </trkpt>
      <trkpt lat="46.00014" lon="4.35434">
        <ele>425.1</ele>
        <time>2023-11-14T22:42:23.594Z</time>
      </trkpt>
      <trkpt lat="45.99981" lon="4.35415">
        <ele>424.88</ele>
        <time>2023-11-14T22:42:36.272Z</time>
      </trkpt>
      <trkpt lat="45.99959" lon="4.35402">
        <ele>425.78</ele>
        <time>2023-11-14T22:42:48.954Z</time>
      </trkpt>
      <trkpt lat="45.99863" lon="4.35346">
        <ele>426.64</ele>
        <time>2023-11-14T22:43:01.653Z</time>
      </trkpt>
      <trkpt lat="45.9984" lon="4.35337">
        <ele>427.19</ele>
        <time>2023-11-14T22:43:14.356Z</time>
      </trkpt>
      <trkpt lat="45.99817" lon="4.35337">
        <ele>427.67</ele>
        <time>2023-11-14T22:43:27.062Z</time>
      </trkpt>
      <trkpt lat="45.99798" lon="4.35342">
        <ele>428.02</ele>
        <time>2023-11-14T22:43:39.771Z</time>
      </trkpt>
      <trkpt lat="45.99757" lon="4.35359">
        <ele>428.78</ele>
        <time>2023-11-14T22:43:52.487Z</time>
      </trkpt>
      <trkpt lat="45.99745" lon="4.35363">
        <ele>429.49</ele>
        <time>2023-11-14T22:44:05.205Z</time>
      </trkpt>
      <trkpt lat="45.99727" lon="4.35364">
        <ele>430.32</ele>
        <time>2023-11-14T22:44:17.926Z</time>
      </trkpt>
      <trkpt lat="45.99706" lon="4.35354">
        <ele>431.1</ele>
        <time>2023-11-14T22:44:30.651Z</time>
      </trkpt>
      <trkpt lat="45.99691" lon="4.35335">
        <ele>431.61</ele>
        <time>2023-11-14T22:44:43.379Z</time>
      </trkpt>
      <trkpt lat="45.99636" lon="4.35231">
        <ele>431.15</ele>
        <time>2023-11-14T22:44:56.121Z</time>
      </trkpt>
      <trkpt lat="45.99614" lon="4.35207">
        <ele>430.45</ele>
        <time>2023-11-14T22:45:08.868Z</time>
      </trkpt>
      <trkpt lat="45.99575" lon="4.35175">
        <ele>429.06</ele>
        <time>2023-11-14T22:45:21.622Z</time>
      </trkpt>
      <trkpt lat="45.99554" lon="4.35153">
        <ele>427.46</ele>
        <time>2023-11-14T22:45:34.380Z</time>
      </trkpt>
      <trkpt lat="45.99513" lon="4.35083">
        <ele>425.79</ele>
        <time>2023-11-14T22:45:47.148Z</time>
      </trkpt>
      <trkpt lat="45.99492" lon="4.35061">
        <ele>424.37</ele>
        <time>2023-11-14T22:45:59.921Z</time>
      </trkpt>
      <trkpt lat="45.99416" lon="4.35003">
        <ele>422.29</ele>
        <time>2023-11-14T22:46:12.707Z</time>
      </trkpt>
      <trkpt lat="45.99286" lon="4.34905">
        <ele>420.95</ele>
        <time>2023-11-14T22:46:25.517Z</time>
      </trkpt>
      <trkpt lat="45.99255" lon="4.34878">
        <ele>420.21</ele>
        <time>2023-11-14T22:46:38.333Z</time>
      </trkpt>
      <trkpt lat="45.99237" lon="4.34857">
        <ele>419.26</ele>
        <time>2023-11-14T22:46:51.152Z</time>
      </trkpt>
      <trkpt lat="45.99222" lon="4.34833">
        <ele>418.27</ele>
        <time>2023-11-14T22:47:03.975Z</time>
      </trkpt>
      <trkpt lat="45.9921" lon="4.34805">
        <ele>417.59</ele>
        <time>2023-11-14T22:47:16.802Z</time>
      </trkpt>
      <trkpt lat="45.99196" lon="4.34766">
        <ele>417.44</ele>
        <time>2023-11-14T22:47:29.634Z</time>
      </trkpt>
      <trkpt lat="45.99167" lon="4.34649">
        <ele>416.96</ele>
        <time>2023-11-14T22:47:42.479Z</time>
      </trkpt>
      <trkpt lat="45.99156" lon="4.34617">
        <ele>416.5</ele>
        <time>2023-11-14T22:47:55.328Z</time>
      </trkpt>
      <trkpt lat="45.99122" lon="4.34535">
        <ele>416.38</ele>
        <time>2023-11-14T22:48:08.188Z</time>
      </trkpt>
      <trkpt lat="45.99103" lon="4.34504">
        <ele>416.48</ele>
        <time>2023-11-14T22:48:21.053Z</time>
      </trkpt>
      <trkpt lat="45.99082" lon="4.34476">
        <ele>416.61</ele>
        <time>2023-11-14T22:48:33.922Z</time>
      </trkpt>
      <trkpt lat="45.99064" lon="4.34456">
        <ele>416.92</ele>
        <time>2023-11-14T22:48:46.795Z</time>
      </trkpt>
      <trkpt lat="45.99026" lon="4.34433">
        <ele>417.51</ele>
        <time>2023-11-14T22:48:59.674Z</time>
      </trkpt>
      <trkpt lat="45.99007" lon="4.34427">
        <ele>418.06</ele>
        <time>2023-11-14T22:49:12.557Z</time>
      </trkpt>
      <trkpt lat="45.98981" lon="4.34427">
        <ele>418.73</ele>
        <time>2023-11-14T22:49:25.444Z</time>
      </trkpt>
      <trkpt lat="45.98764" lon="4.34452">
        <ele>419.88</ele>
        <time>2023-11-14T22:49:38.365Z</time>
      </trkpt>
      <trkpt lat="45.98748" lon="4.3445">
        <ele>420.49</ele>
        <time>2023-11-14T22:49:51.289Z</time>
      </trkpt>
      <trkpt lat="45.98748" lon="4.3445">
        <ele>421.02</ele>
        <time>2023-11-14T22:50:04.213Z</time>
      </trkpt>
      <trkpt lat="45.98666" lon="4.34385">
        <ele>421.44</ele>
        <time>2023-11-14T22:50:17.152Z</time>
      </trkpt>
      <trkpt lat="45.98667" lon="4.3438">
        <ele>421.78</ele>
        <time>2023-11-14T22:50:30.092Z</time>
      </trkpt>
      <trkpt lat="45.98667" lon="4.3437">
        <ele>422.02</ele>
        <time>2023-11-14T22:50:43.033Z</time>
      </trkpt>
      <trkpt lat="45.98665" lon="4.34366">
        <ele>422.23</ele>
        <time>2023-11-14T22:50:55.974Z</time>
      </trkpt>
      <trkpt lat="45.98658" lon="4.34359">
        <ele>422.34</ele>
        <time>2023-11-14T22:51:08.917Z</time>
      </trkpt>
      <trkpt lat="45.98655" lon="4.34359">
        <ele>422.42</ele>
        <time>2023-11-14T22:51:21.860Z</time>
      </trkpt>
      <trkpt lat="45.98648" lon="4.34363">
        <ele>422.42</ele>
        <time>2023-11-14T22:51:34.804Z</time>
      </trkpt>
      <trkpt lat="45.98645" lon="4.3437">
        <ele>422.3</ele>
        <time>2023-11-14T22:51:47.749Z</time>
      </trkpt>
      <trkpt lat="45.98593" lon="4.34336">
        <ele>421.97</ele>
        <time>2023-11-14T22:52:00.704Z</time>
      </trkpt>
      <trkpt lat="45.98496" lon="4.34267">
        <ele>421.66</ele>
        <time>2023-11-14T22:52:13.676Z</time>
      </trkpt>
      <trkpt lat="45.98456" lon="4.34226">
        <ele>420.79</ele>
        <time>2023-11-14T22:52:26.656Z</time>
      </trkpt>
      <trkpt lat="45.98366" lon="4.34088">
        <ele>419.66</ele>
        <time>2023-11-14T22:52:39.657Z</time>
      </trkpt>
      <trkpt lat="45.98329" lon="4.34029">
        <ele>418.58</ele>
        <time>2023-11-14T22:52:52.667Z</time>
      </trkpt>
      <trkpt lat="45.98318" lon="4.33995">
        <ele>418.16</ele>
        <time>2023-11-14T22:53:05.681Z</time>
      </trkpt>
      <trkpt lat="45.98312" lon="4.33962">
        <ele>417.97</ele>
        <time>2023-11-14T22:53:18.699Z</time>
      </trkpt>
      <trkpt lat="45.98312" lon="4.33916">
        <ele>417.77</ele>
        <time>2023-11-14T22:53:31.722Z</time>
      </trkpt>
      <trkpt lat="45.98312" lon="4.33916">
        <ele>417.65</ele>
        <time>2023-11-14T22:53:44.745Z</time>
      </trkpt>
      <trkpt lat="45.98312" lon="4.33898">
        <ele>417.74</ele>
        <time>2023-11-14T22:53:57.770Z</time>
      </trkpt>
      <trkpt lat="45.98302" lon="4.33834">
        <ele>418.18</ele>
        <time>2023-11-14T22:54:10.802Z</time>
      </trkpt>
      <trkpt lat="45.98292" lon="4.33786">
        <ele>418.07</ele>
        <time>2023-11-14T22:54:23.840Z</time>
      </trkpt>
      <trkpt lat="45.98292" lon="4.33786">
        <ele>417.76</ele>
        <time>2023-11-14T22:54:36.878Z</time>
      </trkpt>
      <trkpt lat="45.98288" lon="4.33769">
        <ele>417.6</ele>
        <time>2023-11-14T22:54:49.918Z</time>
      </trkpt>
      <trkpt lat="45.98262" lon="4.3371">
        <ele>417.72</ele>
        <time>2023-11-14T22:55:02.965Z</time>
      </trkpt>
      <trkpt lat="45.98214" lon="4.33644">
        <ele>418.55</ele>
        <time>2023-11-14T22:55:16.023Z</time>
      </trkpt>
      <trkpt lat="45.98214" lon="4.33644">
        <ele>418.89</ele>
        <time>2023-11-14T22:55:29.081Z</time>
      </trkpt>
      <trkpt lat="45.98206" lon="4.33635">
        <ele>419.07</ele>
        <time>2023-11-14T22:55:42.141Z</time>
      </trkpt>
      <trkpt lat="45.98196" lon="4.3362">
        <ele>419.11</ele>
        <time>2023-11-14T22:55:55.203Z</time>
      </trkpt>
      <trkpt lat="45.98186" lon="4.336">
        <ele>419.07</ele>
        <time>2023-11-14T22:56:08.268Z</time>
      </trkpt>
      <trkpt lat="45.98168" lon="4.33554">
        <ele>419.01</ele>
        <time>2023-11-14T22:56:21.339Z</time>
      </trkpt>
      <trkpt lat="45.98141" lon="4.33456">
        <ele>418.81</ele>
        <time>2023-11-14T22:56:34.421Z</time>
      </trkpt>
      <trkpt lat="45.98139" lon="4.33435">
        <ele>418.97</ele>
        <time>2023-11-14T22:56:47.506Z</time>
      </trkpt>
      <trkpt lat="45.9814" lon="4.33416">
        <ele>419.35</ele>
        <time>2023-11-14T22:57:00.593Z</time>
      </trkpt>
      <trkpt lat="45.98133" lon="4.33414">
        <ele>420.13</ele>
        <time>2023-11-14T22:57:13.681Z</time>
      </trkpt>
      <trkpt lat="45.98112" lon="4.33397">
        <ele>421.29</ele>
        <time>2023-11-14T22:57:26.773Z</time>
      </trkpt>
      <trkpt lat="45.981" lon="4.33381">
        <ele>422.68</ele>
        <time>2023-11-14T22:57:39.867Z</time>
      </trkpt>
      <trkpt lat="45.98078" lon="4.33333">
        <ele>424.41</ele>
        <time>2023-11-14T22:57:52.968Z</time>
      </trkpt>
      <trkpt lat="45.98054" lon="4.33288">
        <ele>426.8</ele>
        <time>2023-11-14T22:58:06.075Z</time>
      </trkpt>
      <trkpt lat="45.98054" lon="4.33288">
        <ele>428.88</ele>
        <time>2023-11-14T22:58:19.182Z</time>
      </trkpt>
      <trkpt lat="45.98033" lon="4.33242">
        <ele>431.26</ele>
        <time>2023-11-14T22:58:32.295Z</time>
      </trkpt>
      <trkpt lat="45.97996" lon="4.33189">
        <ele>434.04</ele>
        <time>2023-11-14T22:58:45.417Z</time>
      </trkpt>
      <trkpt lat="45.97934" lon="4.33119">
        <ele>436.71</ele>
        <time>2023-11-14T22:58:58.551Z</time>
      </trkpt>
      <trkpt lat="45.97916" lon="4.33103">
        <ele>438.93</ele>
        <time>2023-11-14T22:59:11.689Z</time>
      </trkpt>
      <trkpt lat="45.97889" lon="4.3309">
        <ele>440.94</ele>
        <time>2023-11-14T22:59:24.831Z</time>
      </trkpt>
      <trkpt lat="45.97835" lon="4.3308">
        <ele>443</ele>
        <time>2023-11-14T22:59:37.982Z</time>
      </trkpt>
      <trkpt lat="45.97803" lon="4.33082">
        <ele>444.38</ele>
        <time>2023-11-14T22:59:51.138Z</time>
      </trkpt>
      <trkpt lat="45.97777" lon="4.33092">
        <ele>445.12</ele>
        <time>2023-11-14T23:00:04.298Z</time>
      </trkpt>
      <trkpt lat="45.9776" lon="4.33111">
        <ele>445.26</ele>
        <time>2023-11-14T23:00:17.462Z</time>
      </trkpt>
      <trkpt lat="45.97744" lon="4.33129">
        <ele>445.07</ele>
        <time>2023-11-14T23:00:30.629Z</time>
      </trkpt>
      <trkpt lat="45.97734" lon="4.33155">
        <ele>444.31</ele>
        <time>2023-11-14T23:00:43.799Z</time>
      </trkpt>
      <trkpt lat="45.97734" lon="4.33155">
        <ele>443.61</ele>
        <time>2023-11-14T23:00:56.969Z</time>
      </trkpt>
      <trkpt lat="45.97724" lon="4.33191">
        <ele>442.29</ele>
        <time>2023-11-14T23:01:10.144Z</time>
      </trkpt>
      <trkpt lat="45.97724" lon="4.33205">
        <ele>439.79</ele>
        <time>2023-11-14T23:01:23.320Z</time>
      </trkpt>
      <trkpt lat="45.97724" lon="4.33225">
        <ele>438.29</ele>
        <time>2023-11-14T23:01:36.499Z</time>
      </trkpt>
      <trkpt lat="45.97728" lon="4.33249">
        <ele>436.75</ele>
        <time>2023-11-14T23:01:49.680Z</time>
      </trkpt>
      <trkpt lat="45.97735" lon="4.33297">
        <ele>435.06</ele>
        <time>2023-11-14T23:02:02.867Z</time>
      </trkpt>
      <trkpt lat="45.97735" lon="4.33326">
        <ele>433.61</ele>
        <time>2023-11-14T23:02:16.057Z</time>
      </trkpt>
      <trkpt lat="45.97729" lon="4.33356">
        <ele>432.23</ele>
        <time>2023-11-14T23:02:29.251Z</time>
      </trkpt>
      <trkpt lat="45.9772" lon="4.33377">
        <ele>431.12</ele>
        <time>2023-11-14T23:02:42.447Z</time>
      </trkpt>
      <trkpt lat="45.97705" lon="4.33399">
        <ele>430.21</ele>
        <time>2023-11-14T23:02:55.647Z</time>
      </trkpt>
      <trkpt lat="45.97694" lon="4.33409">
        <ele>429.72</ele>
        <time>2023-11-14T23:03:08.849Z</time>
      </trkpt>
      <trkpt lat="45.9767" lon="4.33421">
        <ele>429.58</ele>
        <time>2023-11-14T23:03:22.055Z</time>
      </trkpt>
      <trkpt lat="45.9764" lon="4.33416">
        <ele>429.67</ele>
        <time>2023-11-14T23:03:35.266Z</time>
      </trkpt>
      <trkpt lat="45.97636" lon="4.33411">
        <ele>429.56</ele>
        <time>2023-11-14T23:03:48.478Z</time>
      </trkpt>
      <trkpt lat="45.9763" lon="4.33411">
        <ele>429.64</ele>
        <time>2023-11-14T23:04:01.691Z</time>
      </trkpt>
      <trkpt lat="45.9763" lon="4.33411">
        <ele>429.85</ele>
        <time>2023-11-14T23:04:14.904Z</time>
      </trkpt>
      <trkpt lat="45.97626" lon="4.33416">
        <ele>430.31</ele>
        <time>2023-11-14T23:04:28.117Z</time>
      </trkpt>
      <trkpt lat="45.97624" lon="4.33419">
        <ele>430.88</ele>
        <time>2023-11-14T23:04:41.331Z</time>
      </trkpt>
      <trkpt lat="45.97587" lon="4.33403">
        <ele>431.63</ele>
        <time>2023-11-14T23:04:54.551Z</time>
      </trkpt>
    </trkseg>
  </trk>
</gpx>